Wetterdaten: Donnerstag, 04.05.2017
Datum Zeit Temp. A. Temp. A. max Feuchte A. Luftdruck Regen Wind Richtung Richtung Sonnenschein ET UV Solar Taupunkt Windchill Windböen
04.05.2017 00:00 5,1 °C 5,1 °C 94 % 1015,7 hPa 0,0 mm 0,0 km/h (0 Bft) SW 230 ° 0 min 0,000 mm 0,0 UV-I 0 W/m² 4,2 °C 5,1 °C 0,0 km/h (0 Bft)
04.05.2017 00:01 5,1 °C 5,1 °C 94 % 1015,7 hPa 0,0 mm 0,0 km/h (0 Bft) SW 230 ° 0 min 0,000 mm 0,0 UV-I 0 W/m² 4,2 °C 5,1 °C 0,0 km/h (0 Bft)
04.05.2017 00:02 5,0 °C 5,1 °C 94 % 1015,7 hPa 0,0 mm 0,0 km/h (0 Bft) SW 230 ° 0 min 0,000 mm 0,0 UV-I 0 W/m² 4,1 °C 5,0 °C 0,0 km/h (0 Bft)
04.05.2017 00:03 5,0 °C 5,0 °C 94 % 1015,7 hPa 0,0 mm 0,0 km/h (0 Bft) SW 230 ° 0 min 0,000 mm 0,0 UV-I 0 W/m² 4,1 °C 5,0 °C 0,0 km/h (0 Bft)
04.05.2017 00:04 4,9 °C 5,0 °C 94 % 1015,7 hPa 0,0 mm 0,0 km/h (0 Bft) SW 230 ° 0 min 0,000 mm 0,0 UV-I 0 W/m² 4,0 °C 4,9 °C 0,0 km/h (0 Bft)
04.05.2017 00:05 4,9 °C 5,0 °C 94 % 1015,7 hPa 0,0 mm 0,0 km/h (0 Bft) SW 230 ° 0 min 0,000 mm 0,0 UV-I 0 W/m² 4,0 °C 4,9 °C 0,0 km/h (0 Bft)
04.05.2017 00:06 4,9 °C 4,9 °C 94 % 1015,7 hPa 0,0 mm 0,0 km/h (0 Bft) SW 230 ° 0 min 0,000 mm 0,0 UV-I 0 W/m² 4,0 °C 4,9 °C 0,0 km/h (0 Bft)
04.05.2017 00:07 4,9 °C 4,9 °C 94 % 1015,6 hPa 0,0 mm 0,0 km/h (0 Bft) SW 230 ° 0 min 0,000 mm 0,0 UV-I 0 W/m² 4,0 °C 4,9 °C 0,0 km/h (0 Bft)
04.05.2017 00:08 4,9 °C 4,9 °C 94 % 1015,6 hPa 0,0 mm 0,0 km/h (0 Bft) SW 230 ° 0 min 0,000 mm 0,0 UV-I 0 W/m² 4,0 °C 4,9 °C 0,0 km/h (0 Bft)
04.05.2017 00:09 4,9 °C 4,9 °C 94 % 1015,6 hPa 0,0 mm 0,0 km/h (0 Bft) SW 230 ° 0 min 0,000 mm 0,0 UV-I 0 W/m² 4,0 °C 4,9 °C 0,0 km/h (0 Bft)
04.05.2017 00:10 4,9 °C 4,9 °C 94 % 1015,6 hPa 0,0 mm 0,0 km/h (0 Bft) SW 230 ° 0 min 0,000 mm 0,0 UV-I 0 W/m² 4,0 °C 4,9 °C 0,0 km/h (0 Bft)
04.05.2017 00:11 4,9 °C 4,9 °C 94 % 1015,5 hPa 0,0 mm 0,0 km/h (0 Bft) SW 230 ° 0 min 0,000 mm 0,0 UV-I 0 W/m² 4,0 °C 4,9 °C 0,0 km/h (0 Bft)
04.05.2017 00:12 4,9 °C 4,9 °C 94 % 1015,5 hPa 0,0 mm 0,0 km/h (0 Bft) SW 230 ° 0 min 0,000 mm 0,0 UV-I 0 W/m² 4,0 °C 4,9 °C 0,0 km/h (0 Bft)
04.05.2017 00:13 4,9 °C 4,9 °C 94 % 1015,6 hPa 0,0 mm 0,0 km/h (0 Bft) SW 230 ° 0 min 0,000 mm 0,0 UV-I 0 W/m² 4,0 °C 4,9 °C 0,0 km/h (0 Bft)
04.05.2017 00:14 4,9 °C 4,9 °C 94 % 1015,5 hPa 0,0 mm 0,0 km/h (0 Bft) SW 230 ° 0 min 0,000 mm 0,0 UV-I 0 W/m² 4,0 °C 4,9 °C 0,0 km/h (0 Bft)
04.05.2017 00:15 4,9 °C 4,9 °C 94 % 1015,5 hPa 0,0 mm 0,0 km/h (0 Bft) SW 230 ° 0 min 0,000 mm 0,0 UV-I 0 W/m² 4,0 °C 4,9 °C 0,0 km/h (0 Bft)
04.05.2017 00:16 5,0 °C 5,0 °C 94 % 1015,5 hPa 0,0 mm 0,0 km/h (0 Bft) SW 230 ° 0 min 0,000 mm 0,0 UV-I 0 W/m² 4,1 °C 5,0 °C 0,0 km/h (0 Bft)
04.05.2017 00:17 5,1 °C 5,1 °C 94 % 1015,5 hPa 0,0 mm 1,4 km/h (1 Bft) SW 230 ° 0 min 0,000 mm 0,0 UV-I 0 W/m² 4,2 °C 5,1 °C 3,2 km/h (1 Bft)
04.05.2017 00:18 5,1 °C 5,1 °C 94 % 1015,5 hPa 0,0 mm 1,3 km/h (1 Bft) SW 230 ° 0 min 0,000 mm 0,0 UV-I 0 W/m² 4,2 °C 5,1 °C 3,2 km/h (1 Bft)
04.05.2017 00:19 5,1 °C 5,2 °C 94 % 1015,5 hPa 0,0 mm 0,3 km/h (0 Bft) SW 230 ° 0 min 0,000 mm 0,0 UV-I 0 W/m² 4,2 °C 5,1 °C 1,6 km/h (1 Bft)
04.05.2017 00:20 5,2 °C 5,2 °C 94 % 1015,5 hPa 0,0 mm 1,1 km/h (1 Bft) SW 230 ° 0 min 0,000 mm 0,0 UV-I 0 W/m² 4,3 °C 5,2 °C 1,6 km/h (1 Bft)
04.05.2017 00:21 5,1 °C 5,2 °C 94 % 1015,5 hPa 0,0 mm 0,7 km/h (0 Bft) SW 230 ° 0 min 0,000 mm 0,0 UV-I 0 W/m² 4,2 °C 5,1 °C 1,6 km/h (1 Bft)
04.05.2017 00:22 5,2 °C 5,2 °C 94 % 1015,5 hPa 0,0 mm 1,4 km/h (1 Bft) SW 230 ° 0 min 0,000 mm 0,0 UV-I 0 W/m² 4,3 °C 5,2 °C 3,2 km/h (1 Bft)
04.05.2017 00:23 5,2 °C 5,2 °C 94 % 1015,5 hPa 0,0 mm 3,9 km/h (1 Bft) SW 223 ° 0 min 0,000 mm 0,0 UV-I 0 W/m² 4,3 °C 5,2 °C 6,4 km/h (2 Bft)
04.05.2017 00:24 5,3 °C 5,3 °C 94 % 1015,5 hPa 0,0 mm 4,1 km/h (1 Bft) S-SW 212 ° 0 min 0,000 mm 0,0 UV-I 0 W/m² 4,4 °C 5,3 °C 6,4 km/h (2 Bft)
04.05.2017 00:25 5,3 °C 5,3 °C 94 % 1015,5 hPa 0,0 mm 3,0 km/h (1 Bft) S-SW 199 ° 0 min 0,000 mm 0,0 UV-I 0 W/m² 4,4 °C 5,3 °C 6,4 km/h (2 Bft)
04.05.2017 00:26 5,3 °C 5,3 °C 94 % 1015,5 hPa 0,0 mm 2,0 km/h (1 Bft) S-SW 199 ° 0 min 0,000 mm 0,0 UV-I 0 W/m² 4,4 °C 5,3 °C 3,2 km/h (1 Bft)
04.05.2017 00:27 5,4 °C 5,4 °C 94 % 1015,5 hPa 0,0 mm 4,0 km/h (1 Bft) S 177 ° 0 min 0,000 mm 0,0 UV-I 0 W/m² 4,5 °C 5,4 °C 4,8 km/h (1 Bft)
04.05.2017 00:28 5,4 °C 5,4 °C 94 % 1015,5 hPa 0,0 mm 2,4 km/h (1 Bft) S 177 ° 0 min 0,000 mm 0,0 UV-I 0 W/m² 4,5 °C 5,4 °C 3,2 km/h (1 Bft)
04.05.2017 00:29 5,4 °C 5,4 °C 94 % 1015,5 hPa 0,0 mm 2,0 km/h (1 Bft) S 178 ° 0 min 0,000 mm 0,0 UV-I 0 W/m² 4,5 °C 5,4 °C 3,2 km/h (1 Bft)
04.05.2017 00:30 5,4 °C 5,4 °C 94 % 1015,5 hPa 0,0 mm 2,5 km/h (1 Bft) SO 144 ° 0 min 0,000 mm 0,0 UV-I 0 W/m² 4,5 °C 5,4 °C 4,8 km/h (1 Bft)
04.05.2017 00:31 5,4 °C 5,4 °C 94 % 1015,5 hPa 0,0 mm 0,0 km/h (0 Bft) SO 144 ° 0 min 0,000 mm 0,0 UV-I 0 W/m² 4,5 °C 5,4 °C 0,0 km/h (0 Bft)
04.05.2017 00:32 5,3 °C 5,4 °C 94 % 1015,4 hPa 0,0 mm 0,0 km/h (0 Bft) SO 144 ° 0 min 0,000 mm 0,0 UV-I 0 W/m² 4,4 °C 5,3 °C 0,0 km/h (0 Bft)
04.05.2017 00:33 5,3 °C 5,3 °C 94 % 1015,5 hPa 0,0 mm 0,0 km/h (0 Bft) SO 144 ° 0 min 0,000 mm 0,0 UV-I 0 W/m² 4,4 °C 5,3 °C 0,0 km/h (0 Bft)
04.05.2017 00:34 5,3 °C 5,3 °C 94 % 1015,5 hPa 0,0 mm 2,4 km/h (1 Bft) W-SW 249 ° 0 min 0,000 mm 0,0 UV-I 0 W/m² 4,4 °C 5,3 °C 4,8 km/h (1 Bft)
04.05.2017 00:35 5,3 °C 5,3 °C 94 % 1015,4 hPa 0,0 mm 3,6 km/h (1 Bft) W-SW 249 ° 0 min 0,000 mm 0,0 UV-I 0 W/m² 4,4 °C 5,3 °C 6,4 km/h (2 Bft)
04.05.2017 00:36 5,3 °C 5,3 °C 94 % 1015,4 hPa 0,0 mm 4,0 km/h (1 Bft) SW 233 ° 0 min 0,000 mm 0,0 UV-I 0 W/m² 4,4 °C 5,3 °C 4,8 km/h (1 Bft)
04.05.2017 00:37 5,2 °C 5,3 °C 94 % 1015,4 hPa 0,0 mm 1,7 km/h (1 Bft) SW 233 ° 0 min 0,000 mm 0,0 UV-I 0 W/m² 4,3 °C 5,2 °C 3,2 km/h (1 Bft)
04.05.2017 00:38 5,2 °C 5,3 °C 94 % 1015,5 hPa 0,0 mm 0,1 km/h (0 Bft) SW 233 ° 0 min 0,000 mm 0,0 UV-I 0 W/m² 4,3 °C 5,2 °C 1,6 km/h (1 Bft)
04.05.2017 00:39 5,3 °C 5,3 °C 94 % 1015,5 hPa 0,0 mm 0,0 km/h (0 Bft) SW 233 ° 0 min 0,000 mm 0,0 UV-I 0 W/m² 4,4 °C 5,3 °C 0,0 km/h (0 Bft)
04.05.2017 00:40 5,3 °C 5,3 °C 94 % 1015,5 hPa 0,0 mm 0,0 km/h (0 Bft) SW 233 ° 0 min 0,000 mm 0,0 UV-I 0 W/m² 4,4 °C 5,3 °C 0,0 km/h (0 Bft)
04.05.2017 00:41 5,3 °C 5,3 °C 94 % 1015,5 hPa 0,0 mm 0,0 km/h (0 Bft) SW 233 ° 0 min 0,000 mm 0,0 UV-I 0 W/m² 4,4 °C 5,3 °C 0,0 km/h (0 Bft)
04.05.2017 00:42 5,3 °C 5,3 °C 94 % 1015,5 hPa 0,0 mm 0,0 km/h (0 Bft) SW 233 ° 0 min 0,000 mm 0,0 UV-I 0 W/m² 4,4 °C 5,3 °C 0,0 km/h (0 Bft)
04.05.2017 00:43 5,3 °C 5,3 °C 94 % 1015,5 hPa 0,0 mm 0,1 km/h (0 Bft) S-SO 168 ° 0 min 0,000 mm 0,0 UV-I 0 W/m² 4,4 °C 5,3 °C 1,6 km/h (1 Bft)
04.05.2017 00:44 5,3 °C 5,3 °C 94 % 1015,4 hPa 0,0 mm 0,0 km/h (0 Bft) S-SO 168 ° 0 min 0,000 mm 0,0 UV-I 0 W/m² 4,4 °C 5,3 °C 0,0 km/h (0 Bft)
04.05.2017 00:45 5,2 °C 5,3 °C 94 % 1015,5 hPa 0,0 mm 0,0 km/h (0 Bft) S-SO 168 ° 0 min 0,000 mm 0,0 UV-I 0 W/m² 4,3 °C 5,2 °C 0,0 km/h (0 Bft)
04.05.2017 00:46 5,2 °C 5,2 °C 94 % 1015,5 hPa 0,0 mm 0,1 km/h (0 Bft) S-SO 168 ° 0 min 0,000 mm 0,0 UV-I 0 W/m² 4,3 °C 5,2 °C 1,6 km/h (1 Bft)
04.05.2017 00:47 5,2 °C 5,2 °C 94 % 1015,5 hPa 0,0 mm 0,3 km/h (0 Bft) S-SO 168 ° 0 min 0,000 mm 0,0 UV-I 0 W/m² 4,3 °C 5,2 °C 1,6 km/h (1 Bft)
04.05.2017 00:48 5,2 °C 5,2 °C 94 % 1015,4 hPa 0,0 mm 0,0 km/h (0 Bft) S-SO 168 ° 0 min 0,000 mm 0,0 UV-I 0 W/m² 4,3 °C 5,2 °C 0,0 km/h (0 Bft)
04.05.2017 00:49 5,2 °C 5,2 °C 94 % 1015,4 hPa 0,0 mm 0,0 km/h (0 Bft) S-SO 168 ° 0 min 0,000 mm 0,0 UV-I 0 W/m² 4,3 °C 5,2 °C 0,0 km/h (0 Bft)
04.05.2017 00:50 5,2 °C 5,2 °C 94 % 1015,5 hPa 0,0 mm 0,0 km/h (0 Bft) S-SO 168 ° 0 min 0,000 mm 0,0 UV-I 0 W/m² 4,3 °C 5,2 °C 0,0 km/h (0 Bft)
04.05.2017 00:51 5,2 °C 5,2 °C 94 % 1015,5 hPa 0,0 mm 0,0 km/h (0 Bft) S-SO 168 ° 0 min 0,000 mm 0,0 UV-I 0 W/m² 4,3 °C 5,2 °C 0,0 km/h (0 Bft)
04.05.2017 00:52 5,2 °C 5,2 °C 94 % 1015,5 hPa 0,0 mm 0,0 km/h (0 Bft) S-SO 168 ° 0 min 0,000 mm 0,0 UV-I 0 W/m² 4,3 °C 5,2 °C 0,0 km/h (0 Bft)
04.05.2017 00:53 5,2 °C 5,2 °C 94 % 1015,5 hPa 0,0 mm 0,0 km/h (0 Bft) S-SO 168 ° 0 min 0,000 mm 0,0 UV-I 0 W/m² 4,3 °C 5,2 °C 0,0 km/h (0 Bft)
04.05.2017 00:54 5,2 °C 5,2 °C 94 % 1015,5 hPa 0,0 mm 0,0 km/h (0 Bft) S-SO 168 ° 0 min 0,000 mm 0,0 UV-I 0 W/m² 4,3 °C 5,2 °C 0,0 km/h (0 Bft)
04.05.2017 00:55 5,2 °C 5,2 °C 94 % 1015,5 hPa 0,0 mm 0,0 km/h (0 Bft) S-SO 168 ° 0 min 0,000 mm 0,0 UV-I 0 W/m² 4,3 °C 5,2 °C 0,0 km/h (0 Bft)
04.05.2017 00:56 5,2 °C 5,2 °C 94 % 1015,5 hPa 0,0 mm 0,0 km/h (0 Bft) S-SO 168 ° 0 min 0,000 mm 0,0 UV-I 0 W/m² 4,3 °C 5,2 °C 0,0 km/h (0 Bft)
04.05.2017 00:57 5,2 °C 5,2 °C 94 % 1015,5 hPa 0,0 mm 0,0 km/h (0 Bft) S-SO 168 ° 0 min 0,000 mm 0,0 UV-I 0 W/m² 4,3 °C 5,2 °C 0,0 km/h (0 Bft)
04.05.2017 00:58 5,2 °C 5,2 °C 94 % 1015,5 hPa 0,0 mm 0,0 km/h (0 Bft) S-SO 168 ° 0 min 0,000 mm 0,0 UV-I 0 W/m² 4,3 °C 5,2 °C 0,0 km/h (0 Bft)
04.05.2017 00:59 5,3 °C 5,3 °C 94 % 1015,4 hPa 0,0 mm 0,0 km/h (0 Bft) S-SO 168 ° 0 min 0,000 mm 0,0 UV-I 0 W/m² 4,4 °C 5,3 °C 0,0 km/h (0 Bft)
04.05.2017 01:00 5,3 °C 5,3 °C 94 % 1015,4 hPa 0,0 mm 0,2 km/h (0 Bft) S-SO 168 ° 0 min 0,000 mm 0,0 UV-I 0 W/m² 4,4 °C 5,3 °C 1,6 km/h (1 Bft)
04.05.2017 01:01 5,3 °C 5,3 °C 94 % 1015,4 hPa 0,0 mm 0,3 km/h (0 Bft) S 174 ° 0 min 0,000 mm 0,0 UV-I 0 W/m² 4,4 °C 5,3 °C 1,6 km/h (1 Bft)
04.05.2017 01:02 5,3 °C 5,3 °C 94 % 1015,3 hPa 0,0 mm 0,0 km/h (0 Bft) S 174 ° 0 min 0,000 mm 0,0 UV-I 0 W/m² 4,4 °C 5,3 °C 0,0 km/h (0 Bft)
04.05.2017 01:03 5,3 °C 5,3 °C 94 % 1015,3 hPa 0,0 mm 0,0 km/h (0 Bft) S 174 ° 0 min 0,000 mm 0,0 UV-I 0 W/m² 4,4 °C 5,3 °C 0,0 km/h (0 Bft)
04.05.2017 01:04 5,3 °C 5,3 °C 94 % 1015,4 hPa 0,0 mm 0,0 km/h (0 Bft) S 174 ° 0 min 0,000 mm 0,0 UV-I 0 W/m² 4,4 °C 5,3 °C 0,0 km/h (0 Bft)
04.05.2017 01:05 5,3 °C 5,3 °C 94 % 1015,4 hPa 0,0 mm 0,0 km/h (0 Bft) S 174 ° 0 min 0,000 mm 0,0 UV-I 0 W/m² 4,4 °C 5,3 °C 0,0 km/h (0 Bft)
04.05.2017 01:06 5,3 °C 5,3 °C 94 % 1015,4 hPa 0,0 mm 0,0 km/h (0 Bft) S 174 ° 0 min 0,000 mm 0,0 UV-I 0 W/m² 4,4 °C 5,3 °C 0,0 km/h (0 Bft)
04.05.2017 01:07 5,3 °C 5,3 °C 94 % 1015,4 hPa 0,0 mm 1,1 km/h (1 Bft) S 175 ° 0 min 0,000 mm 0,0 UV-I 0 W/m² 4,4 °C 5,3 °C 1,6 km/h (1 Bft)
04.05.2017 01:08 5,3 °C 5,3 °C 94 % 1015,4 hPa 0,0 mm 2,4 km/h (1 Bft) SW 230 ° 0 min 0,000 mm 0,0 UV-I 0 W/m² 4,4 °C 5,3 °C 4,8 km/h (1 Bft)
04.05.2017 01:09 5,3 °C 5,4 °C 94 % 1015,4 hPa 0,0 mm 3,3 km/h (1 Bft) W-SW 238 ° 0 min 0,000 mm 0,0 UV-I 0 W/m² 4,4 °C 5,3 °C 4,8 km/h (1 Bft)
04.05.2017 01:10 5,3 °C 5,4 °C 94 % 1015,4 hPa 0,0 mm 0,5 km/h (0 Bft) W-SW 238 ° 0 min 0,000 mm 0,0 UV-I 0 W/m² 4,4 °C 5,3 °C 3,2 km/h (1 Bft)
04.05.2017 01:11 5,4 °C 5,4 °C 94 % 1015,4 hPa 0,0 mm 1,1 km/h (1 Bft) W-SW 238 ° 0 min 0,000 mm 0,0 UV-I 0 W/m² 4,5 °C 5,4 °C 3,2 km/h (1 Bft)
04.05.2017 01:12 5,4 °C 5,4 °C 94 % 1015,4 hPa 0,0 mm 0,1 km/h (0 Bft) W-SW 238 ° 0 min 0,000 mm 0,0 UV-I 0 W/m² 4,5 °C 5,4 °C 1,6 km/h (1 Bft)
04.05.2017 01:13 5,4 °C 5,4 °C 94 % 1015,4 hPa 0,0 mm 0,0 km/h (0 Bft) W-SW 238 ° 0 min 0,000 mm 0,0 UV-I 0 W/m² 4,5 °C 5,4 °C 0,0 km/h (0 Bft)
04.05.2017 01:14 5,3 °C 5,4 °C 94 % 1015,4 hPa 0,0 mm 0,0 km/h (0 Bft) W-SW 238 ° 0 min 0,000 mm 0,0 UV-I 0 W/m² 4,4 °C 5,3 °C 0,0 km/h (0 Bft)
04.05.2017 01:15 5,3 °C 5,3 °C 94 % 1015,4 hPa 0,0 mm 0,0 km/h (0 Bft) W-SW 238 ° 0 min 0,000 mm 0,0 UV-I 0 W/m² 4,4 °C 5,3 °C 0,0 km/h (0 Bft)
04.05.2017 01:16 5,3 °C 5,3 °C 94 % 1015,4 hPa 0,0 mm 0,0 km/h (0 Bft) W-SW 238 ° 0 min 0,000 mm 0,0 UV-I 0 W/m² 4,4 °C 5,3 °C 0,0 km/h (0 Bft)
04.05.2017 01:17 5,3 °C 5,3 °C 94 % 1015,4 hPa 0,0 mm 0,0 km/h (0 Bft) W-SW 238 ° 0 min 0,000 mm 0,0 UV-I 0 W/m² 4,4 °C 5,3 °C 0,0 km/h (0 Bft)
04.05.2017 01:18 5,2 °C 5,3 °C 94 % 1015,3 hPa 0,0 mm 0,0 km/h (0 Bft) W-SW 238 ° 0 min 0,000 mm 0,0 UV-I 0 W/m² 4,3 °C 5,2 °C 0,0 km/h (0 Bft)
04.05.2017 01:19 5,2 °C 5,2 °C 94 % 1015,4 hPa 0,0 mm 0,0 km/h (0 Bft) W-SW 238 ° 0 min 0,000 mm 0,0 UV-I 0 W/m² 4,3 °C 5,2 °C 0,0 km/h (0 Bft)
04.05.2017 01:20 5,2 °C 5,2 °C 94 % 1015,4 hPa 0,0 mm 0,0 km/h (0 Bft) W-SW 238 ° 0 min 0,000 mm 0,0 UV-I 0 W/m² 4,3 °C 5,2 °C 0,0 km/h (0 Bft)
04.05.2017 01:21 5,2 °C 5,2 °C 94 % 1015,4 hPa 0,0 mm 0,0 km/h (0 Bft) W-SW 238 ° 0 min 0,000 mm 0,0 UV-I 0 W/m² 4,3 °C 5,2 °C 0,0 km/h (0 Bft)
04.05.2017 01:22 5,1 °C 5,2 °C 94 % 1015,4 hPa 0,0 mm 0,0 km/h (0 Bft) W-SW 238 ° 0 min 0,000 mm 0,0 UV-I 0 W/m² 4,2 °C 5,1 °C 0,0 km/h (0 Bft)
04.05.2017 01:23 5,1 °C 5,2 °C 94 % 1015,4 hPa 0,0 mm 0,0 km/h (0 Bft) W-SW 238 ° 0 min 0,000 mm 0,0 UV-I 0 W/m² 4,2 °C 5,1 °C 0,0 km/h (0 Bft)
04.05.2017 01:24 5,1 °C 5,2 °C 94 % 1015,4 hPa 0,0 mm 0,0 km/h (0 Bft) W-SW 238 ° 0 min 0,000 mm 0,0 UV-I 0 W/m² 4,2 °C 5,1 °C 0,0 km/h (0 Bft)
04.05.2017 01:25 5,1 °C 5,1 °C 94 % 1015,4 hPa 0,0 mm 0,0 km/h (0 Bft) W-SW 238 ° 0 min 0,000 mm 0,0 UV-I 0 W/m² 4,2 °C 5,1 °C 0,0 km/h (0 Bft)
04.05.2017 01:26 5,1 °C 5,1 °C 94 % 1015,3 hPa 0,0 mm 0,0 km/h (0 Bft) W-SW 238 ° 0 min 0,000 mm 0,0 UV-I 0 W/m² 4,2 °C 5,1 °C 0,0 km/h (0 Bft)
04.05.2017 01:27 5,1 °C 5,1 °C 94 % 1015,4 hPa 0,0 mm 0,0 km/h (0 Bft) W-SW 238 ° 0 min 0,000 mm 0,0 UV-I 0 W/m² 4,2 °C 5,1 °C 0,0 km/h (0 Bft)
04.05.2017 01:28 5,1 °C 5,1 °C 94 % 1015,4 hPa 0,0 mm 0,0 km/h (0 Bft) W-SW 238 ° 0 min 0,000 mm 0,0 UV-I 0 W/m² 4,2 °C 5,1 °C 0,0 km/h (0 Bft)
04.05.2017 01:29 5,1 °C 5,1 °C 94 % 1015,4 hPa 0,0 mm 0,0 km/h (0 Bft) W-SW 238 ° 0 min 0,000 mm 0,0 UV-I 0 W/m² 4,2 °C 5,1 °C 0,0 km/h (0 Bft)
04.05.2017 01:30 5,1 °C 5,1 °C 94 % 1015,4 hPa 0,0 mm 0,0 km/h (0 Bft) W-SW 238 ° 0 min 0,000 mm 0,0 UV-I 0 W/m² 4,2 °C 5,1 °C 0,0 km/h (0 Bft)
04.05.2017 01:31 5,1 °C 5,1 °C 94 % 1015,4 hPa 0,0 mm 0,0 km/h (0 Bft) W-SW 238 ° 0 min 0,000 mm 0,0 UV-I 0 W/m² 4,2 °C 5,1 °C 0,0 km/h (0 Bft)
04.05.2017 01:32 5,1 °C 5,1 °C 94 % 1015,3 hPa 0,0 mm 0,0 km/h (0 Bft) W-SW 238 ° 0 min 0,000 mm 0,0 UV-I 0 W/m² 4,2 °C 5,1 °C 0,0 km/h (0 Bft)
04.05.2017 01:33 5,0 °C 5,1 °C 94 % 1015,4 hPa 0,0 mm 0,0 km/h (0 Bft) W-SW 238 ° 0 min 0,000 mm 0,0 UV-I 0 W/m² 4,1 °C 5,0 °C 0,0 km/h (0 Bft)
04.05.2017 01:34 5,0 °C 5,1 °C 94 % 1015,4 hPa 0,0 mm 0,0 km/h (0 Bft) W-SW 238 ° 0 min 0,000 mm 0,0 UV-I 0 W/m² 4,1 °C 5,0 °C 0,0 km/h (0 Bft)
04.05.2017 01:35 5,0 °C 5,0 °C 94 % 1015,4 hPa 0,0 mm 0,0 km/h (0 Bft) W-SW 238 ° 0 min 0,000 mm 0,0 UV-I 0 W/m² 4,1 °C 5,0 °C 0,0 km/h (0 Bft)
04.05.2017 01:36 5,0 °C 5,1 °C 94 % 1015,3 hPa 0,0 mm 0,0 km/h (0 Bft) W-SW 238 ° 0 min 0,000 mm 0,0 UV-I 0 W/m² 4,1 °C 5,0 °C 0,0 km/h (0 Bft)
04.05.2017 01:37 5,0 °C 5,1 °C 94 % 1015,3 hPa 0,0 mm 0,0 km/h (0 Bft) W-SW 238 ° 0 min 0,000 mm 0,0 UV-I 0 W/m² 4,1 °C 5,0 °C 0,0 km/h (0 Bft)
04.05.2017 01:38 5,0 °C 5,0 °C 94 % 1015,3 hPa 0,0 mm 0,0 km/h (0 Bft) W-SW 238 ° 0 min 0,000 mm 0,0 UV-I 0 W/m² 4,1 °C 5,0 °C 0,0 km/h (0 Bft)
04.05.2017 01:39 5,1 °C 5,1 °C 94 % 1015,3 hPa 0,0 mm 0,0 km/h (0 Bft) W-SW 238 ° 0 min 0,000 mm 0,0 UV-I 0 W/m² 4,2 °C 5,1 °C 0,0 km/h (0 Bft)
04.05.2017 01:40 5,1 °C 5,1 °C 94 % 1015,3 hPa 0,0 mm 0,1 km/h (0 Bft) W-SW 238 ° 0 min 0,000 mm 0,0 UV-I 0 W/m² 4,2 °C 5,1 °C 1,6 km/h (1 Bft)
04.05.2017 01:41 5,0 °C 5,1 °C 94 % 1015,3 hPa 0,0 mm 0,2 km/h (0 Bft) W-SW 238 ° 0 min 0,000 mm 0,0 UV-I 0 W/m² 4,1 °C 5,0 °C 1,6 km/h (1 Bft)
04.05.2017 01:42 5,0 °C 5,0 °C 94 % 1015,3 hPa 0,0 mm 0,1 km/h (0 Bft) W-SW 238 ° 0 min 0,000 mm 0,0 UV-I 0 W/m² 4,1 °C 5,0 °C 1,6 km/h (1 Bft)
04.05.2017 01:43 5,1 °C 5,1 °C 94 % 1015,3 hPa 0,0 mm 1,0 km/h (0 Bft) W-SW 238 ° 0 min 0,000 mm 0,0 UV-I 0 W/m² 4,2 °C 5,1 °C 3,2 km/h (1 Bft)
04.05.2017 01:44 5,1 °C 5,1 °C 94 % 1015,3 hPa 0,0 mm 2,1 km/h (1 Bft) W-SW 238 ° 0 min 0,000 mm 0,0 UV-I 0 W/m² 4,2 °C 5,1 °C 4,8 km/h (1 Bft)
04.05.2017 01:45 5,2 °C 5,2 °C 95 % 1015,3 hPa 0,0 mm 2,1 km/h (1 Bft) W-SW 238 ° 0 min 0,000 mm 0,0 UV-I 0 W/m² 4,5 °C 5,2 °C 3,2 km/h (1 Bft)
04.05.2017 01:46 5,2 °C 5,2 °C 95 % 1015,3 hPa 0,0 mm 0,9 km/h (0 Bft) W-SW 238 ° 0 min 0,000 mm 0,0 UV-I 0 W/m² 4,5 °C 5,2 °C 1,6 km/h (1 Bft)
04.05.2017 01:47 5,2 °C 5,2 °C 95 % 1015,3 hPa 0,0 mm 2,0 km/h (1 Bft) W-SW 238 ° 0 min 0,000 mm 0,0 UV-I 0 W/m² 4,5 °C 5,2 °C 4,8 km/h (1 Bft)
04.05.2017 01:48 5,3 °C 5,3 °C 94 % 1015,3 hPa 0,0 mm 2,1 km/h (1 Bft) SW 229 ° 0 min 0,000 mm 0,0 UV-I 0 W/m² 4,4 °C 5,3 °C 6,4 km/h (2 Bft)
04.05.2017 01:49 5,3 °C 5,3 °C 94 % 1015,3 hPa 0,0 mm 4,7 km/h (1 Bft) S-SW 211 ° 0 min 0,000 mm 0,0 UV-I 0 W/m² 4,4 °C 4,5 °C 6,4 km/h (2 Bft)
04.05.2017 01:50 5,4 °C 5,4 °C 94 % 1015,3 hPa 0,0 mm 2,7 km/h (1 Bft) S-SW 200 ° 0 min 0,000 mm 0,0 UV-I 0 W/m² 4,5 °C 5,4 °C 6,4 km/h (2 Bft)
04.05.2017 01:51 5,4 °C 5,4 °C 94 % 1015,3 hPa 0,0 mm 0,6 km/h (0 Bft) S-SW 200 ° 0 min 0,000 mm 0,0 UV-I 0 W/m² 4,5 °C 5,4 °C 1,6 km/h (1 Bft)
04.05.2017 01:52 5,4 °C 5,4 °C 94 % 1015,3 hPa 0,0 mm 0,0 km/h (0 Bft) S-SW 200 ° 0 min 0,000 mm 0,0 UV-I 0 W/m² 4,5 °C 5,4 °C 0,0 km/h (0 Bft)
04.05.2017 01:53 5,4 °C 5,4 °C 94 % 1015,3 hPa 0,0 mm 0,0 km/h (0 Bft) S-SW 200 ° 0 min 0,000 mm 0,0 UV-I 0 W/m² 4,5 °C 5,4 °C 0,0 km/h (0 Bft)
04.05.2017 01:54 5,4 °C 5,4 °C 93 % 1015,3 hPa 0,0 mm 0,0 km/h (0 Bft) S-SW 200 ° 0 min 0,000 mm 0,0 UV-I 0 W/m² 4,4 °C 5,4 °C 0,0 km/h (0 Bft)
04.05.2017 01:55 5,3 °C 5,4 °C 93 % 1015,3 hPa 0,0 mm 0,0 km/h (0 Bft) S-SW 200 ° 0 min 0,000 mm 0,0 UV-I 0 W/m² 4,3 °C 5,3 °C 0,0 km/h (0 Bft)
04.05.2017 01:56 5,3 °C 5,3 °C 93 % 1015,3 hPa 0,0 mm 0,0 km/h (0 Bft) S-SW 200 ° 0 min 0,000 mm 0,0 UV-I 0 W/m² 4,3 °C 5,3 °C 0,0 km/h (0 Bft)
04.05.2017 01:57 5,3 °C 5,3 °C 94 % 1015,3 hPa 0,0 mm 0,0 km/h (0 Bft) S-SW 200 ° 0 min 0,000 mm 0,0 UV-I 0 W/m² 4,4 °C 5,3 °C 0,0 km/h (0 Bft)
04.05.2017 01:58 5,2 °C 5,3 °C 93 % 1015,3 hPa 0,0 mm 0,0 km/h (0 Bft) S-SW 200 ° 0 min 0,000 mm 0,0 UV-I 0 W/m² 4,2 °C 5,2 °C 0,0 km/h (0 Bft)
04.05.2017 01:59 5,1 °C 5,2 °C 93 % 1015,3 hPa 0,0 mm 0,0 km/h (0 Bft) S-SW 200 ° 0 min 0,000 mm 0,0 UV-I 0 W/m² 4,1 °C 5,1 °C 0,0 km/h (0 Bft)
04.05.2017 02:00 5,1 °C 5,1 °C 94 % 1015,3 hPa 0,0 mm 0,0 km/h (0 Bft) S-SW 200 ° 0 min 0,000 mm 0,0 UV-I 0 W/m² 4,2 °C 5,1 °C 0,0 km/h (0 Bft)
04.05.2017 02:01 5,1 °C 5,1 °C 94 % 1015,3 hPa 0,0 mm 0,0 km/h (0 Bft) S-SW 200 ° 0 min 0,000 mm 0,0 UV-I 0 W/m² 4,2 °C 5,1 °C 0,0 km/h (0 Bft)
04.05.2017 02:02 5,0 °C 5,1 °C 94 % 1015,4 hPa 0,0 mm 0,0 km/h (0 Bft) S-SW 200 ° 0 min 0,000 mm 0,0 UV-I 0 W/m² 4,1 °C 5,0 °C 0,0 km/h (0 Bft)
04.05.2017 02:03 4,9 °C 5,0 °C 93 % 1015,4 hPa 0,0 mm 1,1 km/h (1 Bft) S-SW 200 ° 0 min 0,000 mm 0,0 UV-I 0 W/m² 3,9 °C 4,9 °C 3,2 km/h (1 Bft)
04.05.2017 02:04 4,8 °C 4,9 °C 93 % 1015,4 hPa 0,0 mm 0,3 km/h (0 Bft) S-SW 200 ° 0 min 0,000 mm 0,0 UV-I 0 W/m² 3,8 °C 4,8 °C 1,6 km/h (1 Bft)
04.05.2017 02:05 4,8 °C 4,8 °C 93 % 1015,4 hPa 0,0 mm 0,0 km/h (0 Bft) S-SW 200 ° 0 min 0,000 mm 0,0 UV-I 0 W/m² 3,8 °C 4,8 °C 0,0 km/h (0 Bft)
04.05.2017 02:06 4,7 °C 4,8 °C 93 % 1015,3 hPa 0,0 mm 0,0 km/h (0 Bft) S-SW 200 ° 0 min 0,000 mm 0,0 UV-I 0 W/m² 3,7 °C 4,7 °C 0,0 km/h (0 Bft)
04.05.2017 02:07 4,7 °C 4,7 °C 93 % 1015,3 hPa 0,0 mm 0,0 km/h (0 Bft) S-SW 200 ° 0 min 0,000 mm 0,0 UV-I 0 W/m² 3,7 °C 4,7 °C 0,0 km/h (0 Bft)
04.05.2017 02:08 4,6 °C 4,7 °C 93 % 1015,4 hPa 0,0 mm 0,0 km/h (0 Bft) S-SW 200 ° 0 min 0,000 mm 0,0 UV-I 0 W/m² 3,6 °C 4,6 °C 0,0 km/h (0 Bft)
04.05.2017 02:09 4,7 °C 4,7 °C 94 % 1015,4 hPa 0,0 mm 0,0 km/h (0 Bft) S-SW 200 ° 0 min 0,000 mm 0,0 UV-I 0 W/m² 3,8 °C 4,7 °C 0,0 km/h (0 Bft)
04.05.2017 02:10 4,7 °C 4,7 °C 94 % 1015,4 hPa 0,0 mm 0,0 km/h (0 Bft) S-SW 200 ° 0 min 0,000 mm 0,0 UV-I 0 W/m² 3,8 °C 4,7 °C 0,0 km/h (0 Bft)
04.05.2017 02:11 4,7 °C 4,7 °C 94 % 1015,4 hPa 0,0 mm 0,0 km/h (0 Bft) S-SW 200 ° 0 min 0,000 mm 0,0 UV-I 0 W/m² 3,8 °C 4,7 °C 0,0 km/h (0 Bft)
04.05.2017 02:12 4,7 °C 4,7 °C 94 % 1015,4 hPa 0,0 mm 0,0 km/h (0 Bft) S-SW 200 ° 0 min 0,000 mm 0,0 UV-I 0 W/m² 3,8 °C 4,7 °C 0,0 km/h (0 Bft)
04.05.2017 02:13 4,6 °C 4,7 °C 94 % 1015,4 hPa 0,0 mm 0,0 km/h (0 Bft) S-SW 200 ° 0 min 0,000 mm 0,0 UV-I 0 W/m² 3,7 °C 4,6 °C 0,0 km/h (0 Bft)
04.05.2017 02:14 4,6 °C 4,7 °C 94 % 1015,4 hPa 0,0 mm 1,7 km/h (1 Bft) S-SW 200 ° 0 min 0,000 mm 0,0 UV-I 0 W/m² 3,7 °C 4,6 °C 3,2 km/h (1 Bft)
04.05.2017 02:15 4,6 °C 4,6 °C 94 % 1015,4 hPa 0,0 mm 0,8 km/h (0 Bft) S-SW 200 ° 0 min 0,000 mm 0,0 UV-I 0 W/m² 3,7 °C 4,6 °C 1,6 km/h (1 Bft)
04.05.2017 02:16 4,6 °C 4,6 °C 94 % 1015,4 hPa 0,0 mm 1,1 km/h (1 Bft) S-SW 200 ° 0 min 0,000 mm 0,0 UV-I 0 W/m² 3,7 °C 4,6 °C 1,6 km/h (1 Bft)
04.05.2017 02:17 4,6 °C 4,6 °C 94 % 1015,4 hPa 0,0 mm 1,7 km/h (1 Bft) S-SW 200 ° 0 min 0,000 mm 0,0 UV-I 0 W/m² 3,7 °C 4,6 °C 3,2 km/h (1 Bft)
04.05.2017 02:18 4,6 °C 4,6 °C 94 % 1015,4 hPa 0,0 mm 0,1 km/h (0 Bft) S-SW 200 ° 0 min 0,000 mm 0,0 UV-I 0 W/m² 3,7 °C 4,6 °C 1,6 km/h (1 Bft)
04.05.2017 02:19 4,6 °C 4,6 °C 94 % 1015,4 hPa 0,0 mm 0,0 km/h (0 Bft) S-SW 200 ° 0 min 0,000 mm 0,0 UV-I 0 W/m² 3,7 °C 4,6 °C 0,0 km/h (0 Bft)
04.05.2017 02:20 4,6 °C 4,6 °C 94 % 1015,4 hPa 0,0 mm 0,0 km/h (0 Bft) S-SW 200 ° 0 min 0,000 mm 0,0 UV-I 0 W/m² 3,7 °C 4,6 °C 0,0 km/h (0 Bft)
04.05.2017 02:21 4,6 °C 4,6 °C 94 % 1015,4 hPa 0,0 mm 0,0 km/h (0 Bft) S-SW 200 ° 0 min 0,000 mm 0,0 UV-I 0 W/m² 3,7 °C 4,6 °C 0,0 km/h (0 Bft)
04.05.2017 02:22 4,6 °C 4,6 °C 94 % 1015,4 hPa 0,0 mm 0,0 km/h (0 Bft) S-SW 200 ° 0 min 0,000 mm 0,0 UV-I 0 W/m² 3,7 °C 4,6 °C 0,0 km/h (0 Bft)
04.05.2017 02:23 4,5 °C 4,6 °C 93 % 1015,4 hPa 0,0 mm 0,0 km/h (0 Bft) S-SW 200 ° 0 min 0,000 mm 0,0 UV-I 0 W/m² 3,5 °C 4,5 °C 0,0 km/h (0 Bft)
04.05.2017 02:24 4,5 °C 4,5 °C 93 % 1015,4 hPa 0,0 mm 0,0 km/h (0 Bft) S-SW 200 ° 0 min 0,000 mm 0,0 UV-I 0 W/m² 3,5 °C 4,5 °C 0,0 km/h (0 Bft)
04.05.2017 02:25 4,4 °C 4,5 °C 93 % 1015,3 hPa 0,0 mm 0,0 km/h (0 Bft) S-SW 200 ° 0 min 0,000 mm 0,0 UV-I 0 W/m² 3,4 °C 4,4 °C 0,0 km/h (0 Bft)
04.05.2017 02:26 4,4 °C 4,4 °C 93 % 1015,3 hPa 0,0 mm 0,0 km/h (0 Bft) S-SW 200 ° 0 min 0,000 mm 0,0 UV-I 0 W/m² 3,4 °C 4,4 °C 0,0 km/h (0 Bft)
04.05.2017 02:27 4,3 °C 4,4 °C 93 % 1015,3 hPa 0,0 mm 0,0 km/h (0 Bft) S-SW 200 ° 0 min 0,000 mm 0,0 UV-I 0 W/m² 3,3 °C 4,3 °C 0,0 km/h (0 Bft)
04.05.2017 02:28 4,3 °C 4,3 °C 93 % 1015,3 hPa 0,0 mm 0,0 km/h (0 Bft) S-SW 200 ° 0 min 0,000 mm 0,0 UV-I 0 W/m² 3,3 °C 4,3 °C 0,0 km/h (0 Bft)
04.05.2017 02:29 4,3 °C 4,3 °C 94 % 1015,3 hPa 0,0 mm 0,0 km/h (0 Bft) S-SW 200 ° 0 min 0,000 mm 0,0 UV-I 0 W/m² 3,4 °C 4,3 °C 0,0 km/h (0 Bft)
04.05.2017 02:30 4,3 °C 4,3 °C 93 % 1015,3 hPa 0,0 mm 0,0 km/h (0 Bft) S-SW 200 ° 0 min 0,000 mm 0,0 UV-I 0 W/m² 3,3 °C 4,3 °C 0,0 km/h (0 Bft)
04.05.2017 02:31 4,2 °C 4,3 °C 93 % 1015,3 hPa 0,0 mm 0,0 km/h (0 Bft) S-SW 200 ° 0 min 0,000 mm 0,0 UV-I 0 W/m² 3,2 °C 4,2 °C 0,0 km/h (0 Bft)
04.05.2017 02:32 4,2 °C 4,2 °C 94 % 1015,3 hPa 0,0 mm 0,0 km/h (0 Bft) S-SW 200 ° 0 min 0,000 mm 0,0 UV-I 0 W/m² 3,3 °C 4,2 °C 0,0 km/h (0 Bft)
04.05.2017 02:33 4,2 °C 4,2 °C 94 % 1015,3 hPa 0,0 mm 0,0 km/h (0 Bft) S-SW 200 ° 0 min 0,000 mm 0,0 UV-I 0 W/m² 3,3 °C 4,2 °C 0,0 km/h (0 Bft)
04.05.2017 02:34 4,2 °C 4,2 °C 94 % 1015,3 hPa 0,0 mm 0,0 km/h (0 Bft) S-SW 200 ° 0 min 0,000 mm 0,0 UV-I 0 W/m² 3,3 °C 4,2 °C 0,0 km/h (0 Bft)
04.05.2017 02:35 4,2 °C 4,2 °C 94 % 1015,3 hPa 0,0 mm 0,0 km/h (0 Bft) S-SW 200 ° 0 min 0,000 mm 0,0 UV-I 0 W/m² 3,3 °C 4,2 °C 0,0 km/h (0 Bft)
04.05.2017 02:36 4,2 °C 4,2 °C 94 % 1015,3 hPa 0,0 mm 0,0 km/h (0 Bft) S-SW 200 ° 0 min 0,000 mm 0,0 UV-I 0 W/m² 3,3 °C 4,2 °C 0,0 km/h (0 Bft)
04.05.2017 02:37 4,2 °C 4,2 °C 94 % 1015,3 hPa 0,0 mm 0,0 km/h (0 Bft) S-SW 200 ° 0 min 0,000 mm 0,0 UV-I 0 W/m² 3,3 °C 4,2 °C 0,0 km/h (0 Bft)
04.05.2017 02:38 4,2 °C 4,2 °C 94 % 1015,3 hPa 0,0 mm 0,0 km/h (0 Bft) S-SW 200 ° 0 min 0,000 mm 0,0 UV-I 0 W/m² 3,3 °C 4,2 °C 0,0 km/h (0 Bft)
04.05.2017 02:39 4,1 °C 4,2 °C 94 % 1015,3 hPa 0,0 mm 0,0 km/h (0 Bft) S-SW 200 ° 0 min 0,000 mm 0,0 UV-I 0 W/m² 3,2 °C 4,1 °C 0,0 km/h (0 Bft)
04.05.2017 02:40 4,1 °C 4,1 °C 94 % 1015,3 hPa 0,0 mm 0,0 km/h (0 Bft) S-SW 200 ° 0 min 0,000 mm 0,0 UV-I 0 W/m² 3,2 °C 4,1 °C 0,0 km/h (0 Bft)
04.05.2017 02:41 4,0 °C 4,1 °C 94 % 1015,3 hPa 0,0 mm 0,0 km/h (0 Bft) S-SW 200 ° 0 min 0,000 mm 0,0 UV-I 0 W/m² 3,1 °C 4,0 °C 0,0 km/h (0 Bft)
04.05.2017 02:42 4,0 °C 4,1 °C 94 % 1015,3 hPa 0,0 mm 0,0 km/h (0 Bft) S-SW 200 ° 0 min 0,000 mm 0,0 UV-I 0 W/m² 3,1 °C 4,0 °C 0,0 km/h (0 Bft)
04.05.2017 02:43 4,0 °C 4,0 °C 94 % 1015,3 hPa 0,0 mm 0,0 km/h (0 Bft) S-SW 200 ° 0 min 0,000 mm 0,0 UV-I 0 W/m² 3,1 °C 4,0 °C 0,0 km/h (0 Bft)
04.05.2017 02:44 4,0 °C 4,0 °C 94 % 1015,2 hPa 0,0 mm 0,0 km/h (0 Bft) S-SW 200 ° 0 min 0,000 mm 0,0 UV-I 0 W/m² 3,1 °C 4,0 °C 0,0 km/h (0 Bft)
04.05.2017 02:45 4,0 °C 4,0 °C 94 % 1015,3 hPa 0,0 mm 0,0 km/h (0 Bft) S-SW 200 ° 0 min 0,000 mm 0,0 UV-I 0 W/m² 3,1 °C 4,0 °C 0,0 km/h (0 Bft)
04.05.2017 02:46 4,0 °C 4,0 °C 94 % 1015,2 hPa 0,0 mm 0,0 km/h (0 Bft) S-SW 200 ° 0 min 0,000 mm 0,0 UV-I 0 W/m² 3,1 °C 4,0 °C 0,0 km/h (0 Bft)
04.05.2017 02:47 4,1 °C 4,1 °C 94 % 1015,2 hPa 0,0 mm 0,0 km/h (0 Bft) S-SW 200 ° 0 min 0,000 mm 0,0 UV-I 0 W/m² 3,2 °C 4,1 °C 0,0 km/h (0 Bft)
04.05.2017 02:48 4,0 °C 4,1 °C 94 % 1015,2 hPa 0,0 mm 0,0 km/h (0 Bft) S-SW 200 ° 0 min 0,000 mm 0,0 UV-I 0 W/m² 3,1 °C 4,0 °C 0,0 km/h (0 Bft)
04.05.2017 02:49 4,0 °C 4,0 °C 94 % 1015,2 hPa 0,0 mm 0,0 km/h (0 Bft) S-SW 200 ° 0 min 0,000 mm 0,0 UV-I 0 W/m² 3,1 °C 4,0 °C 0,0 km/h (0 Bft)
04.05.2017 02:50 3,9 °C 4,0 °C 94 % 1015,2 hPa 0,0 mm 0,0 km/h (0 Bft) S-SW 200 ° 0 min 0,000 mm 0,0 UV-I 0 W/m² 3,0 °C 3,9 °C 0,0 km/h (0 Bft)
04.05.2017 02:51 3,9 °C 3,9 °C 94 % 1015,2 hPa 0,0 mm 0,0 km/h (0 Bft) S-SW 200 ° 0 min 0,000 mm 0,0 UV-I 0 W/m² 3,0 °C 3,9 °C 0,0 km/h (0 Bft)
04.05.2017 02:52 3,8 °C 3,9 °C 94 % 1015,2 hPa 0,0 mm 0,0 km/h (0 Bft) S-SW 200 ° 0 min 0,000 mm 0,0 UV-I 0 W/m² 2,9 °C 3,8 °C 0,0 km/h (0 Bft)
04.05.2017 02:53 3,9 °C 3,9 °C 94 % 1015,2 hPa 0,0 mm 0,0 km/h (0 Bft) S-SW 200 ° 0 min 0,000 mm 0,0 UV-I 0 W/m² 3,0 °C 3,9 °C 0,0 km/h (0 Bft)
04.05.2017 02:54 3,9 °C 3,9 °C 94 % 1015,2 hPa 0,0 mm 0,6 km/h (0 Bft) S-SW 200 ° 0 min 0,000 mm 0,0 UV-I 0 W/m² 3,0 °C 3,9 °C 1,6 km/h (1 Bft)
04.05.2017 02:55 3,9 °C 3,9 °C 94 % 1015,2 hPa 0,0 mm 0,0 km/h (0 Bft) S-SW 200 ° 0 min 0,000 mm 0,0 UV-I 0 W/m² 3,0 °C 3,9 °C 0,0 km/h (0 Bft)
04.05.2017 02:56 3,9 °C 3,9 °C 94 % 1015,2 hPa 0,0 mm 0,3 km/h (0 Bft) S-SW 200 ° 0 min 0,000 mm 0,0 UV-I 0 W/m² 3,0 °C 3,9 °C 1,6 km/h (1 Bft)
04.05.2017 02:57 3,9 °C 3,9 °C 94 % 1015,2 hPa 0,0 mm 0,0 km/h (0 Bft) S-SW 200 ° 0 min 0,000 mm 0,0 UV-I 0 W/m² 3,0 °C 3,9 °C 0,0 km/h (0 Bft)
04.05.2017 02:58 3,9 °C 3,9 °C 94 % 1015,2 hPa 0,0 mm 0,0 km/h (0 Bft) S-SW 200 ° 0 min 0,000 mm 0,0 UV-I 0 W/m² 3,0 °C 3,9 °C 0,0 km/h (0 Bft)
04.05.2017 02:59 3,8 °C 3,9 °C 94 % 1015,2 hPa 0,0 mm 0,0 km/h (0 Bft) S-SW 200 ° 0 min 0,000 mm 0,0 UV-I 0 W/m² 2,9 °C 3,8 °C 0,0 km/h (0 Bft)
04.05.2017 03:00 3,8 °C 3,8 °C 94 % 1015,2 hPa 0,0 mm 0,0 km/h (0 Bft) S-SW 200 ° 0 min 0,000 mm 0,0 UV-I 0 W/m² 2,9 °C 3,8 °C 0,0 km/h (0 Bft)
04.05.2017 03:01 3,8 °C 3,8 °C 94 % 1015,2 hPa 0,0 mm 0,0 km/h (0 Bft) S-SW 200 ° 0 min 0,000 mm 0,0 UV-I 0 W/m² 2,9 °C 3,8 °C 0,0 km/h (0 Bft)
04.05.2017 03:02 3,8 °C 3,8 °C 94 % 1015,2 hPa 0,0 mm 0,0 km/h (0 Bft) S-SW 200 ° 0 min 0,000 mm 0,0 UV-I 0 W/m² 2,9 °C 3,8 °C 0,0 km/h (0 Bft)
04.05.2017 03:03 3,6 °C 3,8 °C 94 % 1015,2 hPa 0,0 mm 0,0 km/h (0 Bft) S-SW 200 ° 0 min 0,000 mm 0,0 UV-I 0 W/m² 2,7 °C 3,6 °C 0,0 km/h (0 Bft)
04.05.2017 03:04 3,6 °C 3,6 °C 94 % 1015,2 hPa 0,0 mm 0,0 km/h (0 Bft) S-SW 200 ° 0 min 0,000 mm 0,0 UV-I 0 W/m² 2,7 °C 3,6 °C 0,0 km/h (0 Bft)
04.05.2017 03:05 3,6 °C 3,6 °C 94 % 1015,2 hPa 0,0 mm 0,0 km/h (0 Bft) S-SW 200 ° 0 min 0,000 mm 0,0 UV-I 0 W/m² 2,7 °C 3,6 °C 0,0 km/h (0 Bft)
04.05.2017 03:06 3,6 °C 3,6 °C 94 % 1015,2 hPa 0,0 mm 0,0 km/h (0 Bft) S-SW 200 ° 0 min 0,000 mm 0,0 UV-I 0 W/m² 2,7 °C 3,6 °C 0,0 km/h (0 Bft)
04.05.2017 03:07 3,6 °C 3,6 °C 94 % 1015,2 hPa 0,0 mm 0,0 km/h (0 Bft) S-SW 200 ° 0 min 0,000 mm 0,0 UV-I 0 W/m² 2,7 °C 3,6 °C 0,0 km/h (0 Bft)
04.05.2017 03:08 3,5 °C 3,6 °C 94 % 1015,3 hPa 0,0 mm 0,0 km/h (0 Bft) S-SW 200 ° 0 min 0,000 mm 0,0 UV-I 0 W/m² 2,6 °C 3,5 °C 0,0 km/h (0 Bft)
04.05.2017 03:09 3,4 °C 3,5 °C 94 % 1015,3 hPa 0,0 mm 0,0 km/h (0 Bft) S-SW 200 ° 0 min 0,000 mm 0,0 UV-I 0 W/m² 2,5 °C 3,4 °C 0,0 km/h (0 Bft)
04.05.2017 03:10 3,4 °C 3,4 °C 94 % 1015,2 hPa 0,0 mm 0,0 km/h (0 Bft) S-SW 200 ° 0 min 0,000 mm 0,0 UV-I 0 W/m² 2,5 °C 3,4 °C 0,0 km/h (0 Bft)
04.05.2017 03:11 3,4 °C 3,4 °C 94 % 1015,2 hPa 0,0 mm 0,0 km/h (0 Bft) S-SW 200 ° 0 min 0,000 mm 0,0 UV-I 0 W/m² 2,5 °C 3,4 °C 0,0 km/h (0 Bft)
04.05.2017 03:12 3,4 °C 3,4 °C 94 % 1015,2 hPa 0,0 mm 0,0 km/h (0 Bft) S-SW 200 ° 0 min 0,000 mm 0,0 UV-I 0 W/m² 2,5 °C 3,4 °C 0,0 km/h (0 Bft)
04.05.2017 03:13 3,4 °C 3,4 °C 94 % 1015,3 hPa 0,0 mm 0,0 km/h (0 Bft) S-SW 200 ° 0 min 0,000 mm 0,0 UV-I 0 W/m² 2,5 °C 3,4 °C 0,0 km/h (0 Bft)
04.05.2017 03:14 3,4 °C 3,5 °C 95 % 1015,2 hPa 0,0 mm 0,0 km/h (0 Bft) S-SW 200 ° 0 min 0,000 mm 0,0 UV-I 0 W/m² 2,7 °C 3,4 °C 0,0 km/h (0 Bft)
04.05.2017 03:15 3,4 °C 3,5 °C 94 % 1015,2 hPa 0,0 mm 0,0 km/h (0 Bft) S-SW 200 ° 0 min 0,000 mm 0,0 UV-I 0 W/m² 2,5 °C 3,4 °C 0,0 km/h (0 Bft)
04.05.2017 03:16 3,5 °C 3,5 °C 95 % 1015,2 hPa 0,0 mm 0,0 km/h (0 Bft) S-SW 200 ° 0 min 0,000 mm 0,0 UV-I 0 W/m² 2,8 °C 3,5 °C 0,0 km/h (0 Bft)
04.05.2017 03:17 3,4 °C 3,5 °C 94 % 1015,2 hPa 0,0 mm 0,0 km/h (0 Bft) S-SW 200 ° 0 min 0,000 mm 0,0 UV-I 0 W/m² 2,5 °C 3,4 °C 0,0 km/h (0 Bft)
04.05.2017 03:18 3,4 °C 3,4 °C 94 % 1015,2 hPa 0,0 mm 0,7 km/h (0 Bft) S-SW 200 ° 0 min 0,000 mm 0,0 UV-I 0 W/m² 2,5 °C 3,4 °C 3,2 km/h (1 Bft)
04.05.2017 03:19 3,3 °C 3,4 °C 94 % 1015,2 hPa 0,0 mm 1,0 km/h (0 Bft) S-SW 200 ° 0 min 0,000 mm 0,0 UV-I 0 W/m² 2,4 °C 3,3 °C 3,2 km/h (1 Bft)
04.05.2017 03:20 3,4 °C 3,4 °C 94 % 1015,1 hPa 0,0 mm 0,5 km/h (0 Bft) S-SW 200 ° 0 min 0,000 mm 0,0 UV-I 0 W/m² 2,5 °C 3,4 °C 3,2 km/h (1 Bft)
04.05.2017 03:21 3,4 °C 3,4 °C 94 % 1015,1 hPa 0,0 mm 1,5 km/h (1 Bft) S-SW 200 ° 0 min 0,000 mm 0,0 UV-I 0 W/m² 2,5 °C 3,4 °C 3,2 km/h (1 Bft)
04.05.2017 03:22 3,4 °C 3,4 °C 94 % 1015,2 hPa 0,0 mm 1,2 km/h (1 Bft) S-SW 200 ° 0 min 0,000 mm 0,0 UV-I 0 W/m² 2,5 °C 3,4 °C 3,2 km/h (1 Bft)
04.05.2017 03:23 3,4 °C 3,4 °C 94 % 1015,2 hPa 0,0 mm 2,5 km/h (1 Bft) SW 214 ° 0 min 0,000 mm 0,0 UV-I 0 W/m² 2,5 °C 3,4 °C 4,8 km/h (1 Bft)
04.05.2017 03:24 3,5 °C 3,5 °C 94 % 1015,1 hPa 0,0 mm 0,1 km/h (0 Bft) SW 214 ° 0 min 0,000 mm 0,0 UV-I 0 W/m² 2,6 °C 3,5 °C 1,6 km/h (1 Bft)
04.05.2017 03:25 3,5 °C 3,5 °C 95 % 1015,2 hPa 0,0 mm 0,0 km/h (0 Bft) SW 214 ° 0 min 0,000 mm 0,0 UV-I 0 W/m² 2,8 °C 3,5 °C 0,0 km/h (0 Bft)
04.05.2017 03:26 3,6 °C 3,6 °C 95 % 1015,1 hPa 0,0 mm 0,0 km/h (0 Bft) SW 214 ° 0 min 0,000 mm 0,0 UV-I 0 W/m² 2,9 °C 3,6 °C 0,0 km/h (0 Bft)
04.05.2017 03:27 3,6 °C 3,6 °C 95 % 1015,2 hPa 0,0 mm 0,0 km/h (0 Bft) SW 214 ° 0 min 0,000 mm 0,0 UV-I 0 W/m² 2,9 °C 3,6 °C 0,0 km/h (0 Bft)
04.05.2017 03:28 3,6 °C 3,6 °C 95 % 1015,1 hPa 0,0 mm 0,0 km/h (0 Bft) SW 214 ° 0 min 0,000 mm 0,0 UV-I 0 W/m² 2,9 °C 3,6 °C 0,0 km/h (0 Bft)
04.05.2017 03:29 3,6 °C 3,6 °C 95 % 1015,1 hPa 0,0 mm 0,0 km/h (0 Bft) SW 214 ° 0 min 0,000 mm 0,0 UV-I 0 W/m² 2,9 °C 3,6 °C 0,0 km/h (0 Bft)
04.05.2017 03:30 3,6 °C 3,6 °C 95 % 1015,2 hPa 0,0 mm 0,0 km/h (0 Bft) SW 214 ° 0 min 0,000 mm 0,0 UV-I 0 W/m² 2,9 °C 3,6 °C 0,0 km/h (0 Bft)
04.05.2017 03:31 3,6 °C 3,6 °C 95 % 1015,2 hPa 0,0 mm 0,3 km/h (0 Bft) SW 214 ° 0 min 0,000 mm 0,0 UV-I 0 W/m² 2,9 °C 3,6 °C 1,6 km/h (1 Bft)
04.05.2017 03:32 3,6 °C 3,6 °C 95 % 1015,2 hPa 0,0 mm 0,0 km/h (0 Bft) SW 214 ° 0 min 0,000 mm 0,0 UV-I 0 W/m² 2,9 °C 3,6 °C 0,0 km/h (0 Bft)
04.05.2017 03:33 3,6 °C 3,6 °C 95 % 1015,2 hPa 0,0 mm 0,0 km/h (0 Bft) SW 214 ° 0 min 0,000 mm 0,0 UV-I 0 W/m² 2,9 °C 3,6 °C 0,0 km/h (0 Bft)
04.05.2017 03:34 3,6 °C 3,6 °C 95 % 1015,2 hPa 0,0 mm 0,0 km/h (0 Bft) SW 214 ° 0 min 0,000 mm 0,0 UV-I 0 W/m² 2,9 °C 3,6 °C 0,0 km/h (0 Bft)
04.05.2017 03:35 3,4 °C 3,6 °C 94 % 1015,2 hPa 0,0 mm 0,0 km/h (0 Bft) SW 214 ° 0 min 0,000 mm 0,0 UV-I 0 W/m² 2,5 °C 3,4 °C 0,0 km/h (0 Bft)
04.05.2017 03:36 3,3 °C 3,4 °C 94 % 1015,2 hPa 0,0 mm 0,0 km/h (0 Bft) SW 214 ° 0 min 0,000 mm 0,0 UV-I 0 W/m² 2,4 °C 3,3 °C 0,0 km/h (0 Bft)
04.05.2017 03:37 3,3 °C 3,3 °C 94 % 1015,2 hPa 0,0 mm 0,0 km/h (0 Bft) SW 214 ° 0 min 0,000 mm 0,0 UV-I 0 W/m² 2,4 °C 3,3 °C 0,0 km/h (0 Bft)
04.05.2017 03:38 3,3 °C 3,3 °C 94 % 1015,1 hPa 0,0 mm 0,0 km/h (0 Bft) SW 214 ° 0 min 0,000 mm 0,0 UV-I 0 W/m² 2,4 °C 3,3 °C 0,0 km/h (0 Bft)
04.05.2017 03:39 3,2 °C 3,3 °C 94 % 1015,1 hPa 0,0 mm 0,0 km/h (0 Bft) SW 214 ° 0 min 0,000 mm 0,0 UV-I 0 W/m² 2,3 °C 3,2 °C 0,0 km/h (0 Bft)
04.05.2017 03:40 3,2 °C 3,2 °C 94 % 1015,1 hPa 0,0 mm 0,0 km/h (0 Bft) SW 214 ° 0 min 0,000 mm 0,0 UV-I 0 W/m² 2,3 °C 3,2 °C 0,0 km/h (0 Bft)
04.05.2017 03:41 3,1 °C 3,2 °C 94 % 1015,1 hPa 0,0 mm 0,0 km/h (0 Bft) SW 214 ° 0 min 0,000 mm 0,0 UV-I 0 W/m² 2,2 °C 3,1 °C 0,0 km/h (0 Bft)
04.05.2017 03:42 3,1 °C 3,1 °C 94 % 1015,1 hPa 0,0 mm 0,0 km/h (0 Bft) SW 214 ° 0 min 0,000 mm 0,0 UV-I 0 W/m² 2,2 °C 3,1 °C 0,0 km/h (0 Bft)
04.05.2017 03:43 3,1 °C 3,1 °C 94 % 1015,1 hPa 0,0 mm 0,0 km/h (0 Bft) SW 214 ° 0 min 0,000 mm 0,0 UV-I 0 W/m² 2,2 °C 3,1 °C 0,0 km/h (0 Bft)
04.05.2017 03:44 3,1 °C 3,2 °C 94 % 1015,1 hPa 0,0 mm 0,0 km/h (0 Bft) SW 214 ° 0 min 0,000 mm 0,0 UV-I 0 W/m² 2,2 °C 3,1 °C 0,0 km/h (0 Bft)
04.05.2017 03:45 3,2 °C 3,2 °C 95 % 1015,1 hPa 0,0 mm 0,0 km/h (0 Bft) SW 214 ° 0 min 0,000 mm 0,0 UV-I 0 W/m² 2,5 °C 3,2 °C 0,0 km/h (0 Bft)
04.05.2017 03:46 3,2 °C 3,2 °C 95 % 1015,1 hPa 0,0 mm 0,0 km/h (0 Bft) SW 214 ° 0 min 0,000 mm 0,0 UV-I 0 W/m² 2,5 °C 3,2 °C 0,0 km/h (0 Bft)
04.05.2017 03:47 3,2 °C 3,2 °C 95 % 1015,1 hPa 0,0 mm 0,0 km/h (0 Bft) SW 214 ° 0 min 0,000 mm 0,0 UV-I 0 W/m² 2,5 °C 3,2 °C 0,0 km/h (0 Bft)
04.05.2017 03:48 3,2 °C 3,2 °C 95 % 1015,1 hPa 0,0 mm 0,0 km/h (0 Bft) SW 214 ° 0 min 0,000 mm 0,0 UV-I 0 W/m² 2,5 °C 3,2 °C 0,0 km/h (0 Bft)
04.05.2017 03:49 3,2 °C 3,2 °C 95 % 1015,1 hPa 0,0 mm 0,0 km/h (0 Bft) SW 214 ° 0 min 0,000 mm 0,0 UV-I 0 W/m² 2,5 °C 3,2 °C 0,0 km/h (0 Bft)
04.05.2017 03:50 3,2 °C 3,2 °C 95 % 1015,1 hPa 0,0 mm 0,0 km/h (0 Bft) SW 214 ° 0 min 0,000 mm 0,0 UV-I 0 W/m² 2,5 °C 3,2 °C 0,0 km/h (0 Bft)
04.05.2017 03:51 3,2 °C 3,2 °C 95 % 1015,1 hPa 0,0 mm 0,0 km/h (0 Bft) SW 214 ° 0 min 0,000 mm 0,0 UV-I 0 W/m² 2,5 °C 3,2 °C 0,0 km/h (0 Bft)
04.05.2017 03:52 3,1 °C 3,2 °C 95 % 1015,1 hPa 0,0 mm 0,9 km/h (0 Bft) SW 214 ° 0 min 0,000 mm 0,0 UV-I 0 W/m² 2,4 °C 3,1 °C 3,2 km/h (1 Bft)
04.05.2017 03:53 3,0 °C 3,1 °C 94 % 1015,2 hPa 0,0 mm 2,2 km/h (1 Bft) SW 214 ° 0 min 0,000 mm 0,0 UV-I 0 W/m² 2,1 °C 3,0 °C 3,2 km/h (1 Bft)
04.05.2017 03:54 2,9 °C 3,1 °C 94 % 1015,2 hPa 0,0 mm 1,8 km/h (1 Bft) SW 214 ° 0 min 0,000 mm 0,0 UV-I 0 W/m² 2,0 °C 2,9 °C 3,2 km/h (1 Bft)
04.05.2017 03:55 2,9 °C 2,9 °C 94 % 1015,2 hPa 0,0 mm 1,1 km/h (1 Bft) SW 214 ° 0 min 0,000 mm 0,0 UV-I 0 W/m² 2,0 °C 2,9 °C 1,6 km/h (1 Bft)
04.05.2017 03:56 2,9 °C 3,0 °C 95 % 1015,2 hPa 0,0 mm 0,4 km/h (0 Bft) SW 214 ° 0 min 0,000 mm 0,0 UV-I 0 W/m² 2,2 °C 2,9 °C 1,6 km/h (1 Bft)
04.05.2017 03:57 3,0 °C 3,0 °C 95 % 1015,2 hPa 0,0 mm 0,0 km/h (0 Bft) SW 214 ° 0 min 0,000 mm 0,0 UV-I 0 W/m² 2,3 °C 3,0 °C 0,0 km/h (0 Bft)
04.05.2017 03:58 2,9 °C 3,0 °C 95 % 1015,2 hPa 0,0 mm 0,0 km/h (0 Bft) SW 214 ° 0 min 0,000 mm 0,0 UV-I 0 W/m² 2,2 °C 2,9 °C 0,0 km/h (0 Bft)
04.05.2017 03:59 2,9 °C 2,9 °C 95 % 1015,2 hPa 0,0 mm 0,0 km/h (0 Bft) SW 214 ° 0 min 0,000 mm 0,0 UV-I 0 W/m² 2,2 °C 2,9 °C 0,0 km/h (0 Bft)
04.05.2017 04:00 3,1 °C 3,1 °C 95 % 1015,2 hPa 0,0 mm 0,0 km/h (0 Bft) SW 214 ° 0 min 0,000 mm 0,0 UV-I 0 W/m² 2,4 °C 3,1 °C 0,0 km/h (0 Bft)
04.05.2017 04:01 3,1 °C 3,1 °C 95 % 1015,2 hPa 0,0 mm 0,0 km/h (0 Bft) SW 214 ° 0 min 0,000 mm 0,0 UV-I 0 W/m² 2,4 °C 3,1 °C 0,0 km/h (0 Bft)
04.05.2017 04:02 3,2 °C 3,2 °C 95 % 1015,2 hPa 0,0 mm 0,0 km/h (0 Bft) SW 214 ° 0 min 0,000 mm 0,0 UV-I 0 W/m² 2,5 °C 3,2 °C 0,0 km/h (0 Bft)
04.05.2017 04:03 3,2 °C 3,3 °C 95 % 1015,3 hPa 0,0 mm 0,0 km/h (0 Bft) SW 214 ° 0 min 0,000 mm 0,0 UV-I 0 W/m² 2,5 °C 3,2 °C 0,0 km/h (0 Bft)
04.05.2017 04:04 3,3 °C 3,3 °C 95 % 1015,3 hPa 0,0 mm 0,0 km/h (0 Bft) SW 214 ° 0 min 0,000 mm 0,0 UV-I 0 W/m² 2,6 °C 3,3 °C 0,0 km/h (0 Bft)
04.05.2017 04:05 3,3 °C 3,3 °C 95 % 1015,3 hPa 0,0 mm 0,0 km/h (0 Bft) SW 214 ° 0 min 0,000 mm 0,0 UV-I 0 W/m² 2,6 °C 3,3 °C 0,0 km/h (0 Bft)
04.05.2017 04:06 3,3 °C 3,3 °C 95 % 1015,3 hPa 0,0 mm 0,0 km/h (0 Bft) SW 214 ° 0 min 0,000 mm 0,0 UV-I 0 W/m² 2,6 °C 3,3 °C 0,0 km/h (0 Bft)
04.05.2017 04:07 3,3 °C 3,3 °C 95 % 1015,3 hPa 0,0 mm 0,0 km/h (0 Bft) SW 214 ° 0 min 0,000 mm 0,0 UV-I 0 W/m² 2,6 °C 3,3 °C 0,0 km/h (0 Bft)
04.05.2017 04:08 3,4 °C 3,4 °C 95 % 1015,3 hPa 0,0 mm 0,0 km/h (0 Bft) SW 214 ° 0 min 0,000 mm 0,0 UV-I 0 W/m² 2,7 °C 3,4 °C 0,0 km/h (0 Bft)
04.05.2017 04:09 3,4 °C 3,4 °C 95 % 1015,3 hPa 0,0 mm 0,0 km/h (0 Bft) SW 214 ° 0 min 0,000 mm 0,0 UV-I 0 W/m² 2,7 °C 3,4 °C 0,0 km/h (0 Bft)
04.05.2017 04:10 3,4 °C 3,4 °C 95 % 1015,3 hPa 0,0 mm 0,0 km/h (0 Bft) SW 214 ° 0 min 0,000 mm 0,0 UV-I 0 W/m² 2,7 °C 3,4 °C 0,0 km/h (0 Bft)
04.05.2017 04:11 3,3 °C 3,4 °C 95 % 1015,2 hPa 0,0 mm 0,0 km/h (0 Bft) SW 214 ° 0 min 0,000 mm 0,0 UV-I 0 W/m² 2,6 °C 3,3 °C 0,0 km/h (0 Bft)
04.05.2017 04:12 3,2 °C 3,3 °C 95 % 1015,3 hPa 0,0 mm 0,0 km/h (0 Bft) SW 214 ° 0 min 0,000 mm 0,0 UV-I 0 W/m² 2,5 °C 3,2 °C 0,0 km/h (0 Bft)
04.05.2017 04:13 3,2 °C 3,3 °C 95 % 1015,3 hPa 0,0 mm 0,0 km/h (0 Bft) SW 214 ° 0 min 0,000 mm 0,0 UV-I 0 W/m² 2,5 °C 3,2 °C 0,0 km/h (0 Bft)
04.05.2017 04:14 3,2 °C 3,2 °C 95 % 1015,3 hPa 0,0 mm 0,0 km/h (0 Bft) SW 214 ° 0 min 0,000 mm 0,0 UV-I 0 W/m² 2,5 °C 3,2 °C 0,0 km/h (0 Bft)
04.05.2017 04:15 3,2 °C 3,2 °C 95 % 1015,2 hPa 0,0 mm 0,0 km/h (0 Bft) SW 214 ° 0 min 0,000 mm 0,0 UV-I 0 W/m² 2,5 °C 3,2 °C 0,0 km/h (0 Bft)
04.05.2017 04:16 3,2 °C 3,2 °C 95 % 1015,3 hPa 0,0 mm 0,0 km/h (0 Bft) SW 214 ° 0 min 0,000 mm 0,0 UV-I 0 W/m² 2,5 °C 3,2 °C 0,0 km/h (0 Bft)
04.05.2017 04:17 3,2 °C 3,2 °C 95 % 1015,3 hPa 0,0 mm 0,0 km/h (0 Bft) SW 214 ° 0 min 0,000 mm 0,0 UV-I 0 W/m² 2,5 °C 3,2 °C 0,0 km/h (0 Bft)
04.05.2017 04:18 3,1 °C 3,2 °C 95 % 1015,3 hPa 0,0 mm 0,0 km/h (0 Bft) SW 214 ° 0 min 0,000 mm 0,0 UV-I 0 W/m² 2,4 °C 3,1 °C 0,0 km/h (0 Bft)
04.05.2017 04:19 3,1 °C 3,1 °C 95 % 1015,3 hPa 0,0 mm 0,0 km/h (0 Bft) SW 214 ° 0 min 0,000 mm 0,0 UV-I 0 W/m² 2,4 °C 3,1 °C 0,0 km/h (0 Bft)
04.05.2017 04:20 3,0 °C 3,1 °C 95 % 1015,3 hPa 0,0 mm 0,0 km/h (0 Bft) SW 214 ° 0 min 0,000 mm 0,0 UV-I 0 W/m² 2,3 °C 3,0 °C 0,0 km/h (0 Bft)
04.05.2017 04:21 3,0 °C 3,0 °C 95 % 1015,3 hPa 0,0 mm 0,0 km/h (0 Bft) SW 214 ° 0 min 0,000 mm 0,0 UV-I 0 W/m² 2,3 °C 3,0 °C 0,0 km/h (0 Bft)
04.05.2017 04:22 3,0 °C 3,0 °C 95 % 1015,2 hPa 0,0 mm 0,0 km/h (0 Bft) SW 214 ° 0 min 0,000 mm 0,0 UV-I 0 W/m² 2,3 °C 3,0 °C 0,0 km/h (0 Bft)
04.05.2017 04:23 3,0 °C 3,0 °C 95 % 1015,2 hPa 0,0 mm 0,0 km/h (0 Bft) SW 214 ° 0 min 0,000 mm 0,0 UV-I 0 W/m² 2,3 °C 3,0 °C 0,0 km/h (0 Bft)
04.05.2017 04:24 3,0 °C 3,0 °C 95 % 1015,2 hPa 0,0 mm 0,0 km/h (0 Bft) SW 214 ° 0 min 0,000 mm 0,0 UV-I 0 W/m² 2,3 °C 3,0 °C 0,0 km/h (0 Bft)
04.05.2017 04:25 3,0 °C 3,0 °C 95 % 1015,2 hPa 0,0 mm 0,0 km/h (0 Bft) SW 214 ° 0 min 0,000 mm 0,0 UV-I 0 W/m² 2,3 °C 3,0 °C 0,0 km/h (0 Bft)
04.05.2017 04:26 3,0 °C 3,0 °C 95 % 1015,2 hPa 0,0 mm 0,0 km/h (0 Bft) SW 214 ° 0 min 0,000 mm 0,0 UV-I 0 W/m² 2,3 °C 3,0 °C 0,0 km/h (0 Bft)
04.05.2017 04:27 3,0 °C 3,0 °C 95 % 1015,2 hPa 0,0 mm 0,0 km/h (0 Bft) SW 214 ° 0 min 0,000 mm 0,0 UV-I 0 W/m² 2,3 °C 3,0 °C 0,0 km/h (0 Bft)
04.05.2017 04:28 3,0 °C 3,0 °C 95 % 1015,2 hPa 0,0 mm 0,0 km/h (0 Bft) SW 214 ° 0 min 0,000 mm 0,0 UV-I 0 W/m² 2,3 °C 3,0 °C 0,0 km/h (0 Bft)
04.05.2017 04:29 3,0 °C 3,0 °C 95 % 1015,2 hPa 0,0 mm 0,0 km/h (0 Bft) SW 214 ° 0 min 0,000 mm 0,0 UV-I 0 W/m² 2,3 °C 3,0 °C 0,0 km/h (0 Bft)
04.05.2017 04:30 3,0 °C 3,0 °C 95 % 1015,2 hPa 0,0 mm 0,0 km/h (0 Bft) SW 214 ° 0 min 0,000 mm 0,0 UV-I 0 W/m² 2,3 °C 3,0 °C 0,0 km/h (0 Bft)
04.05.2017 04:31 2,9 °C 3,0 °C 95 % 1015,2 hPa 0,0 mm 0,0 km/h (0 Bft) SW 214 ° 0 min 0,000 mm 0,0 UV-I 0 W/m² 2,2 °C 2,9 °C 0,0 km/h (0 Bft)
04.05.2017 04:32 2,9 °C 3,0 °C 95 % 1015,2 hPa 0,0 mm 0,0 km/h (0 Bft) SW 214 ° 0 min 0,000 mm 0,0 UV-I 0 W/m² 2,2 °C 2,9 °C 0,0 km/h (0 Bft)
04.05.2017 04:33 2,9 °C 2,9 °C 95 % 1015,2 hPa 0,0 mm 0,0 km/h (0 Bft) SW 214 ° 0 min 0,000 mm 0,0 UV-I 0 W/m² 2,2 °C 2,9 °C 0,0 km/h (0 Bft)
04.05.2017 04:34 2,9 °C 2,9 °C 95 % 1015,2 hPa 0,0 mm 0,0 km/h (0 Bft) SW 214 ° 0 min 0,000 mm 0,0 UV-I 0 W/m² 2,2 °C 2,9 °C 0,0 km/h (0 Bft)
04.05.2017 04:35 2,9 °C 2,9 °C 95 % 1015,2 hPa 0,0 mm 0,0 km/h (0 Bft) SW 214 ° 0 min 0,000 mm 0,0 UV-I 0 W/m² 2,2 °C 2,9 °C 0,0 km/h (0 Bft)
04.05.2017 04:36 2,9 °C 2,9 °C 95 % 1015,2 hPa 0,0 mm 0,0 km/h (0 Bft) SW 214 ° 0 min 0,000 mm 0,0 UV-I 0 W/m² 2,2 °C 2,9 °C 0,0 km/h (0 Bft)
04.05.2017 04:37 2,9 °C 2,9 °C 95 % 1015,1 hPa 0,0 mm 0,0 km/h (0 Bft) SW 214 ° 0 min 0,000 mm 0,0 UV-I 0 W/m² 2,2 °C 2,9 °C 0,0 km/h (0 Bft)
04.05.2017 04:38 2,9 °C 2,9 °C 95 % 1015,1 hPa 0,0 mm 0,0 km/h (0 Bft) SW 214 ° 0 min 0,000 mm 0,0 UV-I 0 W/m² 2,2 °C 2,9 °C 0,0 km/h (0 Bft)
04.05.2017 04:39 2,9 °C 2,9 °C 95 % 1015,1 hPa 0,0 mm 0,0 km/h (0 Bft) SW 214 ° 0 min 0,000 mm 0,0 UV-I 0 W/m² 2,2 °C 2,9 °C 0,0 km/h (0 Bft)
04.05.2017 04:40 2,9 °C 3,0 °C 95 % 1015,1 hPa 0,0 mm 0,0 km/h (0 Bft) SW 214 ° 0 min 0,000 mm 0,0 UV-I 0 W/m² 2,2 °C 2,9 °C 0,0 km/h (0 Bft)
04.05.2017 04:41 2,9 °C 3,0 °C 95 % 1015,1 hPa 0,0 mm 0,0 km/h (0 Bft) SW 214 ° 0 min 0,000 mm 0,0 UV-I 0 W/m² 2,2 °C 2,9 °C 0,0 km/h (0 Bft)
04.05.2017 04:42 3,0 °C 3,0 °C 95 % 1015,1 hPa 0,0 mm 0,0 km/h (0 Bft) SW 214 ° 0 min 0,000 mm 0,0 UV-I 0 W/m² 2,3 °C 3,0 °C 0,0 km/h (0 Bft)
04.05.2017 04:43 2,9 °C 3,0 °C 95 % 1015,1 hPa 0,0 mm 0,0 km/h (0 Bft) SW 214 ° 0 min 0,000 mm 0,0 UV-I 0 W/m² 2,2 °C 2,9 °C 0,0 km/h (0 Bft)
04.05.2017 04:44 2,9 °C 2,9 °C 95 % 1015,1 hPa 0,0 mm 0,0 km/h (0 Bft) SW 214 ° 0 min 0,000 mm 0,0 UV-I 0 W/m² 2,2 °C 2,9 °C 0,0 km/h (0 Bft)
04.05.2017 04:45 2,9 °C 2,9 °C 95 % 1015,1 hPa 0,0 mm 0,0 km/h (0 Bft) SW 214 ° 0 min 0,000 mm 0,0 UV-I 0 W/m² 2,2 °C 2,9 °C 0,0 km/h (0 Bft)
04.05.2017 04:46 2,9 °C 2,9 °C 95 % 1015,1 hPa 0,0 mm 0,0 km/h (0 Bft) SW 214 ° 0 min 0,000 mm 0,0 UV-I 0 W/m² 2,2 °C 2,9 °C 0,0 km/h (0 Bft)
04.05.2017 04:47 2,9 °C 2,9 °C 95 % 1015,1 hPa 0,0 mm 0,0 km/h (0 Bft) SW 214 ° 0 min 0,000 mm 0,0 UV-I 0 W/m² 2,2 °C 2,9 °C 0,0 km/h (0 Bft)
04.05.2017 04:48 2,9 °C 2,9 °C 95 % 1015,1 hPa 0,0 mm 0,0 km/h (0 Bft) SW 214 ° 0 min 0,000 mm 0,0 UV-I 0 W/m² 2,2 °C 2,9 °C 0,0 km/h (0 Bft)
04.05.2017 04:49 2,9 °C 2,9 °C 95 % 1015,1 hPa 0,0 mm 0,0 km/h (0 Bft) SW 214 ° 0 min 0,000 mm 0,0 UV-I 0 W/m² 2,2 °C 2,9 °C 0,0 km/h (0 Bft)
04.05.2017 04:50 3,0 °C 3,0 °C 95 % 1015,1 hPa 0,0 mm 0,0 km/h (0 Bft) SW 214 ° 0 min 0,000 mm 0,0 UV-I 0 W/m² 2,3 °C 3,0 °C 0,0 km/h (0 Bft)
04.05.2017 04:51 3,0 °C 3,0 °C 95 % 1015,0 hPa 0,0 mm 0,0 km/h (0 Bft) SW 214 ° 0 min 0,000 mm 0,0 UV-I 0 W/m² 2,3 °C 3,0 °C 0,0 km/h (0 Bft)
04.05.2017 04:52 3,0 °C 3,0 °C 95 % 1015,1 hPa 0,0 mm 0,0 km/h (0 Bft) SW 214 ° 0 min 0,000 mm 0,0 UV-I 0 W/m² 2,3 °C 3,0 °C 0,0 km/h (0 Bft)
04.05.2017 04:53 3,0 °C 3,0 °C 95 % 1015,1 hPa 0,0 mm 0,0 km/h (0 Bft) SW 214 ° 0 min 0,000 mm 0,0 UV-I 0 W/m² 2,3 °C 3,0 °C 0,0 km/h (0 Bft)
04.05.2017 04:54 2,9 °C 3,0 °C 95 % 1015,0 hPa 0,0 mm 0,0 km/h (0 Bft) SW 214 ° 0 min 0,000 mm 0,0 UV-I 0 W/m² 2,2 °C 2,9 °C 0,0 km/h (0 Bft)
04.05.2017 04:55 3,0 °C 3,0 °C 95 % 1015,0 hPa 0,0 mm 0,0 km/h (0 Bft) SW 214 ° 0 min 0,000 mm 0,0 UV-I 0 W/m² 2,3 °C 3,0 °C 0,0 km/h (0 Bft)
04.05.2017 04:56 3,0 °C 3,0 °C 95 % 1015,0 hPa 0,0 mm 0,0 km/h (0 Bft) SW 214 ° 0 min 0,000 mm 0,0 UV-I 0 W/m² 2,3 °C 3,0 °C 0,0 km/h (0 Bft)
04.05.2017 04:57 2,9 °C 3,0 °C 95 % 1015,0 hPa 0,0 mm 0,0 km/h (0 Bft) SW 214 ° 0 min 0,000 mm 0,0 UV-I 0 W/m² 2,2 °C 2,9 °C 0,0 km/h (0 Bft)
04.05.2017 04:58 2,9 °C 2,9 °C 95 % 1015,0 hPa 0,0 mm 0,0 km/h (0 Bft) SW 214 ° 0 min 0,000 mm 0,0 UV-I 0 W/m² 2,2 °C 2,9 °C 0,0 km/h (0 Bft)
04.05.2017 04:59 2,9 °C 3,0 °C 95 % 1015,0 hPa 0,0 mm 0,0 km/h (0 Bft) SW 214 ° 0 min 0,000 mm 0,0 UV-I 0 W/m² 2,2 °C 2,9 °C 0,0 km/h (0 Bft)
04.05.2017 05:00 3,0 °C 3,0 °C 95 % 1015,0 hPa 0,0 mm 0,0 km/h (0 Bft) SW 214 ° 0 min 0,000 mm 0,0 UV-I 0 W/m² 2,3 °C 3,0 °C 0,0 km/h (0 Bft)
04.05.2017 05:01 3,1 °C 3,1 °C 95 % 1015,0 hPa 0,0 mm 0,0 km/h (0 Bft) SW 214 ° 0 min 0,000 mm 0,0 UV-I 0 W/m² 2,4 °C 3,1 °C 0,0 km/h (0 Bft)
04.05.2017 05:02 3,1 °C 3,1 °C 95 % 1015,0 hPa 0,0 mm 0,0 km/h (0 Bft) SW 214 ° 0 min 0,000 mm 0,0 UV-I 0 W/m² 2,4 °C 3,1 °C 0,0 km/h (0 Bft)
04.05.2017 05:03 3,1 °C 3,1 °C 95 % 1015,0 hPa 0,0 mm 0,0 km/h (0 Bft) SW 214 ° 0 min 0,000 mm 0,0 UV-I 0 W/m² 2,4 °C 3,1 °C 0,0 km/h (0 Bft)
04.05.2017 05:04 3,1 °C 3,1 °C 95 % 1015,0 hPa 0,0 mm 0,0 km/h (0 Bft) SW 214 ° 0 min 0,000 mm 0,0 UV-I 0 W/m² 2,4 °C 3,1 °C 0,0 km/h (0 Bft)
04.05.2017 05:05 3,2 °C 3,2 °C 96 % 1015,0 hPa 0,0 mm 0,0 km/h (0 Bft) SW 214 ° 0 min 0,000 mm 0,0 UV-I 0 W/m² 2,6 °C 3,2 °C 0,0 km/h (0 Bft)
04.05.2017 05:06 3,2 °C 3,2 °C 96 % 1014,9 hPa 0,0 mm 0,0 km/h (0 Bft) SW 214 ° 0 min 0,000 mm 0,0 UV-I 0 W/m² 2,6 °C 3,2 °C 0,0 km/h (0 Bft)
04.05.2017 05:07 3,2 °C 3,2 °C 96 % 1014,9 hPa 0,0 mm 0,0 km/h (0 Bft) SW 214 ° 0 min 0,000 mm 0,0 UV-I 0 W/m² 2,6 °C 3,2 °C 0,0 km/h (0 Bft)
04.05.2017 05:08 3,2 °C 3,2 °C 96 % 1014,9 hPa 0,0 mm 0,0 km/h (0 Bft) SW 214 ° 0 min 0,000 mm 0,0 UV-I 0 W/m² 2,6 °C 3,2 °C 0,0 km/h (0 Bft)
04.05.2017 05:09 3,2 °C 3,2 °C 96 % 1014,9 hPa 0,0 mm 0,0 km/h (0 Bft) SW 214 ° 0 min 0,000 mm 0,0 UV-I 0 W/m² 2,6 °C 3,2 °C 0,0 km/h (0 Bft)
04.05.2017 05:10 3,3 °C 3,3 °C 95 % 1014,9 hPa 0,0 mm 0,0 km/h (0 Bft) SW 214 ° 0 min 0,000 mm 0,0 UV-I 0 W/m² 2,6 °C 3,3 °C 0,0 km/h (0 Bft)
04.05.2017 05:11 3,2 °C 3,3 °C 96 % 1014,9 hPa 0,0 mm 0,0 km/h (0 Bft) SW 214 ° 0 min 0,000 mm 0,0 UV-I 0 W/m² 2,6 °C 3,2 °C 0,0 km/h (0 Bft)
04.05.2017 05:12 3,2 °C 3,3 °C 96 % 1014,9 hPa 0,0 mm 0,0 km/h (0 Bft) SW 214 ° 0 min 0,000 mm 0,0 UV-I 0 W/m² 2,6 °C 3,2 °C 0,0 km/h (0 Bft)
04.05.2017 05:13 3,2 °C 3,2 °C 95 % 1014,9 hPa 0,0 mm 0,0 km/h (0 Bft) SW 214 ° 0 min 0,000 mm 0,0 UV-I 0 W/m² 2,5 °C 3,2 °C 0,0 km/h (0 Bft)
04.05.2017 05:14 3,2 °C 3,2 °C 95 % 1014,9 hPa 0,0 mm 0,0 km/h (0 Bft) SW 214 ° 0 min 0,000 mm 0,0 UV-I 0 W/m² 2,5 °C 3,2 °C 0,0 km/h (0 Bft)
04.05.2017 05:15 3,2 °C 3,2 °C 95 % 1014,9 hPa 0,0 mm 0,0 km/h (0 Bft) SW 214 ° 0 min 0,000 mm 0,0 UV-I 0 W/m² 2,5 °C 3,2 °C 0,0 km/h (0 Bft)
04.05.2017 05:16 3,2 °C 3,2 °C 95 % 1014,9 hPa 0,0 mm 0,0 km/h (0 Bft) SW 214 ° 0 min 0,000 mm 0,0 UV-I 0 W/m² 2,5 °C 3,2 °C 0,0 km/h (0 Bft)
04.05.2017 05:17 3,2 °C 3,2 °C 95 % 1014,9 hPa 0,0 mm 0,0 km/h (0 Bft) SW 214 ° 0 min 0,000 mm 0,0 UV-I 0 W/m² 2,5 °C 3,2 °C 0,0 km/h (0 Bft)
04.05.2017 05:18 3,2 °C 3,2 °C 95 % 1014,9 hPa 0,0 mm 0,0 km/h (0 Bft) SW 214 ° 0 min 0,000 mm 0,0 UV-I 0 W/m² 2,5 °C 3,2 °C 0,0 km/h (0 Bft)
04.05.2017 05:19 3,2 °C 3,2 °C 95 % 1014,9 hPa 0,0 mm 0,0 km/h (0 Bft) SW 214 ° 0 min 0,000 mm 0,0 UV-I 0 W/m² 2,5 °C 3,2 °C 0,0 km/h (0 Bft)
04.05.2017 05:20 3,2 °C 3,2 °C 95 % 1015,0 hPa 0,0 mm 0,0 km/h (0 Bft) SW 214 ° 0 min 0,000 mm 0,0 UV-I 0 W/m² 2,5 °C 3,2 °C 0,0 km/h (0 Bft)
04.05.2017 05:21 3,3 °C 3,3 °C 95 % 1015,0 hPa 0,0 mm 0,0 km/h (0 Bft) SW 214 ° 0 min 0,000 mm 0,0 UV-I 0 W/m² 2,6 °C 3,3 °C 0,0 km/h (0 Bft)
04.05.2017 05:22 3,3 °C 3,3 °C 95 % 1014,9 hPa 0,0 mm 0,0 km/h (0 Bft) SW 214 ° 0 min 0,000 mm 0,0 UV-I 0 W/m² 2,6 °C 3,3 °C 0,0 km/h (0 Bft)
04.05.2017 05:23 3,3 °C 3,3 °C 95 % 1014,9 hPa 0,0 mm 0,0 km/h (0 Bft) SW 214 ° 0 min 0,000 mm 0,0 UV-I 0 W/m² 2,6 °C 3,3 °C 0,0 km/h (0 Bft)
04.05.2017 05:24 3,4 °C 3,4 °C 95 % 1014,9 hPa 0,0 mm 0,0 km/h (0 Bft) SW 214 ° 0 min 0,000 mm 0,0 UV-I 0 W/m² 2,7 °C 3,4 °C 0,0 km/h (0 Bft)
04.05.2017 05:25 3,4 °C 3,4 °C 95 % 1014,9 hPa 0,0 mm 0,0 km/h (0 Bft) SW 214 ° 0 min 0,000 mm 0,0 UV-I 0 W/m² 2,7 °C 3,4 °C 0,0 km/h (0 Bft)
04.05.2017 05:26 3,4 °C 3,4 °C 95 % 1014,9 hPa 0,0 mm 0,0 km/h (0 Bft) SW 214 ° 0 min 0,000 mm 0,0 UV-I 0 W/m² 2,7 °C 3,4 °C 0,0 km/h (0 Bft)
04.05.2017 05:27 3,3 °C 3,4 °C 95 % 1014,9 hPa 0,0 mm 0,0 km/h (0 Bft) SW 214 ° 0 min 0,000 mm 0,0 UV-I 0 W/m² 2,6 °C 3,3 °C 0,0 km/h (0 Bft)
04.05.2017 05:28 3,4 °C 3,4 °C 95 % 1014,9 hPa 0,0 mm 0,0 km/h (0 Bft) SW 214 ° 0 min 0,000 mm 0,0 UV-I 0 W/m² 2,7 °C 3,4 °C 0,0 km/h (0 Bft)
04.05.2017 05:29 3,3 °C 3,4 °C 95 % 1014,9 hPa 0,0 mm 0,0 km/h (0 Bft) SW 214 ° 0 min 0,000 mm 0,0 UV-I 0 W/m² 2,6 °C 3,3 °C 0,0 km/h (0 Bft)
04.05.2017 05:30 3,3 °C 3,3 °C 95 % 1014,9 hPa 0,0 mm 0,0 km/h (0 Bft) SW 214 ° 0 min 0,000 mm 0,0 UV-I 0 W/m² 2,6 °C 3,3 °C 0,0 km/h (0 Bft)
04.05.2017 05:31 3,3 °C 3,3 °C 95 % 1014,8 hPa 0,0 mm 0,0 km/h (0 Bft) SW 214 ° 0 min 0,000 mm 0,0 UV-I 0 W/m² 2,6 °C 3,3 °C 0,0 km/h (0 Bft)
04.05.2017 05:32 3,3 °C 3,3 °C 95 % 1014,8 hPa 0,0 mm 0,0 km/h (0 Bft) SW 214 ° 0 min 0,000 mm 0,0 UV-I 0 W/m² 2,6 °C 3,3 °C 0,0 km/h (0 Bft)
04.05.2017 05:33 3,2 °C 3,3 °C 95 % 1014,8 hPa 0,0 mm 0,0 km/h (0 Bft) SW 214 ° 0 min 0,000 mm 0,0 UV-I 0 W/m² 2,5 °C 3,2 °C 0,0 km/h (0 Bft)
04.05.2017 05:34 3,2 °C 3,3 °C 95 % 1014,8 hPa 0,0 mm 0,0 km/h (0 Bft) SW 214 ° 0 min 0,000 mm 0,0 UV-I 0 W/m² 2,5 °C 3,2 °C 0,0 km/h (0 Bft)
04.05.2017 05:35 3,2 °C 3,2 °C 95 % 1014,8 hPa 0,0 mm 0,0 km/h (0 Bft) SW 214 ° 0 min 0,000 mm 0,0 UV-I 0 W/m² 2,5 °C 3,2 °C 0,0 km/h (0 Bft)
04.05.2017 05:36 3,1 °C 3,2 °C 95 % 1014,8 hPa 0,0 mm 0,0 km/h (0 Bft) SW 214 ° 0 min 0,000 mm 0,0 UV-I 0 W/m² 2,4 °C 3,1 °C 0,0 km/h (0 Bft)
04.05.2017 05:37 3,1 °C 3,2 °C 95 % 1014,8 hPa 0,0 mm 0,0 km/h (0 Bft) SW 214 ° 0 min 0,000 mm 0,0 UV-I 0 W/m² 2,4 °C 3,1 °C 0,0 km/h (0 Bft)
04.05.2017 05:38 3,1 °C 3,1 °C 95 % 1014,8 hPa 0,0 mm 0,0 km/h (0 Bft) SW 214 ° 0 min 0,000 mm 0,0 UV-I 0 W/m² 2,4 °C 3,1 °C 0,0 km/h (0 Bft)
04.05.2017 05:39 3,1 °C 3,1 °C 95 % 1014,8 hPa 0,0 mm 0,0 km/h (0 Bft) SW 214 ° 0 min 0,000 mm 0,0 UV-I 0 W/m² 2,4 °C 3,1 °C 0,0 km/h (0 Bft)
04.05.2017 05:40 3,1 °C 3,1 °C 95 % 1014,8 hPa 0,0 mm 0,0 km/h (0 Bft) SW 214 ° 0 min 0,000 mm 0,0 UV-I 0 W/m² 2,4 °C 3,1 °C 0,0 km/h (0 Bft)
04.05.2017 05:41 3,0 °C 3,1 °C 95 % 1014,8 hPa 0,0 mm 0,0 km/h (0 Bft) SW 214 ° 0 min 0,000 mm 0,0 UV-I 0 W/m² 2,3 °C 3,0 °C 0,0 km/h (0 Bft)
04.05.2017 05:42 3,0 °C 3,0 °C 95 % 1014,8 hPa 0,0 mm 0,0 km/h (0 Bft) SW 214 ° 0 min 0,000 mm 0,0 UV-I 0 W/m² 2,3 °C 3,0 °C 0,0 km/h (0 Bft)
04.05.2017 05:43 3,0 °C 3,0 °C 95 % 1014,8 hPa 0,0 mm 0,0 km/h (0 Bft) SW 214 ° 0 min 0,000 mm 0,0 UV-I 0 W/m² 2,3 °C 3,0 °C 0,0 km/h (0 Bft)
04.05.2017 05:44 2,9 °C 3,0 °C 95 % 1014,8 hPa 0,0 mm 0,0 km/h (0 Bft) SW 214 ° 0 min 0,000 mm 0,0 UV-I 0 W/m² 2,2 °C 2,9 °C 0,0 km/h (0 Bft)
04.05.2017 05:45 2,9 °C 3,0 °C 95 % 1014,7 hPa 0,0 mm 0,0 km/h (0 Bft) SW 214 ° 0 min 0,000 mm 0,0 UV-I 0 W/m² 2,2 °C 2,9 °C 0,0 km/h (0 Bft)
04.05.2017 05:46 2,9 °C 2,9 °C 95 % 1014,7 hPa 0,0 mm 0,0 km/h (0 Bft) SW 214 ° 0 min 0,000 mm 0,0 UV-I 0 W/m² 2,2 °C 2,9 °C 0,0 km/h (0 Bft)
04.05.2017 05:47 2,9 °C 2,9 °C 95 % 1014,7 hPa 0,0 mm 0,0 km/h (0 Bft) SW 214 ° 0 min 0,000 mm 0,0 UV-I 0 W/m² 2,2 °C 2,9 °C 0,0 km/h (0 Bft)
04.05.2017 05:48 3,0 °C 3,0 °C 95 % 1014,7 hPa 0,0 mm 0,0 km/h (0 Bft) SW 214 ° 0 min 0,000 mm 0,0 UV-I 0 W/m² 2,3 °C 3,0 °C 0,0 km/h (0 Bft)
04.05.2017 05:49 3,0 °C 3,0 °C 95 % 1014,6 hPa 0,0 mm 0,0 km/h (0 Bft) SW 214 ° 0 min 0,000 mm 0,0 UV-I 0 W/m² 2,3 °C 3,0 °C 0,0 km/h (0 Bft)
04.05.2017 05:50 3,1 °C 3,1 °C 95 % 1014,7 hPa 0,0 mm 0,0 km/h (0 Bft) SW 214 ° 0 min 0,000 mm 0,0 UV-I 0 W/m² 2,4 °C 3,1 °C 0,0 km/h (0 Bft)
04.05.2017 05:51 3,1 °C 3,1 °C 95 % 1014,7 hPa 0,0 mm 0,0 km/h (0 Bft) SW 214 ° 0 min 0,000 mm 0,0 UV-I 0 W/m² 2,4 °C 3,1 °C 0,0 km/h (0 Bft)
04.05.2017 05:52 3,2 °C 3,2 °C 96 % 1014,7 hPa 0,0 mm 0,0 km/h (0 Bft) SW 214 ° 0 min 0,000 mm 0,0 UV-I 0 W/m² 2,6 °C 3,2 °C 0,0 km/h (0 Bft)
04.05.2017 05:53 3,2 °C 3,2 °C 96 % 1014,7 hPa 0,0 mm 0,0 km/h (0 Bft) SW 214 ° 0 min 0,000 mm 0,0 UV-I 0 W/m² 2,6 °C 3,2 °C 0,0 km/h (0 Bft)
04.05.2017 05:54 3,2 °C 3,2 °C 96 % 1014,7 hPa 0,0 mm 0,0 km/h (0 Bft) SW 214 ° 0 min 0,000 mm 0,0 UV-I 0 W/m² 2,6 °C 3,2 °C 0,0 km/h (0 Bft)
04.05.2017 05:55 3,2 °C 3,2 °C 96 % 1014,7 hPa 0,0 mm 0,0 km/h (0 Bft) SW 214 ° 0 min 0,000 mm 0,0 UV-I 5 W/m² 2,6 °C 3,2 °C 0,0 km/h (0 Bft)
04.05.2017 05:56 3,3 °C 3,3 °C 95 % 1014,7 hPa 0,0 mm 0,0 km/h (0 Bft) SW 214 ° 0 min 0,000 mm 0,0 UV-I 5 W/m² 2,6 °C 3,3 °C 0,0 km/h (0 Bft)
04.05.2017 05:57 3,3 °C 3,3 °C 95 % 1014,7 hPa 0,0 mm 0,0 km/h (0 Bft) SW 214 ° 0 min 0,000 mm 0,0 UV-I 5 W/m² 2,6 °C 3,3 °C 0,0 km/h (0 Bft)
04.05.2017 05:58 3,3 °C 3,3 °C 95 % 1014,7 hPa 0,0 mm 0,0 km/h (0 Bft) SW 214 ° 0 min 0,000 mm 0,0 UV-I 5 W/m² 2,6 °C 3,3 °C 0,0 km/h (0 Bft)
04.05.2017 05:59 3,3 °C 3,3 °C 95 % 1014,7 hPa 0,0 mm 0,0 km/h (0 Bft) SW 214 ° 0 min 0,000 mm 0,0 UV-I 5 W/m² 2,6 °C 3,3 °C 0,0 km/h (0 Bft)
04.05.2017 06:00 3,3 °C 3,3 °C 95 % 1014,6 hPa 0,0 mm 0,0 km/h (0 Bft) SW 214 ° 0 min 0,000 mm 0,0 UV-I 7 W/m² 2,6 °C 3,3 °C 0,0 km/h (0 Bft)
04.05.2017 06:01 3,3 °C 3,3 °C 95 % 1014,7 hPa 0,0 mm 0,0 km/h (0 Bft) SW 214 ° 0 min 0,000 mm 0,0 UV-I 7 W/m² 2,6 °C 3,3 °C 0,0 km/h (0 Bft)
04.05.2017 06:02 3,3 °C 3,3 °C 95 % 1014,6 hPa 0,0 mm 0,0 km/h (0 Bft) SW 214 ° 0 min 0,000 mm 0,0 UV-I 7 W/m² 2,6 °C 3,3 °C 0,0 km/h (0 Bft)
04.05.2017 06:03 3,2 °C 3,3 °C 95 % 1014,7 hPa 0,0 mm 0,0 km/h (0 Bft) SW 214 ° 0 min 0,000 mm 0,0 UV-I 7 W/m² 2,5 °C 3,2 °C 0,0 km/h (0 Bft)
04.05.2017 06:04 3,2 °C 3,3 °C 95 % 1014,6 hPa 0,0 mm 0,0 km/h (0 Bft) SW 214 ° 0 min 0,000 mm 0,0 UV-I 9 W/m² 2,5 °C 3,2 °C 0,0 km/h (0 Bft)
04.05.2017 06:05 3,2 °C 3,2 °C 95 % 1014,6 hPa 0,0 mm 0,0 km/h (0 Bft) SW 214 ° 0 min 0,000 mm 0,0 UV-I 9 W/m² 2,5 °C 3,2 °C 0,0 km/h (0 Bft)
04.05.2017 06:06 3,2 °C 3,2 °C 95 % 1014,6 hPa 0,0 mm 0,0 km/h (0 Bft) SW 214 ° 0 min 0,000 mm 0,0 UV-I 9 W/m² 2,5 °C 3,2 °C 0,0 km/h (0 Bft)
04.05.2017 06:07 3,2 °C 3,2 °C 95 % 1014,7 hPa 0,0 mm 0,0 km/h (0 Bft) SW 214 ° 0 min 0,000 mm 0,0 UV-I 9 W/m² 2,5 °C 3,2 °C 0,0 km/h (0 Bft)
04.05.2017 06:08 3,2 °C 3,2 °C 95 % 1014,6 hPa 0,0 mm 0,0 km/h (0 Bft) SW 214 ° 0 min 0,000 mm 0,0 UV-I 11 W/m² 2,5 °C 3,2 °C 0,0 km/h (0 Bft)
04.05.2017 06:09 3,2 °C 3,2 °C 95 % 1014,6 hPa 0,0 mm 0,0 km/h (0 Bft) SW 214 ° 0 min 0,000 mm 0,0 UV-I 11 W/m² 2,5 °C 3,2 °C 0,0 km/h (0 Bft)
04.05.2017 06:10 3,1 °C 3,2 °C 95 % 1014,6 hPa 0,0 mm 0,0 km/h (0 Bft) SW 214 ° 0 min 0,000 mm 0,0 UV-I 11 W/m² 2,4 °C 3,1 °C 0,0 km/h (0 Bft)
04.05.2017 06:11 3,1 °C 3,1 °C 95 % 1014,6 hPa 0,0 mm 0,0 km/h (0 Bft) SW 214 ° 0 min 0,000 mm 0,0 UV-I 11 W/m² 2,4 °C 3,1 °C 0,0 km/h (0 Bft)
04.05.2017 06:12 3,2 °C 3,2 °C 95 % 1014,6 hPa 0,0 mm 0,0 km/h (0 Bft) SW 214 ° 0 min 0,000 mm 0,0 UV-I 12 W/m² 2,5 °C 3,2 °C 0,0 km/h (0 Bft)
04.05.2017 06:13 3,2 °C 3,2 °C 95 % 1014,7 hPa 0,0 mm 0,0 km/h (0 Bft) SW 214 ° 0 min 0,000 mm 0,0 UV-I 12 W/m² 2,5 °C 3,2 °C 0,0 km/h (0 Bft)
04.05.2017 06:14 3,2 °C 3,2 °C 95 % 1014,6 hPa 0,0 mm 0,0 km/h (0 Bft) SW 214 ° 0 min 0,000 mm 0,0 UV-I 14 W/m² 2,5 °C 3,2 °C 0,0 km/h (0 Bft)
04.05.2017 06:15 3,2 °C 3,2 °C 95 % 1014,7 hPa 0,0 mm 0,0 km/h (0 Bft) SW 214 ° 0 min 0,000 mm 0,0 UV-I 14 W/m² 2,5 °C 3,2 °C 0,0 km/h (0 Bft)
04.05.2017 06:16 3,1 °C 3,2 °C 95 % 1014,7 hPa 0,0 mm 0,0 km/h (0 Bft) SW 214 ° 0 min 0,000 mm 0,0 UV-I 14 W/m² 2,4 °C 3,1 °C 0,0 km/h (0 Bft)
04.05.2017 06:17 3,1 °C 3,1 °C 95 % 1014,7 hPa 0,0 mm 0,0 km/h (0 Bft) SW 214 ° 0 min 0,000 mm 0,0 UV-I 14 W/m² 2,4 °C 3,1 °C 0,0 km/h (0 Bft)
04.05.2017 06:18 3,1 °C 3,1 °C 95 % 1014,7 hPa 0,0 mm 0,0 km/h (0 Bft) SW 214 ° 0 min 0,000 mm 0,0 UV-I 16 W/m² 2,4 °C 3,1 °C 0,0 km/h (0 Bft)
04.05.2017 06:19 3,1 °C 3,1 °C 95 % 1014,6 hPa 0,0 mm 0,0 km/h (0 Bft) SW 214 ° 0 min 0,000 mm 0,0 UV-I 16 W/m² 2,4 °C 3,1 °C 0,0 km/h (0 Bft)
04.05.2017 06:20 3,0 °C 3,1 °C 95 % 1014,6 hPa 0,0 mm 0,0 km/h (0 Bft) SW 214 ° 0 min 0,000 mm 0,0 UV-I 16 W/m² 2,3 °C 3,0 °C 0,0 km/h (0 Bft)
04.05.2017 06:21 3,0 °C 3,0 °C 95 % 1014,6 hPa 0,0 mm 0,0 km/h (0 Bft) SW 214 ° 0 min 0,000 mm 0,0 UV-I 16 W/m² 2,3 °C 3,0 °C 0,0 km/h (0 Bft)
04.05.2017 06:22 2,9 °C 3,0 °C 95 % 1014,6 hPa 0,0 mm 0,0 km/h (0 Bft) SW 214 ° 0 min 0,000 mm 0,0 UV-I 18 W/m² 2,2 °C 2,9 °C 0,0 km/h (0 Bft)
04.05.2017 06:23 2,9 °C 2,9 °C 95 % 1014,6 hPa 0,0 mm 0,0 km/h (0 Bft) SW 214 ° 0 min 0,000 mm 0,0 UV-I 18 W/m² 2,2 °C 2,9 °C 0,0 km/h (0 Bft)
04.05.2017 06:24 2,8 °C 2,9 °C 95 % 1014,6 hPa 0,0 mm 0,0 km/h (0 Bft) SW 214 ° 0 min 0,000 mm 0,0 UV-I 18 W/m² 2,1 °C 2,8 °C 0,0 km/h (0 Bft)
04.05.2017 06:25 2,7 °C 2,8 °C 95 % 1014,6 hPa 0,0 mm 0,0 km/h (0 Bft) SW 214 ° 0 min 0,000 mm 0,0 UV-I 19 W/m² 2,0 °C 2,7 °C 0,0 km/h (0 Bft)
04.05.2017 06:26 2,7 °C 2,7 °C 95 % 1014,6 hPa 0,0 mm 0,0 km/h (0 Bft) SW 214 ° 0 min 0,000 mm 0,0 UV-I 19 W/m² 2,0 °C 2,7 °C 0,0 km/h (0 Bft)
04.05.2017 06:27 2,7 °C 2,7 °C 95 % 1014,6 hPa 0,0 mm 0,0 km/h (0 Bft) SW 214 ° 0 min 0,000 mm 0,0 UV-I 21 W/m² 2,0 °C 2,7 °C 0,0 km/h (0 Bft)
04.05.2017 06:28 2,6 °C 2,7 °C 95 % 1014,5 hPa 0,0 mm 0,0 km/h (0 Bft) SW 214 ° 0 min 0,000 mm 0,0 UV-I 21 W/m² 1,9 °C 2,6 °C 0,0 km/h (0 Bft)
04.05.2017 06:29 2,6 °C 2,6 °C 95 % 1014,6 hPa 0,0 mm 0,0 km/h (0 Bft) SW 214 ° 0 min 0,000 mm 0,0 UV-I 21 W/m² 1,9 °C 2,6 °C 0,0 km/h (0 Bft)
04.05.2017 06:30 2,6 °C 2,6 °C 95 % 1014,6 hPa 0,0 mm 0,0 km/h (0 Bft) SW 214 ° 0 min 0,000 mm 0,0 UV-I 23 W/m² 1,9 °C 2,6 °C 0,0 km/h (0 Bft)
04.05.2017 06:31 2,6 °C 2,6 °C 95 % 1014,5 hPa 0,0 mm 0,0 km/h (0 Bft) SW 214 ° 0 min 0,000 mm 0,0 UV-I 25 W/m² 1,9 °C 2,6 °C 0,0 km/h (0 Bft)
04.05.2017 06:32 2,7 °C 2,7 °C 95 % 1014,6 hPa 0,0 mm 0,0 km/h (0 Bft) SW 214 ° 0 min 0,000 mm 0,0 UV-I 26 W/m² 2,0 °C 2,7 °C 0,0 km/h (0 Bft)
04.05.2017 06:33 2,6 °C 2,7 °C 95 % 1014,6 hPa 0,0 mm 0,0 km/h (0 Bft) SW 214 ° 0 min 0,000 mm 0,0 UV-I 26 W/m² 1,9 °C 2,6 °C 0,0 km/h (0 Bft)
04.05.2017 06:34 2,7 °C 2,7 °C 95 % 1014,6 hPa 0,0 mm 0,0 km/h (0 Bft) SW 214 ° 0 min 0,000 mm 0,0 UV-I 28 W/m² 2,0 °C 2,7 °C 0,0 km/h (0 Bft)
04.05.2017 06:35 2,7 °C 2,7 °C 95 % 1014,6 hPa 0,0 mm 0,0 km/h (0 Bft) SW 214 ° 0 min 0,000 mm 0,0 UV-I 28 W/m² 2,0 °C 2,7 °C 0,0 km/h (0 Bft)
04.05.2017 06:36 2,7 °C 2,7 °C 95 % 1014,6 hPa 0,0 mm 0,0 km/h (0 Bft) SW 214 ° 0 min 0,000 mm 0,0 UV-I 30 W/m² 2,0 °C 2,7 °C 0,0 km/h (0 Bft)
04.05.2017 06:37 2,7 °C 2,7 °C 95 % 1014,6 hPa 0,0 mm 0,0 km/h (0 Bft) SW 214 ° 0 min 0,000 mm 0,0 UV-I 32 W/m² 2,0 °C 2,7 °C 0,0 km/h (0 Bft)
04.05.2017 06:38 2,8 °C 2,8 °C 95 % 1014,6 hPa 0,0 mm 0,0 km/h (0 Bft) SW 214 ° 0 min 0,000 mm 0,0 UV-I 33 W/m² 2,1 °C 2,8 °C 0,0 km/h (0 Bft)
04.05.2017 06:39 2,8 °C 2,8 °C 95 % 1014,6 hPa 0,0 mm 0,0 km/h (0 Bft) SW 214 ° 0 min 0,000 mm 0,0 UV-I 35 W/m² 2,1 °C 2,8 °C 0,0 km/h (0 Bft)
04.05.2017 06:40 2,8 °C 2,8 °C 95 % 1014,6 hPa 0,0 mm 0,0 km/h (0 Bft) SW 214 ° 0 min 0,000 mm 0,0 UV-I 39 W/m² 2,1 °C 2,8 °C 0,0 km/h (0 Bft)
04.05.2017 06:41 2,9 °C 2,9 °C 95 % 1014,6 hPa 0,0 mm 0,1 km/h (0 Bft) SW 214 ° 0 min 0,000 mm 0,0 UV-I 42 W/m² 2,2 °C 2,9 °C 1,6 km/h (1 Bft)
04.05.2017 06:42 2,9 °C 2,9 °C 96 % 1014,6 hPa 0,0 mm 1,0 km/h (0 Bft) SW 214 ° 0 min 0,000 mm 0,0 UV-I 44 W/m² 2,3 °C 2,9 °C 1,6 km/h (1 Bft)
04.05.2017 06:43 2,9 °C 2,9 °C 96 % 1014,6 hPa 0,0 mm 0,1 km/h (0 Bft) SW 214 ° 0 min 0,000 mm 0,0 UV-I 42 W/m² 2,3 °C 2,9 °C 1,6 km/h (1 Bft)
04.05.2017 06:44 3,0 °C 3,0 °C 95 % 1014,6 hPa 0,0 mm 0,0 km/h (0 Bft) SW 214 ° 0 min 0,000 mm 0,0 UV-I 42 W/m² 2,3 °C 3,0 °C 0,0 km/h (0 Bft)
04.05.2017 06:45 3,0 °C 3,0 °C 96 % 1014,6 hPa 0,0 mm 0,0 km/h (0 Bft) SW 214 ° 0 min 0,000 mm 0,0 UV-I 42 W/m² 2,4 °C 3,0 °C 0,0 km/h (0 Bft)
04.05.2017 06:46 3,1 °C 3,1 °C 95 % 1014,6 hPa 0,0 mm 0,0 km/h (0 Bft) SW 214 ° 0 min 0,000 mm 0,0 UV-I 42 W/m² 2,4 °C 3,1 °C 0,0 km/h (0 Bft)
04.05.2017 06:47 3,1 °C 3,1 °C 95 % 1014,7 hPa 0,0 mm 0,0 km/h (0 Bft) SW 214 ° 0 min 0,000 mm 0,0 UV-I 44 W/m² 2,4 °C 3,1 °C 0,0 km/h (0 Bft)
04.05.2017 06:48 3,2 °C 3,2 °C 95 % 1014,7 hPa 0,0 mm 0,0 km/h (0 Bft) SW 214 ° 0 min 0,000 mm 0,0 UV-I 44 W/m² 2,5 °C 3,2 °C 0,0 km/h (0 Bft)
04.05.2017 06:49 3,2 °C 3,2 °C 96 % 1014,6 hPa 0,0 mm 0,0 km/h (0 Bft) SW 214 ° 0 min 0,000 mm 0,0 UV-I 46 W/m² 2,6 °C 3,2 °C 0,0 km/h (0 Bft)
04.05.2017 06:50 3,2 °C 3,2 °C 96 % 1014,6 hPa 0,0 mm 0,0 km/h (0 Bft) SW 214 ° 0 min 0,000 mm 0,0 UV-I 47 W/m² 2,6 °C 3,2 °C 0,0 km/h (0 Bft)
04.05.2017 06:51 3,3 °C 3,3 °C 96 % 1014,6 hPa 0,0 mm 0,0 km/h (0 Bft) SW 214 ° 0 min 0,000 mm 0,0 UV-I 47 W/m² 2,7 °C 3,3 °C 0,0 km/h (0 Bft)
04.05.2017 06:52 3,3 °C 3,3 °C 96 % 1014,6 hPa 0,0 mm 0,0 km/h (0 Bft) SW 214 ° 0 min 0,000 mm 0,0 UV-I 49 W/m² 2,7 °C 3,3 °C 0,0 km/h (0 Bft)
04.05.2017 06:53 3,3 °C 3,3 °C 95 % 1014,6 hPa 0,0 mm 0,0 km/h (0 Bft) SW 214 ° 0 min 0,000 mm 0,0 UV-I 51 W/m² 2,6 °C 3,3 °C 0,0 km/h (0 Bft)
04.05.2017 06:54 3,4 °C 3,4 °C 95 % 1014,6 hPa 0,0 mm 0,0 km/h (0 Bft) SW 214 ° 0 min 0,000 mm 0,0 UV-I 51 W/m² 2,7 °C 3,4 °C 0,0 km/h (0 Bft)
04.05.2017 06:55 3,4 °C 3,4 °C 95 % 1014,6 hPa 0,0 mm 0,0 km/h (0 Bft) SW 214 ° 0 min 0,000 mm 0,0 UV-I 54 W/m² 2,7 °C 3,4 °C 0,0 km/h (0 Bft)
04.05.2017 06:56 3,4 °C 3,4 °C 95 % 1014,6 hPa 0,0 mm 0,0 km/h (0 Bft) SW 214 ° 0 min 0,000 mm 0,0 UV-I 54 W/m² 2,7 °C 3,4 °C 0,0 km/h (0 Bft)
04.05.2017 06:57 3,4 °C 3,4 °C 96 % 1014,6 hPa 0,0 mm 0,0 km/h (0 Bft) SW 214 ° 0 min 0,000 mm 0,0 UV-I 56 W/m² 2,8 °C 3,4 °C 0,0 km/h (0 Bft)
04.05.2017 06:58 3,4 °C 3,4 °C 96 % 1014,6 hPa 0,0 mm 0,0 km/h (0 Bft) SW 214 ° 0 min 0,000 mm 0,0 UV-I 58 W/m² 2,8 °C 3,4 °C 0,0 km/h (0 Bft)
04.05.2017 06:59 3,4 °C 3,5 °C 96 % 1014,5 hPa 0,0 mm 0,0 km/h (0 Bft) SW 214 ° 0 min 0,000 mm 0,0 UV-I 60 W/m² 2,8 °C 3,4 °C 0,0 km/h (0 Bft)
04.05.2017 07:00 3,4 °C 3,5 °C 95 % 1014,5 hPa 0,0 mm 0,0 km/h (0 Bft) SW 214 ° 0 min 0,000 mm 0,0 UV-I 62 W/m² 2,7 °C 3,4 °C 0,0 km/h (0 Bft)
04.05.2017 07:01 3,5 °C 3,5 °C 95 % 1014,5 hPa 0,0 mm 0,0 km/h (0 Bft) SW 214 ° 0 min 0,000 mm 0,0 UV-I 63 W/m² 2,8 °C 3,5 °C 0,0 km/h (0 Bft)
04.05.2017 07:02 3,5 °C 3,5 °C 95 % 1014,5 hPa 0,0 mm 0,0 km/h (0 Bft) SW 214 ° 0 min 0,000 mm 0,0 UV-I 65 W/m² 2,8 °C 3,5 °C 0,0 km/h (0 Bft)
04.05.2017 07:03 3,5 °C 3,5 °C 95 % 1014,5 hPa 0,0 mm 0,0 km/h (0 Bft) SW 214 ° 0 min 0,000 mm 0,0 UV-I 65 W/m² 2,8 °C 3,5 °C 0,0 km/h (0 Bft)
04.05.2017 07:04 3,5 °C 3,5 °C 95 % 1014,5 hPa 0,0 mm 0,0 km/h (0 Bft) SW 214 ° 0 min 0,000 mm 0,0 UV-I 67 W/m² 2,8 °C 3,5 °C 0,0 km/h (0 Bft)
04.05.2017 07:05 3,4 °C 3,5 °C 95 % 1014,4 hPa 0,0 mm 0,0 km/h (0 Bft) SW 214 ° 0 min 0,000 mm 0,0 UV-I 69 W/m² 2,7 °C 3,4 °C 0,0 km/h (0 Bft)
04.05.2017 07:06 3,4 °C 3,5 °C 95 % 1014,5 hPa 0,0 mm 0,0 km/h (0 Bft) SW 214 ° 0 min 0,000 mm 0,0 UV-I 69 W/m² 2,7 °C 3,4 °C 0,0 km/h (0 Bft)
04.05.2017 07:07 3,5 °C 3,5 °C 95 % 1014,5 hPa 0,0 mm 0,0 km/h (0 Bft) SW 214 ° 0 min 0,000 mm 0,0 UV-I 69 W/m² 2,8 °C 3,5 °C 0,0 km/h (0 Bft)
04.05.2017 07:08 3,5 °C 3,5 °C 95 % 1014,5 hPa 0,0 mm 0,0 km/h (0 Bft) SW 214 ° 0 min 0,000 mm 0,0 UV-I 69 W/m² 2,8 °C 3,5 °C 0,0 km/h (0 Bft)
04.05.2017 07:09 3,5 °C 3,5 °C 95 % 1014,5 hPa 0,0 mm 0,0 km/h (0 Bft) SW 214 ° 0 min 0,000 mm 0,0 UV-I 70 W/m² 2,8 °C 3,5 °C 0,0 km/h (0 Bft)
04.05.2017 07:10 3,5 °C 3,5 °C 95 % 1014,4 hPa 0,0 mm 0,0 km/h (0 Bft) SW 214 ° 0 min 0,000 mm 0,0 UV-I 70 W/m² 2,8 °C 3,5 °C 0,0 km/h (0 Bft)
04.05.2017 07:11 3,6 °C 3,6 °C 95 % 1014,5 hPa 0,0 mm 0,0 km/h (0 Bft) SW 214 ° 0 min 0,000 mm 0,0 UV-I 70 W/m² 2,9 °C 3,6 °C 0,0 km/h (0 Bft)
04.05.2017 07:12 3,5 °C 3,6 °C 95 % 1014,4 hPa 0,0 mm 0,0 km/h (0 Bft) SW 214 ° 0 min 0,000 mm 0,0 UV-I 70 W/m² 2,8 °C 3,5 °C 0,0 km/h (0 Bft)
04.05.2017 07:13 3,5 °C 3,6 °C 95 % 1014,5 hPa 0,0 mm 0,0 km/h (0 Bft) SW 214 ° 0 min 0,000 mm 0,0 UV-I 70 W/m² 2,8 °C 3,5 °C 0,0 km/h (0 Bft)
04.05.2017 07:14 3,6 °C 3,6 °C 95 % 1014,4 hPa 0,0 mm 0,0 km/h (0 Bft) SW 214 ° 0 min 0,000 mm 0,0 UV-I 69 W/m² 2,9 °C 3,6 °C 0,0 km/h (0 Bft)
04.05.2017 07:15 3,6 °C 3,6 °C 95 % 1014,4 hPa 0,0 mm 0,0 km/h (0 Bft) SW 214 ° 0 min 0,000 mm 0,0 UV-I 69 W/m² 2,9 °C 3,6 °C 0,0 km/h (0 Bft)
04.05.2017 07:16 3,6 °C 3,6 °C 95 % 1014,4 hPa 0,0 mm 0,0 km/h (0 Bft) SW 214 ° 0 min 0,000 mm 0,0 UV-I 69 W/m² 2,9 °C 3,6 °C 0,0 km/h (0 Bft)
04.05.2017 07:17 3,6 °C 3,6 °C 95 % 1014,4 hPa 0,0 mm 0,0 km/h (0 Bft) SW 214 ° 0 min 0,000 mm 0,0 UV-I 69 W/m² 2,9 °C 3,6 °C 0,0 km/h (0 Bft)
04.05.2017 07:18 3,6 °C 3,6 °C 95 % 1014,4 hPa 0,0 mm 0,0 km/h (0 Bft) SW 214 ° 0 min 0,000 mm 0,0 UV-I 69 W/m² 2,9 °C 3,6 °C 0,0 km/h (0 Bft)
04.05.2017 07:19 3,6 °C 3,6 °C 95 % 1014,4 hPa 0,0 mm 0,0 km/h (0 Bft) SW 214 ° 0 min 0,000 mm 0,5 UV-I 69 W/m² 2,9 °C 3,6 °C 0,0 km/h (0 Bft)
04.05.2017 07:20 3,6 °C 3,6 °C 95 % 1014,4 hPa 0,0 mm 0,0 km/h (0 Bft) SW 214 ° 0 min 0,000 mm 0,5 UV-I 69 W/m² 2,9 °C 3,6 °C 0,0 km/h (0 Bft)
04.05.2017 07:21 3,6 °C 3,6 °C 95 % 1014,4 hPa 0,0 mm 0,0 km/h (0 Bft) SW 214 ° 0 min 0,000 mm 0,5 UV-I 67 W/m² 2,9 °C 3,6 °C 0,0 km/h (0 Bft)
04.05.2017 07:22 3,7 °C 3,7 °C 95 % 1014,4 hPa 0,0 mm 0,0 km/h (0 Bft) SW 214 ° 0 min 0,000 mm 0,5 UV-I 67 W/m² 3,0 °C 3,7 °C 0,0 km/h (0 Bft)
04.05.2017 07:23 3,7 °C 3,7 °C 95 % 1014,4 hPa 0,0 mm 0,0 km/h (0 Bft) SW 214 ° 0 min 0,000 mm 0,5 UV-I 67 W/m² 3,0 °C 3,7 °C 0,0 km/h (0 Bft)
04.05.2017 07:24 3,7 °C 3,7 °C 95 % 1014,4 hPa 0,0 mm 0,0 km/h (0 Bft) SW 214 ° 0 min 0,000 mm 0,5 UV-I 67 W/m² 3,0 °C 3,7 °C 0,0 km/h (0 Bft)
04.05.2017 07:25 3,7 °C 3,7 °C 95 % 1014,4 hPa 0,0 mm 0,0 km/h (0 Bft) SW 214 ° 0 min 0,000 mm 0,5 UV-I 67 W/m² 3,0 °C 3,7 °C 0,0 km/h (0 Bft)
04.05.2017 07:26 3,7 °C 3,7 °C 95 % 1014,3 hPa 0,0 mm 0,0 km/h (0 Bft) SW 214 ° 0 min 0,000 mm 0,5 UV-I 67 W/m² 3,0 °C 3,7 °C 0,0 km/h (0 Bft)
04.05.2017 07:27 3,8 °C 3,8 °C 95 % 1014,3 hPa 0,0 mm 0,0 km/h (0 Bft) SW 214 ° 0 min 0,000 mm 0,5 UV-I 69 W/m² 3,1 °C 3,8 °C 0,0 km/h (0 Bft)
04.05.2017 07:28 3,8 °C 3,8 °C 95 % 1014,3 hPa 0,0 mm 0,0 km/h (0 Bft) SW 214 ° 0 min 0,000 mm 0,5 UV-I 70 W/m² 3,1 °C 3,8 °C 0,0 km/h (0 Bft)
04.05.2017 07:29 3,8 °C 3,8 °C 95 % 1014,3 hPa 0,0 mm 0,0 km/h (0 Bft) SW 214 ° 0 min 0,000 mm 0,5 UV-I 70 W/m² 3,1 °C 3,8 °C 0,0 km/h (0 Bft)
04.05.2017 07:30 3,8 °C 3,8 °C 95 % 1014,3 hPa 0,0 mm 0,0 km/h (0 Bft) SW 214 ° 0 min 0,000 mm 0,5 UV-I 72 W/m² 3,1 °C 3,8 °C 0,0 km/h (0 Bft)
04.05.2017 07:31 3,8 °C 3,8 °C 95 % 1014,3 hPa 0,0 mm 0,0 km/h (0 Bft) SW 214 ° 0 min 0,000 mm 0,5 UV-I 72 W/m² 3,1 °C 3,8 °C 0,0 km/h (0 Bft)
04.05.2017 07:32 3,8 °C 3,8 °C 95 % 1014,3 hPa 0,0 mm 0,0 km/h (0 Bft) SW 214 ° 0 min 0,000 mm 0,5 UV-I 72 W/m² 3,1 °C 3,8 °C 0,0 km/h (0 Bft)
04.05.2017 07:33 3,9 °C 3,9 °C 95 % 1014,3 hPa 0,0 mm 0,0 km/h (0 Bft) SW 214 ° 0 min 0,000 mm 0,5 UV-I 74 W/m² 3,2 °C 3,9 °C 0,0 km/h (0 Bft)
04.05.2017 07:34 3,9 °C 3,9 °C 95 % 1014,3 hPa 0,0 mm 0,0 km/h (0 Bft) SW 214 ° 0 min 0,000 mm 0,5 UV-I 76 W/m² 3,2 °C 3,9 °C 0,0 km/h (0 Bft)
04.05.2017 07:35 3,9 °C 3,9 °C 95 % 1014,3 hPa 0,0 mm 0,0 km/h (0 Bft) SW 214 ° 0 min 0,000 mm 0,6 UV-I 77 W/m² 3,2 °C 3,9 °C 0,0 km/h (0 Bft)
04.05.2017 07:36 4,0 °C 4,0 °C 95 % 1014,3 hPa 0,0 mm 0,0 km/h (0 Bft) SW 214 ° 0 min 0,000 mm 0,6 UV-I 79 W/m² 3,3 °C 4,0 °C 0,0 km/h (0 Bft)
04.05.2017 07:37 4,1 °C 4,1 °C 95 % 1014,3 hPa 0,0 mm 0,0 km/h (0 Bft) SW 214 ° 0 min 0,000 mm 0,6 UV-I 81 W/m² 3,4 °C 4,1 °C 0,0 km/h (0 Bft)
04.05.2017 07:38 4,1 °C 4,1 °C 95 % 1014,3 hPa 0,0 mm 0,0 km/h (0 Bft) SW 214 ° 0 min 0,000 mm 0,6 UV-I 83 W/m² 3,4 °C 4,1 °C 0,0 km/h (0 Bft)
04.05.2017 07:39 4,2 °C 4,2 °C 95 % 1014,3 hPa 0,0 mm 0,0 km/h (0 Bft) SW 214 ° 0 min 0,000 mm 0,6 UV-I 84 W/m² 3,5 °C 4,2 °C 0,0 km/h (0 Bft)
04.05.2017 07:40 4,2 °C 4,2 °C 95 % 1014,3 hPa 0,0 mm 0,0 km/h (0 Bft) SW 214 ° 0 min 0,000 mm 0,6 UV-I 86 W/m² 3,5 °C 4,2 °C 0,0 km/h (0 Bft)
04.05.2017 07:41 4,3 °C 4,3 °C 95 % 1014,2 hPa 0,0 mm 0,0 km/h (0 Bft) SW 214 ° 0 min 0,000 mm 0,6 UV-I 88 W/m² 3,6 °C 4,3 °C 0,0 km/h (0 Bft)
04.05.2017 07:42 4,3 °C 4,3 °C 95 % 1014,3 hPa 0,0 mm 0,0 km/h (0 Bft) SW 214 ° 0 min 0,000 mm 0,6 UV-I 90 W/m² 3,6 °C 4,3 °C 0,0 km/h (0 Bft)
04.05.2017 07:43 4,3 °C 4,4 °C 95 % 1014,2 hPa 0,0 mm 0,0 km/h (0 Bft) SW 214 ° 0 min 0,000 mm 0,6 UV-I 93 W/m² 3,6 °C 4,3 °C 0,0 km/h (0 Bft)
04.05.2017 07:44 4,4 °C 4,4 °C 95 % 1014,2 hPa 0,0 mm 0,0 km/h (0 Bft) SW 214 ° 0 min 0,000 mm 0,6 UV-I 97 W/m² 3,7 °C 4,4 °C 0,0 km/h (0 Bft)
04.05.2017 07:45 4,4 °C 4,4 °C 94 % 1014,3 hPa 0,0 mm 0,0 km/h (0 Bft) SW 214 ° 0 min 0,000 mm 0,7 UV-I 98 W/m² 3,5 °C 4,4 °C 0,0 km/h (0 Bft)
04.05.2017 07:46 4,5 °C 4,5 °C 95 % 1014,2 hPa 0,0 mm 0,0 km/h (0 Bft) SW 214 ° 0 min 0,000 mm 0,7 UV-I 100 W/m² 3,8 °C 4,5 °C 0,0 km/h (0 Bft)
04.05.2017 07:47 4,5 °C 4,5 °C 94 % 1014,2 hPa 0,0 mm 0,0 km/h (0 Bft) SW 214 ° 0 min 0,000 mm 0,7 UV-I 102 W/m² 3,6 °C 4,5 °C 0,0 km/h (0 Bft)
04.05.2017 07:48 4,6 °C 4,6 °C 94 % 1014,2 hPa 0,0 mm 0,0 km/h (0 Bft) SW 214 ° 0 min 0,000 mm 0,7 UV-I 107 W/m² 3,7 °C 4,6 °C 0,0 km/h (0 Bft)
04.05.2017 07:49 4,6 °C 4,6 °C 94 % 1014,2 hPa 0,0 mm 0,0 km/h (0 Bft) SW 214 ° 0 min 0,000 mm 0,7 UV-I 109 W/m² 3,7 °C 4,6 °C 0,0 km/h (0 Bft)
04.05.2017 07:50 4,7 °C 4,7 °C 94 % 1014,2 hPa 0,0 mm 0,0 km/h (0 Bft) SW 214 ° 0 min 0,000 mm 0,7 UV-I 113 W/m² 3,8 °C 4,7 °C 0,0 km/h (0 Bft)
04.05.2017 07:51 4,7 °C 4,7 °C 94 % 1014,2 hPa 0,0 mm 0,0 km/h (0 Bft) SW 214 ° 0 min 0,000 mm 0,7 UV-I 114 W/m² 3,8 °C 4,7 °C 0,0 km/h (0 Bft)
04.05.2017 07:52 4,7 °C 4,7 °C 94 % 1014,2 hPa 0,0 mm 0,0 km/h (0 Bft) SW 214 ° 0 min 0,000 mm 0,7 UV-I 116 W/m² 3,8 °C 4,7 °C 0,0 km/h (0 Bft)
04.05.2017 07:53 4,7 °C 4,7 °C 94 % 1014,2 hPa 0,0 mm 0,0 km/h (0 Bft) SW 214 ° 0 min 0,000 mm 0,7 UV-I 113 W/m² 3,8 °C 4,7 °C 0,0 km/h (0 Bft)
04.05.2017 07:54 4,8 °C 4,8 °C 94 % 1014,2 hPa 0,0 mm 0,0 km/h (0 Bft) SW 214 ° 0 min 0,000 mm 0,7 UV-I 109 W/m² 3,9 °C 4,8 °C 0,0 km/h (0 Bft)
04.05.2017 07:55 4,8 °C 4,8 °C 94 % 1014,2 hPa 0,0 mm 0,0 km/h (0 Bft) SW 214 ° 0 min 0,000 mm 0,8 UV-I 109 W/m² 3,9 °C 4,8 °C 0,0 km/h (0 Bft)
04.05.2017 07:56 4,8 °C 4,8 °C 94 % 1014,2 hPa 0,0 mm 0,0 km/h (0 Bft) SW 214 ° 0 min 0,000 mm 0,8 UV-I 109 W/m² 3,9 °C 4,8 °C 0,0 km/h (0 Bft)
04.05.2017 07:57 4,8 °C 4,8 °C 94 % 1014,2 hPa 0,0 mm 0,0 km/h (0 Bft) SW 214 ° 0 min 0,000 mm 0,8 UV-I 111 W/m² 3,9 °C 4,8 °C 0,0 km/h (0 Bft)
04.05.2017 07:58 4,9 °C 4,9 °C 94 % 1014,2 hPa 0,0 mm 0,0 km/h (0 Bft) SW 214 ° 0 min 0,000 mm 0,8 UV-I 109 W/m² 4,0 °C 4,9 °C 0,0 km/h (0 Bft)
04.05.2017 07:59 4,9 °C 4,9 °C 94 % 1014,2 hPa 0,0 mm 0,0 km/h (0 Bft) SW 214 ° 0 min 0,000 mm 0,8 UV-I 109 W/m² 4,0 °C 4,9 °C 0,0 km/h (0 Bft)
04.05.2017 08:00 5,0 °C 5,0 °C 94 % 1014,2 hPa 0,0 mm 0,0 km/h (0 Bft) SW 214 ° 0 min 0,000 mm 0,8 UV-I 109 W/m² 4,1 °C 5,0 °C 0,0 km/h (0 Bft)
04.05.2017 08:01 5,0 °C 5,0 °C 94 % 1014,2 hPa 0,0 mm 0,0 km/h (0 Bft) SW 214 ° 0 min 0,025 mm 0,8 UV-I 109 W/m² 4,1 °C 5,0 °C 0,0 km/h (0 Bft)
04.05.2017 08:02 5,1 °C 5,1 °C 94 % 1014,2 hPa 0,0 mm 0,0 km/h (0 Bft) SW 214 ° 0 min 0,000 mm 0,8 UV-I 109 W/m² 4,2 °C 5,1 °C 0,0 km/h (0 Bft)
04.05.2017 08:03 5,1 °C 5,1 °C 94 % 1014,1 hPa 0,0 mm 0,0 km/h (0 Bft) SW 214 ° 0 min 0,000 mm 0,8 UV-I 111 W/m² 4,2 °C 5,1 °C 0,0 km/h (0 Bft)
04.05.2017 08:04 5,2 °C 5,2 °C 94 % 1014,2 hPa 0,0 mm 0,0 km/h (0 Bft) SW 214 ° 0 min 0,000 mm 0,8 UV-I 113 W/m² 4,3 °C 5,2 °C 0,0 km/h (0 Bft)
04.05.2017 08:05 5,2 °C 5,2 °C 93 % 1014,2 hPa 0,0 mm 0,0 km/h (0 Bft) SW 214 ° 0 min 0,000 mm 0,8 UV-I 114 W/m² 4,2 °C 5,2 °C 0,0 km/h (0 Bft)
04.05.2017 08:06 5,3 °C 5,3 °C 94 % 1014,2 hPa 0,0 mm 0,0 km/h (0 Bft) SW 214 ° 0 min 0,000 mm 0,8 UV-I 123 W/m² 4,4 °C 5,3 °C 0,0 km/h (0 Bft)
04.05.2017 08:07 5,3 °C 5,3 °C 94 % 1014,1 hPa 0,0 mm 0,0 km/h (0 Bft) SW 214 ° 0 min 0,000 mm 0,9 UV-I 127 W/m² 4,4 °C 5,3 °C 0,0 km/h (0 Bft)
04.05.2017 08:08 5,3 °C 5,3 °C 94 % 1014,1 hPa 0,0 mm 0,0 km/h (0 Bft) SW 214 ° 0 min 0,000 mm 0,9 UV-I 132 W/m² 4,4 °C 5,3 °C 0,0 km/h (0 Bft)
04.05.2017 08:09 5,4 °C 5,4 °C 94 % 1014,2 hPa 0,0 mm 0,0 km/h (0 Bft) SW 214 ° 0 min 0,000 mm 0,9 UV-I 134 W/m² 4,5 °C 5,4 °C 0,0 km/h (0 Bft)
04.05.2017 08:10 5,4 °C 5,4 °C 94 % 1014,2 hPa 0,0 mm 0,0 km/h (0 Bft) SW 214 ° 0 min 0,000 mm 0,9 UV-I 134 W/m² 4,5 °C 5,4 °C 0,0 km/h (0 Bft)
04.05.2017 08:11 5,4 °C 5,4 °C 93 % 1014,2 hPa 0,0 mm 0,0 km/h (0 Bft) SW 214 ° 0 min 0,000 mm 0,9 UV-I 130 W/m² 4,4 °C 5,4 °C 0,0 km/h (0 Bft)
04.05.2017 08:12 5,4 °C 5,4 °C 93 % 1014,2 hPa 0,0 mm 0,0 km/h (0 Bft) SW 214 ° 0 min 0,000 mm 0,9 UV-I 132 W/m² 4,4 °C 5,4 °C 0,0 km/h (0 Bft)
04.05.2017 08:13 5,4 °C 5,4 °C 93 % 1014,2 hPa 0,0 mm 0,0 km/h (0 Bft) SW 214 ° 0 min 0,000 mm 0,9 UV-I 128 W/m² 4,4 °C 5,4 °C 0,0 km/h (0 Bft)
04.05.2017 08:14 5,4 °C 5,5 °C 93 % 1014,2 hPa 0,0 mm 0,0 km/h (0 Bft) SW 214 ° 0 min 0,000 mm 0,9 UV-I 128 W/m² 4,4 °C 5,4 °C 0,0 km/h (0 Bft)
04.05.2017 08:15 5,4 °C 5,5 °C 93 % 1014,2 hPa 0,0 mm 0,0 km/h (0 Bft) SW 214 ° 0 min 0,000 mm 0,9 UV-I 125 W/m² 4,4 °C 5,4 °C 0,0 km/h (0 Bft)
04.05.2017 08:16 5,5 °C 5,5 °C 93 % 1014,2 hPa 0,0 mm 0,0 km/h (0 Bft) SW 214 ° 0 min 0,000 mm 0,9 UV-I 123 W/m² 4,5 °C 5,5 °C 0,0 km/h (0 Bft)
04.05.2017 08:17 5,5 °C 5,5 °C 93 % 1014,2 hPa 0,0 mm 0,0 km/h (0 Bft) SW 214 ° 0 min 0,000 mm 0,9 UV-I 125 W/m² 4,5 °C 5,5 °C 0,0 km/h (0 Bft)
04.05.2017 08:18 5,6 °C 5,6 °C 93 % 1014,2 hPa 0,0 mm 0,0 km/h (0 Bft) SW 214 ° 0 min 0,000 mm 0,9 UV-I 125 W/m² 4,6 °C 5,6 °C 0,0 km/h (0 Bft)
04.05.2017 08:19 5,6 °C 5,6 °C 93 % 1014,2 hPa 0,0 mm 0,0 km/h (0 Bft) SW 214 ° 0 min 0,000 mm 0,9 UV-I 128 W/m² 4,6 °C 5,6 °C 0,0 km/h (0 Bft)
04.05.2017 08:20 5,6 °C 5,6 °C 93 % 1014,2 hPa 0,0 mm 0,0 km/h (0 Bft) SW 214 ° 0 min 0,000 mm 1,0 UV-I 130 W/m² 4,6 °C 5,6 °C 0,0 km/h (0 Bft)
04.05.2017 08:21 5,6 °C 5,6 °C 93 % 1014,2 hPa 0,0 mm 0,0 km/h (0 Bft) SW 214 ° 0 min 0,000 mm 1,0 UV-I 132 W/m² 4,6 °C 5,6 °C 0,0 km/h (0 Bft)
04.05.2017 08:22 5,6 °C 5,6 °C 93 % 1014,1 hPa 0,0 mm 0,0 km/h (0 Bft) SW 214 ° 0 min 0,000 mm 1,0 UV-I 134 W/m² 4,6 °C 5,6 °C 0,0 km/h (0 Bft)
04.05.2017 08:23 5,7 °C 5,7 °C 93 % 1014,1 hPa 0,0 mm 0,0 km/h (0 Bft) SW 214 ° 0 min 0,000 mm 1,0 UV-I 134 W/m² 4,7 °C 5,7 °C 0,0 km/h (0 Bft)
04.05.2017 08:24 5,7 °C 5,7 °C 93 % 1014,1 hPa 0,0 mm 0,0 km/h (0 Bft) SW 214 ° 0 min 0,000 mm 1,0 UV-I 134 W/m² 4,7 °C 5,7 °C 0,0 km/h (0 Bft)
04.05.2017 08:25 5,7 °C 5,7 °C 93 % 1014,2 hPa 0,0 mm 0,0 km/h (0 Bft) SW 214 ° 0 min 0,000 mm 1,0 UV-I 135 W/m² 4,7 °C 5,7 °C 0,0 km/h (0 Bft)
04.05.2017 08:26 5,7 °C 5,7 °C 92 % 1014,1 hPa 0,0 mm 0,0 km/h (0 Bft) SW 214 ° 0 min 0,000 mm 1,0 UV-I 139 W/m² 4,5 °C 5,7 °C 0,0 km/h (0 Bft)
04.05.2017 08:27 5,7 °C 5,7 °C 92 % 1014,1 hPa 0,0 mm 0,0 km/h (0 Bft) SW 214 ° 0 min 0,000 mm 1,0 UV-I 142 W/m² 4,5 °C 5,7 °C 0,0 km/h (0 Bft)
04.05.2017 08:28 5,8 °C 5,8 °C 93 % 1014,2 hPa 0,0 mm 0,0 km/h (0 Bft) SW 214 ° 0 min 0,000 mm 1,1 UV-I 146 W/m² 4,8 °C 5,8 °C 0,0 km/h (0 Bft)
04.05.2017 08:29 5,8 °C 5,8 °C 93 % 1014,1 hPa 0,0 mm 0,0 km/h (0 Bft) SW 214 ° 0 min 0,000 mm 1,1 UV-I 151 W/m² 4,8 °C 5,8 °C 0,0 km/h (0 Bft)
04.05.2017 08:30 5,9 °C 5,9 °C 93 % 1014,2 hPa 0,0 mm 0,0 km/h (0 Bft) SW 214 ° 0 min 0,000 mm 1,1 UV-I 155 W/m² 4,9 °C 5,9 °C 0,0 km/h (0 Bft)
04.05.2017 08:31 5,9 °C 5,9 °C 93 % 1014,1 hPa 0,0 mm 0,0 km/h (0 Bft) SW 214 ° 0 min 0,000 mm 1,1 UV-I 158 W/m² 4,9 °C 5,9 °C 0,0 km/h (0 Bft)
04.05.2017 08:32 6,0 °C 6,0 °C 92 % 1014,1 hPa 0,0 mm 0,0 km/h (0 Bft) SW 214 ° 0 min 0,000 mm 1,1 UV-I 165 W/m² 4,8 °C 6,0 °C 0,0 km/h (0 Bft)
04.05.2017 08:33 6,0 °C 6,0 °C 93 % 1014,1 hPa 0,0 mm 0,0 km/h (0 Bft) SW 214 ° 0 min 0,000 mm 1,2 UV-I 171 W/m² 5,0 °C 6,0 °C 0,0 km/h (0 Bft)
04.05.2017 08:34 6,0 °C 6,0 °C 92 % 1014,1 hPa 0,0 mm 0,0 km/h (0 Bft) SW 214 ° 0 min 0,000 mm 1,2 UV-I 176 W/m² 4,8 °C 6,0 °C 0,0 km/h (0 Bft)
04.05.2017 08:35 6,0 °C 6,0 °C 92 % 1014,1 hPa 0,0 mm 0,0 km/h (0 Bft) SW 214 ° 0 min 0,000 mm 1,2 UV-I 185 W/m² 4,8 °C 6,0 °C 0,0 km/h (0 Bft)
04.05.2017 08:36 6,1 °C 6,1 °C 92 % 1014,1 hPa 0,0 mm 0,0 km/h (0 Bft) SW 214 ° 0 min 0,000 mm 1,3 UV-I 199 W/m² 4,9 °C 6,1 °C 0,0 km/h (0 Bft)
04.05.2017 08:37 6,1 °C 6,1 °C 92 % 1014,1 hPa 0,0 mm 0,0 km/h (0 Bft) SW 214 ° 0 min 0,000 mm 1,3 UV-I 207 W/m² 4,9 °C 6,1 °C 0,0 km/h (0 Bft)
04.05.2017 08:38 6,1 °C 6,1 °C 92 % 1014,1 hPa 0,0 mm 0,0 km/h (0 Bft) SW 214 ° 0 min 0,000 mm 1,3 UV-I 209 W/m² 4,9 °C 6,1 °C 0,0 km/h (0 Bft)
04.05.2017 08:39 6,1 °C 6,1 °C 91 % 1014,1 hPa 0,0 mm 0,0 km/h (0 Bft) SW 214 ° 0 min 0,000 mm 1,3 UV-I 211 W/m² 4,7 °C 6,1 °C 0,0 km/h (0 Bft)
04.05.2017 08:40 6,2 °C 6,2 °C 92 % 1014,1 hPa 0,0 mm 0,0 km/h (0 Bft) SW 214 ° 0 min 0,000 mm 1,3 UV-I 207 W/m² 5,0 °C 6,2 °C 0,0 km/h (0 Bft)
04.05.2017 08:41 6,2 °C 6,2 °C 92 % 1014,1 hPa 0,0 mm 0,0 km/h (0 Bft) SW 214 ° 0 min 0,000 mm 1,3 UV-I 211 W/m² 5,0 °C 6,2 °C 0,0 km/h (0 Bft)
04.05.2017 08:42 6,3 °C 6,3 °C 92 % 1014,1 hPa 0,0 mm 0,0 km/h (0 Bft) SW 214 ° 0 min 0,000 mm 1,3 UV-I 204 W/m² 5,1 °C 6,3 °C 0,0 km/h (0 Bft)
04.05.2017 08:43 6,4 °C 6,4 °C 92 % 1014,1 hPa 0,0 mm 0,0 km/h (0 Bft) SW 214 ° 0 min 0,000 mm 1,3 UV-I 207 W/m² 5,2 °C 6,4 °C 0,0 km/h (0 Bft)
04.05.2017 08:44 6,5 °C 6,5 °C 92 % 1014,1 hPa 0,0 mm 0,0 km/h (0 Bft) SW 214 ° 0 min 0,000 mm 1,3 UV-I 204 W/m² 5,3 °C 6,5 °C 0,0 km/h (0 Bft)
04.05.2017 08:45 6,6 °C 6,6 °C 92 % 1014,1 hPa 0,0 mm 0,1 km/h (0 Bft) SW 214 ° 0 min 0,000 mm 1,3 UV-I 206 W/m² 5,4 °C 6,6 °C 1,6 km/h (1 Bft)
04.05.2017 08:46 6,7 °C 6,7 °C 92 % 1014,1 hPa 0,0 mm 0,0 km/h (0 Bft) SW 214 ° 0 min 0,000 mm 1,4 UV-I 209 W/m² 5,5 °C 6,7 °C 0,0 km/h (0 Bft)
04.05.2017 08:47 6,7 °C 6,7 °C 91 % 1014,1 hPa 0,0 mm 0,0 km/h (0 Bft) SW 214 ° 0 min 0,000 mm 1,3 UV-I 200 W/m² 5,3 °C 6,7 °C 0,0 km/h (0 Bft)
04.05.2017 08:48 6,8 °C 6,8 °C 92 % 1014,1 hPa 0,0 mm 0,4 km/h (0 Bft) SW 214 ° 0 min 0,000 mm 1,4 UV-I 202 W/m² 5,6 °C 6,8 °C 1,6 km/h (1 Bft)
04.05.2017 08:49 6,8 °C 6,8 °C 92 % 1014,1 hPa 0,0 mm 0,0 km/h (0 Bft) SW 214 ° 0 min 0,000 mm 1,3 UV-I 195 W/m² 5,6 °C 6,8 °C 0,0 km/h (0 Bft)
04.05.2017 08:50 6,9 °C 6,9 °C 92 % 1014,1 hPa 0,0 mm 0,0 km/h (0 Bft) SW 214 ° 0 min 0,000 mm 1,4 UV-I 199 W/m² 5,7 °C 6,9 °C 0,0 km/h (0 Bft)
04.05.2017 08:51 6,9 °C 6,9 °C 91 % 1014,0 hPa 0,0 mm 0,0 km/h (0 Bft) SW 214 ° 0 min 0,000 mm 1,4 UV-I 199 W/m² 5,5 °C 6,9 °C 0,0 km/h (0 Bft)
04.05.2017 08:52 6,9 °C 6,9 °C 91 % 1014,1 hPa 0,0 mm 0,0 km/h (0 Bft) SW 214 ° 0 min 0,000 mm 1,4 UV-I 209 W/m² 5,5 °C 6,9 °C 0,0 km/h (0 Bft)
04.05.2017 08:53 6,9 °C 6,9 °C 91 % 1014,1 hPa 0,0 mm 0,0 km/h (0 Bft) SW 214 ° 0 min 0,000 mm 1,4 UV-I 206 W/m² 5,5 °C 6,9 °C 0,0 km/h (0 Bft)
04.05.2017 08:54 6,9 °C 6,9 °C 92 % 1014,0 hPa 0,0 mm 0,1 km/h (0 Bft) SW 214 ° 0 min 0,000 mm 1,4 UV-I 209 W/m² 5,7 °C 6,9 °C 1,6 km/h (1 Bft)
04.05.2017 08:55 6,9 °C 6,9 °C 91 % 1014,0 hPa 0,0 mm 0,2 km/h (0 Bft) SW 214 ° 0 min 0,000 mm 1,4 UV-I 209 W/m² 5,5 °C 6,9 °C 1,6 km/h (1 Bft)
04.05.2017 08:56 6,9 °C 6,9 °C 91 % 1014,0 hPa 0,0 mm 0,0 km/h (0 Bft) SW 214 ° 0 min 0,000 mm 1,5 UV-I 229 W/m² 5,5 °C 6,9 °C 0,0 km/h (0 Bft)
04.05.2017 08:57 7,0 °C 7,0 °C 91 % 1014,1 hPa 0,0 mm 0,0 km/h (0 Bft) SW 214 ° 0 min 0,000 mm 1,5 UV-I 227 W/m² 5,6 °C 7,0 °C 0,0 km/h (0 Bft)
04.05.2017 08:58 7,1 °C 7,1 °C 91 % 1014,0 hPa 0,0 mm 0,0 km/h (0 Bft) SW 214 ° 0 min 0,000 mm 1,5 UV-I 229 W/m² 5,7 °C 7,1 °C 0,0 km/h (0 Bft)
04.05.2017 08:59 7,2 °C 7,2 °C 91 % 1014,0 hPa 0,0 mm 0,3 km/h (0 Bft) SW 214 ° 0 min 0,000 mm 1,5 UV-I 237 W/m² 5,8 °C 7,2 °C 1,6 km/h (1 Bft)
04.05.2017 09:00 7,2 °C 7,2 °C 90 % 1014,0 hPa 0,0 mm 0,0 km/h (0 Bft) SW 214 ° 0 min 0,077 mm 1,5 UV-I 237 W/m² 5,7 °C 7,2 °C 0,0 km/h (0 Bft)
04.05.2017 09:01 7,1 °C 7,2 °C 90 % 1014,0 hPa 0,0 mm 0,0 km/h (0 Bft) SW 214 ° 0 min 0,000 mm 1,5 UV-I 225 W/m² 5,6 °C 7,1 °C 0,0 km/h (0 Bft)
04.05.2017 09:02 7,1 °C 7,2 °C 90 % 1014,0 hPa 0,0 mm 0,0 km/h (0 Bft) SW 214 ° 0 min 0,000 mm 1,5 UV-I 213 W/m² 5,6 °C 7,1 °C 0,0 km/h (0 Bft)
04.05.2017 09:03 7,1 °C 7,1 °C 90 % 1014,0 hPa 0,0 mm 0,0 km/h (0 Bft) SW 214 ° 0 min 0,000 mm 1,5 UV-I 213 W/m² 5,6 °C 7,1 °C 0,0 km/h (0 Bft)
04.05.2017 09:04 7,2 °C 7,2 °C 90 % 1014,0 hPa 0,0 mm 0,0 km/h (0 Bft) SW 214 ° 0 min 0,000 mm 1,5 UV-I 221 W/m² 5,7 °C 7,2 °C 0,0 km/h (0 Bft)
04.05.2017 09:05 7,1 °C 7,2 °C 90 % 1014,0 hPa 0,0 mm 0,0 km/h (0 Bft) SW 214 ° 0 min 0,000 mm 1,6 UV-I 237 W/m² 5,6 °C 7,1 °C 0,0 km/h (0 Bft)
04.05.2017 09:06 7,2 °C 7,2 °C 90 % 1014,0 hPa 0,0 mm 0,4 km/h (0 Bft) SW 214 ° 0 min 0,000 mm 1,7 UV-I 265 W/m² 5,7 °C 7,2 °C 1,6 km/h (1 Bft)
04.05.2017 09:07 7,3 °C 7,3 °C 91 % 1014,0 hPa 0,0 mm 0,7 km/h (0 Bft) SW 214 ° 1 min 0,000 mm 1,8 UV-I 294 W/m² 5,9 °C 7,3 °C 1,6 km/h (1 Bft)
04.05.2017 09:08 7,5 °C 7,5 °C 91 % 1014,0 hPa 0,0 mm 0,0 km/h (0 Bft) SW 214 ° 1 min 0,000 mm 1,8 UV-I 295 W/m² 6,1 °C 7,5 °C 0,0 km/h (0 Bft)
04.05.2017 09:09 7,6 °C 7,6 °C 90 % 1014,0 hPa 0,0 mm 0,0 km/h (0 Bft) SW 214 ° 1 min 0,000 mm 1,9 UV-I 315 W/m² 6,1 °C 7,6 °C 0,0 km/h (0 Bft)
04.05.2017 09:10 7,6 °C 7,6 °C 89 % 1013,9 hPa 0,0 mm 0,0 km/h (0 Bft) SW 214 ° 1 min 0,000 mm 2,0 UV-I 367 W/m² 5,9 °C 7,6 °C 0,0 km/h (0 Bft)
04.05.2017 09:11 7,7 °C 7,7 °C 90 % 1013,9 hPa 0,0 mm 1,2 km/h (1 Bft) SW 214 ° 1 min 0,000 mm 2,1 UV-I 381 W/m² 6,2 °C 7,7 °C 3,2 km/h (1 Bft)
04.05.2017 09:12 7,8 °C 7,8 °C 90 % 1013,9 hPa 0,0 mm 1,6 km/h (1 Bft) SW 214 ° 1 min 0,000 mm 2,1 UV-I 381 W/m² 6,3 °C 7,8 °C 3,2 km/h (1 Bft)
04.05.2017 09:13 7,9 °C 7,9 °C 90 % 1013,9 hPa 0,0 mm 0,7 km/h (0 Bft) SW 214 ° 1 min 0,000 mm 2,1 UV-I 381 W/m² 6,4 °C 7,9 °C 1,6 km/h (1 Bft)
04.05.2017 09:14 8,1 °C 8,1 °C 90 % 1013,9 hPa 0,0 mm 1,7 km/h (1 Bft) SW 214 ° 1 min 0,000 mm 2,2 UV-I 390 W/m² 6,6 °C 8,1 °C 3,2 km/h (1 Bft)
04.05.2017 09:15 8,3 °C 8,3 °C 90 % 1013,8 hPa 0,0 mm 2,3 km/h (1 Bft) SW 214 ° 1 min 0,000 mm 2,2 UV-I 399 W/m² 6,8 °C 8,3 °C 4,8 km/h (1 Bft)
04.05.2017 09:16 8,3 °C 8,3 °C 90 % 1013,9 hPa 0,0 mm 2,1 km/h (1 Bft) SW 214 ° 1 min 0,000 mm 2,1 UV-I 364 W/m² 6,8 °C 8,3 °C 4,8 km/h (1 Bft)
04.05.2017 09:17 8,3 °C 8,4 °C 88 % 1013,8 hPa 0,0 mm 1,5 km/h (1 Bft) SW 215 ° 1 min 0,000 mm 2,1 UV-I 346 W/m² 6,4 °C 8,3 °C 3,2 km/h (1 Bft)
04.05.2017 09:18 8,3 °C 8,3 °C 87 % 1013,8 hPa 0,0 mm 0,9 km/h (0 Bft) SW 215 ° 1 min 0,000 mm 2,1 UV-I 359 W/m² 6,3 °C 8,3 °C 1,6 km/h (1 Bft)
04.05.2017 09:19 8,3 °C 8,3 °C 88 % 1013,8 hPa 0,0 mm 0,1 km/h (0 Bft) SW 215 ° 1 min 0,000 mm 2,0 UV-I 327 W/m² 6,4 °C 8,3 °C 1,6 km/h (1 Bft)
04.05.2017 09:20 8,3 °C 8,4 °C 87 % 1013,8 hPa 0,0 mm 0,9 km/h (0 Bft) SW 215 ° 1 min 0,000 mm 2,1 UV-I 327 W/m² 6,3 °C 8,3 °C 1,6 km/h (1 Bft)
04.05.2017 09:21 8,4 °C 8,4 °C 87 % 1013,8 hPa 0,0 mm 0,3 km/h (0 Bft) SW 215 ° 1 min 0,000 mm 2,1 UV-I 367 W/m² 6,4 °C 8,4 °C 1,6 km/h (1 Bft)
04.05.2017 09:22 8,4 °C 8,4 °C 87 % 1013,8 hPa 0,0 mm 0,0 km/h (0 Bft) SW 215 ° 1 min 0,000 mm 2,2 UV-I 366 W/m² 6,4 °C 8,4 °C 0,0 km/h (0 Bft)
04.05.2017 09:23 8,4 °C 8,4 °C 87 % 1013,9 hPa 0,0 mm 0,0 km/h (0 Bft) SW 215 ° 1 min 0,000 mm 2,2 UV-I 371 W/m² 6,4 °C 8,4 °C 0,0 km/h (0 Bft)
04.05.2017 09:24 8,5 °C 8,5 °C 85 % 1013,8 hPa 0,0 mm 0,0 km/h (0 Bft) SW 215 ° 1 min 0,000 mm 2,1 UV-I 376 W/m² 6,1 °C 8,5 °C 0,0 km/h (0 Bft)
04.05.2017 09:25 8,6 °C 8,6 °C 86 % 1013,7 hPa 0,0 mm 0,0 km/h (0 Bft) SW 215 ° 1 min 0,000 mm 2,1 UV-I 316 W/m² 6,4 °C 8,6 °C 0,0 km/h (0 Bft)
04.05.2017 09:26 8,6 °C 8,6 °C 85 % 1013,7 hPa 0,0 mm 0,0 km/h (0 Bft) SW 215 ° 1 min 0,000 mm 2,0 UV-I 304 W/m² 6,2 °C 8,6 °C 0,0 km/h (0 Bft)
04.05.2017 09:27 8,6 °C 8,6 °C 84 % 1013,7 hPa 0,0 mm 0,0 km/h (0 Bft) SW 215 ° 1 min 0,000 mm 2,1 UV-I 346 W/m² 6,1 °C 8,6 °C 0,0 km/h (0 Bft)
04.05.2017 09:28 8,6 °C 8,6 °C 83 % 1013,7 hPa 0,0 mm 0,0 km/h (0 Bft) SW 215 ° 1 min 0,000 mm 2,1 UV-I 341 W/m² 5,9 °C 8,6 °C 0,0 km/h (0 Bft)
04.05.2017 09:29 8,6 °C 8,7 °C 83 % 1013,7 hPa 0,0 mm 0,0 km/h (0 Bft) SW 221 ° 1 min 0,000 mm 2,0 UV-I 297 W/m² 5,9 °C 8,6 °C 0,0 km/h (0 Bft)
04.05.2017 09:30 8,7 °C 8,7 °C 84 % 1013,7 hPa 0,0 mm 0,0 km/h (0 Bft) W-NW 286 ° 1 min 0,000 mm 2,1 UV-I 339 W/m² 6,2 °C 8,7 °C 0,0 km/h (0 Bft)
04.05.2017 09:31 8,8 °C 8,8 °C 85 % 1013,7 hPa 0,0 mm 0,0 km/h (0 Bft) W-NW 287 ° 1 min 0,000 mm 2,1 UV-I 334 W/m² 6,4 °C 8,8 °C 0,0 km/h (0 Bft)
04.05.2017 09:32 8,8 °C 8,8 °C 82 % 1013,7 hPa 0,0 mm 0,0 km/h (0 Bft) W-NW 291 ° 1 min 0,000 mm 2,2 UV-I 341 W/m² 5,9 °C 8,8 °C 0,0 km/h (0 Bft)
04.05.2017 09:33 8,8 °C 8,8 °C 84 % 1013,7 hPa 0,0 mm 2,5 km/h (1 Bft) W-NW 293 ° 1 min 0,000 mm 2,2 UV-I 348 W/m² 6,2 °C 8,8 °C 3,2 km/h (1 Bft)
04.05.2017 09:34 8,8 °C 8,8 °C 84 % 1013,7 hPa 0,0 mm 1,3 km/h (1 Bft) W-NW 293 ° 1 min 0,000 mm 2,1 UV-I 332 W/m² 6,2 °C 8,8 °C 3,2 km/h (1 Bft)
04.05.2017 09:35 8,7 °C 8,8 °C 81 % 1013,7 hPa 0,0 mm 1,3 km/h (1 Bft) W-NW 293 ° 1 min 0,000 mm 2,1 UV-I 316 W/m² 5,6 °C 8,7 °C 1,6 km/h (1 Bft)
04.05.2017 09:36 8,7 °C 8,7 °C 81 % 1013,7 hPa 0,0 mm 0,9 km/h (0 Bft) N-NW 327 ° 1 min 0,000 mm 2,2 UV-I 339 W/m² 5,6 °C 8,7 °C 3,2 km/h (1 Bft)
04.05.2017 09:37 8,8 °C 8,8 °C 81 % 1013,7 hPa 0,0 mm 2,5 km/h (1 Bft) N 355 ° 1 min 0,000 mm 2,3 UV-I 353 W/m² 5,7 °C 8,8 °C 3,2 km/h (1 Bft)
04.05.2017 09:38 8,8 °C 8,8 °C 80 % 1013,7 hPa 0,0 mm 4,2 km/h (1 Bft) O-NO 67 ° 1 min 0,000 mm 2,4 UV-I 388 W/m² 5,5 °C 8,8 °C 6,4 km/h (2 Bft)
04.05.2017 09:39 8,8 °C 8,9 °C 79 % 1013,7 hPa 0,0 mm 1,6 km/h (1 Bft) O-NO 67 ° 1 min 0,000 mm 2,4 UV-I 385 W/m² 5,4 °C 8,8 °C 4,8 km/h (1 Bft)
04.05.2017 09:40 8,8 °C 8,8 °C 80 % 1013,7 hPa 0,0 mm 2,0 km/h (1 Bft) O-NO 61 ° 1 min 0,000 mm 2,4 UV-I 403 W/m² 5,5 °C 8,8 °C 4,8 km/h (1 Bft)
04.05.2017 09:41 8,9 °C 8,9 °C 80 % 1013,6 hPa 0,0 mm 3,6 km/h (1 Bft) O-NO 58 ° 1 min 0,000 mm 2,4 UV-I 392 W/m² 5,6 °C 8,9 °C 4,8 km/h (1 Bft)
04.05.2017 09:42 8,9 °C 8,9 °C 80 % 1013,7 hPa 0,0 mm 3,0 km/h (1 Bft) O-NO 58 ° 1 min 0,000 mm 2,3 UV-I 355 W/m² 5,6 °C 8,9 °C 4,8 km/h (1 Bft)
04.05.2017 09:43 8,9 °C 9,0 °C 79 % 1013,7 hPa 0,0 mm 2,3 km/h (1 Bft) O-NO 58 ° 1 min 0,000 mm 2,4 UV-I 385 W/m² 5,5 °C 8,9 °C 4,8 km/h (1 Bft)
04.05.2017 09:44 8,9 °C 8,9 °C 77 % 1013,7 hPa 0,0 mm 1,7 km/h (1 Bft) O-NO 58 ° 1 min 0,000 mm 2,5 UV-I 392 W/m² 5,1 °C 8,9 °C 3,2 km/h (1 Bft)
04.05.2017 09:45 8,9 °C 8,9 °C 80 % 1013,7 hPa 0,0 mm 0,1 km/h (0 Bft) O-NO 58 ° 1 min 0,000 mm 2,6 UV-I 450 W/m² 5,6 °C 8,9 °C 1,6 km/h (1 Bft)
04.05.2017 09:46 9,0 °C 9,0 °C 80 % 1013,6 hPa 0,0 mm 3,7 km/h (1 Bft) NO 46 ° 1 min 0,000 mm 2,8 UV-I 489 W/m² 5,7 °C 9,0 °C 6,4 km/h (2 Bft)
04.05.2017 09:47 9,1 °C 9,1 °C 79 % 1013,6 hPa 0,0 mm 3,3 km/h (1 Bft) NO 46 ° 1 min 0,000 mm 2,7 UV-I 475 W/m² 5,7 °C 9,1 °C 4,8 km/h (1 Bft)
04.05.2017 09:48 9,2 °C 9,2 °C 81 % 1013,6 hPa 0,0 mm 1,6 km/h (1 Bft) NO 46 ° 1 min 0,000 mm 2,5 UV-I 427 W/m² 6,1 °C 9,2 °C 3,2 km/h (1 Bft)
04.05.2017 09:49 9,2 °C 9,2 °C 81 % 1013,7 hPa 0,0 mm 3,8 km/h (1 Bft) NO 42 ° 1 min 0,000 mm 2,6 UV-I 422 W/m² 6,1 °C 9,2 °C 4,8 km/h (1 Bft)
04.05.2017 09:50 9,3 °C 9,3 °C 79 % 1013,7 hPa 0,0 mm 2,7 km/h (1 Bft) NO 44 ° 1 min 0,000 mm 2,5 UV-I 396 W/m² 5,8 °C 9,3 °C 4,8 km/h (1 Bft)
04.05.2017 09:51 9,3 °C 9,3 °C 79 % 1013,6 hPa 0,0 mm 0,9 km/h (0 Bft) NO 44 ° 1 min 0,000 mm 2,2 UV-I 316 W/m² 5,8 °C 9,3 °C 3,2 km/h (1 Bft)
04.05.2017 09:52 9,2 °C 9,3 °C 79 % 1013,6 hPa 0,0 mm 1,9 km/h (1 Bft) NO 44 ° 1 min 0,000 mm 2,2 UV-I 309 W/m² 5,8 °C 9,2 °C 3,2 km/h (1 Bft)
04.05.2017 09:53 9,3 °C 9,3 °C 80 % 1013,6 hPa 0,0 mm 0,8 km/h (0 Bft) NO 44 ° 1 min 0,000 mm 2,3 UV-I 327 W/m² 6,0 °C 9,3 °C 3,2 km/h (1 Bft)
04.05.2017 09:54 9,2 °C 9,3 °C 80 % 1013,6 hPa 0,0 mm 0,3 km/h (0 Bft) NO 44 ° 1 min 0,000 mm 2,3 UV-I 336 W/m² 5,9 °C 9,2 °C 1,6 km/h (1 Bft)
04.05.2017 09:55 9,2 °C 9,2 °C 80 % 1013,6 hPa 0,0 mm 1,7 km/h (1 Bft) NO 37 ° 1 min 0,000 mm 2,3 UV-I 327 W/m² 5,9 °C 9,2 °C 4,8 km/h (1 Bft)
04.05.2017 09:56 9,3 °C 9,3 °C 80 % 1013,6 hPa 0,0 mm 2,3 km/h (1 Bft) NO 37 ° 1 min 0,000 mm 2,2 UV-I 306 W/m² 6,0 °C 9,3 °C 3,2 km/h (1 Bft)
04.05.2017 09:57 9,3 °C 9,3 °C 78 % 1013,7 hPa 0,0 mm 1,0 km/h (0 Bft) NO 37 ° 1 min 0,000 mm 2,3 UV-I 411 W/m² 5,7 °C 9,3 °C 3,2 km/h (1 Bft)
04.05.2017 09:58 9,4 °C 9,4 °C 80 % 1013,7 hPa 0,0 mm 1,2 km/h (1 Bft) NO 47 ° 1 min 0,000 mm 2,6 UV-I 410 W/m² 6,1 °C 9,4 °C 4,8 km/h (1 Bft)
04.05.2017 09:59 9,4 °C 9,4 °C 79 % 1013,6 hPa 0,0 mm 1,9 km/h (1 Bft) O-NO 59 ° 1 min 0,000 mm 2,5 UV-I 380 W/m² 5,9 °C 9,4 °C 3,2 km/h (1 Bft)
04.05.2017 10:00 9,4 °C 9,4 °C 81 % 1013,6 hPa 0,0 mm 3,3 km/h (1 Bft) O-NO 59 ° 1 min 0,000 mm 2,8 UV-I 454 W/m² 6,3 °C 9,4 °C 6,4 km/h (2 Bft)
04.05.2017 10:01 9,4 °C 9,5 °C 80 % 1013,7 hPa 0,0 mm 1,9 km/h (1 Bft) O-NO 59 ° 1 min 0,152 mm 2,8 UV-I 485 W/m² 6,1 °C 9,4 °C 3,2 km/h (1 Bft)
04.05.2017 10:02 9,4 °C 9,4 °C 80 % 1013,7 hPa 0,0 mm 2,5 km/h (1 Bft) O-NO 59 ° 1 min 0,000 mm 2,8 UV-I 418 W/m² 6,1 °C 9,4 °C 3,2 km/h (1 Bft)
04.05.2017 10:03 9,4 °C 9,4 °C 79 % 1013,6 hPa 0,0 mm 3,5 km/h (1 Bft) N-NO 29 ° 1 min 0,000 mm 2,8 UV-I 475 W/m² 5,9 °C 9,4 °C 4,8 km/h (1 Bft)
04.05.2017 10:04 9,4 °C 9,4 °C 80 % 1013,6 hPa 0,0 mm 3,3 km/h (1 Bft) N-NO 26 ° 1 min 0,000 mm 2,6 UV-I 387 W/m² 6,1 °C 9,4 °C 4,8 km/h (1 Bft)
04.05.2017 10:05 9,4 °C 9,5 °C 79 % 1013,6 hPa 0,0 mm 0,3 km/h (0 Bft) N-NO 26 ° 1 min 0,000 mm 2,3 UV-I 332 W/m² 5,9 °C 9,4 °C 1,6 km/h (1 Bft)
04.05.2017 10:06 9,4 °C 9,4 °C 79 % 1013,6 hPa 0,0 mm 3,3 km/h (1 Bft) O 83 ° 1 min 0,000 mm 2,3 UV-I 315 W/m² 5,9 °C 9,4 °C 6,4 km/h (2 Bft)
04.05.2017 10:07 9,4 °C 9,4 °C 80 % 1013,6 hPa 0,0 mm 4,0 km/h (1 Bft) O 84 ° 1 min 0,000 mm 2,3 UV-I 316 W/m² 6,1 °C 9,4 °C 6,4 km/h (2 Bft)
04.05.2017 10:08 9,4 °C 9,4 °C 80 % 1013,6 hPa 0,0 mm 3,3 km/h (1 Bft) O 84 ° 1 min 0,000 mm 2,3 UV-I 330 W/m² 6,1 °C 9,4 °C 4,8 km/h (1 Bft)
04.05.2017 10:09 9,4 °C 9,4 °C 79 % 1013,6 hPa 0,0 mm 2,7 km/h (1 Bft) O 82 ° 1 min 0,000 mm 2,4 UV-I 367 W/m² 5,9 °C 9,4 °C 8,0 km/h (2 Bft)
04.05.2017 10:10 9,4 °C 9,4 °C 79 % 1013,6 hPa 0,0 mm 6,0 km/h (2 Bft) O 92 ° 1 min 0,000 mm 2,6 UV-I 406 W/m² 5,9 °C 8,8 °C 8,0 km/h (2 Bft)
04.05.2017 10:11 9,4 °C 9,5 °C 79 % 1013,7 hPa 0,0 mm 4,7 km/h (1 Bft) O 88 ° 1 min 0,000 mm 2,5 UV-I 399 W/m² 5,9 °C 9,2 °C 6,4 km/h (2 Bft)
04.05.2017 10:12 9,4 °C 9,4 °C 79 % 1013,7 hPa 0,0 mm 5,6 km/h (1 Bft) O 90 ° 1 min 0,000 mm 2,6 UV-I 404 W/m² 5,9 °C 8,9 °C 9,7 km/h (2 Bft)
04.05.2017 10:13 9,4 °C 9,4 °C 79 % 1013,6 hPa 0,0 mm 3,1 km/h (1 Bft) O 90 ° 1 min 0,000 mm 2,7 UV-I 425 W/m² 5,9 °C 9,4 °C 6,4 km/h (2 Bft)
04.05.2017 10:14 9,6 °C 9,6 °C 81 % 1013,6 hPa 0,0 mm 2,0 km/h (1 Bft) O 91 ° 1 min 0,000 mm 2,7 UV-I 448 W/m² 6,5 °C 9,6 °C 3,2 km/h (1 Bft)
04.05.2017 10:15 9,6 °C 9,6 °C 79 % 1013,6 hPa 0,0 mm 3,3 km/h (1 Bft) O 88 ° 1 min 0,000 mm 2,8 UV-I 455 W/m² 6,1 °C 9,6 °C 4,8 km/h (1 Bft)
04.05.2017 10:16 9,7 °C 9,7 °C 81 % 1013,6 hPa 0,0 mm 3,0 km/h (1 Bft) NO 54 ° 1 min 0,000 mm 2,9 UV-I 482 W/m² 6,6 °C 9,7 °C 4,8 km/h (1 Bft)
04.05.2017 10:17 9,7 °C 9,7 °C 80 % 1013,6 hPa 0,0 mm 4,2 km/h (1 Bft) O-NO 63 ° 1 min 0,000 mm 2,9 UV-I 490 W/m² 6,4 °C 9,7 °C 6,4 km/h (2 Bft)
04.05.2017 10:18 9,7 °C 9,7 °C 79 % 1013,6 hPa 0,0 mm 0,9 km/h (0 Bft) O-NO 63 ° 1 min 0,000 mm 3,0 UV-I 499 W/m² 6,2 °C 9,7 °C 3,2 km/h (1 Bft)
04.05.2017 10:19 9,7 °C 9,7 °C 79 % 1013,6 hPa 0,0 mm 0,0 km/h (0 Bft) O-NO 63 ° 1 min 0,000 mm 3,1 UV-I 524 W/m² 6,2 °C 9,7 °C 0,0 km/h (0 Bft)
04.05.2017 10:20 9,8 °C 9,8 °C 80 % 1013,6 hPa 0,0 mm 0,0 km/h (0 Bft) O-NO 63 ° 1 min 0,000 mm 3,1 UV-I 510 W/m² 6,5 °C 9,8 °C 0,0 km/h (0 Bft)
04.05.2017 10:21 9,8 °C 9,8 °C 80 % 1013,6 hPa 0,0 mm 0,3 km/h (0 Bft) O-NO 64 ° 1 min 0,000 mm 3,1 UV-I 519 W/m² 6,5 °C 9,8 °C 4,8 km/h (1 Bft)
04.05.2017 10:22 9,9 °C 9,9 °C 81 % 1013,7 hPa 0,0 mm 4,2 km/h (1 Bft) O-NO 72 ° 1 min 0,000 mm 3,2 UV-I 529 W/m² 6,8 °C 9,9 °C 6,4 km/h (2 Bft)
04.05.2017 10:23 10,0 °C 10,0 °C 79 % 1013,7 hPa 0,0 mm 3,3 km/h (1 Bft) N-NO 33 ° 1 min 0,000 mm 3,2 UV-I 571 W/m² 6,5 °C 10,0 °C 6,4 km/h (2 Bft)
04.05.2017 10:24 10,2 °C 10,2 °C 78 % 1013,7 hPa 0,0 mm 5,5 km/h (1 Bft) NO 34 ° 1 min 0,000 mm 3,2 UV-I 548 W/m² 6,5 °C 10,2 °C 9,7 km/h (2 Bft)
04.05.2017 10:25 10,1 °C 10,2 °C 77 % 1013,6 hPa 0,0 mm 4,2 km/h (1 Bft) NO 51 ° 1 min 0,000 mm 3,2 UV-I 547 W/m² 6,3 °C 10,1 °C 6,4 km/h (2 Bft)
04.05.2017 10:26 10,2 °C 10,3 °C 80 % 1013,7 hPa 0,0 mm 2,5 km/h (1 Bft) NO 38 ° 1 min 0,000 mm 3,1 UV-I 520 W/m² 6,9 °C 10,2 °C 4,8 km/h (1 Bft)
04.05.2017 10:27 10,3 °C 10,3 °C 78 % 1013,6 hPa 0,0 mm 3,3 km/h (1 Bft) O-NO 65 ° 1 min 0,000 mm 3,1 UV-I 524 W/m² 6,6 °C 10,3 °C 6,4 km/h (2 Bft)
04.05.2017 10:28 10,3 °C 10,3 °C 77 % 1013,7 hPa 0,0 mm 6,0 km/h (2 Bft) NO 51 ° 1 min 0,000 mm 2,9 UV-I 475 W/m² 6,4 °C 10,3 °C 8,0 km/h (2 Bft)
04.05.2017 10:29 10,2 °C 10,3 °C 77 % 1013,7 hPa 0,0 mm 2,7 km/h (1 Bft) O-NO 75 ° 1 min 0,000 mm 2,9 UV-I 478 W/m² 6,4 °C 10,2 °C 4,8 km/h (1 Bft)
04.05.2017 10:30 10,2 °C 10,2 °C 78 % 1013,7 hPa 0,0 mm 4,0 km/h (1 Bft) NO 36 ° 1 min 0,000 mm 2,9 UV-I 483 W/m² 6,5 °C 10,2 °C 8,0 km/h (2 Bft)
04.05.2017 10:31 10,1 °C 10,2 °C 78 % 1013,6 hPa 0,0 mm 3,8 km/h (1 Bft) N-NO 29 ° 1 min 0,000 mm 2,7 UV-I 461 W/m² 6,4 °C 10,1 °C 4,8 km/h (1 Bft)
04.05.2017 10:32 10,2 °C 10,2 °C 78 % 1013,7 hPa 0,0 mm 4,3 km/h (1 Bft) NO 47 ° 1 min 0,000 mm 2,7 UV-I 427 W/m² 6,5 °C 10,2 °C 6,4 km/h (2 Bft)
04.05.2017 10:33 10,1 °C 10,2 °C 76 % 1013,7 hPa 0,0 mm 4,6 km/h (1 Bft) O 97 ° 1 min 0,000 mm 2,5 UV-I 411 W/m² 6,1 °C 10,1 °C 6,4 km/h (2 Bft)
04.05.2017 10:34 10,1 °C 10,1 °C 77 % 1013,7 hPa 0,0 mm 5,7 km/h (1 Bft) NO 49 ° 1 min 0,000 mm 2,5 UV-I 417 W/m² 6,3 °C 10,1 °C 11,3 km/h (2 Bft)
04.05.2017 10:35 10,0 °C 10,1 °C 78 % 1013,7 hPa 0,0 mm 3,9 km/h (1 Bft) NO 35 ° 1 min 0,000 mm 2,4 UV-I 413 W/m² 6,3 °C 10,0 °C 4,8 km/h (1 Bft)
04.05.2017 10:36 10,0 °C 10,1 °C 77 % 1013,7 hPa 0,0 mm 6,5 km/h (2 Bft) O-SO 118 ° 1 min 0,000 mm 2,4 UV-I 396 W/m² 6,2 °C 9,3 °C 11,3 km/h (2 Bft)
04.05.2017 10:37 10,0 °C 10,0 °C 78 % 1013,7 hPa 0,0 mm 6,1 km/h (2 Bft) O-SO 107 ° 1 min 0,000 mm 2,3 UV-I 373 W/m² 6,3 °C 9,4 °C 12,9 km/h (3 Bft)
04.05.2017 10:38 10,1 °C 10,1 °C 78 % 1013,7 hPa 0,0 mm 7,4 km/h (2 Bft) O-NO 71 ° 1 min 0,000 mm 2,3 UV-I 309 W/m² 6,4 °C 10,1 °C 12,9 km/h (3 Bft)
04.05.2017 10:39 10,1 °C 10,1 °C 78 % 1013,7 hPa 0,0 mm 3,8 km/h (1 Bft) O-NO 74 ° 1 min 0,000 mm 2,1 UV-I 302 W/m² 6,4 °C 10,1 °C 8,0 km/h (2 Bft)
04.05.2017 10:40 10,1 °C 10,1 °C 77 % 1013,6 hPa 0,0 mm 2,3 km/h (1 Bft) O-NO 74 ° 1 min 0,000 mm 2,1 UV-I 299 W/m² 6,3 °C 10,1 °C 3,2 km/h (1 Bft)
04.05.2017 10:41 10,0 °C 10,1 °C 78 % 1013,7 hPa 0,0 mm 2,7 km/h (1 Bft) O-NO 69 ° 1 min 0,000 mm 2,2 UV-I 304 W/m² 6,3 °C 10,0 °C 6,4 km/h (2 Bft)
04.05.2017 10:42 10,1 °C 10,1 °C 78 % 1013,7 hPa 0,0 mm 7,7 km/h (2 Bft) O 92 ° 1 min 0,000 mm 2,2 UV-I 329 W/m² 6,4 °C 10,1 °C 14,5 km/h (3 Bft)
04.05.2017 10:43 10,0 °C 10,1 °C 77 % 1013,7 hPa 0,0 mm 7,1 km/h (2 Bft) O-SO 117 ° 1 min 0,000 mm 2,2 UV-I 346 W/m² 6,2 °C 9,2 °C 9,7 km/h (2 Bft)
04.05.2017 10:44 10,1 °C 10,1 °C 78 % 1013,7 hPa 0,0 mm 6,6 km/h (2 Bft) O 97 ° 1 min 0,000 mm 2,3 UV-I 334 W/m² 6,4 °C 10,1 °C 11,3 km/h (2 Bft)
04.05.2017 10:45 10,1 °C 10,1 °C 78 % 1013,7 hPa 0,0 mm 7,6 km/h (2 Bft) O-NO 62 ° 1 min 0,000 mm 2,2 UV-I 318 W/m² 6,4 °C 10,1 °C 9,7 km/h (2 Bft)
04.05.2017 10:46 10,1 °C 10,1 °C 78 % 1013,7 hPa 0,0 mm 5,6 km/h (1 Bft) SO 128 ° 1 min 0,000 mm 2,2 UV-I 315 W/m² 6,4 °C 10,1 °C 9,7 km/h (2 Bft)
04.05.2017 10:47 9,9 °C 10,1 °C 76 % 1013,7 hPa 0,0 mm 5,4 km/h (1 Bft) O 83 ° 1 min 0,000 mm 2,2 UV-I 315 W/m² 5,9 °C 9,5 °C 11,3 km/h (2 Bft)
04.05.2017 10:48 9,9 °C 9,9 °C 78 % 1013,7 hPa 0,0 mm 6,7 km/h (2 Bft) O-SO 107 ° 1 min 0,000 mm 2,3 UV-I 318 W/m² 6,2 °C 9,2 °C 11,3 km/h (2 Bft)
04.05.2017 10:49 9,9 °C 9,9 °C 78 % 1013,7 hPa 0,0 mm 4,9 km/h (1 Bft) SO 138 ° 1 min 0,000 mm 2,3 UV-I 352 W/m² 6,2 °C 9,7 °C 8,0 km/h (2 Bft)
04.05.2017 10:50 9,8 °C 9,9 °C 78 % 1013,7 hPa 0,0 mm 3,6 km/h (1 Bft) SO 138 ° 1 min 0,000 mm 2,5 UV-I 369 W/m² 6,1 °C 9,8 °C 6,4 km/h (2 Bft)
04.05.2017 10:51 9,8 °C 9,9 °C 78 % 1013,7 hPa 0,0 mm 0,2 km/h (0 Bft) SO 138 ° 1 min 0,000 mm 2,5 UV-I 369 W/m² 6,1 °C 9,8 °C 1,6 km/h (1 Bft)
04.05.2017 10:52 10,0 °C 10,0 °C 81 % 1013,6 hPa 0,0 mm 2,3 km/h (1 Bft) O 80 ° 1 min 0,000 mm 2,6 UV-I 367 W/m² 6,9 °C 10,0 °C 4,8 km/h (1 Bft)
04.05.2017 10:53 10,1 °C 10,1 °C 79 % 1013,6 hPa 0,0 mm 4,2 km/h (1 Bft) NO 46 ° 1 min 0,000 mm 2,6 UV-I 366 W/m² 6,6 °C 10,1 °C 11,3 km/h (2 Bft)
04.05.2017 10:54 10,2 °C 10,2 °C 79 % 1013,6 hPa 0,0 mm 5,2 km/h (1 Bft) N 360 ° 1 min 0,000 mm 2,5 UV-I 357 W/m² 6,7 °C 10,2 °C 8,0 km/h (2 Bft)
04.05.2017 10:55 10,2 °C 10,3 °C 78 % 1013,6 hPa 0,0 mm 4,2 km/h (1 Bft) O-NO 63 ° 1 min 0,000 mm 2,4 UV-I 325 W/m² 6,5 °C 10,2 °C 6,4 km/h (2 Bft)
04.05.2017 10:56 10,3 °C 10,3 °C 78 % 1013,6 hPa 0,0 mm 6,0 km/h (2 Bft) O 86 ° 1 min 0,000 mm 2,4 UV-I 323 W/m² 6,6 °C 10,3 °C 9,7 km/h (2 Bft)
04.05.2017 10:57 10,2 °C 10,3 °C 78 % 1013,6 hPa 0,0 mm 5,3 km/h (1 Bft) SO 134 ° 1 min 0,000 mm 2,4 UV-I 320 W/m² 6,5 °C 10,2 °C 6,4 km/h (2 Bft)
04.05.2017 10:58 10,1 °C 10,2 °C 76 % 1013,6 hPa 0,0 mm 3,9 km/h (1 Bft) N-NO 27 ° 1 min 0,000 mm 2,4 UV-I 316 W/m² 6,1 °C 10,1 °C 8,0 km/h (2 Bft)
04.05.2017 10:59 10,1 °C 10,1 °C 76 % 1013,6 hPa 0,0 mm 6,5 km/h (2 Bft) O-NO 77 ° 1 min 0,000 mm 2,4 UV-I 320 W/m² 6,1 °C 10,1 °C 12,9 km/h (3 Bft)
04.05.2017 11:00 10,1 °C 10,1 °C 78 % 1013,6 hPa 0,0 mm 6,8 km/h (2 Bft) O 80 ° 1 min 0,203 mm 2,4 UV-I 325 W/m² 6,4 °C 10,1 °C 12,9 km/h (3 Bft)
04.05.2017 11:01 10,1 °C 10,1 °C 77 % 1013,6 hPa 0,0 mm 3,2 km/h (1 Bft) O-NO 70 ° 1 min 0,000 mm 2,4 UV-I 320 W/m² 6,3 °C 10,1 °C 4,8 km/h (1 Bft)
04.05.2017 11:02 10,1 °C 10,1 °C 78 % 1013,6 hPa 0,0 mm 6,8 km/h (2 Bft) O-NO 67 ° 1 min 0,000 mm 2,4 UV-I 318 W/m² 6,4 °C 10,1 °C 12,9 km/h (3 Bft)
04.05.2017 11:03 10,1 °C 10,1 °C 78 % 1013,6 hPa 0,0 mm 9,9 km/h (2 Bft) O 90 ° 1 min 0,000 mm 2,4 UV-I 316 W/m² 6,4 °C 10,1 °C 12,9 km/h (3 Bft)
04.05.2017 11:04 10,1 °C 10,1 °C 77 % 1013,6 hPa 0,0 mm 6,7 km/h (2 Bft) O 95 ° 1 min 0,000 mm 2,5 UV-I 327 W/m² 6,3 °C 10,1 °C 11,3 km/h (2 Bft)
04.05.2017 11:05 10,1 °C 10,1 °C 78 % 1013,6 hPa 0,0 mm 5,4 km/h (1 Bft) O-NO 78 ° 1 min 0,000 mm 2,5 UV-I 338 W/m² 6,4 °C 10,1 °C 8,0 km/h (2 Bft)
04.05.2017 11:06 10,0 °C 10,1 °C 78 % 1013,7 hPa 0,0 mm 6,1 km/h (2 Bft) O 88 ° 1 min 0,000 mm 2,5 UV-I 341 W/m² 6,3 °C 9,4 °C 9,7 km/h (2 Bft)
04.05.2017 11:07 10,1 °C 10,1 °C 79 % 1013,7 hPa 0,0 mm 4,2 km/h (1 Bft) NO 40 ° 1 min 0,000 mm 2,4 UV-I 315 W/m² 6,6 °C 10,1 °C 6,4 km/h (2 Bft)
04.05.2017 11:08 10,1 °C 10,1 °C 78 % 1013,7 hPa 0,0 mm 5,1 km/h (1 Bft) NO 52 ° 1 min 0,000 mm 2,4 UV-I 309 W/m² 6,4 °C 10,1 °C 8,0 km/h (2 Bft)
04.05.2017 11:09 10,1 °C 10,2 °C 78 % 1013,7 hPa 0,0 mm 4,8 km/h (1 Bft) O-NO 67 ° 1 min 0,000 mm 2,3 UV-I 306 W/m² 6,4 °C 10,1 °C 6,4 km/h (2 Bft)
04.05.2017 11:10 10,1 °C 10,2 °C 78 % 1013,7 hPa 0,0 mm 4,8 km/h (1 Bft) O-NO 71 ° 1 min 0,000 mm 2,3 UV-I 306 W/m² 6,4 °C 10,1 °C 6,4 km/h (2 Bft)
04.05.2017 11:11 10,1 °C 10,1 °C 76 % 1013,6 hPa 0,0 mm 2,5 km/h (1 Bft) O-NO 71 ° 1 min 0,000 mm 2,3 UV-I 308 W/m² 6,1 °C 10,1 °C 4,8 km/h (1 Bft)
04.05.2017 11:12 10,1 °C 10,1 °C 77 % 1013,7 hPa 0,0 mm 2,7 km/h (1 Bft) NO 55 ° 1 min 0,000 mm 2,3 UV-I 313 W/m² 6,3 °C 10,1 °C 4,8 km/h (1 Bft)
04.05.2017 11:13 10,1 °C 10,1 °C 77 % 1013,7 hPa 0,0 mm 3,1 km/h (1 Bft) N 360 ° 1 min 0,000 mm 2,4 UV-I 332 W/m² 6,3 °C 10,1 °C 6,4 km/h (2 Bft)
04.05.2017 11:14 10,1 °C 10,1 °C 79 % 1013,6 hPa 0,0 mm 3,7 km/h (1 Bft) NO 45 ° 1 min 0,000 mm 2,4 UV-I 336 W/m² 6,6 °C 10,1 °C 6,4 km/h (2 Bft)
04.05.2017 11:15 10,3 °C 10,3 °C 80 % 1013,6 hPa 0,0 mm 5,9 km/h (2 Bft) NO 46 ° 1 min 0,000 mm 2,3 UV-I 329 W/m² 7,0 °C 10,3 °C 8,0 km/h (2 Bft)
04.05.2017 11:16 10,3 °C 10,3 °C 79 % 1013,6 hPa 0,0 mm 5,7 km/h (1 Bft) O 94 ° 1 min 0,000 mm 2,2 UV-I 299 W/m² 6,8 °C 10,3 °C 9,7 km/h (2 Bft)
04.05.2017 11:17 10,3 °C 10,3 °C 78 % 1013,6 hPa 0,0 mm 5,4 km/h (1 Bft) O 89 ° 1 min 0,000 mm 2,1 UV-I 290 W/m² 6,6 °C 10,3 °C 6,4 km/h (2 Bft)
04.05.2017 11:18 10,3 °C 10,3 °C 79 % 1013,6 hPa 0,0 mm 6,2 km/h (2 Bft) O 98 ° 0 min 0,000 mm 2,1 UV-I 279 W/m² 6,8 °C 10,3 °C 11,3 km/h (2 Bft)
04.05.2017 11:19 10,3 °C 10,3 °C 78 % 1013,6 hPa 0,0 mm 8,0 km/h (2 Bft) NO 47 ° 0 min 0,000 mm 2,1 UV-I 283 W/m² 6,6 °C 10,3 °C 12,9 km/h (3 Bft)
04.05.2017 11:20 10,2 °C 10,3 °C 78 % 1013,6 hPa 0,0 mm 7,3 km/h (2 Bft) O-NO 64 ° 0 min 0,000 mm 2,1 UV-I 283 W/m² 6,5 °C 10,2 °C 9,7 km/h (2 Bft)
04.05.2017 11:21 10,2 °C 10,2 °C 78 % 1013,7 hPa 0,0 mm 6,1 km/h (2 Bft) NO 43 ° 0 min 0,000 mm 2,1 UV-I 288 W/m² 6,5 °C 10,2 °C 9,7 km/h (2 Bft)
04.05.2017 11:22 10,2 °C 10,2 °C 78 % 1013,7 hPa 0,0 mm 6,0 km/h (2 Bft) NO 38 ° 1 min 0,000 mm 2,2 UV-I 294 W/m² 6,5 °C 10,2 °C 8,0 km/h (2 Bft)
04.05.2017 11:23 10,2 °C 10,2 °C 77 % 1013,7 hPa 0,0 mm 6,2 km/h (2 Bft) NO 41 ° 1 min 0,000 mm 2,2 UV-I 297 W/m² 6,4 °C 10,2 °C 8,0 km/h (2 Bft)
04.05.2017 11:24 10,1 °C 10,2 °C 78 % 1013,6 hPa 0,0 mm 5,2 km/h (1 Bft) N-NO 30 ° 1 min 0,000 mm 2,3 UV-I 316 W/m² 6,4 °C 10,1 °C 6,4 km/h (2 Bft)
04.05.2017 11:25 10,1 °C 10,1 °C 78 % 1013,6 hPa 0,0 mm 2,4 km/h (1 Bft) N-NO 33 ° 1 min 0,000 mm 2,5 UV-I 334 W/m² 6,4 °C 10,1 °C 4,8 km/h (1 Bft)
04.05.2017 11:26 10,1 °C 10,1 °C 78 % 1013,6 hPa 0,0 mm 2,6 km/h (1 Bft) N-NO 32 ° 1 min 0,000 mm 2,6 UV-I 341 W/m² 6,4 °C 10,1 °C 4,8 km/h (1 Bft)
04.05.2017 11:27 10,2 °C 10,2 °C 79 % 1013,7 hPa 0,0 mm 3,2 km/h (1 Bft) O-NO 57 ° 1 min 0,000 mm 2,7 UV-I 350 W/m² 6,7 °C 10,2 °C 4,8 km/h (1 Bft)
04.05.2017 11:28 10,2 °C 10,2 °C 78 % 1013,6 hPa 0,0 mm 3,0 km/h (1 Bft) O-NO 75 ° 1 min 0,000 mm 2,7 UV-I 357 W/m² 6,5 °C 10,2 °C 6,4 km/h (2 Bft)
04.05.2017 11:29 10,2 °C 10,2 °C 78 % 1013,6 hPa 0,0 mm 4,8 km/h (1 Bft) O 83 ° 1 min 0,000 mm 2,7 UV-I 353 W/m² 6,5 °C 10,2 °C 6,4 km/h (2 Bft)
04.05.2017 11:30 10,2 °C 10,2 °C 79 % 1013,6 hPa 0,0 mm 3,4 km/h (1 Bft) O 79 ° 1 min 0,000 mm 2,8 UV-I 373 W/m² 6,7 °C 10,2 °C 6,4 km/h (2 Bft)
04.05.2017 11:31 10,3 °C 10,3 °C 79 % 1013,6 hPa 0,0 mm 4,4 km/h (1 Bft) O 88 ° 1 min 0,000 mm 2,9 UV-I 406 W/m² 6,8 °C 10,3 °C 6,4 km/h (2 Bft)
04.05.2017 11:32 10,3 °C 10,3 °C 79 % 1013,6 hPa 0,0 mm 1,7 km/h (1 Bft) O-NO 75 ° 1 min 0,000 mm 3,5 UV-I 504 W/m² 6,8 °C 10,3 °C 4,8 km/h (1 Bft)
04.05.2017 11:33 10,4 °C 10,4 °C 82 % 1013,6 hPa 0,0 mm 3,8 km/h (1 Bft) O-NO 65 ° 1 min 0,000 mm 3,6 UV-I 529 W/m² 7,5 °C 10,4 °C 8,0 km/h (2 Bft)
04.05.2017 11:34 10,5 °C 10,5 °C 80 % 1013,6 hPa 0,0 mm 6,3 km/h (2 Bft) NO 36 ° 1 min 0,000 mm 3,6 UV-I 533 W/m² 7,2 °C 10,5 °C 8,0 km/h (2 Bft)
04.05.2017 11:35 10,6 °C 10,6 °C 78 % 1013,6 hPa 0,0 mm 3,3 km/h (1 Bft) NO 36 ° 1 min 0,000 mm 3,6 UV-I 533 W/m² 6,9 °C 10,6 °C 6,4 km/h (2 Bft)
04.05.2017 11:36 10,7 °C 10,7 °C 80 % 1013,6 hPa 0,0 mm 3,2 km/h (1 Bft) O-NO 75 ° 1 min 0,000 mm 3,6 UV-I 534 W/m² 7,4 °C 10,7 °C 4,8 km/h (1 Bft)
04.05.2017 11:37 10,7 °C 10,7 °C 80 % 1013,6 hPa 0,0 mm 2,6 km/h (1 Bft) N-NO 29 ° 1 min 0,000 mm 3,6 UV-I 529 W/m² 7,4 °C 10,7 °C 4,8 km/h (1 Bft)
04.05.2017 11:38 10,7 °C 10,7 °C 77 % 1013,6 hPa 0,0 mm 4,0 km/h (1 Bft) NO 39 ° 1 min 0,000 mm 3,6 UV-I 531 W/m² 6,8 °C 10,7 °C 9,7 km/h (2 Bft)
04.05.2017 11:39 10,7 °C 10,7 °C 77 % 1013,6 hPa 0,0 mm 5,8 km/h (2 Bft) O-NO 61 ° 1 min 0,000 mm 3,6 UV-I 540 W/m² 6,8 °C 10,7 °C 9,7 km/h (2 Bft)
04.05.2017 11:40 10,7 °C 10,7 °C 77 % 1013,6 hPa 0,0 mm 5,9 km/h (2 Bft) O-NO 61 ° 1 min 0,000 mm 3,7 UV-I 545 W/m² 6,8 °C 10,7 °C 9,7 km/h (2 Bft)
04.05.2017 11:41 10,7 °C 10,7 °C 79 % 1013,5 hPa 0,0 mm 4,2 km/h (1 Bft) O-NO 77 ° 1 min 0,000 mm 3,7 UV-I 561 W/m² 7,2 °C 10,7 °C 8,0 km/h (2 Bft)
04.05.2017 11:42 10,7 °C 10,7 °C 77 % 1013,6 hPa 0,0 mm 5,6 km/h (1 Bft) N-NW 339 ° 1 min 0,000 mm 3,7 UV-I 564 W/m² 6,8 °C 10,7 °C 11,3 km/h (2 Bft)
04.05.2017 11:43 10,7 °C 10,7 °C 77 % 1013,5 hPa 0,0 mm 3,6 km/h (1 Bft) NO 40 ° 1 min 0,000 mm 3,0 UV-I 564 W/m² 6,8 °C 10,7 °C 4,8 km/h (1 Bft)
04.05.2017 11:44 10,8 °C 10,8 °C 79 % 1013,5 hPa 0,0 mm 5,2 km/h (1 Bft) NO 34 ° 1 min 0,000 mm 2,8 UV-I 359 W/m² 7,3 °C 10,8 °C 6,4 km/h (2 Bft)
04.05.2017 11:45 10,7 °C 10,8 °C 77 % 1013,5 hPa 0,0 mm 5,1 km/h (1 Bft) O-NO 65 ° 1 min 0,000 mm 2,7 UV-I 345 W/m² 6,8 °C 10,7 °C 8,0 km/h (2 Bft)
04.05.2017 11:46 10,7 °C 10,7 °C 77 % 1013,5 hPa 0,0 mm 6,5 km/h (2 Bft) O 87 ° 1 min 0,000 mm 2,6 UV-I 336 W/m² 6,8 °C 10,7 °C 12,9 km/h (3 Bft)
04.05.2017 11:47 10,7 °C 10,8 °C 78 % 1013,5 hPa 0,0 mm 4,6 km/h (1 Bft) NO 50 ° 1 min 0,000 mm 2,6 UV-I 329 W/m² 7,0 °C 10,7 °C 8,0 km/h (2 Bft)
04.05.2017 11:48 10,6 °C 10,7 °C 77 % 1013,5 hPa 0,0 mm 2,4 km/h (1 Bft) O-SO 108 ° 1 min 0,000 mm 2,6 UV-I 330 W/m² 6,7 °C 10,6 °C 4,8 km/h (1 Bft)
04.05.2017 11:49 10,5 °C 10,6 °C 78 % 1013,5 hPa 0,0 mm 2,7 km/h (1 Bft) O-SO 107 ° 1 min 0,000 mm 2,6 UV-I 334 W/m² 6,8 °C 10,5 °C 6,4 km/h (2 Bft)
04.05.2017 11:50 10,4 °C 10,5 °C 77 % 1013,5 hPa 0,0 mm 5,6 km/h (1 Bft) O-SO 103 ° 1 min 0,000 mm 2,6 UV-I 338 W/m² 6,5 °C 10,4 °C 9,7 km/h (2 Bft)
04.05.2017 11:51 10,4 °C 10,4 °C 79 % 1013,5 hPa 0,0 mm 5,2 km/h (1 Bft) O 80 ° 1 min 0,000 mm 2,6 UV-I 338 W/m² 6,9 °C 10,4 °C 12,9 km/h (3 Bft)
04.05.2017 11:52 10,4 °C 10,4 °C 78 % 1013,5 hPa 0,0 mm 8,0 km/h (2 Bft) O 81 ° 1 min 0,000 mm 2,5 UV-I 325 W/m² 6,7 °C 10,4 °C 11,3 km/h (2 Bft)
04.05.2017 11:53 10,4 °C 10,4 °C 78 % 1013,5 hPa 0,0 mm 5,9 km/h (2 Bft) NO 38 ° 1 min 0,000 mm 2,4 UV-I 311 W/m² 6,7 °C 10,4 °C 8,0 km/h (2 Bft)
04.05.2017 11:54 10,4 °C 10,4 °C 78 % 1013,5 hPa 0,0 mm 8,2 km/h (2 Bft) N-NO 12 ° 1 min 0,000 mm 2,4 UV-I 299 W/m² 6,7 °C 10,4 °C 12,9 km/h (3 Bft)
04.05.2017 11:55 10,5 °C 10,5 °C 77 % 1013,5 hPa 0,0 mm 3,8 km/h (1 Bft) N-NO 22 ° 0 min 0,000 mm 2,0 UV-I 265 W/m² 6,6 °C 10,5 °C 8,0 km/h (2 Bft)
04.05.2017 11:56 10,6 °C 10,6 °C 79 % 1013,4 hPa 0,0 mm 0,6 km/h (0 Bft) N-NO 22 ° 0 min 0,000 mm 1,9 UV-I 253 W/m² 7,1 °C 10,6 °C 1,6 km/h (1 Bft)
04.05.2017 11:57 10,6 °C 10,6 °C 77 % 1013,5 hPa 0,0 mm 5,1 km/h (1 Bft) O 86 ° 0 min 0,000 mm 2,1 UV-I 267 W/m² 6,7 °C 10,6 °C 11,3 km/h (2 Bft)
04.05.2017 11:58 10,5 °C 10,6 °C 78 % 1013,5 hPa 0,0 mm 7,1 km/h (2 Bft) NO 54 ° 0 min 0,000 mm 1,9 UV-I 251 W/m² 6,8 °C 10,5 °C 11,3 km/h (2 Bft)
04.05.2017 11:59 10,5 °C 10,6 °C 77 % 1013,5 hPa 0,0 mm 5,2 km/h (1 Bft) NO 53 ° 0 min 0,000 mm 1,9 UV-I 250 W/m² 6,6 °C 10,5 °C 8,0 km/h (2 Bft)
04.05.2017 12:00 10,4 °C 10,5 °C 77 % 1013,5 hPa 0,0 mm 6,7 km/h (2 Bft) N 5 ° 0 min 0,000 mm 2,0 UV-I 258 W/m² 6,5 °C 10,4 °C 8,0 km/h (2 Bft)
04.05.2017 12:01 10,4 °C 10,4 °C 76 % 1013,5 hPa 0,0 mm 4,2 km/h (1 Bft) O-NO 60 ° 0 min 0,178 mm 2,1 UV-I 262 W/m² 6,4 °C 10,4 °C 8,0 km/h (2 Bft)
04.05.2017 12:02 10,4 °C 10,5 °C 78 % 1013,5 hPa 0,0 mm 4,4 km/h (1 Bft) NO 37 ° 0 min 0,000 mm 2,1 UV-I 269 W/m² 6,7 °C 10,4 °C 6,4 km/h (2 Bft)
04.05.2017 12:03 10,4 °C 10,5 °C 77 % 1013,5 hPa 0,0 mm 2,0 km/h (1 Bft) O-NO 64 ° 0 min 0,000 mm 2,2 UV-I 278 W/m² 6,5 °C 10,4 °C 3,2 km/h (1 Bft)
04.05.2017 12:04 10,4 °C 10,4 °C 78 % 1013,5 hPa 0,0 mm 5,1 km/h (1 Bft) N 5 ° 1 min 0,000 mm 2,4 UV-I 294 W/m² 6,7 °C 10,4 °C 8,0 km/h (2 Bft)
04.05.2017 12:05 10,5 °C 10,5 °C 77 % 1013,4 hPa 0,0 mm 8,0 km/h (2 Bft) NO 52 ° 1 min 0,000 mm 2,5 UV-I 343 W/m² 6,6 °C 10,5 °C 12,9 km/h (3 Bft)
04.05.2017 12:06 10,6 °C 10,6 °C 75 % 1013,4 hPa 0,0 mm 4,6 km/h (1 Bft) N-NO 15 ° 1 min 0,000 mm 2,7 UV-I 380 W/m² 6,4 °C 10,6 °C 6,4 km/h (2 Bft)
04.05.2017 12:07 10,7 °C 10,7 °C 76 % 1013,4 hPa 0,0 mm 5,5 km/h (1 Bft) O-NO 62 ° 1 min 0,000 mm 3,2 UV-I 454 W/m² 6,6 °C 10,7 °C 11,3 km/h (2 Bft)
04.05.2017 12:08 10,7 °C 10,7 °C 76 % 1013,4 hPa 0,0 mm 6,0 km/h (2 Bft) O 79 ° 1 min 0,000 mm 3,1 UV-I 403 W/m² 6,6 °C 10,7 °C 8,0 km/h (2 Bft)
04.05.2017 12:09 10,6 °C 10,7 °C 77 % 1013,4 hPa 0,0 mm 6,5 km/h (2 Bft) O 91 ° 1 min 0,000 mm 3,2 UV-I 406 W/m² 6,7 °C 10,6 °C 11,3 km/h (2 Bft)
04.05.2017 12:10 10,6 °C 10,6 °C 76 % 1013,3 hPa 0,0 mm 6,9 km/h (2 Bft) O-NO 59 ° 1 min 0,000 mm 3,3 UV-I 417 W/m² 6,5 °C 10,6 °C 11,3 km/h (2 Bft)
04.05.2017 12:11 10,6 °C 10,7 °C 77 % 1013,4 hPa 0,0 mm 7,3 km/h (2 Bft) O-NO 64 ° 1 min 0,000 mm 3,5 UV-I 443 W/m² 6,7 °C 10,6 °C 9,7 km/h (2 Bft)
04.05.2017 12:12 10,6 °C 10,7 °C 76 % 1013,3 hPa 0,0 mm 5,5 km/h (1 Bft) O-NO 59 ° 1 min 0,000 mm 3,7 UV-I 482 W/m² 6,5 °C 10,6 °C 8,0 km/h (2 Bft)
04.05.2017 12:13 10,6 °C 10,7 °C 76 % 1013,3 hPa 0,0 mm 4,9 km/h (1 Bft) O-NO 61 ° 1 min 0,000 mm 4,2 UV-I 482 W/m² 6,5 °C 10,6 °C 11,3 km/h (2 Bft)
04.05.2017 12:14 10,7 °C 10,7 °C 76 % 1013,3 hPa 0,0 mm 8,2 km/h (2 Bft) O-NO 60 ° 1 min 0,000 mm 4,3 UV-I 631 W/m² 6,6 °C 10,7 °C 12,9 km/h (3 Bft)
04.05.2017 12:15 10,7 °C 10,7 °C 76 % 1013,3 hPa 0,0 mm 5,4 km/h (1 Bft) O 94 ° 1 min 0,000 mm 3,8 UV-I 631 W/m² 6,6 °C 10,7 °C 8,0 km/h (2 Bft)
04.05.2017 12:16 10,8 °C 10,8 °C 75 % 1013,2 hPa 0,0 mm 8,0 km/h (2 Bft) NO 49 ° 1 min 0,000 mm 4,0 UV-I 487 W/m² 6,5 °C 10,8 °C 11,3 km/h (2 Bft)
04.05.2017 12:17 10,8 °C 10,8 °C 76 % 1013,3 hPa 0,0 mm 7,2 km/h (2 Bft) N 10 ° 1 min 0,000 mm 4,6 UV-I 679 W/m² 6,7 °C 10,8 °C 12,9 km/h (3 Bft)
04.05.2017 12:18 10,9 °C 10,9 °C 76 % 1013,2 hPa 0,0 mm 2,9 km/h (1 Bft) NO 44 ° 1 min 0,000 mm 4,2 UV-I 617 W/m² 6,8 °C 10,9 °C 8,0 km/h (2 Bft)
04.05.2017 12:19 11,0 °C 11,0 °C 77 % 1013,2 hPa 0,0 mm 7,2 km/h (2 Bft) NO 49 ° 1 min 0,000 mm 4,2 UV-I 557 W/m² 7,1 °C 11,0 °C 11,3 km/h (2 Bft)
04.05.2017 12:20 11,1 °C 11,1 °C 77 % 1013,2 hPa 0,0 mm 3,4 km/h (1 Bft) NO 42 ° 1 min 0,000 mm 4,0 UV-I 526 W/m² 7,2 °C 11,1 °C 6,4 km/h (2 Bft)
04.05.2017 12:21 11,2 °C 11,2 °C 75 % 1013,2 hPa 0,0 mm 7,5 km/h (2 Bft) N 10 ° 1 min 0,000 mm 4,0 UV-I 585 W/m² 6,9 °C 11,2 °C 9,7 km/h (2 Bft)
04.05.2017 12:22 11,2 °C 11,2 °C 74 % 1013,2 hPa 0,0 mm 4,1 km/h (1 Bft) O-NO 65 ° 1 min 0,000 mm 4,4 UV-I 582 W/m² 6,7 °C 11,2 °C 6,4 km/h (2 Bft)
04.05.2017 12:23 11,2 °C 11,2 °C 74 % 1013,2 hPa 0,0 mm 6,5 km/h (2 Bft) SO 146 ° 1 min 0,000 mm 5,2 UV-I 766 W/m² 6,7 °C 11,2 °C 11,3 km/h (2 Bft)
04.05.2017 12:24 11,2 °C 11,2 °C 74 % 1013,2 hPa 0,0 mm 5,5 km/h (1 Bft) O 83 ° 1 min 0,000 mm 4,0 UV-I 766 W/m² 6,7 °C 11,2 °C 8,0 km/h (2 Bft)
04.05.2017 12:25 11,2 °C 11,2 °C 75 % 1013,1 hPa 0,0 mm 4,1 km/h (1 Bft) N 355 ° 1 min 0,000 mm 3,4 UV-I 425 W/m² 6,9 °C 11,2 °C 4,8 km/h (1 Bft)
04.05.2017 12:26 11,3 °C 11,3 °C 75 % 1013,1 hPa 0,0 mm 6,5 km/h (2 Bft) N-NO 26 ° 1 min 0,000 mm 3,3 UV-I 401 W/m² 7,0 °C 11,3 °C 11,3 km/h (2 Bft)
04.05.2017 12:27 11,4 °C 11,4 °C 76 % 1013,1 hPa 0,0 mm 10,6 km/h (2 Bft) N-NW 345 ° 1 min 0,000 mm 3,3 UV-I 399 W/m² 7,3 °C 11,4 °C 16,1 km/h (3 Bft)
04.05.2017 12:28 11,4 °C 11,5 °C 75 % 1013,1 hPa 0,0 mm 4,7 km/h (1 Bft) O-NO 60 ° 1 min 0,000 mm 3,3 UV-I 408 W/m² 7,1 °C 11,4 °C 12,9 km/h (3 Bft)
04.05.2017 12:29 11,5 °C 11,5 °C 76 % 1013,1 hPa 0,0 mm 8,0 km/h (2 Bft) N-NO 13 ° 1 min 0,000 mm 3,3 UV-I 436 W/m² 7,4 °C 11,5 °C 12,9 km/h (3 Bft)
04.05.2017 12:30 11,4 °C 11,5 °C 74 % 1013,0 hPa 0,0 mm 6,6 km/h (2 Bft) N-NO 22 ° 1 min 0,000 mm 3,4 UV-I 454 W/m² 6,9 °C 11,4 °C 11,3 km/h (2 Bft)
04.05.2017 12:31 11,4 °C 11,4 °C 73 % 1013,0 hPa 0,0 mm 2,5 km/h (1 Bft) N-NO 22 ° 1 min 0,000 mm 3,6 UV-I 485 W/m² 6,7 °C 11,4 °C 3,2 km/h (1 Bft)
04.05.2017 12:32 11,3 °C 11,4 °C 73 % 1013,0 hPa 0,0 mm 6,2 km/h (2 Bft) N-NO 29 ° 1 min 0,000 mm 3,4 UV-I 485 W/m² 6,6 °C 11,3 °C 8,0 km/h (2 Bft)
04.05.2017 12:33 11,4 °C 11,4 °C 75 % 1013,0 hPa 0,0 mm 8,0 km/h (2 Bft) N-NW 331 ° 1 min 0,000 mm 3,1 UV-I 485 W/m² 7,1 °C 11,4 °C 11,3 km/h (2 Bft)
04.05.2017 12:34 11,4 °C 11,4 °C 73 % 1012,9 hPa 0,0 mm 5,8 km/h (2 Bft) W-NW 297 ° 1 min 0,000 mm 3,1 UV-I 392 W/m² 6,7 °C 11,4 °C 8,0 km/h (2 Bft)
04.05.2017 12:35 11,5 °C 11,5 °C 74 % 1012,9 hPa 0,0 mm 5,6 km/h (1 Bft) N-NO 26 ° 1 min 0,000 mm 3,1 UV-I 374 W/m² 7,0 °C 11,5 °C 8,0 km/h (2 Bft)
04.05.2017 12:36 11,4 °C 11,5 °C 71 % 1013,0 hPa 0,0 mm 6,1 km/h (2 Bft) O-NO 59 ° 1 min 0,000 mm 3,3 UV-I 417 W/m² 6,3 °C 11,4 °C 8,0 km/h (2 Bft)
04.05.2017 12:37 11,4 °C 11,4 °C 72 % 1012,9 hPa 0,0 mm 1,0 km/h (0 Bft) O-NO 57 ° 1 min 0,000 mm 3,0 UV-I 350 W/m² 6,5 °C 11,4 °C 4,8 km/h (1 Bft)
04.05.2017 12:38 11,3 °C 11,4 °C 69 % 1012,9 hPa 0,0 mm 3,9 km/h (1 Bft) O 84 ° 1 min 0,000 mm 3,3 UV-I 364 W/m² 5,8 °C 11,3 °C 4,8 km/h (1 Bft)
04.05.2017 12:39 11,2 °C 11,3 °C 69 % 1012,8 hPa 0,0 mm 2,1 km/h (1 Bft) O 84 ° 1 min 0,000 mm 4,7 UV-I 364 W/m² 5,7 °C 11,2 °C 4,8 km/h (1 Bft)
04.05.2017 12:40 11,2 °C 11,2 °C 74 % 1012,8 hPa 0,0 mm 0,7 km/h (0 Bft) O 84 ° 1 min 0,000 mm 3,6 UV-I 425 W/m² 6,7 °C 11,2 °C 1,6 km/h (1 Bft)
04.05.2017 12:41 11,3 °C 11,3 °C 73 % 1012,8 hPa 0,0 mm 3,8 km/h (1 Bft) N-NO 13 ° 1 min 0,000 mm 3,2 UV-I 425 W/m² 6,6 °C 11,3 °C 6,4 km/h (2 Bft)
04.05.2017 12:42 11,4 °C 11,4 °C 75 % 1012,8 hPa 0,0 mm 3,8 km/h (1 Bft) NO 56 ° 1 min 0,000 mm 2,8 UV-I 425 W/m² 7,1 °C 11,4 °C 6,4 km/h (2 Bft)
04.05.2017 12:43 11,6 °C 11,6 °C 74 % 1012,8 hPa 0,0 mm 8,4 km/h (2 Bft) NO 44 ° 0 min 0,000 mm 2,6 UV-I 285 W/m² 7,1 °C 11,6 °C 16,1 km/h (3 Bft)
04.05.2017 12:44 11,6 °C 11,6 °C 71 % 1012,8 hPa 0,0 mm 4,8 km/h (1 Bft) NO 52 ° 0 min 0,000 mm 2,5 UV-I 265 W/m² 6,5 °C 11,6 °C 9,7 km/h (2 Bft)
04.05.2017 12:45 11,6 °C 11,6 °C 71 % 1012,8 hPa 0,0 mm 6,2 km/h (2 Bft) O-NO 74 ° 0 min 0,000 mm 2,5 UV-I 258 W/m² 6,5 °C 11,6 °C 8,0 km/h (2 Bft)
04.05.2017 12:46 11,6 °C 11,6 °C 71 % 1012,8 hPa 0,0 mm 3,5 km/h (1 Bft) N-NO 17 ° 0 min 0,000 mm 2,6 UV-I 274 W/m² 6,5 °C 11,6 °C 4,8 km/h (1 Bft)
04.05.2017 12:47 11,6 °C 11,6 °C 71 % 1012,8 hPa 0,0 mm 5,0 km/h (1 Bft) O 94 ° 1 min 0,000 mm 3,3 UV-I 371 W/m² 6,5 °C 11,6 °C 6,4 km/h (2 Bft)
04.05.2017 12:48 11,6 °C 11,6 °C 71 % 1012,8 hPa 0,0 mm 4,1 km/h (1 Bft) O 86 ° 1 min 0,000 mm 4,7 UV-I 371 W/m² 6,5 °C 11,6 °C 6,4 km/h (2 Bft)
04.05.2017 12:49 11,5 °C 11,6 °C 70 % 1012,8 hPa 0,0 mm 7,8 km/h (2 Bft) O-NO 63 ° 1 min 0,000 mm 4,7 UV-I 371 W/m² 6,2 °C 11,5 °C 11,3 km/h (2 Bft)
04.05.2017 12:50 11,4 °C 11,5 °C 69 % 1012,8 hPa 0,0 mm 7,1 km/h (2 Bft) NO 48 ° 1 min 0,000 mm 4,2 UV-I 585 W/m² 5,9 °C 11,4 °C 9,7 km/h (2 Bft)
04.05.2017 12:51 11,5 °C 11,5 °C 69 % 1012,8 hPa 0,0 mm 7,9 km/h (2 Bft) NO 55 ° 1 min 0,000 mm 4,3 UV-I 610 W/m² 6,0 °C 11,5 °C 9,7 km/h (2 Bft)
04.05.2017 12:52 11,6 °C 11,6 °C 70 % 1012,7 hPa 0,0 mm 6,0 km/h (2 Bft) O-NO 69 ° 1 min 0,000 mm 3,2 UV-I 610 W/m² 6,3 °C 11,6 °C 9,7 km/h (2 Bft)
04.05.2017 12:53 11,6 °C 11,6 °C 71 % 1012,7 hPa 0,0 mm 4,4 km/h (1 Bft) O-NO 62 ° 1 min 0,000 mm 3,2 UV-I 367 W/m² 6,5 °C 11,6 °C 6,4 km/h (2 Bft)
04.05.2017 12:54 11,5 °C 11,6 °C 68 % 1012,7 hPa 0,0 mm 4,8 km/h (1 Bft) NO 46 ° 1 min 0,000 mm 2,7 UV-I 357 W/m² 5,8 °C 11,5 °C 8,0 km/h (2 Bft)
04.05.2017 12:55 11,5 °C 11,5 °C 69 % 1012,6 hPa 0,0 mm 3,8 km/h (1 Bft) N 5 ° 1 min 0,000 mm 2,7 UV-I 348 W/m² 6,0 °C 11,5 °C 6,4 km/h (2 Bft)
04.05.2017 12:56 11,4 °C 11,5 °C 69 % 1012,7 hPa 0,0 mm 4,3 km/h (1 Bft) O 94 ° 1 min 0,000 mm 2,7 UV-I 360 W/m² 5,9 °C 11,4 °C 9,7 km/h (2 Bft)
04.05.2017 12:57 11,4 °C 11,4 °C 70 % 1012,6 hPa 0,0 mm 2,2 km/h (1 Bft) O 85 ° 1 min 0,000 mm 2,5 UV-I 329 W/m² 6,1 °C 11,4 °C 4,8 km/h (1 Bft)
04.05.2017 12:58 11,5 °C 11,5 °C 70 % 1012,6 hPa 0,0 mm 8,4 km/h (2 Bft) O 86 ° 1 min 0,000 mm 2,5 UV-I 332 W/m² 6,2 °C 11,5 °C 14,5 km/h (3 Bft)
04.05.2017 12:59 11,5 °C 11,5 °C 69 % 1012,7 hPa 0,0 mm 6,4 km/h (2 Bft) O 94 ° 1 min 0,000 mm 2,7 UV-I 350 W/m² 6,0 °C 11,5 °C 11,3 km/h (2 Bft)
04.05.2017 13:00 11,5 °C 11,5 °C 71 % 1012,7 hPa 0,0 mm 7,3 km/h (2 Bft) NO 49 ° 1 min 0,229 mm 2,8 UV-I 366 W/m² 6,4 °C 11,5 °C 9,7 km/h (2 Bft)
04.05.2017 13:01 11,4 °C 11,5 °C 70 % 1012,6 hPa 0,0 mm 8,7 km/h (2 Bft) O-NO 78 ° 1 min 0,000 mm 3,0 UV-I 383 W/m² 6,1 °C 11,4 °C 11,3 km/h (2 Bft)
04.05.2017 13:02 11,5 °C 11,5 °C 70 % 1012,6 hPa 0,0 mm 6,9 km/h (2 Bft) N-NO 32 ° 1 min 0,000 mm 3,1 UV-I 396 W/m² 6,2 °C 11,5 °C 11,3 km/h (2 Bft)
04.05.2017 13:03 11,6 °C 11,6 °C 71 % 1012,6 hPa 0,0 mm 6,0 km/h (2 Bft) NO 38 ° 1 min 0,000 mm 3,3 UV-I 422 W/m² 6,5 °C 11,6 °C 8,0 km/h (2 Bft)
04.05.2017 13:04 11,7 °C 11,7 °C 70 % 1012,6 hPa 0,0 mm 6,5 km/h (2 Bft) O 84 ° 1 min 0,000 mm 5,5 UV-I 422 W/m² 6,4 °C 11,7 °C 9,7 km/h (2 Bft)
04.05.2017 13:05 11,8 °C 11,8 °C 70 % 1012,6 hPa 0,0 mm 1,6 km/h (1 Bft) O-NO 63 ° 1 min 0,000 mm 5,5 UV-I 422 W/m² 6,5 °C 11,8 °C 4,8 km/h (1 Bft)
04.05.2017 13:06 11,9 °C 11,9 °C 69 % 1012,5 hPa 0,0 mm 5,0 km/h (1 Bft) N-NO 22 ° 1 min 0,000 mm 6,3 UV-I 422 W/m² 6,4 °C 11,9 °C 8,0 km/h (2 Bft)
04.05.2017 13:07 12,2 °C 12,2 °C 71 % 1012,5 hPa 0,0 mm 8,3 km/h (2 Bft) NO 43 ° 1 min 0,000 mm 6,5 UV-I 1079 W/m² 7,1 °C 12,2 °C 11,3 km/h (2 Bft)
04.05.2017 13:08 12,2 °C 12,2 °C 67 % 1012,5 hPa 0,0 mm 5,4 km/h (1 Bft) O 88 ° 1 min 0,000 mm 6,6 UV-I 1102 W/m² 6,3 °C 12,2 °C 11,3 km/h (2 Bft)
04.05.2017 13:09 12,3 °C 12,3 °C 71 % 1012,5 hPa 0,0 mm 0,7 km/h (0 Bft) O 88 ° 1 min 0,000 mm 6,0 UV-I 1011 W/m² 7,2 °C 12,3 °C 3,2 km/h (1 Bft)
04.05.2017 13:10 12,4 °C 12,4 °C 69 % 1012,5 hPa 0,0 mm 1,7 km/h (1 Bft) O 88 ° 1 min 0,000 mm 5,7 UV-I 838 W/m² 6,9 °C 12,4 °C 3,2 km/h (1 Bft)
04.05.2017 13:11 12,4 °C 12,4 °C 69 % 1012,4 hPa 0,0 mm 2,0 km/h (1 Bft) O 94 ° 1 min 0,000 mm 4,7 UV-I 838 W/m² 6,9 °C 12,4 °C 4,8 km/h (1 Bft)
04.05.2017 13:12 12,4 °C 12,5 °C 70 % 1012,4 hPa 0,0 mm 6,8 km/h (2 Bft) NW 311 ° 1 min 0,000 mm 4,1 UV-I 838 W/m² 7,1 °C 12,4 °C 12,9 km/h (3 Bft)
04.05.2017 13:13 12,5 °C 12,5 °C 71 % 1012,4 hPa 0,0 mm 7,7 km/h (2 Bft) N 355 ° 1 min 0,000 mm 3,7 UV-I 538 W/m² 7,4 °C 12,5 °C 12,9 km/h (3 Bft)
04.05.2017 13:14 12,6 °C 12,6 °C 69 % 1012,4 hPa 0,0 mm 9,6 km/h (2 Bft) N-NW 340 ° 1 min 0,000 mm 3,4 UV-I 517 W/m² 7,1 °C 12,6 °C 14,5 km/h (3 Bft)
04.05.2017 13:15 12,6 °C 12,6 °C 69 % 1012,3 hPa 0,0 mm 6,4 km/h (2 Bft) O-SO 106 ° 1 min 0,000 mm 3,1 UV-I 438 W/m² 7,1 °C 12,6 °C 12,9 km/h (3 Bft)
04.05.2017 13:16 12,6 °C 12,6 °C 69 % 1012,3 hPa 0,0 mm 4,6 km/h (1 Bft) O-NO 72 ° 0 min 0,000 mm 2,6 UV-I 274 W/m² 7,1 °C 12,6 °C 9,7 km/h (2 Bft)
04.05.2017 13:17 12,4 °C 12,6 °C 69 % 1012,3 hPa 0,0 mm 6,2 km/h (2 Bft) O 82 ° 0 min 0,000 mm 1,9 UV-I 220 W/m² 6,9 °C 12,4 °C 8,0 km/h (2 Bft)
04.05.2017 13:18 12,3 °C 12,4 °C 69 % 1012,3 hPa 0,0 mm 3,4 km/h (1 Bft) N-NW 327 ° 0 min 0,000 mm 1,7 UV-I 197 W/m² 6,8 °C 12,3 °C 6,4 km/h (2 Bft)
04.05.2017 13:19 12,2 °C 12,3 °C 72 % 1012,3 hPa 0,0 mm 4,8 km/h (1 Bft) NO 46 ° 0 min 0,000 mm 1,6 UV-I 183 W/m² 7,3 °C 12,2 °C 9,7 km/h (2 Bft)
04.05.2017 13:20 12,1 °C 12,2 °C 69 % 1012,3 hPa 0,0 mm 11,3 km/h (2 Bft) O 86 ° 0 min 0,000 mm 1,5 UV-I 172 W/m² 6,6 °C 12,1 °C 16,1 km/h (3 Bft)
04.05.2017 13:21 11,9 °C 12,1 °C 71 % 1012,3 hPa 0,0 mm 5,9 km/h (2 Bft) O 82 ° 0 min 0,000 mm 1,4 UV-I 158 W/m² 6,8 °C 11,9 °C 11,3 km/h (2 Bft)
04.05.2017 13:22 11,9 °C 11,9 °C 71 % 1012,3 hPa 0,0 mm 5,0 km/h (1 Bft) O-NO 58 ° 0 min 0,000 mm 1,3 UV-I 134 W/m² 6,8 °C 11,9 °C 6,4 km/h (2 Bft)
04.05.2017 13:23 11,8 °C 11,9 °C 72 % 1012,3 hPa 0,0 mm 2,2 km/h (1 Bft) N-NO 24 ° 0 min 0,000 mm 1,1 UV-I 125 W/m² 6,9 °C 11,8 °C 4,8 km/h (1 Bft)
04.05.2017 13:24 11,8 °C 11,8 °C 70 % 1012,3 hPa 0,0 mm 5,0 km/h (1 Bft) N-NO 27 ° 0 min 0,000 mm 1,0 UV-I 114 W/m² 6,5 °C 11,8 °C 6,4 km/h (2 Bft)
04.05.2017 13:25 11,7 °C 11,8 °C 69 % 1012,2 hPa 0,0 mm 1,9 km/h (1 Bft) N-NO 27 ° 0 min 0,000 mm 1,0 UV-I 109 W/m² 6,2 °C 11,7 °C 4,8 km/h (1 Bft)
04.05.2017 13:26 11,6 °C 11,7 °C 69 % 1012,2 hPa 0,0 mm 0,5 km/h (0 Bft) N-NO 27 ° 0 min 0,000 mm 1,0 UV-I 107 W/m² 6,1 °C 11,6 °C 1,6 km/h (1 Bft)
04.05.2017 13:27 11,4 °C 11,6 °C 69 % 1012,2 hPa 0,0 mm 0,5 km/h (0 Bft) N-NO 27 ° 0 min 0,000 mm 1,0 UV-I 111 W/m² 5,9 °C 11,4 °C 3,2 km/h (1 Bft)
04.05.2017 13:28 11,3 °C 11,4 °C 70 % 1012,2 hPa 0,0 mm 2,8 km/h (1 Bft) O-NO 77 ° 0 min 0,000 mm 1,0 UV-I 114 W/m² 6,0 °C 11,3 °C 4,8 km/h (1 Bft)
04.05.2017 13:29 11,3 °C 11,3 °C 70 % 1012,2 hPa 0,0 mm 1,5 km/h (1 Bft) O-NO 77 ° 0 min 0,000 mm 1,0 UV-I 120 W/m² 6,0 °C 11,3 °C 3,2 km/h (1 Bft)
04.05.2017 13:30 11,2 °C 11,3 °C 70 % 1012,2 hPa 0,0 mm 3,0 km/h (1 Bft) O-NO 77 ° 0 min 0,000 mm 1,1 UV-I 125 W/m² 5,9 °C 11,2 °C 4,8 km/h (1 Bft)
04.05.2017 13:31 11,2 °C 11,2 °C 70 % 1012,2 hPa 0,0 mm 0,7 km/h (0 Bft) O-NO 77 ° 0 min 0,000 mm 1,1 UV-I 128 W/m² 5,9 °C 11,2 °C 3,2 km/h (1 Bft)
04.05.2017 13:32 11,2 °C 11,2 °C 71 % 1012,2 hPa 0,0 mm 3,6 km/h (1 Bft) O-NO 76 ° 0 min 0,000 mm 1,2 UV-I 135 W/m² 6,1 °C 11,2 °C 6,4 km/h (2 Bft)
04.05.2017 13:33 11,3 °C 11,3 °C 70 % 1012,2 hPa 0,0 mm 2,0 km/h (1 Bft) O-NO 76 ° 0 min 0,000 mm 1,2 UV-I 144 W/m² 6,0 °C 11,3 °C 6,4 km/h (2 Bft)
04.05.2017 13:34 11,3 °C 11,3 °C 70 % 1012,1 hPa 0,0 mm 0,1 km/h (0 Bft) O-NO 76 ° 0 min 0,000 mm 1,3 UV-I 160 W/m² 6,0 °C 11,3 °C 1,6 km/h (1 Bft)
04.05.2017 13:35 11,3 °C 11,3 °C 70 % 1012,2 hPa 0,0 mm 0,5 km/h (0 Bft) O-NO 76 ° 0 min 0,000 mm 1,4 UV-I 169 W/m² 6,0 °C 11,3 °C 1,6 km/h (1 Bft)
04.05.2017 13:36 11,3 °C 11,3 °C 70 % 1012,2 hPa 0,0 mm 2,5 km/h (1 Bft) O-NO 76 ° 0 min 0,000 mm 1,5 UV-I 179 W/m² 6,0 °C 11,3 °C 3,2 km/h (1 Bft)
04.05.2017 13:37 11,3 °C 11,3 °C 71 % 1012,1 hPa 0,0 mm 1,3 km/h (1 Bft) O-NO 76 ° 0 min 0,000 mm 1,5 UV-I 190 W/m² 6,2 °C 11,3 °C 3,2 km/h (1 Bft)
04.05.2017 13:38 11,3 °C 11,3 °C 71 % 1012,2 hPa 0,0 mm 2,7 km/h (1 Bft) O-NO 76 ° 0 min 0,000 mm 1,6 UV-I 199 W/m² 6,2 °C 11,3 °C 4,8 km/h (1 Bft)
04.05.2017 13:39 11,3 °C 11,4 °C 70 % 1012,2 hPa 0,0 mm 0,9 km/h (0 Bft) O-NO 76 ° 0 min 0,000 mm 1,6 UV-I 200 W/m² 6,0 °C 11,3 °C 3,2 km/h (1 Bft)
04.05.2017 13:40 11,4 °C 11,4 °C 70 % 1012,2 hPa 0,0 mm 0,3 km/h (0 Bft) O-NO 76 ° 0 min 0,000 mm 1,5 UV-I 193 W/m² 6,1 °C 11,4 °C 1,6 km/h (1 Bft)
04.05.2017 13:41 11,3 °C 11,4 °C 70 % 1012,2 hPa 0,0 mm 0,1 km/h (0 Bft) O-NO 76 ° 0 min 0,000 mm 1,5 UV-I 188 W/m² 6,0 °C 11,3 °C 1,6 km/h (1 Bft)
04.05.2017 13:42 11,3 °C 11,4 °C 71 % 1012,2 hPa 0,0 mm 2,1 km/h (1 Bft) O-NO 76 ° 0 min 0,000 mm 1,4 UV-I 185 W/m² 6,2 °C 11,3 °C 3,2 km/h (1 Bft)
04.05.2017 13:43 11,4 °C 11,4 °C 72 % 1012,2 hPa 0,0 mm 2,6 km/h (1 Bft) O-NO 76 ° 0 min 0,000 mm 1,4 UV-I 185 W/m² 6,5 °C 11,4 °C 3,2 km/h (1 Bft)
04.05.2017 13:44 11,4 °C 11,4 °C 72 % 1012,2 hPa 0,0 mm 4,5 km/h (1 Bft) O-NO 69 ° 0 min 0,000 mm 1,4 UV-I 188 W/m² 6,5 °C 11,4 °C 6,4 km/h (2 Bft)
04.05.2017 13:45 11,4 °C 11,4 °C 71 % 1012,2 hPa 0,0 mm 3,3 km/h (1 Bft) O-NO 73 ° 0 min 0,000 mm 1,4 UV-I 193 W/m² 6,3 °C 11,4 °C 4,8 km/h (1 Bft)
04.05.2017 13:46 11,3 °C 11,4 °C 72 % 1012,2 hPa 0,0 mm 1,9 km/h (1 Bft) O-NO 73 ° 0 min 0,000 mm 1,4 UV-I 192 W/m² 6,4 °C 11,3 °C 4,8 km/h (1 Bft)
04.05.2017 13:47 11,3 °C 11,3 °C 73 % 1012,2 hPa 0,0 mm 0,3 km/h (0 Bft) O-NO 73 ° 0 min 0,000 mm 1,3 UV-I 186 W/m² 6,6 °C 11,3 °C 1,6 km/h (1 Bft)
04.05.2017 13:48 11,3 °C 11,3 °C 73 % 1012,3 hPa 0,0 mm 5,2 km/h (1 Bft) SW 234 ° 0 min 0,000 mm 1,3 UV-I 181 W/m² 6,6 °C 11,3 °C 12,9 km/h (3 Bft)
04.05.2017 13:49 11,2 °C 11,3 °C 74 % 1012,3 hPa 0,0 mm 6,4 km/h (2 Bft) SW 229 ° 0 min 0,000 mm 1,3 UV-I 179 W/m² 6,7 °C 11,2 °C 8,0 km/h (2 Bft)
04.05.2017 13:50 10,9 °C 11,2 °C 72 % 1012,3 hPa 0,0 mm 6,4 km/h (2 Bft) W-SW 257 ° 0 min 0,000 mm 1,3 UV-I 178 W/m² 6,1 °C 10,9 °C 11,3 km/h (2 Bft)
04.05.2017 13:51 10,8 °C 10,9 °C 75 % 1012,3 hPa 0,0 mm 9,0 km/h (2 Bft) W-SW 253 ° 0 min 0,000 mm 1,3 UV-I 174 W/m² 6,5 °C 10,8 °C 14,5 km/h (3 Bft)
04.05.2017 13:52 10,7 °C 10,8 °C 75 % 1012,3 hPa 0,0 mm 7,9 km/h (2 Bft) W-SW 241 ° 0 min 0,000 mm 1,3 UV-I 172 W/m² 6,5 °C 10,7 °C 11,3 km/h (2 Bft)
04.05.2017 13:53 10,6 °C 10,7 °C 76 % 1012,3 hPa 0,0 mm 5,6 km/h (1 Bft) W-SW 238 ° 0 min 0,000 mm 1,3 UV-I 169 W/m² 6,5 °C 10,6 °C 9,7 km/h (2 Bft)
04.05.2017 13:54 10,5 °C 10,6 °C 74 % 1012,3 hPa 0,0 mm 4,8 km/h (1 Bft) SW 225 ° 0 min 0,000 mm 1,3 UV-I 162 W/m² 6,1 °C 10,5 °C 8,0 km/h (2 Bft)
04.05.2017 13:55 10,4 °C 10,5 °C 74 % 1012,3 hPa 0,0 mm 7,4 km/h (2 Bft) SW 229 ° 0 min 0,000 mm 1,2 UV-I 160 W/m² 6,0 °C 10,4 °C 12,9 km/h (3 Bft)
04.05.2017 13:56 10,3 °C 10,4 °C 75 % 1012,3 hPa 0,0 mm 7,4 km/h (2 Bft) W-SW 257 ° 0 min 0,000 mm 1,3 UV-I 165 W/m² 6,1 °C 10,3 °C 11,3 km/h (2 Bft)
04.05.2017 13:57 10,2 °C 10,3 °C 75 % 1012,3 hPa 0,0 mm 6,4 km/h (2 Bft) W 262 ° 0 min 0,000 mm 1,3 UV-I 190 W/m² 6,0 °C 10,2 °C 11,3 km/h (2 Bft)
04.05.2017 13:58 10,2 °C 10,2 °C 76 % 1012,4 hPa 0,0 mm 8,5 km/h (2 Bft) W-SW 248 ° 0 min 0,000 mm 2,6 UV-I 190 W/m² 6,2 °C 10,2 °C 12,9 km/h (3 Bft)
04.05.2017 13:59 10,3 °C 10,3 °C 78 % 1012,4 hPa 0,0 mm 7,9 km/h (2 Bft) W 272 ° 1 min 0,000 mm 2,0 UV-I 404 W/m² 6,6 °C 10,3 °C 11,3 km/h (2 Bft)
04.05.2017 14:00 10,3 °C 10,3 °C 79 % 1012,3 hPa 0,0 mm 5,3 km/h (1 Bft) W 266 ° 1 min 0,177 mm 1,9 UV-I 404 W/m² 6,8 °C 10,3 °C 9,7 km/h (2 Bft)
04.05.2017 14:01 10,3 °C 10,3 °C 76 % 1012,3 hPa 0,0 mm 6,4 km/h (2 Bft) W-NW 292 ° 1 min 0,000 mm 2,1 UV-I 290 W/m² 6,3 °C 10,3 °C 9,7 km/h (2 Bft)
04.05.2017 14:02 10,3 °C 10,4 °C 76 % 1012,3 hPa 0,0 mm 7,2 km/h (2 Bft) W 273 ° 1 min 0,000 mm 2,3 UV-I 327 W/m² 6,3 °C 10,3 °C 11,3 km/h (2 Bft)
04.05.2017 14:03 10,3 °C 10,3 °C 77 % 1012,3 hPa 0,0 mm 5,9 km/h (2 Bft) W-SW 254 ° 1 min 0,000 mm 2,3 UV-I 327 W/m² 6,4 °C 10,3 °C 12,9 km/h (3 Bft)
04.05.2017 14:04 10,3 °C 10,3 °C 76 % 1012,3 hPa 0,0 mm 8,2 km/h (2 Bft) W 271 ° 1 min 0,000 mm 2,3 UV-I 325 W/m² 6,3 °C 10,3 °C 11,3 km/h (2 Bft)
04.05.2017 14:05 10,4 °C 10,4 °C 79 % 1012,4 hPa 0,0 mm 8,9 km/h (2 Bft) W-SW 254 ° 1 min 0,000 mm 2,4 UV-I 318 W/m² 6,9 °C 10,4 °C 14,5 km/h (3 Bft)
04.05.2017 14:06 10,5 °C 10,6 °C 79 % 1012,4 hPa 0,0 mm 7,4 km/h (2 Bft) W-SW 256 ° 1 min 0,000 mm 2,4 UV-I 360 W/m² 7,0 °C 10,5 °C 12,9 km/h (3 Bft)
04.05.2017 14:07 10,5 °C 10,6 °C 76 % 1012,4 hPa 0,0 mm 10,7 km/h (2 Bft) W 261 ° 1 min 0,000 mm 3,1 UV-I 427 W/m² 6,5 °C 10,5 °C 12,9 km/h (3 Bft)
04.05.2017 14:08 10,4 °C 10,6 °C 77 % 1012,4 hPa 0,0 mm 5,6 km/h (1 Bft) W-NW 291 ° 1 min 0,000 mm 2,2 UV-I 294 W/m² 6,5 °C 10,4 °C 9,7 km/h (2 Bft)
04.05.2017 14:09 10,4 °C 10,4 °C 77 % 1012,4 hPa 0,0 mm 4,4 km/h (1 Bft) NW 313 ° 0 min 0,000 mm 2,1 UV-I 287 W/m² 6,5 °C 10,4 °C 8,0 km/h (2 Bft)
04.05.2017 14:10 10,4 °C 10,4 °C 78 % 1012,4 hPa 0,0 mm 6,7 km/h (2 Bft) W 281 ° 0 min 0,000 mm 2,1 UV-I 285 W/m² 6,7 °C 10,4 °C 11,3 km/h (2 Bft)
04.05.2017 14:11 10,6 °C 10,6 °C 78 % 1012,4 hPa 0,0 mm 5,8 km/h (2 Bft) W-NW 284 ° 0 min 0,000 mm 2,1 UV-I 279 W/m² 6,9 °C 10,6 °C 9,7 km/h (2 Bft)
04.05.2017 14:12 10,6 °C 10,6 °C 79 % 1012,3 hPa 0,0 mm 6,3 km/h (2 Bft) W 263 ° 0 min 0,000 mm 2,1 UV-I 276 W/m² 7,1 °C 10,6 °C 11,3 km/h (2 Bft)
04.05.2017 14:13 10,6 °C 10,6 °C 78 % 1012,3 hPa 0,0 mm 7,5 km/h (2 Bft) W-NW 284 ° 0 min 0,000 mm 2,2 UV-I 281 W/m² 6,9 °C 10,6 °C 12,9 km/h (3 Bft)
04.05.2017 14:14 10,6 °C 10,6 °C 77 % 1012,2 hPa 0,0 mm 10,5 km/h (2 Bft) W 259 ° 1 min 0,000 mm 2,2 UV-I 309 W/m² 6,7 °C 10,6 °C 12,9 km/h (3 Bft)
04.05.2017 14:15 10,6 °C 10,6 °C 75 % 1012,3 hPa 0,0 mm 9,8 km/h (2 Bft) W-SW 257 ° 1 min 0,000 mm 2,6 UV-I 330 W/m² 6,4 °C 10,6 °C 16,1 km/h (3 Bft)
04.05.2017 14:16 10,5 °C 10,6 °C 76 % 1012,3 hPa 0,0 mm 11,4 km/h (2 Bft) W 268 ° 1 min 0,000 mm 2,7 UV-I 352 W/m² 6,5 °C 10,5 °C 16,1 km/h (3 Bft)
04.05.2017 14:17 10,4 °C 10,5 °C 76 % 1012,3 hPa 0,0 mm 11,3 km/h (2 Bft) W-NW 296 ° 1 min 0,000 mm 2,9 UV-I 376 W/m² 6,4 °C 10,4 °C 12,9 km/h (3 Bft)
04.05.2017 14:18 10,4 °C 10,4 °C 76 % 1012,2 hPa 0,0 mm 6,9 km/h (2 Bft) W-NW 300 ° 1 min 0,000 mm 3,0 UV-I 401 W/m² 6,4 °C 10,4 °C 14,5 km/h (3 Bft)
04.05.2017 14:19 10,4 °C 10,4 °C 74 % 1012,2 hPa 0,0 mm 8,4 km/h (2 Bft) W-NW 286 ° 1 min 0,000 mm 3,2 UV-I 422 W/m² 6,0 °C 10,4 °C 12,9 km/h (3 Bft)
04.05.2017 14:20 10,4 °C 10,4 °C 76 % 1012,2 hPa 0,0 mm 11,6 km/h (2 Bft) W 267 ° 1 min 0,000 mm 3,3 UV-I 471 W/m² 6,4 °C 10,4 °C 14,5 km/h (3 Bft)
04.05.2017 14:21 10,4 °C 10,4 °C 75 % 1012,2 hPa 0,0 mm 8,7 km/h (2 Bft) W-SW 253 ° 1 min 0,000 mm 3,5 UV-I 499 W/m² 6,2 °C 10,4 °C 19,3 km/h (3 Bft)
04.05.2017 14:22 10,4 °C 10,4 °C 75 % 1012,2 hPa 0,0 mm 11,9 km/h (2 Bft) NW 309 ° 1 min 0,000 mm 4,4 UV-I 573 W/m² 6,2 °C 10,4 °C 17,7 km/h (3 Bft)
04.05.2017 14:23 10,4 °C 10,4 °C 76 % 1012,2 hPa 0,0 mm 7,9 km/h (2 Bft) NW 320 ° 1 min 0,000 mm 4,6 UV-I 573 W/m² 6,4 °C 10,4 °C 12,9 km/h (3 Bft)
04.05.2017 14:24 10,5 °C 10,5 °C 76 % 1012,2 hPa 0,0 mm 12,9 km/h (3 Bft) NW 321 ° 1 min 0,000 mm 4,6 UV-I 643 W/m² 6,5 °C 10,5 °C 19,3 km/h (3 Bft)
04.05.2017 14:25 10,6 °C 10,6 °C 78 % 1012,2 hPa 0,0 mm 11,7 km/h (2 Bft) W-NW 293 ° 1 min 0,000 mm 4,0 UV-I 624 W/m² 6,9 °C 10,6 °C 17,7 km/h (3 Bft)
04.05.2017 14:26 10,7 °C 10,7 °C 74 % 1012,3 hPa 0,0 mm 14,2 km/h (3 Bft) W 281 ° 1 min 0,000 mm 3,6 UV-I 466 W/m² 6,3 °C 10,7 °C 20,9 km/h (4 Bft)
04.05.2017 14:27 10,6 °C 10,7 °C 76 % 1012,3 hPa 0,0 mm 13,5 km/h (3 Bft) W-NW 298 ° 1 min 0,000 mm 3,4 UV-I 454 W/m² 6,5 °C 10,6 °C 20,9 km/h (4 Bft)
04.05.2017 14:28 10,5 °C 10,6 °C 75 % 1012,3 hPa 0,0 mm 13,9 km/h (3 Bft) NW 305 ° 1 min 0,000 mm 3,3 UV-I 445 W/m² 6,3 °C 10,5 °C 20,9 km/h (4 Bft)
04.05.2017 14:29 10,4 °C 10,6 °C 74 % 1012,2 hPa 0,0 mm 10,3 km/h (2 Bft) W 275 ° 1 min 0,000 mm 3,3 UV-I 436 W/m² 6,0 °C 10,4 °C 17,7 km/h (3 Bft)
04.05.2017 14:30 10,3 °C 10,4 °C 75 % 1012,3 hPa 0,0 mm 9,0 km/h (2 Bft) W 269 ° 1 min 0,000 mm 3,3 UV-I 429 W/m² 6,1 °C 10,3 °C 14,5 km/h (3 Bft)
04.05.2017 14:31 10,3 °C 10,3 °C 76 % 1012,2 hPa 0,0 mm 9,7 km/h (2 Bft) W 278 ° 1 min 0,000 mm 3,3 UV-I 427 W/m² 6,3 °C 10,3 °C 14,5 km/h (3 Bft)
04.05.2017 14:32 10,4 °C 10,4 °C 78 % 1012,2 hPa 0,0 mm 11,7 km/h (2 Bft) NW 311 ° 1 min 0,000 mm 3,3 UV-I 434 W/m² 6,7 °C 10,4 °C 20,9 km/h (4 Bft)
04.05.2017 14:33 10,4 °C 10,4 °C 77 % 1012,3 hPa 0,0 mm 16,2 km/h (3 Bft) W 277 ° 1 min 0,000 mm 3,4 UV-I 441 W/m² 6,5 °C 10,4 °C 20,9 km/h (4 Bft)
04.05.2017 14:34 10,4 °C 10,4 °C 77 % 1012,2 hPa 0,0 mm 15,4 km/h (3 Bft) W-NW 302 ° 1 min 0,000 mm 3,5 UV-I 454 W/m² 6,5 °C 10,4 °C 22,5 km/h (4 Bft)
04.05.2017 14:35 10,3 °C 10,4 °C 77 % 1012,3 hPa 0,0 mm 16,4 km/h (3 Bft) W-NW 284 ° 1 min 0,000 mm 3,6 UV-I 462 W/m² 6,4 °C 10,3 °C 20,9 km/h (4 Bft)
04.05.2017 14:36 10,3 °C 10,3 °C 77 % 1012,2 hPa 0,0 mm 13,9 km/h (3 Bft) W-NW 292 ° 1 min 0,000 mm 3,9 UV-I 483 W/m² 6,4 °C 10,3 °C 22,5 km/h (4 Bft)
04.05.2017 14:37 10,3 °C 10,3 °C 78 % 1012,2 hPa 0,0 mm 15,0 km/h (3 Bft) W-NW 282 ° 1 min 0,000 mm 4,3 UV-I 524 W/m² 6,6 °C 10,3 °C 19,3 km/h (3 Bft)
04.05.2017 14:38 10,2 °C 10,3 °C 79 % 1012,2 hPa 0,0 mm 11,9 km/h (2 Bft) NW 318 ° 1 min 0,000 mm 4,5 UV-I 524 W/m² 6,7 °C 10,2 °C 17,7 km/h (3 Bft)
04.05.2017 14:39 10,3 °C 10,3 °C 79 % 1012,2 hPa 0,0 mm 11,6 km/h (2 Bft) NW 325 ° 1 min 0,000 mm 6,0 UV-I 1013 W/m² 6,8 °C 10,3 °C 17,7 km/h (3 Bft)
04.05.2017 14:40 10,6 °C 10,6 °C 80 % 1012,2 hPa 0,0 mm 15,3 km/h (3 Bft) NW 306 ° 1 min 0,000 mm 5,8 UV-I 953 W/m² 7,3 °C 10,6 °C 20,9 km/h (4 Bft)
04.05.2017 14:41 10,8 °C 10,8 °C 81 % 1012,2 hPa 0,0 mm 10,8 km/h (2 Bft) NW 310 ° 1 min 0,000 mm 5,4 UV-I 953 W/m² 7,7 °C 10,8 °C 17,7 km/h (3 Bft)
04.05.2017 14:42 10,9 °C 10,9 °C 81 % 1012,2 hPa 0,0 mm 6,0 km/h (2 Bft) NW 315 ° 1 min 0,000 mm 5,8 UV-I 900 W/m² 7,8 °C 10,9 °C 9,7 km/h (2 Bft)
04.05.2017 14:43 11,1 °C 11,1 °C 81 % 1012,2 hPa 0,0 mm 9,1 km/h (2 Bft) W 279 ° 1 min 0,000 mm 6,2 UV-I 900 W/m² 8,0 °C 11,1 °C 17,7 km/h (3 Bft)
04.05.2017 14:44 11,3 °C 11,3 °C 82 % 1012,2 hPa 0,0 mm 5,0 km/h (1 Bft) W-NW 288 ° 1 min 0,000 mm 6,3 UV-I 1083 W/m² 8,3 °C 11,3 °C 11,3 km/h (2 Bft)
04.05.2017 14:45 11,4 °C 11,5 °C 80 % 1012,2 hPa 0,0 mm 7,3 km/h (2 Bft) W-NW 291 ° 1 min 0,000 mm 5,4 UV-I 925 W/m² 8,1 °C 11,4 °C 14,5 km/h (3 Bft)
04.05.2017 14:46 11,4 °C 11,4 °C 78 % 1012,2 hPa 0,0 mm 5,1 km/h (1 Bft) W 276 ° 1 min 0,000 mm 4,2 UV-I 925 W/m² 7,7 °C 11,4 °C 11,3 km/h (2 Bft)
04.05.2017 14:47 11,3 °C 11,4 °C 81 % 1012,2 hPa 0,0 mm 12,8 km/h (3 Bft) W-NW 286 ° 1 min 0,000 mm 3,4 UV-I 925 W/m² 8,2 °C 11,3 °C 24,1 km/h (4 Bft)
04.05.2017 14:48 11,3 °C 11,3 °C 81 % 1012,3 hPa 0,0 mm 15,8 km/h (3 Bft) W-NW 302 ° 1 min 0,000 mm 2,9 UV-I 403 W/m² 8,2 °C 11,3 °C 22,5 km/h (4 Bft)
04.05.2017 14:49 11,2 °C 11,3 °C 79 % 1012,2 hPa 0,0 mm 13,7 km/h (3 Bft) W 277 ° 1 min 0,000 mm 2,5 UV-I 301 W/m² 7,7 °C 11,2 °C 19,3 km/h (3 Bft)
04.05.2017 14:50 10,9 °C 11,2 °C 79 % 1012,3 hPa 0,0 mm 17,6 km/h (3 Bft) W-NW 291 ° 0 min 0,000 mm 2,0 UV-I 241 W/m² 7,4 °C 10,9 °C 22,5 km/h (4 Bft)
04.05.2017 14:51 10,8 °C 10,9 °C 79 % 1012,4 hPa 0,0 mm 16,0 km/h (3 Bft) W 277 ° 0 min 0,000 mm 1,4 UV-I 206 W/m² 7,3 °C 10,8 °C 19,3 km/h (3 Bft)
04.05.2017 14:52 10,6 °C 10,8 °C 78 % 1012,4 hPa 0,0 mm 11,1 km/h (2 Bft) W-NW 300 ° 0 min 0,000 mm 1,3 UV-I 185 W/m² 6,9 °C 10,6 °C 16,1 km/h (3 Bft)
04.05.2017 14:53 10,4 °C 10,6 °C 78 % 1012,4 hPa 0,0 mm 11,5 km/h (2 Bft) NW 314 ° 0 min 0,000 mm 1,2 UV-I 169 W/m² 6,7 °C 10,4 °C 19,3 km/h (3 Bft)
04.05.2017 14:54 10,3 °C 10,4 °C 79 % 1012,6 hPa 0,0 mm 11,1 km/h (2 Bft) NW 311 ° 0 min 0,000 mm 1,1 UV-I 156 W/m² 6,8 °C 10,3 °C 16,1 km/h (3 Bft)
04.05.2017 14:55 10,2 °C 10,3 °C 79 % 1012,6 hPa 0,0 mm 12,8 km/h (3 Bft) NW 324 ° 0 min 0,000 mm 1,0 UV-I 142 W/m² 6,7 °C 10,2 °C 16,1 km/h (3 Bft)
04.05.2017 14:56 10,1 °C 10,2 °C 77 % 1012,5 hPa 0,0 mm 13,9 km/h (3 Bft) NW 307 ° 0 min 0,000 mm 0,9 UV-I 128 W/m² 6,3 °C 10,1 °C 17,7 km/h (3 Bft)
04.05.2017 14:57 9,9 °C 10,1 °C 78 % 1012,7 hPa 0,0 mm 16,1 km/h (3 Bft) NW 325 ° 0 min 0,000 mm 0,9 UV-I 125 W/m² 6,2 °C 7,7 °C 19,3 km/h (3 Bft)
04.05.2017 14:58 9,8 °C 9,9 °C 79 % 1012,7 hPa 0,0 mm 17,6 km/h (3 Bft) N-NW 334 ° 0 min 0,000 mm 0,9 UV-I 123 W/m² 6,3 °C 7,4 °C 24,1 km/h (4 Bft)
04.05.2017 14:59 9,7 °C 9,8 °C 78 % 1012,7 hPa 0,0 mm 16,9 km/h (3 Bft) N-NW 339 ° 0 min 0,000 mm 0,8 UV-I 118 W/m² 6,1 °C 7,3 °C 19,3 km/h (3 Bft)
04.05.2017 15:00 9,6 °C 9,7 °C 79 % 1012,7 hPa 0,0 mm 11,0 km/h (2 Bft) W-NW 294 ° 0 min 0,000 mm 0,8 UV-I 111 W/m² 6,1 °C 8,0 °C 17,7 km/h (3 Bft)
04.05.2017 15:01 9,4 °C 9,6 °C 78 % 1012,7 hPa 0,0 mm 11,3 km/h (2 Bft) NW 313 ° 0 min 0,229 mm 0,8 UV-I 102 W/m² 5,8 °C 7,7 °C 16,1 km/h (3 Bft)
04.05.2017 15:02 9,4 °C 9,4 °C 79 % 1012,7 hPa 0,0 mm 9,2 km/h (2 Bft) NW 306 ° 0 min 0,000 mm 0,7 UV-I 100 W/m² 5,9 °C 8,1 °C 12,9 km/h (3 Bft)
04.05.2017 15:03 9,3 °C 9,4 °C 79 % 1012,8 hPa 0,0 mm 8,0 km/h (2 Bft) NW 313 ° 0 min 0,000 mm 0,8 UV-I 102 W/m² 5,8 °C 8,2 °C 11,3 km/h (2 Bft)
04.05.2017 15:04 9,3 °C 9,3 °C 79 % 1012,8 hPa 0,0 mm 8,3 km/h (2 Bft) W 281 ° 0 min 0,000 mm 0,8 UV-I 104 W/m² 5,8 °C 8,1 °C 12,9 km/h (3 Bft)
04.05.2017 15:05 9,3 °C 9,3 °C 80 % 1012,8 hPa 0,0 mm 6,6 km/h (2 Bft) NW 312 ° 0 min 0,000 mm 0,8 UV-I 109 W/m² 6,0 °C 8,5 °C 12,9 km/h (3 Bft)
04.05.2017 15:06 9,2 °C 9,3 °C 80 % 1012,8 hPa 0,0 mm 8,4 km/h (2 Bft) W-NW 302 ° 0 min 0,000 mm 0,9 UV-I 116 W/m² 5,9 °C 8,0 °C 14,5 km/h (3 Bft)
04.05.2017 15:07 9,2 °C 9,2 °C 79 % 1012,8 hPa 0,0 mm 12,7 km/h (3 Bft) NW 321 ° 0 min 0,000 mm 0,9 UV-I 123 W/m² 5,8 °C 7,2 °C 16,1 km/h (3 Bft)
04.05.2017 15:08 9,2 °C 9,2 °C 79 % 1012,8 hPa 0,0 mm 6,1 km/h (2 Bft) W-NW 282 ° 0 min 0,000 mm 0,9 UV-I 121 W/m² 5,8 °C 8,5 °C 12,9 km/h (3 Bft)
04.05.2017 15:09 9,1 °C 9,2 °C 79 % 1012,8 hPa 0,0 mm 9,3 km/h (2 Bft) W-NW 288 ° 0 min 0,000 mm 0,9 UV-I 120 W/m² 5,7 °C 7,7 °C 12,9 km/h (3 Bft)
04.05.2017 15:10 9,1 °C 9,1 °C 79 % 1012,7 hPa 0,0 mm 5,2 km/h (1 Bft) W 271 ° 0 min 0,000 mm 0,9 UV-I 114 W/m² 5,7 °C 8,7 °C 6,4 km/h (2 Bft)
04.05.2017 15:11 9,1 °C 9,1 °C 79 % 1012,7 hPa 0,0 mm 4,5 km/h (1 Bft) W 269 ° 0 min 0,000 mm 0,8 UV-I 109 W/m² 5,7 °C 9,1 °C 6,4 km/h (2 Bft)
04.05.2017 15:12 9,0 °C 9,1 °C 79 % 1012,7 hPa 0,0 mm 7,0 km/h (2 Bft) W-NW 288 ° 0 min 0,000 mm 0,8 UV-I 104 W/m² 5,6 °C 8,1 °C 9,7 km/h (2 Bft)
04.05.2017 15:13 9,0 °C 9,1 °C 80 % 1012,7 hPa 0,0 mm 7,6 km/h (2 Bft) W 272 ° 0 min 0,000 mm 0,8 UV-I 95 W/m² 5,7 °C 7,9 °C 11,3 km/h (2 Bft)
04.05.2017 15:14 9,0 °C 9,0 °C 79 % 1012,7 hPa 0,0 mm 6,0 km/h (2 Bft) W 267 ° 0 min 0,000 mm 0,7 UV-I 90 W/m² 5,6 °C 8,3 °C 9,7 km/h (2 Bft)
04.05.2017 15:15 9,0 °C 9,0 °C 79 % 1012,7 hPa 0,0 mm 7,1 km/h (2 Bft) W-SW 244 ° 0 min 0,000 mm 0,7 UV-I 84 W/m² 5,6 °C 8,0 °C 11,3 km/h (2 Bft)
04.05.2017 15:16 8,9 °C 9,0 °C 79 % 1012,7 hPa 0,0 mm 6,4 km/h (2 Bft) W-NW 299 ° 0 min 0,000 mm 0,6 UV-I 81 W/m² 5,5 °C 8,1 °C 12,9 km/h (3 Bft)
04.05.2017 15:17 9,0 °C 9,0 °C 79 % 1012,7 hPa 0,0 mm 4,9 km/h (1 Bft) W 273 ° 0 min 0,000 mm 0,6 UV-I 77 W/m² 5,6 °C 8,7 °C 11,3 km/h (2 Bft)
04.05.2017 15:18 8,9 °C 9,0 °C 80 % 1012,7 hPa 0,0 mm 6,2 km/h (2 Bft) W 281 ° 0 min 0,000 mm 0,6 UV-I 76 W/m² 5,6 °C 8,2 °C 9,7 km/h (2 Bft)
04.05.2017 15:19 8,9 °C 8,9 °C 79 % 1012,7 hPa 0,0 mm 5,9 km/h (2 Bft) W-NW 292 ° 0 min 0,000 mm 0,6 UV-I 74 W/m² 5,5 °C 8,2 °C 9,7 km/h (2 Bft)
04.05.2017 15:20 8,8 °C 8,9 °C 80 % 1012,7 hPa 0,0 mm 6,1 km/h (2 Bft) W-NW 288 ° 0 min 0,000 mm 0,6 UV-I 72 W/m² 5,5 °C 8,1 °C 9,7 km/h (2 Bft)
04.05.2017 15:21 8,8 °C 8,9 °C 80 % 1012,8 hPa 0,0 mm 6,4 km/h (2 Bft) W-NW 291 ° 0 min 0,000 mm 0,6 UV-I 70 W/m² 5,5 °C 8,0 °C 9,7 km/h (2 Bft)
04.05.2017 15:22 8,9 °C 8,9 °C 82 % 1012,8 hPa 0,0 mm 4,9 km/h (1 Bft) NW 321 ° 0 min 0,000 mm 0,5 UV-I 70 W/m² 6,0 °C 8,5 °C 6,4 km/h (2 Bft)
04.05.2017 15:23 8,8 °C 8,9 °C 81 % 1012,7 hPa 0,0 mm 4,6 km/h (1 Bft) NW 317 ° 0 min 0,000 mm 0,5 UV-I 69 W/m² 5,7 °C 8,5 °C 6,4 km/h (2 Bft)
04.05.2017 15:24 8,8 °C 8,8 °C 83 % 1012,8 hPa 0,0 mm 7,3 km/h (2 Bft) W-NW 294 ° 0 min 0,000 mm 0,5 UV-I 67 W/m² 6,1 °C 7,8 °C 9,7 km/h (2 Bft)
04.05.2017 15:25 8,8 °C 8,8 °C 83 % 1012,8 hPa 0,0 mm 4,8 km/h (1 Bft) W 262 ° 0 min 0,000 mm 0,5 UV-I 63 W/m² 6,1 °C 8,5 °C 8,0 km/h (2 Bft)
04.05.2017 15:26 8,7 °C 8,8 °C 83 % 1012,8 hPa 0,0 mm 3,1 km/h (1 Bft) W 261 ° 0 min 0,000 mm 0,5 UV-I 60 W/m² 6,0 °C 8,7 °C 6,4 km/h (2 Bft)
04.05.2017 15:27 8,7 °C 8,7 °C 83 % 1012,9 hPa 0,0 mm 5,0 km/h (1 Bft) W 259 ° 0 min 0,000 mm 0,0 UV-I 56 W/m² 6,0 °C 8,3 °C 6,4 km/h (2 Bft)
04.05.2017 15:28 8,6 °C 8,7 °C 83 % 1012,9 hPa 0,0 mm 4,5 km/h (1 Bft) W 262 ° 0 min 0,000 mm 0,0 UV-I 53 W/m² 5,9 °C 8,6 °C 6,4 km/h (2 Bft)
04.05.2017 15:29 8,6 °C 8,6 °C 84 % 1012,9 hPa 0,0 mm 2,4 km/h (1 Bft) W 263 ° 0 min 0,000 mm 0,0 UV-I 49 W/m² 6,1 °C 8,6 °C 3,2 km/h (1 Bft)
04.05.2017 15:30 8,4 °C 8,6 °C 84 % 1013,0 hPa 0,0 mm 2,7 km/h (1 Bft) W 263 ° 0 min 0,000 mm 0,0 UV-I 46 W/m² 5,9 °C 8,4 °C 4,8 km/h (1 Bft)
04.05.2017 15:31 8,3 °C 8,4 °C 85 % 1012,9 hPa 0,0 mm 3,2 km/h (1 Bft) W 263 ° 0 min 0,000 mm 0,0 UV-I 40 W/m² 5,9 °C 8,3 °C 6,4 km/h (2 Bft)
04.05.2017 15:32 8,3 °C 8,4 °C 86 % 1013,0 hPa 0,0 mm 4,4 km/h (1 Bft) W 265 ° 0 min 0,000 mm 0,0 UV-I 40 W/m² 6,1 °C 8,3 °C 9,7 km/h (2 Bft)
04.05.2017 15:33 8,3 °C 8,3 °C 86 % 1013,1 hPa 0,0 mm 6,4 km/h (2 Bft) W-SW 254 ° 0 min 0,000 mm 0,0 UV-I 40 W/m² 6,1 °C 7,4 °C 8,0 km/h (2 Bft)
04.05.2017 15:34 8,2 °C 8,3 °C 86 % 1013,0 hPa 0,0 mm 5,9 km/h (2 Bft) W 259 ° 0 min 0,000 mm 0,0 UV-I 40 W/m² 6,0 °C 7,4 °C 8,0 km/h (2 Bft)
04.05.2017 15:35 8,2 °C 8,2 °C 87 % 1013,0 hPa 0,0 mm 4,2 km/h (1 Bft) W-SW 257 ° 0 min 0,000 mm 0,0 UV-I 42 W/m² 6,2 °C 8,2 °C 6,4 km/h (2 Bft)
04.05.2017 15:36 8,2 °C 8,2 °C 86 % 1013,1 hPa 0,0 mm 2,1 km/h (1 Bft) W-SW 257 ° 0 min 0,000 mm 0,0 UV-I 47 W/m² 6,0 °C 8,2 °C 3,2 km/h (1 Bft)
04.05.2017 15:37 8,1 °C 8,2 °C 87 % 1013,0 hPa 0,0 mm 5,0 km/h (1 Bft) W 270 ° 0 min 0,000 mm 0,0 UV-I 49 W/m² 6,1 °C 7,6 °C 6,4 km/h (2 Bft)
04.05.2017 15:38 8,1 °C 8,1 °C 87 % 1013,1 hPa 0,0 mm 3,2 km/h (1 Bft) W-SW 257 ° 0 min 0,000 mm 0,0 UV-I 51 W/m² 6,1 °C 8,1 °C 6,4 km/h (2 Bft)
04.05.2017 15:39 8,0 °C 8,1 °C 87 % 1013,0 hPa 0,2 mm 2,1 km/h (1 Bft) W-SW 257 ° 0 min 0,000 mm 0,0 UV-I 53 W/m² 6,0 °C 8,0 °C 4,8 km/h (1 Bft)
04.05.2017 15:40 7,9 °C 8,0 °C 88 % 1013,1 hPa 0,0 mm 2,6 km/h (1 Bft) W-SW 250 ° 0 min 0,000 mm 0,0 UV-I 54 W/m² 6,0 °C 7,9 °C 4,8 km/h (1 Bft)
04.05.2017 15:41 7,8 °C 7,9 °C 87 % 1013,1 hPa 0,0 mm 3,2 km/h (1 Bft) W-SW 249 ° 0 min 0,000 mm 0,0 UV-I 56 W/m² 5,8 °C 7,8 °C 4,8 km/h (1 Bft)
04.05.2017 15:42 7,8 °C 7,8 °C 88 % 1013,0 hPa 0,0 mm 2,3 km/h (1 Bft) W-SW 246 ° 0 min 0,000 mm 0,0 UV-I 56 W/m² 5,9 °C 7,8 °C 4,8 km/h (1 Bft)
04.05.2017 15:43 7,8 °C 7,8 °C 88 % 1013,1 hPa 0,0 mm 3,6 km/h (1 Bft) SW 235 ° 0 min 0,000 mm 0,0 UV-I 58 W/m² 5,9 °C 7,8 °C 6,4 km/h (2 Bft)
04.05.2017 15:44 7,8 °C 7,8 °C 88 % 1013,1 hPa 0,0 mm 1,0 km/h (0 Bft) SW 235 ° 0 min 0,000 mm 0,0 UV-I 60 W/m² 5,9 °C 7,8 °C 3,2 km/h (1 Bft)
04.05.2017 15:45 7,8 °C 7,8 °C 88 % 1013,1 hPa 0,0 mm 3,1 km/h (1 Bft) S-SW 202 ° 0 min 0,000 mm 0,5 UV-I 62 W/m² 5,9 °C 7,8 °C 4,8 km/h (1 Bft)
04.05.2017 15:46 7,7 °C 7,8 °C 88 % 1013,0 hPa 0,0 mm 4,8 km/h (1 Bft) S-SW 195 ° 0 min 0,000 mm 0,5 UV-I 63 W/m² 5,8 °C 7,2 °C 6,4 km/h (2 Bft)
04.05.2017 15:47 7,7 °C 7,7 °C 88 % 1013,0 hPa 0,0 mm 2,0 km/h (1 Bft) S-SW 196 ° 0 min 0,000 mm 0,5 UV-I 69 W/m² 5,8 °C 7,7 °C 3,2 km/h (1 Bft)
04.05.2017 15:48 7,7 °C 7,7 °C 88 % 1013,0 hPa 0,0 mm 0,8 km/h (0 Bft) S-SW 196 ° 0 min 0,000 mm 0,5 UV-I 77 W/m² 5,8 °C 7,7 °C 1,6 km/h (1 Bft)
04.05.2017 15:49 7,7 °C 7,7 °C 89 % 1013,0 hPa 0,0 mm 0,0 km/h (0 Bft) S-SW 196 ° 0 min 0,000 mm 0,6 UV-I 77 W/m² 6,0 °C 7,7 °C 0,0 km/h (0 Bft)
04.05.2017 15:50 7,6 °C 7,7 °C 89 % 1013,0 hPa 0,0 mm 0,0 km/h (0 Bft) S-SW 195 ° 0 min 0,000 mm 0,6 UV-I 88 W/m² 5,9 °C 7,6 °C 0,0 km/h (0 Bft)
04.05.2017 15:51 7,6 °C 7,7 °C 89 % 1013,0 hPa 0,2 mm 1,2 km/h (1 Bft) S-SW 195 ° 0 min 0,000 mm 0,7 UV-I 93 W/m² 5,9 °C 7,6 °C 1,6 km/h (1 Bft)
04.05.2017 15:52 7,6 °C 7,6 °C 90 % 1013,1 hPa 0,0 mm 2,2 km/h (1 Bft) S-SW 195 ° 0 min 0,000 mm 0,7 UV-I 100 W/m² 6,1 °C 7,6 °C 3,2 km/h (1 Bft)
04.05.2017 15:53 7,6 °C 7,6 °C 91 % 1013,0 hPa 0,0 mm 0,3 km/h (0 Bft) S-SW 195 ° 0 min 0,000 mm 0,8 UV-I 105 W/m² 6,2 °C 7,6 °C 1,6 km/h (1 Bft)
04.05.2017 15:54 7,7 °C 7,7 °C 91 % 1013,0 hPa 0,0 mm 1,4 km/h (1 Bft) NW 306 ° 0 min 0,000 mm 0,8 UV-I 107 W/m² 6,3 °C 7,7 °C 3,2 km/h (1 Bft)
04.05.2017 15:55 7,7 °C 7,7 °C 89 % 1013,1 hPa 0,0 mm 2,5 km/h (1 Bft) NW 305 ° 0 min 0,000 mm 0,8 UV-I 109 W/m² 6,0 °C 7,7 °C 4,8 km/h (1 Bft)
04.05.2017 15:56 7,8 °C 7,8 °C 88 % 1013,1 hPa 0,0 mm 0,3 km/h (0 Bft) NW 305 ° 0 min 0,000 mm 0,8 UV-I 111 W/m² 5,9 °C 7,8 °C 1,6 km/h (1 Bft)
04.05.2017 15:57 7,8 °C 7,8 °C 89 % 1013,1 hPa 0,2 mm 2,3 km/h (1 Bft) NW 313 ° 0 min 0,000 mm 0,8 UV-I 111 W/m² 6,1 °C 7,8 °C 3,2 km/h (1 Bft)
04.05.2017 15:58 7,9 °C 7,9 °C 89 % 1013,2 hPa 0,0 mm 2,0 km/h (1 Bft) N-NW 331 ° 0 min 0,000 mm 0,8 UV-I 111 W/m² 6,2 °C 7,9 °C 4,8 km/h (1 Bft)
04.05.2017 15:59 7,9 °C 7,9 °C 89 % 1013,1 hPa 0,0 mm 3,2 km/h (1 Bft) N-NW 340 ° 0 min 0,000 mm 0,8 UV-I 109 W/m² 6,2 °C 7,9 °C 4,8 km/h (1 Bft)
04.05.2017 16:00 7,9 °C 7,9 °C 89 % 1013,2 hPa 0,0 mm 2,0 km/h (1 Bft) N-NW 348 ° 0 min 0,000 mm 0,8 UV-I 111 W/m² 6,2 °C 7,9 °C 3,2 km/h (1 Bft)
04.05.2017 16:01 7,9 °C 8,0 °C 89 % 1013,2 hPa 0,0 mm 2,6 km/h (1 Bft) N 351 ° 0 min 0,051 mm 0,8 UV-I 111 W/m² 6,2 °C 7,9 °C 4,8 km/h (1 Bft)
04.05.2017 16:02 7,9 °C 7,9 °C 89 % 1013,2 hPa 0,0 mm 1,8 km/h (1 Bft) N 351 ° 0 min 0,000 mm 0,8 UV-I 109 W/m² 6,2 °C 7,9 °C 3,2 km/h (1 Bft)
04.05.2017 16:03 7,9 °C 7,9 °C 89 % 1013,2 hPa 0,0 mm 1,4 km/h (1 Bft) N 351 ° 0 min 0,000 mm 0,8 UV-I 107 W/m² 6,2 °C 7,9 °C 3,2 km/h (1 Bft)
04.05.2017 16:04 7,9 °C 7,9 °C 90 % 1013,2 hPa 0,0 mm 0,6 km/h (0 Bft) N 351 ° 0 min 0,000 mm 0,7 UV-I 107 W/m² 6,4 °C 7,9 °C 3,2 km/h (1 Bft)
04.05.2017 16:05 7,9 °C 7,9 °C 90 % 1013,2 hPa 0,0 mm 1,2 km/h (1 Bft) N 351 ° 0 min 0,000 mm 0,8 UV-I 109 W/m² 6,4 °C 7,9 °C 3,2 km/h (1 Bft)
04.05.2017 16:06 8,0 °C 8,0 °C 91 % 1013,2 hPa 0,0 mm 0,0 km/h (0 Bft) N 351 ° 0 min 0,000 mm 0,8 UV-I 118 W/m² 6,6 °C 8,0 °C 0,0 km/h (0 Bft)
04.05.2017 16:07 8,0 °C 8,1 °C 90 % 1013,2 hPa 0,0 mm 1,1 km/h (1 Bft) N 351 ° 0 min 0,000 mm 0,9 UV-I 123 W/m² 6,5 °C 8,0 °C 3,2 km/h (1 Bft)
04.05.2017 16:08 7,8 °C 8,0 °C 88 % 1013,2 hPa 0,0 mm 1,0 km/h (0 Bft) N 351 ° 0 min 0,000 mm 0,9 UV-I 127 W/m² 5,9 °C 7,8 °C 1,6 km/h (1 Bft)
04.05.2017 16:09 7,8 °C 7,8 °C 88 % 1013,2 hPa 0,0 mm 1,8 km/h (1 Bft) N 351 ° 0 min 0,000 mm 0,9 UV-I 128 W/m² 5,9 °C 7,8 °C 3,2 km/h (1 Bft)
04.05.2017 16:10 7,7 °C 7,8 °C 88 % 1013,2 hPa 0,0 mm 1,4 km/h (1 Bft) N 351 ° 0 min 0,000 mm 0,9 UV-I 128 W/m² 5,8 °C 7,7 °C 3,2 km/h (1 Bft)
04.05.2017 16:11 7,7 °C 7,7 °C 88 % 1013,2 hPa 0,0 mm 1,5 km/h (1 Bft) N 351 ° 0 min 0,000 mm 0,8 UV-I 125 W/m² 5,8 °C 7,7 °C 3,2 km/h (1 Bft)
04.05.2017 16:12 7,7 °C 7,7 °C 88 % 1013,2 hPa 0,0 mm 1,5 km/h (1 Bft) N 351 ° 0 min 0,000 mm 0,8 UV-I 123 W/m² 5,8 °C 7,7 °C 3,2 km/h (1 Bft)
04.05.2017 16:13 7,7 °C 7,7 °C 89 % 1013,2 hPa 0,0 mm 0,1 km/h (0 Bft) N 351 ° 0 min 0,000 mm 0,8 UV-I 123 W/m² 6,0 °C 7,7 °C 1,6 km/h (1 Bft)
04.05.2017 16:14 7,7 °C 7,7 °C 88 % 1013,2 hPa 0,0 mm 0,0 km/h (0 Bft) N 351 ° 0 min 0,000 mm 0,8 UV-I 123 W/m² 5,8 °C 7,7 °C 0,0 km/h (0 Bft)
04.05.2017 16:15 7,7 °C 7,7 °C 88 % 1013,2 hPa 0,0 mm 0,0 km/h (0 Bft) N 351 ° 0 min 0,000 mm 0,8 UV-I 123 W/m² 5,8 °C 7,7 °C 0,0 km/h (0 Bft)
04.05.2017 16:16 7,7 °C 7,7 °C 88 % 1013,3 hPa 0,0 mm 0,0 km/h (0 Bft) N 351 ° 0 min 0,000 mm 0,8 UV-I 121 W/m² 5,8 °C 7,7 °C 0,0 km/h (0 Bft)
04.05.2017 16:17 7,7 °C 7,7 °C 87 % 1013,3 hPa 0,0 mm 0,0 km/h (0 Bft) N 351 ° 0 min 0,000 mm 0,8 UV-I 120 W/m² 5,7 °C 7,7 °C 0,0 km/h (0 Bft)
04.05.2017 16:18 7,7 °C 7,7 °C 88 % 1013,3 hPa 0,0 mm 0,0 km/h (0 Bft) N 351 ° 0 min 0,000 mm 0,8 UV-I 120 W/m² 5,8 °C 7,7 °C 0,0 km/h (0 Bft)
04.05.2017 16:19 7,7 °C 7,7 °C 88 % 1013,3 hPa 0,0 mm 0,0 km/h (0 Bft) N 351 ° 0 min 0,000 mm 0,8 UV-I 120 W/m² 5,8 °C 7,7 °C 0,0 km/h (0 Bft)
04.05.2017 16:20 7,7 °C 7,7 °C 87 % 1013,3 hPa 0,0 mm 0,0 km/h (0 Bft) N 351 ° 0 min 0,000 mm 0,8 UV-I 120 W/m² 5,7 °C 7,7 °C 0,0 km/h (0 Bft)
04.05.2017 16:21 7,7 °C 7,7 °C 88 % 1013,3 hPa 0,0 mm 0,0 km/h (0 Bft) N 351 ° 0 min 0,000 mm 0,8 UV-I 121 W/m² 5,8 °C 7,7 °C 0,0 km/h (0 Bft)
04.05.2017 16:22 7,8 °C 7,8 °C 89 % 1013,3 hPa 0,0 mm 0,1 km/h (0 Bft) N 351 ° 0 min 0,000 mm 0,8 UV-I 121 W/m² 6,1 °C 7,8 °C 1,6 km/h (1 Bft)
04.05.2017 16:23 7,8 °C 7,8 °C 89 % 1013,3 hPa 0,0 mm 0,0 km/h (0 Bft) N 351 ° 0 min 0,000 mm 0,8 UV-I 125 W/m² 6,1 °C 7,8 °C 0,0 km/h (0 Bft)
04.05.2017 16:24 7,8 °C 7,9 °C 90 % 1013,3 hPa 0,0 mm 0,0 km/h (0 Bft) N 351 ° 0 min 0,000 mm 0,8 UV-I 127 W/m² 6,3 °C 7,8 °C 0,0 km/h (0 Bft)
04.05.2017 16:25 7,9 °C 7,9 °C 89 % 1013,3 hPa 0,0 mm 0,0 km/h (0 Bft) N 351 ° 0 min 0,000 mm 0,8 UV-I 128 W/m² 6,2 °C 7,9 °C 0,0 km/h (0 Bft)
04.05.2017 16:26 7,9 °C 7,9 °C 90 % 1013,3 hPa 0,0 mm 0,0 km/h (0 Bft) N 351 ° 0 min 0,000 mm 0,8 UV-I 130 W/m² 6,4 °C 7,9 °C 0,0 km/h (0 Bft)
04.05.2017 16:27 7,9 °C 7,9 °C 89 % 1013,3 hPa 0,0 mm 0,0 km/h (0 Bft) N 351 ° 0 min 0,000 mm 0,8 UV-I 132 W/m² 6,2 °C 7,9 °C 0,0 km/h (0 Bft)
04.05.2017 16:28 7,8 °C 7,9 °C 89 % 1013,3 hPa 0,0 mm 0,0 km/h (0 Bft) N 351 ° 0 min 0,000 mm 0,8 UV-I 134 W/m² 6,1 °C 7,8 °C 0,0 km/h (0 Bft)
04.05.2017 16:29 7,9 °C 7,9 °C 89 % 1013,3 hPa 0,0 mm 0,0 km/h (0 Bft) N 351 ° 0 min 0,000 mm 0,9 UV-I 142 W/m² 6,2 °C 7,9 °C 0,0 km/h (0 Bft)
04.05.2017 16:30 7,9 °C 7,9 °C 90 % 1013,3 hPa 0,0 mm 0,0 km/h (0 Bft) N 351 ° 0 min 0,000 mm 0,9 UV-I 142 W/m² 6,4 °C 7,9 °C 0,0 km/h (0 Bft)
04.05.2017 16:31 7,9 °C 7,9 °C 89 % 1013,3 hPa 0,0 mm 0,0 km/h (0 Bft) N 351 ° 0 min 0,000 mm 1,0 UV-I 153 W/m² 6,2 °C 7,9 °C 0,0 km/h (0 Bft)
04.05.2017 16:32 7,9 °C 7,9 °C 89 % 1013,3 hPa 0,0 mm 0,0 km/h (0 Bft) N 351 ° 0 min 0,000 mm 1,0 UV-I 158 W/m² 6,2 °C 7,9 °C 0,0 km/h (0 Bft)
04.05.2017 16:33 7,9 °C 7,9 °C 90 % 1013,3 hPa 0,0 mm 0,4 km/h (0 Bft) N 351 ° 0 min 0,000 mm 1,0 UV-I 162 W/m² 6,4 °C 7,9 °C 1,6 km/h (1 Bft)
04.05.2017 16:34 8,1 °C 8,1 °C 90 % 1013,3 hPa 0,0 mm 0,0 km/h (0 Bft) N 351 ° 0 min 0,000 mm 1,0 UV-I 163 W/m² 6,6 °C 8,1 °C 0,0 km/h (0 Bft)
04.05.2017 16:35 8,1 °C 8,1 °C 90 % 1013,3 hPa 0,0 mm 0,1 km/h (0 Bft) N 351 ° 0 min 0,000 mm 1,1 UV-I 171 W/m² 6,6 °C 8,1 °C 1,6 km/h (1 Bft)
04.05.2017 16:36 8,1 °C 8,1 °C 89 % 1013,3 hPa 0,0 mm 0,0 km/h (0 Bft) N 351 ° 0 min 0,000 mm 1,1 UV-I 176 W/m² 6,4 °C 8,1 °C 0,0 km/h (0 Bft)
04.05.2017 16:37 8,1 °C 8,1 °C 89 % 1013,3 hPa 0,0 mm 0,0 km/h (0 Bft) N 351 ° 0 min 0,000 mm 1,1 UV-I 181 W/m² 6,4 °C 8,1 °C 0,0 km/h (0 Bft)
04.05.2017 16:38 8,1 °C 8,1 °C 90 % 1013,3 hPa 0,0 mm 0,0 km/h (0 Bft) N 351 ° 0 min 0,000 mm 1,2 UV-I 186 W/m² 6,6 °C 8,1 °C 0,0 km/h (0 Bft)
04.05.2017 16:39 8,1 °C 8,1 °C 89 % 1013,3 hPa 0,0 mm 0,0 km/h (0 Bft) N 351 ° 0 min 0,000 mm 1,2 UV-I 190 W/m² 6,4 °C 8,1 °C 0,0 km/h (0 Bft)
04.05.2017 16:40 8,1 °C 8,1 °C 89 % 1013,3 hPa 0,0 mm 0,0 km/h (0 Bft) N 351 ° 0 min 0,000 mm 1,2 UV-I 195 W/m² 6,4 °C 8,1 °C 0,0 km/h (0 Bft)
04.05.2017 16:41 8,1 °C 8,1 °C 90 % 1013,2 hPa 0,0 mm 0,1 km/h (0 Bft) N 351 ° 0 min 0,000 mm 1,3 UV-I 211 W/m² 6,6 °C 8,1 °C 1,6 km/h (1 Bft)
04.05.2017 16:42 8,2 °C 8,2 °C 90 % 1013,3 hPa 0,0 mm 0,8 km/h (0 Bft) N 351 ° 0 min 0,000 mm 1,4 UV-I 223 W/m² 6,7 °C 8,2 °C 1,6 km/h (1 Bft)
04.05.2017 16:43 8,2 °C 8,3 °C 90 % 1013,2 hPa 0,0 mm 1,0 km/h (0 Bft) N 351 ° 0 min 0,000 mm 1,5 UV-I 230 W/m² 6,7 °C 8,2 °C 1,6 km/h (1 Bft)
04.05.2017 16:44 8,3 °C 8,3 °C 90 % 1013,2 hPa 0,0 mm 1,3 km/h (1 Bft) N 351 ° 0 min 0,000 mm 1,5 UV-I 234 W/m² 6,8 °C 8,3 °C 3,2 km/h (1 Bft)
04.05.2017 16:45 8,3 °C 8,3 °C 90 % 1013,3 hPa 0,2 mm 0,1 km/h (0 Bft) N 351 ° 0 min 0,000 mm 1,5 UV-I 232 W/m² 6,8 °C 8,3 °C 1,6 km/h (1 Bft)
04.05.2017 16:46 8,3 °C 8,3 °C 90 % 1013,3 hPa 0,0 mm 2,3 km/h (1 Bft) NO 39 ° 0 min 0,000 mm 1,5 UV-I 230 W/m² 6,8 °C 8,3 °C 3,2 km/h (1 Bft)
04.05.2017 16:47 8,3 °C 8,3 °C 89 % 1013,3 hPa 0,0 mm 2,2 km/h (1 Bft) N 360 ° 0 min 0,000 mm 1,5 UV-I 232 W/m² 6,6 °C 8,3 °C 3,2 km/h (1 Bft)
04.05.2017 16:48 8,3 °C 8,3 °C 89 % 1013,3 hPa 0,0 mm 2,6 km/h (1 Bft) N 360 ° 0 min 0,000 mm 1,5 UV-I 234 W/m² 6,6 °C 8,3 °C 4,8 km/h (1 Bft)
04.05.2017 16:49 8,3 °C 8,3 °C 89 % 1013,2 hPa 0,0 mm 0,8 km/h (0 Bft) N 360 ° 0 min 0,000 mm 1,5 UV-I 234 W/m² 6,6 °C 8,3 °C 3,2 km/h (1 Bft)
04.05.2017 16:50 8,4 °C 8,4 °C 90 % 1013,2 hPa 0,0 mm 1,1 km/h (1 Bft) N 360 ° 0 min 0,000 mm 1,5 UV-I 244 W/m² 6,9 °C 8,4 °C 3,2 km/h (1 Bft)
04.05.2017 16:51 8,4 °C 8,4 °C 90 % 1013,2 hPa 0,0 mm 2,5 km/h (1 Bft) N-NW 329 ° 0 min 0,000 mm 1,5 UV-I 250 W/m² 6,9 °C 8,4 °C 4,8 km/h (1 Bft)
04.05.2017 16:52 8,6 °C 8,6 °C 90 % 1013,2 hPa 0,0 mm 4,0 km/h (1 Bft) NW 317 ° 0 min 0,000 mm 1,5 UV-I 260 W/m² 7,1 °C 8,6 °C 6,4 km/h (2 Bft)
04.05.2017 16:53 8,8 °C 8,8 °C 91 % 1013,2 hPa 0,0 mm 5,8 km/h (2 Bft) NW 318 ° 0 min 0,000 mm 1,5 UV-I 248 W/m² 7,4 °C 8,1 °C 8,0 km/h (2 Bft)
04.05.2017 16:54 8,8 °C 8,8 °C 90 % 1013,2 hPa 0,0 mm 1,3 km/h (1 Bft) NW 318 ° 0 min 0,000 mm 1,6 UV-I 262 W/m² 7,3 °C 8,8 °C 3,2 km/h (1 Bft)
04.05.2017 16:55 8,8 °C 8,8 °C 89 % 1013,2 hPa 0,0 mm 6,2 km/h (2 Bft) NW 319 ° 0 min 0,000 mm 1,6 UV-I 257 W/m² 7,1 °C 8,0 °C 8,0 km/h (2 Bft)
04.05.2017 16:56 8,8 °C 8,8 °C 88 % 1013,2 hPa 0,0 mm 3,5 km/h (1 Bft) NW 317 ° 0 min 0,000 mm 1,6 UV-I 257 W/m² 6,9 °C 8,8 °C 6,4 km/h (2 Bft)
04.05.2017 16:57 8,8 °C 8,8 °C 88 % 1013,2 hPa 0,0 mm 4,2 km/h (1 Bft) NW 320 ° 0 min 0,000 mm 1,7 UV-I 258 W/m² 6,9 °C 8,8 °C 6,4 km/h (2 Bft)
04.05.2017 16:58 8,8 °C 8,8 °C 88 % 1013,2 hPa 0,0 mm 3,1 km/h (1 Bft) N-NW 342 ° 0 min 0,000 mm 1,8 UV-I 285 W/m² 6,9 °C 8,8 °C 4,8 km/h (1 Bft)
04.05.2017 16:59 8,8 °C 8,8 °C 88 % 1013,2 hPa 0,0 mm 3,0 km/h (1 Bft) NW 317 ° 0 min 0,000 mm 1,8 UV-I 287 W/m² 6,9 °C 8,8 °C 8,0 km/h (2 Bft)
04.05.2017 17:00 8,8 °C 8,8 °C 87 % 1013,2 hPa 0,0 mm 6,2 km/h (2 Bft) NW 306 ° 0 min 0,000 mm 1,6 UV-I 279 W/m² 6,8 °C 8,0 °C 8,0 km/h (2 Bft)
04.05.2017 17:01 8,7 °C 8,8 °C 87 % 1013,3 hPa 0,0 mm 3,5 km/h (1 Bft) NW 305 ° 0 min 0,076 mm 1,4 UV-I 241 W/m² 6,7 °C 8,7 °C 4,8 km/h (1 Bft)
04.05.2017 17:02 8,7 °C 8,7 °C 88 % 1013,2 hPa 0,0 mm 4,6 km/h (1 Bft) NW 326 ° 0 min 0,000 mm 1,2 UV-I 197 W/m² 6,8 °C 8,4 °C 8,0 km/h (2 Bft)
04.05.2017 17:03 8,7 °C 8,7 °C 89 % 1013,3 hPa 0,0 mm 5,0 km/h (1 Bft) NW 315 ° 0 min 0,000 mm 1,1 UV-I 174 W/m² 7,0 °C 8,3 °C 8,0 km/h (2 Bft)
04.05.2017 17:04 8,7 °C 8,7 °C 89 % 1013,3 hPa 0,0 mm 3,0 km/h (1 Bft) NW 308 ° 0 min 0,000 mm 1,1 UV-I 172 W/m² 7,0 °C 8,7 °C 4,8 km/h (1 Bft)
04.05.2017 17:05 8,7 °C 8,7 °C 89 % 1013,4 hPa 0,0 mm 3,2 km/h (1 Bft) NW 321 ° 0 min 0,000 mm 1,1 UV-I 174 W/m² 7,0 °C 8,7 °C 6,4 km/h (2 Bft)
04.05.2017 17:06 8,7 °C 8,7 °C 89 % 1013,4 hPa 0,0 mm 5,7 km/h (1 Bft) N-NW 337 ° 0 min 0,000 mm 1,1 UV-I 169 W/m² 7,0 °C 8,1 °C 9,7 km/h (2 Bft)
04.05.2017 17:07 8,7 °C 8,7 °C 88 % 1013,4 hPa 0,0 mm 3,0 km/h (1 Bft) N-NW 343 ° 0 min 0,000 mm 1,0 UV-I 163 W/m² 6,8 °C 8,7 °C 4,8 km/h (1 Bft)
04.05.2017 17:08 8,8 °C 8,8 °C 88 % 1013,4 hPa 0,0 mm 0,7 km/h (0 Bft) N-NW 342 ° 0 min 0,000 mm 1,0 UV-I 162 W/m² 6,9 °C 8,8 °C 3,2 km/h (1 Bft)
04.05.2017 17:09 8,7 °C 8,8 °C 87 % 1013,4 hPa 0,0 mm 2,4 km/h (1 Bft) N-NW 329 ° 0 min 0,000 mm 1,0 UV-I 156 W/m² 6,7 °C 8,7 °C 3,2 km/h (1 Bft)
04.05.2017 17:10 8,7 °C 8,7 °C 88 % 1013,4 hPa 0,0 mm 3,9 km/h (1 Bft) NW 315 ° 0 min 0,000 mm 0,9 UV-I 146 W/m² 6,8 °C 8,7 °C 4,8 km/h (1 Bft)
04.05.2017 17:11 8,7 °C 8,7 °C 88 % 1013,4 hPa 0,0 mm 6,8 km/h (2 Bft) NW 314 ° 0 min 0,000 mm 0,9 UV-I 142 W/m² 6,8 °C 7,8 °C 9,7 km/h (2 Bft)
04.05.2017 17:12 8,7 °C 8,7 °C 88 % 1013,4 hPa 0,0 mm 2,5 km/h (1 Bft) N-NW 346 ° 0 min 0,000 mm 0,9 UV-I 142 W/m² 6,8 °C 8,7 °C 6,4 km/h (2 Bft)
04.05.2017 17:13 8,6 °C 8,7 °C 88 % 1013,4 hPa 0,0 mm 3,0 km/h (1 Bft) N-NW 336 ° 0 min 0,000 mm 0,8 UV-I 141 W/m² 6,7 °C 8,6 °C 3,2 km/h (1 Bft)
04.05.2017 17:14 8,6 °C 8,6 °C 88 % 1013,4 hPa 0,0 mm 3,8 km/h (1 Bft) W-NW 303 ° 0 min 0,000 mm 0,8 UV-I 141 W/m² 6,7 °C 8,6 °C 4,8 km/h (1 Bft)
04.05.2017 17:15 8,6 °C 8,6 °C 88 % 1013,4 hPa 0,0 mm 5,0 km/h (1 Bft) W-NW 288 ° 0 min 0,000 mm 0,8 UV-I 139 W/m² 6,7 °C 8,2 °C 6,4 km/h (2 Bft)
04.05.2017 17:16 8,5 °C 8,6 °C 88 % 1013,4 hPa 0,0 mm 3,2 km/h (1 Bft) W-NW 282 ° 0 min 0,000 mm 0,8 UV-I 137 W/m² 6,6 °C 8,5 °C 4,8 km/h (1 Bft)
04.05.2017 17:17 8,4 °C 8,5 °C 88 % 1013,4 hPa 0,0 mm 1,1 km/h (1 Bft) W-NW 282 ° 0 min 0,000 mm 0,8 UV-I 132 W/m² 6,5 °C 8,4 °C 3,2 km/h (1 Bft)
04.05.2017 17:18 8,4 °C 8,4 °C 88 % 1013,4 hPa 0,0 mm 0,9 km/h (0 Bft) W-NW 282 ° 0 min 0,000 mm 0,7 UV-I 125 W/m² 6,5 °C 8,4 °C 3,2 km/h (1 Bft)
04.05.2017 17:19 8,4 °C 8,4 °C 89 % 1013,4 hPa 0,0 mm 3,0 km/h (1 Bft) W 273 ° 0 min 0,000 mm 0,7 UV-I 118 W/m² 6,7 °C 8,4 °C 4,8 km/h (1 Bft)
04.05.2017 17:20 8,4 °C 8,4 °C 89 % 1013,4 hPa 0,0 mm 2,3 km/h (1 Bft) W-NW 284 ° 0 min 0,000 mm 0,7 UV-I 113 W/m² 6,7 °C 8,4 °C 4,8 km/h (1 Bft)
04.05.2017 17:21 8,4 °C 8,4 °C 89 % 1013,4 hPa 0,0 mm 3,2 km/h (1 Bft) W 275 ° 0 min 0,000 mm 0,6 UV-I 107 W/m² 6,7 °C 8,4 °C 4,8 km/h (1 Bft)
04.05.2017 17:22 8,4 °C 8,4 °C 88 % 1013,4 hPa 0,0 mm 3,4 km/h (1 Bft) W 275 ° 0 min 0,000 mm 0,6 UV-I 100 W/m² 6,5 °C 8,4 °C 4,8 km/h (1 Bft)
04.05.2017 17:23 8,3 °C 8,4 °C 88 % 1013,4 hPa 0,0 mm 4,1 km/h (1 Bft) W 275 ° 0 min 0,000 mm 0,6 UV-I 98 W/m² 6,4 °C 8,3 °C 4,8 km/h (1 Bft)
04.05.2017 17:24 8,3 °C 8,3 °C 88 % 1013,4 hPa 0,0 mm 3,6 km/h (1 Bft) W 278 ° 0 min 0,000 mm 0,6 UV-I 95 W/m² 6,4 °C 8,3 °C 4,8 km/h (1 Bft)
04.05.2017 17:25 8,3 °C 8,3 °C 88 % 1013,4 hPa 0,0 mm 2,1 km/h (1 Bft) W 278 ° 0 min 0,000 mm 0,5 UV-I 91 W/m² 6,4 °C 8,3 °C 3,2 km/h (1 Bft)
04.05.2017 17:26 8,3 °C 8,3 °C 88 % 1013,4 hPa 0,0 mm 2,1 km/h (1 Bft) W 278 ° 0 min 0,000 mm 0,5 UV-I 86 W/m² 6,4 °C 8,3 °C 3,2 km/h (1 Bft)
04.05.2017 17:27 8,3 °C 8,3 °C 88 % 1013,4 hPa 0,0 mm 4,0 km/h (1 Bft) W 278 ° 0 min 0,000 mm 0,5 UV-I 83 W/m² 6,4 °C 8,3 °C 4,8 km/h (1 Bft)
04.05.2017 17:28 8,3 °C 8,3 °C 89 % 1013,5 hPa 0,0 mm 3,0 km/h (1 Bft) W 278 ° 0 min 0,000 mm 0,5 UV-I 74 W/m² 6,6 °C 8,3 °C 4,8 km/h (1 Bft)
04.05.2017 17:29 8,2 °C 8,3 °C 88 % 1013,5 hPa 0,0 mm 3,0 km/h (1 Bft) W 278 ° 0 min 0,000 mm 0,0 UV-I 72 W/m² 6,3 °C 8,2 °C 4,8 km/h (1 Bft)
04.05.2017 17:30 8,3 °C 8,3 °C 88 % 1013,5 hPa 0,0 mm 3,4 km/h (1 Bft) W 275 ° 0 min 0,000 mm 0,0 UV-I 69 W/m² 6,4 °C 8,3 °C 4,8 km/h (1 Bft)
04.05.2017 17:31 8,2 °C 8,3 °C 88 % 1013,5 hPa 0,0 mm 2,9 km/h (1 Bft) W 281 ° 0 min 0,000 mm 0,0 UV-I 67 W/m² 6,3 °C 8,2 °C 6,4 km/h (2 Bft)
04.05.2017 17:32 8,2 °C 8,2 °C 88 % 1013,6 hPa 0,0 mm 5,0 km/h (1 Bft) W 273 ° 0 min 0,000 mm 0,0 UV-I 63 W/m² 6,3 °C 7,7 °C 8,0 km/h (2 Bft)
04.05.2017 17:33 8,2 °C 8,2 °C 88 % 1013,6 hPa 0,0 mm 3,8 km/h (1 Bft) W-NW 284 ° 0 min 0,000 mm 0,0 UV-I 58 W/m² 6,3 °C 8,2 °C 6,4 km/h (2 Bft)
04.05.2017 17:34 8,2 °C 8,2 °C 87 % 1013,6 hPa 0,0 mm 5,4 km/h (1 Bft) W 281 ° 0 min 0,000 mm 0,0 UV-I 42 W/m² 6,2 °C 7,6 °C 9,7 km/h (2 Bft)
04.05.2017 17:35 8,2 °C 8,2 °C 88 % 1013,6 hPa 0,0 mm 4,1 km/h (1 Bft) W 273 ° 0 min 0,000 mm 0,0 UV-I 35 W/m² 6,3 °C 8,2 °C 6,4 km/h (2 Bft)
04.05.2017 17:36 8,2 °C 8,2 °C 88 % 1013,7 hPa 0,0 mm 5,2 km/h (1 Bft) W 280 ° 0 min 0,000 mm 0,0 UV-I 28 W/m² 6,3 °C 7,6 °C 9,7 km/h (2 Bft)
04.05.2017 17:37 8,2 °C 8,2 °C 88 % 1013,9 hPa 0,0 mm 7,2 km/h (2 Bft) W 273 ° 0 min 0,000 mm 0,0 UV-I 23 W/m² 6,3 °C 7,1 °C 11,3 km/h (2 Bft)
04.05.2017 17:38 8,2 °C 8,2 °C 88 % 1013,9 hPa 0,0 mm 10,9 km/h (2 Bft) W-SW 258 ° 0 min 0,000 mm 0,0 UV-I 16 W/m² 6,3 °C 6,3 °C 17,7 km/h (3 Bft)
04.05.2017 17:39 8,1 °C 8,2 °C 89 % 1013,9 hPa 0,0 mm 16,6 km/h (3 Bft) W-SW 243 ° 0 min 0,000 mm 0,0 UV-I 7 W/m² 6,4 °C 5,4 °C 33,8 km/h (5 Bft)
04.05.2017 17:40 7,9 °C 8,1 °C 87 % 1014,0 hPa 0,0 mm 20,8 km/h (4 Bft) W 265 ° 0 min 0,000 mm 0,0 UV-I 9 W/m² 5,9 °C 4,6 °C 32,2 km/h (5 Bft)
04.05.2017 17:41 7,7 °C 7,9 °C 86 % 1014,1 hPa 0,0 mm 21,4 km/h (4 Bft) W 261 ° 0 min 0,000 mm 0,0 UV-I 9 W/m² 5,5 °C 4,3 °C 32,2 km/h (5 Bft)
04.05.2017 17:42 7,5 °C 7,7 °C 86 % 1014,1 hPa 0,2 mm 26,6 km/h (4 Bft) W-NW 290 ° 0 min 0,000 mm 0,0 UV-I 11 W/m² 5,3 °C 3,6 °C 30,6 km/h (5 Bft)
04.05.2017 17:43 7,2 °C 7,5 °C 85 % 1014,1 hPa 0,0 mm 21,8 km/h (4 Bft) W 264 ° 0 min 0,000 mm 0,0 UV-I 12 W/m² 4,9 °C 3,7 °C 32,2 km/h (5 Bft)
04.05.2017 17:44 6,9 °C 7,2 °C 85 % 1014,2 hPa 0,0 mm 19,8 km/h (3 Bft) W 267 ° 0 min 0,000 mm 0,0 UV-I 14 W/m² 4,6 °C 3,5 °C 29,0 km/h (5 Bft)
04.05.2017 17:45 6,7 °C 6,9 °C 86 % 1014,2 hPa 0,2 mm 17,0 km/h (3 Bft) W-NW 297 ° 0 min 0,000 mm 0,0 UV-I 19 W/m² 4,5 °C 3,6 °C 22,5 km/h (4 Bft)
04.05.2017 17:46 6,4 °C 6,7 °C 86 % 1014,2 hPa 0,0 mm 13,9 km/h (3 Bft) W-NW 289 ° 0 min 0,000 mm 0,0 UV-I 19 W/m² 4,2 °C 3,6 °C 19,3 km/h (3 Bft)
04.05.2017 17:47 6,3 °C 6,4 °C 87 % 1014,2 hPa 0,2 mm 17,6 km/h (3 Bft) W 279 ° 0 min 0,000 mm 0,0 UV-I 19 W/m² 4,3 °C 3,0 °C 25,7 km/h (4 Bft)
04.05.2017 17:48 6,1 °C 6,3 °C 88 % 1014,2 hPa 0,0 mm 7,6 km/h (2 Bft) W 261 ° 0 min 0,000 mm 0,0 UV-I 18 W/m² 4,3 °C 4,5 °C 11,3 km/h (2 Bft)
04.05.2017 17:49 5,9 °C 6,1 °C 89 % 1014,2 hPa 0,0 mm 6,8 km/h (2 Bft) W 261 ° 0 min 0,000 mm 0,0 UV-I 16 W/m² 4,2 °C 4,5 °C 11,3 km/h (2 Bft)
04.05.2017 17:50 5,8 °C 5,9 °C 89 % 1014,2 hPa 0,0 mm 5,4 km/h (1 Bft) W-NW 284 ° 0 min 0,000 mm 0,0 UV-I 16 W/m² 4,1 °C 4,8 °C 9,7 km/h (2 Bft)
04.05.2017 17:51 5,7 °C 5,8 °C 89 % 1014,2 hPa 0,0 mm 6,1 km/h (2 Bft) W-NW 292 ° 0 min 0,000 mm 0,0 UV-I 14 W/m² 4,0 °C 4,5 °C 8,0 km/h (2 Bft)
04.05.2017 17:52 5,7 °C 5,7 °C 90 % 1014,2 hPa 0,0 mm 6,4 km/h (2 Bft) W-SW 252 ° 0 min 0,000 mm 0,0 UV-I 12 W/m² 4,2 °C 4,4 °C 11,3 km/h (2 Bft)
04.05.2017 17:53 5,6 °C 5,7 °C 90 % 1014,2 hPa 0,0 mm 6,9 km/h (2 Bft) W-SW 250 ° 0 min 0,000 mm 0,0 UV-I 12 W/m² 4,1 °C 4,1 °C 14,5 km/h (3 Bft)
04.05.2017 17:54 5,6 °C 5,6 °C 90 % 1014,2 hPa 0,0 mm 9,0 km/h (2 Bft) W 265 ° 0 min 0,000 mm 0,0 UV-I 12 W/m² 4,1 °C 3,6 °C 16,1 km/h (3 Bft)
04.05.2017 17:55 5,6 °C 5,6 °C 91 % 1014,2 hPa 0,2 mm 8,1 km/h (2 Bft) W 278 ° 0 min 0,000 mm 0,0 UV-I 11 W/m² 4,2 °C 3,8 °C 12,9 km/h (3 Bft)
04.05.2017 17:56 5,6 °C 5,6 °C 91 % 1014,2 hPa 0,0 mm 8,0 km/h (2 Bft) W 273 ° 0 min 0,000 mm 0,0 UV-I 11 W/m² 4,2 °C 3,8 °C 14,5 km/h (3 Bft)
04.05.2017 17:57 5,5 °C 5,6 °C 91 % 1014,2 hPa 0,0 mm 10,9 km/h (2 Bft) W-NW 300 ° 0 min 0,000 mm 0,0 UV-I 11 W/m² 4,2 °C 3,1 °C 17,7 km/h (3 Bft)
04.05.2017 17:58 5,5 °C 5,5 °C 91 % 1014,2 hPa 0,0 mm 9,6 km/h (2 Bft) W-SW 250 ° 0 min 0,000 mm 0,0 UV-I 11 W/m² 4,2 °C 3,3 °C 14,5 km/h (3 Bft)
04.05.2017 17:59 5,5 °C 5,5 °C 91 % 1014,2 hPa 0,0 mm 9,5 km/h (2 Bft) W 263 ° 0 min 0,000 mm 0,0 UV-I 11 W/m² 4,2 °C 3,4 °C 14,5 km/h (3 Bft)
04.05.2017 18:00 5,5 °C 5,5 °C 91 % 1014,2 hPa 0,2 mm 4,9 km/h (1 Bft) W-SW 251 ° 0 min 0,000 mm 0,0 UV-I 11 W/m² 4,2 °C 4,7 °C 8,0 km/h (2 Bft)
04.05.2017 18:01 5,4 °C 5,5 °C 92 % 1014,3 hPa 0,0 mm 4,1 km/h (1 Bft) W-SW 256 ° 0 min 0,051 mm 0,0 UV-I 12 W/m² 4,2 °C 5,4 °C 6,4 km/h (2 Bft)
04.05.2017 18:02 5,4 °C 5,4 °C 92 % 1014,3 hPa 0,0 mm 10,3 km/h (2 Bft) W-SW 252 ° 0 min 0,000 mm 0,0 UV-I 12 W/m² 4,2 °C 3,1 °C 14,5 km/h (3 Bft)
04.05.2017 18:03 5,5 °C 5,5 °C 92 % 1014,2 hPa 0,0 mm 7,9 km/h (2 Bft) W-NW 284 ° 0 min 0,000 mm 0,0 UV-I 14 W/m² 4,3 °C 3,7 °C 12,9 km/h (3 Bft)
04.05.2017 18:04 5,4 °C 5,5 °C 92 % 1014,3 hPa 0,2 mm 4,6 km/h (1 Bft) W 262 ° 0 min 0,000 mm 0,0 UV-I 16 W/m² 4,2 °C 4,7 °C 6,4 km/h (2 Bft)
04.05.2017 18:05 5,4 °C 5,5 °C 92 % 1014,3 hPa 0,0 mm 3,1 km/h (1 Bft) W 272 ° 0 min 0,000 mm 0,0 UV-I 18 W/m² 4,2 °C 5,4 °C 4,8 km/h (1 Bft)
04.05.2017 18:06 5,4 °C 5,4 °C 92 % 1014,3 hPa 0,0 mm 6,1 km/h (2 Bft) W-SW 249 ° 0 min 0,000 mm 0,0 UV-I 18 W/m² 4,2 °C 4,2 °C 12,9 km/h (3 Bft)
04.05.2017 18:07 5,4 °C 5,4 °C 92 % 1014,3 hPa 0,2 mm 7,7 km/h (2 Bft) W 265 ° 0 min 0,000 mm 0,0 UV-I 19 W/m² 4,2 °C 3,7 °C 12,9 km/h (3 Bft)
04.05.2017 18:08 5,4 °C 5,4 °C 92 % 1014,3 hPa 0,0 mm 7,6 km/h (2 Bft) W-SW 238 ° 0 min 0,000 mm 0,0 UV-I 19 W/m² 4,2 °C 3,7 °C 11,3 km/h (2 Bft)
04.05.2017 18:09 5,4 °C 5,4 °C 92 % 1014,3 hPa 0,2 mm 7,1 km/h (2 Bft) W-SW 250 ° 0 min 0,000 mm 0,0 UV-I 21 W/m² 4,2 °C 3,8 °C 14,5 km/h (3 Bft)
04.05.2017 18:10 5,4 °C 5,5 °C 92 % 1014,3 hPa 0,2 mm 6,2 km/h (2 Bft) W-SW 246 ° 0 min 0,000 mm 0,0 UV-I 21 W/m² 4,2 °C 4,1 °C 11,3 km/h (2 Bft)
04.05.2017 18:11 5,5 °C 5,5 °C 92 % 1014,3 hPa 0,0 mm 5,3 km/h (1 Bft) W-SW 254 ° 0 min 0,000 mm 0,0 UV-I 21 W/m² 4,3 °C 4,5 °C 9,7 km/h (2 Bft)
04.05.2017 18:12 5,4 °C 5,5 °C 92 % 1014,3 hPa 0,2 mm 1,2 km/h (1 Bft) W-SW 254 ° 0 min 0,000 mm 0,0 UV-I 21 W/m² 4,2 °C 5,4 °C 1,6 km/h (1 Bft)
04.05.2017 18:13 5,5 °C 5,5 °C 92 % 1014,3 hPa 0,0 mm 2,4 km/h (1 Bft) W-SW 254 ° 0 min 0,000 mm 0,0 UV-I 23 W/m² 4,3 °C 5,5 °C 4,8 km/h (1 Bft)
04.05.2017 18:14 5,4 °C 5,5 °C 92 % 1014,3 hPa 0,0 mm 1,1 km/h (1 Bft) W-SW 254 ° 0 min 0,000 mm 0,0 UV-I 23 W/m² 4,2 °C 5,4 °C 3,2 km/h (1 Bft)
04.05.2017 18:15 5,4 °C 5,5 °C 92 % 1014,3 hPa 0,2 mm 2,6 km/h (1 Bft) W-SW 250 ° 0 min 0,000 mm 0,0 UV-I 23 W/m² 4,2 °C 5,4 °C 4,8 km/h (1 Bft)
04.05.2017 18:16 5,4 °C 5,5 °C 92 % 1014,2 hPa 0,0 mm 2,2 km/h (1 Bft) W-SW 244 ° 0 min 0,000 mm 0,0 UV-I 25 W/m² 4,2 °C 5,4 °C 4,8 km/h (1 Bft)
04.05.2017 18:17 5,4 °C 5,4 °C 92 % 1014,2 hPa 0,0 mm 0,1 km/h (0 Bft) W-SW 244 ° 0 min 0,000 mm 0,0 UV-I 25 W/m² 4,2 °C 5,4 °C 1,6 km/h (1 Bft)
04.05.2017 18:18 5,5 °C 5,5 °C 92 % 1014,3 hPa 0,2 mm 1,1 km/h (1 Bft) W 278 ° 0 min 0,000 mm 0,0 UV-I 25 W/m² 4,3 °C 5,5 °C 4,8 km/h (1 Bft)
04.05.2017 18:19 5,5 °C 5,5 °C 92 % 1014,3 hPa 0,0 mm 3,1 km/h (1 Bft) W 273 ° 0 min 0,000 mm 0,0 UV-I 26 W/m² 4,3 °C 5,5 °C 4,8 km/h (1 Bft)
04.05.2017 18:20 5,5 °C 5,6 °C 92 % 1014,2 hPa 0,0 mm 1,6 km/h (1 Bft) W 273 ° 0 min 0,000 mm 0,0 UV-I 26 W/m² 4,3 °C 5,5 °C 3,2 km/h (1 Bft)
04.05.2017 18:21 5,6 °C 5,6 °C 92 % 1014,3 hPa 0,0 mm 0,1 km/h (0 Bft) W 273 ° 0 min 0,000 mm 0,0 UV-I 26 W/m² 4,4 °C 5,6 °C 1,6 km/h (1 Bft)
04.05.2017 18:22 5,5 °C 5,6 °C 92 % 1014,2 hPa 0,0 mm 0,0 km/h (0 Bft) W 273 ° 0 min 0,000 mm 0,0 UV-I 28 W/m² 4,3 °C 5,5 °C 0,0 km/h (0 Bft)
04.05.2017 18:23 5,6 °C 5,6 °C 92 % 1014,2 hPa 0,0 mm 0,0 km/h (0 Bft) W 273 ° 0 min 0,000 mm 0,0 UV-I 28 W/m² 4,4 °C 5,6 °C 0,0 km/h (0 Bft)
04.05.2017 18:24 5,5 °C 5,6 °C 92 % 1014,2 hPa 0,0 mm 0,0 km/h (0 Bft) W 273 ° 0 min 0,000 mm 0,0 UV-I 28 W/m² 4,3 °C 5,5 °C 0,0 km/h (0 Bft)
04.05.2017 18:25 5,6 °C 5,6 °C 93 % 1014,3 hPa 0,0 mm 0,0 km/h (0 Bft) W 273 ° 0 min 0,000 mm 0,0 UV-I 28 W/m² 4,6 °C 5,6 °C 0,0 km/h (0 Bft)
04.05.2017 18:26 5,5 °C 5,6 °C 93 % 1014,3 hPa 0,2 mm 0,0 km/h (0 Bft) W 273 ° 0 min 0,000 mm 0,0 UV-I 28 W/m² 4,5 °C 5,5 °C 0,0 km/h (0 Bft)
04.05.2017 18:27 5,5 °C 5,6 °C 93 % 1014,3 hPa 0,0 mm 0,0 km/h (0 Bft) W 273 ° 0 min 0,000 mm 0,0 UV-I 28 W/m² 4,5 °C 5,5 °C 0,0 km/h (0 Bft)
04.05.2017 18:28 5,5 °C 5,6 °C 93 % 1014,3 hPa 0,0 mm 0,0 km/h (0 Bft) W 273 ° 0 min 0,000 mm 0,0 UV-I 30 W/m² 4,5 °C 5,5 °C 0,0 km/h (0 Bft)
04.05.2017 18:29 5,6 °C 5,6 °C 93 % 1014,3 hPa 0,0 mm 0,0 km/h (0 Bft) W 273 ° 0 min 0,000 mm 0,0 UV-I 30 W/m² 4,6 °C 5,6 °C 0,0 km/h (0 Bft)
04.05.2017 18:30 5,6 °C 5,6 °C 93 % 1014,2 hPa 0,0 mm 0,0 km/h (0 Bft) W 273 ° 0 min 0,000 mm 0,0 UV-I 32 W/m² 4,6 °C 5,6 °C 0,0 km/h (0 Bft)
04.05.2017 18:31 5,6 °C 5,6 °C 93 % 1014,3 hPa 0,0 mm 0,0 km/h (0 Bft) W 273 ° 0 min 0,000 mm 0,0 UV-I 32 W/m² 4,6 °C 5,6 °C 0,0 km/h (0 Bft)
04.05.2017 18:32 5,6 °C 5,6 °C 93 % 1014,3 hPa 0,0 mm 0,0 km/h (0 Bft) W 273 ° 0 min 0,000 mm 0,0 UV-I 33 W/m² 4,6 °C 5,6 °C 0,0 km/h (0 Bft)
04.05.2017 18:33 5,6 °C 5,6 °C 93 % 1014,3 hPa 0,0 mm 0,0 km/h (0 Bft) W 273 ° 0 min 0,000 mm 0,0 UV-I 35 W/m² 4,6 °C 5,6 °C 0,0 km/h (0 Bft)
04.05.2017 18:34 5,6 °C 5,6 °C 93 % 1014,3 hPa 0,0 mm 0,0 km/h (0 Bft) W 273 ° 0 min 0,000 mm 0,0 UV-I 35 W/m² 4,6 °C 5,6 °C 0,0 km/h (0 Bft)
04.05.2017 18:35 5,6 °C 5,6 °C 93 % 1014,3 hPa 0,0 mm 0,0 km/h (0 Bft) W 273 ° 0 min 0,000 mm 0,0 UV-I 39 W/m² 4,6 °C 5,6 °C 0,0 km/h (0 Bft)
04.05.2017 18:36 5,6 °C 5,6 °C 93 % 1014,3 hPa 0,0 mm 0,0 km/h (0 Bft) W 273 ° 0 min 0,000 mm 0,0 UV-I 40 W/m² 4,6 °C 5,6 °C 0,0 km/h (0 Bft)
04.05.2017 18:37 5,5 °C 5,6 °C 93 % 1014,3 hPa 0,0 mm 0,0 km/h (0 Bft) W 273 ° 0 min 0,000 mm 0,0 UV-I 42 W/m² 4,5 °C 5,5 °C 0,0 km/h (0 Bft)
04.05.2017 18:38 5,6 °C 5,6 °C 93 % 1014,3 hPa 0,0 mm 0,0 km/h (0 Bft) W 273 ° 0 min 0,000 mm 0,0 UV-I 47 W/m² 4,6 °C 5,6 °C 0,0 km/h (0 Bft)
04.05.2017 18:39 5,6 °C 5,6 °C 93 % 1014,3 hPa 0,0 mm 0,0 km/h (0 Bft) W 273 ° 0 min 0,000 mm 0,0 UV-I 49 W/m² 4,6 °C 5,6 °C 0,0 km/h (0 Bft)
04.05.2017 18:40 5,6 °C 5,6 °C 93 % 1014,3 hPa 0,0 mm 0,0 km/h (0 Bft) W 273 ° 0 min 0,000 mm 0,0 UV-I 49 W/m² 4,6 °C 5,6 °C 0,0 km/h (0 Bft)
04.05.2017 18:41 5,6 °C 5,6 °C 93 % 1014,3 hPa 0,0 mm 0,0 km/h (0 Bft) W 273 ° 0 min 0,000 mm 0,0 UV-I 51 W/m² 4,6 °C 5,6 °C 0,0 km/h (0 Bft)
04.05.2017 18:42 5,7 °C 5,7 °C 93 % 1014,3 hPa 0,0 mm 0,0 km/h (0 Bft) W 273 ° 0 min 0,000 mm 0,0 UV-I 53 W/m² 4,7 °C 5,7 °C 0,0 km/h (0 Bft)
04.05.2017 18:43 5,7 °C 5,7 °C 93 % 1014,2 hPa 0,0 mm 0,0 km/h (0 Bft) W 273 ° 0 min 0,000 mm 0,0 UV-I 54 W/m² 4,7 °C 5,7 °C 0,0 km/h (0 Bft)
04.05.2017 18:44 5,7 °C 5,7 °C 93 % 1014,3 hPa 0,0 mm 0,0 km/h (0 Bft) W 273 ° 0 min 0,000 mm 0,0 UV-I 54 W/m² 4,7 °C 5,7 °C 0,0 km/h (0 Bft)
04.05.2017 18:45 5,7 °C 5,7 °C 93 % 1014,3 hPa 0,0 mm 0,0 km/h (0 Bft) W 273 ° 0 min 0,000 mm 0,0 UV-I 54 W/m² 4,7 °C 5,7 °C 0,0 km/h (0 Bft)
04.05.2017 18:46 5,7 °C 5,7 °C 93 % 1014,3 hPa 0,0 mm 0,0 km/h (0 Bft) W 273 ° 0 min 0,000 mm 0,0 UV-I 54 W/m² 4,7 °C 5,7 °C 0,0 km/h (0 Bft)
04.05.2017 18:47 5,8 °C 5,8 °C 93 % 1014,3 hPa 0,0 mm 0,0 km/h (0 Bft) W 273 ° 0 min 0,000 mm 0,0 UV-I 53 W/m² 4,8 °C 5,8 °C 0,0 km/h (0 Bft)
04.05.2017 18:48 5,8 °C 5,8 °C 93 % 1014,3 hPa 0,0 mm 0,0 km/h (0 Bft) W 273 ° 0 min 0,000 mm 0,0 UV-I 51 W/m² 4,8 °C 5,8 °C 0,0 km/h (0 Bft)
04.05.2017 18:49 5,8 °C 5,8 °C 93 % 1014,3 hPa 0,0 mm 0,0 km/h (0 Bft) W 273 ° 0 min 0,000 mm 0,0 UV-I 49 W/m² 4,8 °C 5,8 °C 0,0 km/h (0 Bft)
04.05.2017 18:50 5,9 °C 5,9 °C 93 % 1014,3 hPa 0,0 mm 0,2 km/h (0 Bft) W 273 ° 0 min 0,000 mm 0,0 UV-I 47 W/m² 4,9 °C 5,9 °C 1,6 km/h (1 Bft)
04.05.2017 18:51 5,9 °C 5,9 °C 93 % 1014,4 hPa 0,0 mm 0,1 km/h (0 Bft) W 273 ° 0 min 0,000 mm 0,0 UV-I 47 W/m² 4,9 °C 5,9 °C 1,6 km/h (1 Bft)
04.05.2017 18:52 5,9 °C 5,9 °C 93 % 1014,4 hPa 0,0 mm 0,1 km/h (0 Bft) W 273 ° 0 min 0,000 mm 0,0 UV-I 46 W/m² 4,9 °C 5,9 °C 1,6 km/h (1 Bft)
04.05.2017 18:53 6,0 °C 6,0 °C 92 % 1014,4 hPa 0,0 mm 2,3 km/h (1 Bft) W 260 ° 0 min 0,000 mm 0,0 UV-I 46 W/m² 4,8 °C 6,0 °C 4,8 km/h (1 Bft)
04.05.2017 18:54 6,0 °C 6,0 °C 92 % 1014,4 hPa 0,0 mm 2,3 km/h (1 Bft) W-SW 245 ° 0 min 0,000 mm 0,0 UV-I 44 W/m² 4,8 °C 6,0 °C 4,8 km/h (1 Bft)
04.05.2017 18:55 6,0 °C 6,0 °C 92 % 1014,4 hPa 0,0 mm 2,8 km/h (1 Bft) W-SW 245 ° 0 min 0,000 mm 0,0 UV-I 44 W/m² 4,8 °C 6,0 °C 4,8 km/h (1 Bft)
04.05.2017 18:56 5,9 °C 6,0 °C 92 % 1014,3 hPa 0,0 mm 0,1 km/h (0 Bft) W-SW 245 ° 0 min 0,000 mm 0,0 UV-I 44 W/m² 4,7 °C 5,9 °C 1,6 km/h (1 Bft)
04.05.2017 18:57 6,0 °C 6,0 °C 92 % 1014,3 hPa 0,0 mm 0,0 km/h (0 Bft) W-SW 245 ° 0 min 0,000 mm 0,0 UV-I 44 W/m² 4,8 °C 6,0 °C 0,0 km/h (0 Bft)
04.05.2017 18:58 5,9 °C 6,0 °C 92 % 1014,4 hPa 0,0 mm 1,4 km/h (1 Bft) W-SW 244 ° 0 min 0,000 mm 0,0 UV-I 44 W/m² 4,7 °C 5,9 °C 3,2 km/h (1 Bft)
04.05.2017 18:59 5,9 °C 6,0 °C 92 % 1014,4 hPa 0,0 mm 0,0 km/h (0 Bft) W-SW 244 ° 0 min 0,000 mm 0,0 UV-I 44 W/m² 4,7 °C 5,9 °C 0,0 km/h (0 Bft)
04.05.2017 19:00 5,9 °C 5,9 °C 92 % 1014,4 hPa 0,0 mm 3,4 km/h (1 Bft) SW 226 ° 0 min 0,000 mm 0,0 UV-I 44 W/m² 4,7 °C 5,9 °C 4,8 km/h (1 Bft)
04.05.2017 19:01 5,9 °C 6,0 °C 92 % 1014,4 hPa 0,0 mm 1,8 km/h (1 Bft) SW 226 ° 0 min 0,025 mm 0,0 UV-I 46 W/m² 4,7 °C 5,9 °C 3,2 km/h (1 Bft)
04.05.2017 19:02 6,0 °C 6,0 °C 92 % 1014,3 hPa 0,0 mm 0,2 km/h (0 Bft) SW 226 ° 0 min 0,000 mm 0,0 UV-I 47 W/m² 4,8 °C 6,0 °C 1,6 km/h (1 Bft)
04.05.2017 19:03 6,0 °C 6,0 °C 92 % 1014,3 hPa 0,0 mm 1,0 km/h (0 Bft) SW 226 ° 0 min 0,000 mm 0,0 UV-I 47 W/m² 4,8 °C 6,0 °C 3,2 km/h (1 Bft)
04.05.2017 19:04 6,0 °C 6,0 °C 92 % 1014,3 hPa 0,0 mm 0,0 km/h (0 Bft) SW 226 ° 0 min 0,000 mm 0,0 UV-I 49 W/m² 4,8 °C 6,0 °C 0,0 km/h (0 Bft)
04.05.2017 19:05 6,0 °C 6,0 °C 93 % 1014,4 hPa 0,0 mm 0,0 km/h (0 Bft) SW 226 ° 0 min 0,000 mm 0,0 UV-I 51 W/m² 5,0 °C 6,0 °C 0,0 km/h (0 Bft)
04.05.2017 19:06 6,1 °C 6,1 °C 92 % 1014,3 hPa 0,0 mm 0,0 km/h (0 Bft) SW 226 ° 0 min 0,000 mm 0,0 UV-I 53 W/m² 4,9 °C 6,1 °C 0,0 km/h (0 Bft)
04.05.2017 19:07 6,0 °C 6,1 °C 93 % 1014,3 hPa 0,0 mm 0,1 km/h (0 Bft) SW 226 ° 0 min 0,000 mm 0,0 UV-I 56 W/m² 5,0 °C 6,0 °C 1,6 km/h (1 Bft)
04.05.2017 19:08 6,1 °C 6,1 °C 93 % 1014,3 hPa 0,0 mm 0,5 km/h (0 Bft) SW 226 ° 0 min 0,000 mm 0,0 UV-I 58 W/m² 5,1 °C 6,1 °C 3,2 km/h (1 Bft)
04.05.2017 19:09 6,1 °C 6,1 °C 92 % 1014,3 hPa 0,0 mm 0,6 km/h (0 Bft) SW 226 ° 0 min 0,000 mm 0,0 UV-I 60 W/m² 4,9 °C 6,1 °C 3,2 km/h (1 Bft)
04.05.2017 19:10 6,1 °C 6,1 °C 92 % 1014,3 hPa 0,0 mm 1,2 km/h (1 Bft) W-SW 240 ° 0 min 0,000 mm 0,0 UV-I 62 W/m² 4,9 °C 6,1 °C 3,2 km/h (1 Bft)
04.05.2017 19:11 6,1 °C 6,1 °C 92 % 1014,3 hPa 0,0 mm 2,2 km/h (1 Bft) W-SW 240 ° 0 min 0,000 mm 0,0 UV-I 63 W/m² 4,9 °C 6,1 °C 3,2 km/h (1 Bft)
04.05.2017 19:12 6,2 °C 6,2 °C 92 % 1014,3 hPa 0,0 mm 2,3 km/h (1 Bft) W-SW 240 ° 0 min 0,000 mm 0,0 UV-I 65 W/m² 5,0 °C 6,2 °C 3,2 km/h (1 Bft)
04.05.2017 19:13 6,1 °C 6,2 °C 92 % 1014,3 hPa 0,0 mm 2,3 km/h (1 Bft) W-SW 240 ° 0 min 0,000 mm 0,0 UV-I 67 W/m² 4,9 °C 6,1 °C 3,2 km/h (1 Bft)
04.05.2017 19:14 6,2 °C 6,2 °C 92 % 1014,3 hPa 0,0 mm 1,4 km/h (1 Bft) W-SW 240 ° 0 min 0,000 mm 0,0 UV-I 69 W/m² 5,0 °C 6,2 °C 3,2 km/h (1 Bft)
04.05.2017 19:15 6,2 °C 6,2 °C 92 % 1014,2 hPa 0,0 mm 1,5 km/h (1 Bft) W-SW 240 ° 0 min 0,000 mm 0,0 UV-I 69 W/m² 5,0 °C 6,2 °C 3,2 km/h (1 Bft)
04.05.2017 19:16 6,2 °C 6,2 °C 92 % 1014,3 hPa 0,0 mm 2,0 km/h (1 Bft) W-SW 240 ° 0 min 0,000 mm 0,0 UV-I 70 W/m² 5,0 °C 6,2 °C 3,2 km/h (1 Bft)
04.05.2017 19:17 6,2 °C 6,2 °C 92 % 1014,3 hPa 0,0 mm 2,7 km/h (1 Bft) W-SW 248 ° 0 min 0,000 mm 0,0 UV-I 72 W/m² 5,0 °C 6,2 °C 4,8 km/h (1 Bft)
04.05.2017 19:18 6,2 °C 6,2 °C 92 % 1014,3 hPa 0,0 mm 2,3 km/h (1 Bft) W-SW 248 ° 0 min 0,000 mm 0,0 UV-I 72 W/m² 5,0 °C 6,2 °C 3,2 km/h (1 Bft)
04.05.2017 19:19 6,2 °C 6,2 °C 92 % 1014,3 hPa 0,0 mm 1,0 km/h (0 Bft) W-SW 248 ° 0 min 0,000 mm 0,0 UV-I 74 W/m² 5,0 °C 6,2 °C 1,6 km/h (1 Bft)
04.05.2017 19:20 6,2 °C 6,2 °C 92 % 1014,3 hPa 0,0 mm 1,4 km/h (1 Bft) W-SW 248 ° 0 min 0,000 mm 0,0 UV-I 74 W/m² 5,0 °C 6,2 °C 3,2 km/h (1 Bft)
04.05.2017 19:21 6,2 °C 6,2 °C 92 % 1014,3 hPa 0,0 mm 0,2 km/h (0 Bft) W-SW 248 ° 0 min 0,000 mm 0,0 UV-I 74 W/m² 5,0 °C 6,2 °C 1,6 km/h (1 Bft)
04.05.2017 19:22 6,2 °C 6,2 °C 92 % 1014,3 hPa 0,0 mm 1,0 km/h (0 Bft) SW 228 ° 0 min 0,000 mm 0,0 UV-I 74 W/m² 5,0 °C 6,2 °C 3,2 km/h (1 Bft)
04.05.2017 19:23 6,2 °C 6,2 °C 92 % 1014,3 hPa 0,0 mm 0,7 km/h (0 Bft) SW 228 ° 0 min 0,000 mm 0,0 UV-I 74 W/m² 5,0 °C 6,2 °C 1,6 km/h (1 Bft)
04.05.2017 19:24 6,2 °C 6,2 °C 92 % 1014,3 hPa 0,0 mm 1,3 km/h (1 Bft) SW 228 ° 0 min 0,000 mm 0,0 UV-I 72 W/m² 5,0 °C 6,2 °C 3,2 km/h (1 Bft)
04.05.2017 19:25 6,2 °C 6,2 °C 92 % 1014,3 hPa 0,0 mm 0,0 km/h (0 Bft) SW 228 ° 0 min 0,000 mm 0,0 UV-I 72 W/m² 5,0 °C 6,2 °C 0,0 km/h (0 Bft)
04.05.2017 19:26 6,2 °C 6,2 °C 92 % 1014,3 hPa 0,0 mm 0,0 km/h (0 Bft) SW 228 ° 0 min 0,000 mm 0,0 UV-I 70 W/m² 5,0 °C 6,2 °C 0,0 km/h (0 Bft)
04.05.2017 19:27 6,2 °C 6,2 °C 92 % 1014,3 hPa 0,0 mm 0,0 km/h (0 Bft) SW 228 ° 0 min 0,000 mm 0,0 UV-I 70 W/m² 5,0 °C 6,2 °C 0,0 km/h (0 Bft)
04.05.2017 19:28 6,2 °C 6,2 °C 93 % 1014,3 hPa 0,0 mm 0,0 km/h (0 Bft) SW 228 ° 0 min 0,000 mm 0,0 UV-I 69 W/m² 5,2 °C 6,2 °C 0,0 km/h (0 Bft)
04.05.2017 19:29 6,2 °C 6,2 °C 93 % 1014,4 hPa 0,0 mm 0,5 km/h (0 Bft) SW 225 ° 0 min 0,000 mm 0,0 UV-I 67 W/m² 5,2 °C 6,2 °C 1,6 km/h (1 Bft)
04.05.2017 19:30 6,1 °C 6,2 °C 93 % 1014,3 hPa 0,0 mm 0,4 km/h (0 Bft) SW 225 ° 0 min 0,000 mm 0,0 UV-I 65 W/m² 5,1 °C 6,1 °C 1,6 km/h (1 Bft)
04.05.2017 19:31 6,1 °C 6,2 °C 93 % 1014,4 hPa 0,0 mm 0,0 km/h (0 Bft) SW 225 ° 0 min 0,000 mm 0,0 UV-I 63 W/m² 5,1 °C 6,1 °C 0,0 km/h (0 Bft)
04.05.2017 19:32 6,1 °C 6,2 °C 93 % 1014,4 hPa 0,0 mm 0,0 km/h (0 Bft) SW 225 ° 0 min 0,000 mm 0,0 UV-I 62 W/m² 5,1 °C 6,1 °C 0,0 km/h (0 Bft)
04.05.2017 19:33 6,1 °C 6,1 °C 93 % 1014,3 hPa 0,0 mm 0,1 km/h (0 Bft) SW 225 ° 0 min 0,000 mm 0,0 UV-I 58 W/m² 5,1 °C 6,1 °C 1,6 km/h (1 Bft)
04.05.2017 19:34 6,1 °C 6,1 °C 93 % 1014,4 hPa 0,0 mm 0,0 km/h (0 Bft) SW 225 ° 0 min 0,000 mm 0,0 UV-I 56 W/m² 5,1 °C 6,1 °C 0,0 km/h (0 Bft)
04.05.2017 19:35 6,1 °C 6,1 °C 93 % 1014,4 hPa 0,0 mm 0,0 km/h (0 Bft) SW 225 ° 0 min 0,000 mm 0,0 UV-I 54 W/m² 5,1 °C 6,1 °C 0,0 km/h (0 Bft)
04.05.2017 19:36 6,1 °C 6,1 °C 93 % 1014,5 hPa 0,0 mm 0,0 km/h (0 Bft) SW 225 ° 0 min 0,000 mm 0,0 UV-I 51 W/m² 5,1 °C 6,1 °C 0,0 km/h (0 Bft)
04.05.2017 19:37 6,2 °C 6,2 °C 93 % 1014,4 hPa 0,0 mm 0,0 km/h (0 Bft) SW 225 ° 0 min 0,000 mm 0,0 UV-I 49 W/m² 5,2 °C 6,2 °C 0,0 km/h (0 Bft)
04.05.2017 19:38 6,1 °C 6,2 °C 93 % 1014,5 hPa 0,0 mm 0,1 km/h (0 Bft) SW 225 ° 0 min 0,000 mm 0,0 UV-I 47 W/m² 5,1 °C 6,1 °C 1,6 km/h (1 Bft)
04.05.2017 19:39 6,1 °C 6,1 °C 93 % 1014,4 hPa 0,0 mm 0,0 km/h (0 Bft) SW 225 ° 0 min 0,000 mm 0,0 UV-I 46 W/m² 5,1 °C 6,1 °C 0,0 km/h (0 Bft)
04.05.2017 19:40 6,1 °C 6,1 °C 94 % 1014,5 hPa 0,0 mm 0,0 km/h (0 Bft) SW 225 ° 0 min 0,000 mm 0,0 UV-I 42 W/m² 5,2 °C 6,1 °C 0,0 km/h (0 Bft)
04.05.2017 19:41 6,1 °C 6,1 °C 94 % 1014,5 hPa 0,0 mm 0,0 km/h (0 Bft) SW 225 ° 0 min 0,000 mm 0,0 UV-I 42 W/m² 5,2 °C 6,1 °C 0,0 km/h (0 Bft)
04.05.2017 19:42 6,1 °C 6,1 °C 94 % 1014,5 hPa 0,0 mm 0,0 km/h (0 Bft) SW 225 ° 0 min 0,000 mm 0,0 UV-I 39 W/m² 5,2 °C 6,1 °C 0,0 km/h (0 Bft)
04.05.2017 19:43 6,1 °C 6,1 °C 94 % 1014,5 hPa 0,0 mm 0,0 km/h (0 Bft) SW 225 ° 0 min 0,000 mm 0,0 UV-I 37 W/m² 5,2 °C 6,1 °C 0,0 km/h (0 Bft)
04.05.2017 19:44 6,1 °C 6,1 °C 94 % 1014,5 hPa 0,0 mm 0,2 km/h (0 Bft) SW 225 ° 0 min 0,000 mm 0,0 UV-I 35 W/m² 5,2 °C 6,1 °C 1,6 km/h (1 Bft)
04.05.2017 19:45 6,1 °C 6,1 °C 94 % 1014,5 hPa 0,0 mm 0,7 km/h (0 Bft) SW 225 ° 0 min 0,000 mm 0,0 UV-I 33 W/m² 5,2 °C 6,1 °C 1,6 km/h (1 Bft)
04.05.2017 19:46 6,1 °C 6,1 °C 94 % 1014,5 hPa 0,0 mm 2,0 km/h (1 Bft) SW 225 ° 0 min 0,000 mm 0,0 UV-I 32 W/m² 5,2 °C 6,1 °C 3,2 km/h (1 Bft)
04.05.2017 19:47 6,1 °C 6,1 °C 94 % 1014,5 hPa 0,0 mm 0,1 km/h (0 Bft) SW 225 ° 0 min 0,000 mm 0,0 UV-I 30 W/m² 5,2 °C 6,1 °C 1,6 km/h (1 Bft)
04.05.2017 19:48 6,1 °C 6,1 °C 94 % 1014,6 hPa 0,0 mm 0,0 km/h (0 Bft) SW 225 ° 0 min 0,000 mm 0,0 UV-I 28 W/m² 5,2 °C 6,1 °C 0,0 km/h (0 Bft)
04.05.2017 19:49 6,1 °C 6,1 °C 94 % 1014,6 hPa 0,0 mm 0,0 km/h (0 Bft) SW 225 ° 0 min 0,000 mm 0,0 UV-I 28 W/m² 5,2 °C 6,1 °C 0,0 km/h (0 Bft)
04.05.2017 19:50 6,0 °C 6,1 °C 94 % 1014,6 hPa 0,0 mm 0,0 km/h (0 Bft) SW 225 ° 0 min 0,000 mm 0,0 UV-I 26 W/m² 5,1 °C 6,0 °C 0,0 km/h (0 Bft)
04.05.2017 19:51 6,1 °C 6,1 °C 94 % 1014,6 hPa 0,0 mm 0,0 km/h (0 Bft) SW 225 ° 0 min 0,000 mm 0,0 UV-I 26 W/m² 5,2 °C 6,1 °C 0,0 km/h (0 Bft)
04.05.2017 19:52 6,0 °C 6,1 °C 94 % 1014,6 hPa 0,0 mm 0,0 km/h (0 Bft) SW 225 ° 0 min 0,000 mm 0,0 UV-I 25 W/m² 5,1 °C 6,0 °C 0,0 km/h (0 Bft)
04.05.2017 19:53 6,1 °C 6,1 °C 94 % 1014,6 hPa 0,0 mm 0,0 km/h (0 Bft) SW 225 ° 0 min 0,000 mm 0,0 UV-I 25 W/m² 5,2 °C 6,1 °C 0,0 km/h (0 Bft)
04.05.2017 19:54 6,0 °C 6,1 °C 94 % 1014,6 hPa 0,0 mm 0,0 km/h (0 Bft) SW 225 ° 0 min 0,000 mm 0,0 UV-I 23 W/m² 5,1 °C 6,0 °C 0,0 km/h (0 Bft)
04.05.2017 19:55 6,0 °C 6,0 °C 94 % 1014,7 hPa 0,0 mm 0,0 km/h (0 Bft) SW 225 ° 0 min 0,000 mm 0,0 UV-I 21 W/m² 5,1 °C 6,0 °C 0,0 km/h (0 Bft)
04.05.2017 19:56 6,0 °C 6,0 °C 94 % 1014,6 hPa 0,0 mm 0,0 km/h (0 Bft) SW 225 ° 0 min 0,000 mm 0,0 UV-I 21 W/m² 5,1 °C 6,0 °C 0,0 km/h (0 Bft)
04.05.2017 19:57 5,9 °C 6,0 °C 94 % 1014,7 hPa 0,0 mm 0,0 km/h (0 Bft) SW 225 ° 0 min 0,000 mm 0,0 UV-I 21 W/m² 5,0 °C 5,9 °C 0,0 km/h (0 Bft)
04.05.2017 19:58 6,0 °C 6,0 °C 94 % 1014,7 hPa 0,0 mm 0,0 km/h (0 Bft) SW 225 ° 0 min 0,000 mm 0,0 UV-I 21 W/m² 5,1 °C 6,0 °C 0,0 km/h (0 Bft)
04.05.2017 19:59 6,0 °C 6,0 °C 94 % 1014,7 hPa 0,0 mm 0,0 km/h (0 Bft) SW 225 ° 0 min 0,000 mm 0,0 UV-I 19 W/m² 5,1 °C 6,0 °C 0,0 km/h (0 Bft)
04.05.2017 20:00 5,9 °C 6,0 °C 94 % 1014,7 hPa 0,0 mm 0,0 km/h (0 Bft) SW 225 ° 0 min 0,000 mm 0,0 UV-I 19 W/m² 5,0 °C 5,9 °C 0,0 km/h (0 Bft)
04.05.2017 20:01 5,9 °C 5,9 °C 94 % 1014,7 hPa 0,0 mm 0,0 km/h (0 Bft) SW 225 ° 0 min 0,026 mm 0,0 UV-I 18 W/m² 5,0 °C 5,9 °C 0,0 km/h (0 Bft)
04.05.2017 20:02 5,9 °C 5,9 °C 94 % 1014,7 hPa 0,0 mm 0,0 km/h (0 Bft) SW 225 ° 0 min 0,000 mm 0,0 UV-I 18 W/m² 5,0 °C 5,9 °C 0,0 km/h (0 Bft)
04.05.2017 20:03 5,9 °C 5,9 °C 94 % 1014,7 hPa 0,0 mm 0,0 km/h (0 Bft) SW 225 ° 0 min 0,000 mm 0,0 UV-I 18 W/m² 5,0 °C 5,9 °C 0,0 km/h (0 Bft)
04.05.2017 20:04 5,9 °C 5,9 °C 94 % 1014,7 hPa 0,0 mm 0,0 km/h (0 Bft) SW 225 ° 0 min 0,000 mm 0,0 UV-I 16 W/m² 5,0 °C 5,9 °C 0,0 km/h (0 Bft)
04.05.2017 20:05 5,9 °C 5,9 °C 94 % 1014,7 hPa 0,0 mm 0,0 km/h (0 Bft) SW 225 ° 0 min 0,000 mm 0,0 UV-I 16 W/m² 5,0 °C 5,9 °C 0,0 km/h (0 Bft)
04.05.2017 20:06 5,9 °C 5,9 °C 94 % 1014,7 hPa 0,0 mm 0,0 km/h (0 Bft) SW 225 ° 0 min 0,000 mm 0,0 UV-I 14 W/m² 5,0 °C 5,9 °C 0,0 km/h (0 Bft)
04.05.2017 20:07 5,9 °C 5,9 °C 94 % 1014,7 hPa 0,0 mm 0,0 km/h (0 Bft) SW 225 ° 0 min 0,000 mm 0,0 UV-I 12 W/m² 5,0 °C 5,9 °C 0,0 km/h (0 Bft)
04.05.2017 20:08 5,8 °C 5,9 °C 94 % 1014,7 hPa 0,0 mm 0,0 km/h (0 Bft) SW 225 ° 0 min 0,000 mm 0,0 UV-I 12 W/m² 4,9 °C 5,8 °C 0,0 km/h (0 Bft)
04.05.2017 20:09 5,8 °C 5,8 °C 94 % 1014,7 hPa 0,0 mm 0,0 km/h (0 Bft) SW 225 ° 0 min 0,000 mm 0,0 UV-I 12 W/m² 4,9 °C 5,8 °C 0,0 km/h (0 Bft)
04.05.2017 20:10 5,8 °C 5,8 °C 94 % 1014,8 hPa 0,0 mm 0,0 km/h (0 Bft) SW 225 ° 0 min 0,000 mm 0,0 UV-I 12 W/m² 4,9 °C 5,8 °C 0,0 km/h (0 Bft)
04.05.2017 20:11 5,8 °C 5,8 °C 94 % 1014,7 hPa 0,0 mm 0,0 km/h (0 Bft) SW 225 ° 0 min 0,000 mm 0,0 UV-I 12 W/m² 4,9 °C 5,8 °C 0,0 km/h (0 Bft)
04.05.2017 20:12 5,8 °C 5,8 °C 94 % 1014,7 hPa 0,0 mm 0,0 km/h (0 Bft) SW 225 ° 0 min 0,000 mm 0,0 UV-I 11 W/m² 4,9 °C 5,8 °C 0,0 km/h (0 Bft)
04.05.2017 20:13 5,8 °C 5,8 °C 94 % 1014,8 hPa 0,0 mm 0,0 km/h (0 Bft) SW 225 ° 0 min 0,000 mm 0,0 UV-I 11 W/m² 4,9 °C 5,8 °C 0,0 km/h (0 Bft)
04.05.2017 20:14 5,8 °C 5,8 °C 94 % 1014,7 hPa 0,0 mm 0,0 km/h (0 Bft) SW 225 ° 0 min 0,000 mm 0,0 UV-I 11 W/m² 4,9 °C 5,8 °C 0,0 km/h (0 Bft)
04.05.2017 20:15 5,8 °C 5,8 °C 94 % 1014,8 hPa 0,0 mm 0,0 km/h (0 Bft) SW 225 ° 0 min 0,000 mm 0,0 UV-I 9 W/m² 4,9 °C 5,8 °C 0,0 km/h (0 Bft)
04.05.2017 20:16 5,7 °C 5,8 °C 94 % 1014,8 hPa 0,0 mm 2,7 km/h (1 Bft) S-SW 209 ° 0 min 0,000 mm 0,0 UV-I 9 W/m² 4,8 °C 5,7 °C 6,4 km/h (2 Bft)
04.05.2017 20:17 5,7 °C 5,8 °C 94 % 1014,7 hPa 0,0 mm 2,7 km/h (1 Bft) S-SW 209 ° 0 min 0,000 mm 0,0 UV-I 7 W/m² 4,8 °C 5,7 °C 4,8 km/h (1 Bft)
04.05.2017 20:18 5,7 °C 5,7 °C 94 % 1014,8 hPa 0,0 mm 1,4 km/h (1 Bft) S-SW 209 ° 0 min 0,000 mm 0,0 UV-I 7 W/m² 4,8 °C 5,7 °C 1,6 km/h (1 Bft)
04.05.2017 20:19 5,7 °C 5,7 °C 94 % 1014,8 hPa 0,0 mm 0,0 km/h (0 Bft) S-SW 209 ° 0 min 0,000 mm 0,0 UV-I 5 W/m² 4,8 °C 5,7 °C 0,0 km/h (0 Bft)
04.05.2017 20:20 5,7 °C 5,7 °C 94 % 1014,8 hPa 0,0 mm 0,3 km/h (0 Bft) S-SW 209 ° 0 min 0,000 mm 0,0 UV-I 5 W/m² 4,8 °C 5,7 °C 1,6 km/h (1 Bft)
04.05.2017 20:21 5,7 °C 5,7 °C 94 % 1014,8 hPa 0,0 mm 0,2 km/h (0 Bft) S-SW 209 ° 0 min 0,000 mm 0,0 UV-I 5 W/m² 4,8 °C 5,7 °C 1,6 km/h (1 Bft)
04.05.2017 20:22 5,7 °C 5,7 °C 94 % 1014,7 hPa 0,0 mm 2,0 km/h (1 Bft) S-SW 209 ° 0 min 0,000 mm 0,0 UV-I 5 W/m² 4,8 °C 5,7 °C 3,2 km/h (1 Bft)
04.05.2017 20:23 5,7 °C 5,7 °C 94 % 1014,8 hPa 0,0 mm 1,7 km/h (1 Bft) S-SW 208 ° 0 min 0,000 mm 0,0 UV-I 5 W/m² 4,8 °C 5,7 °C 3,2 km/h (1 Bft)
04.05.2017 20:24 5,7 °C 5,7 °C 94 % 1014,8 hPa 0,0 mm 1,3 km/h (1 Bft) S-SW 209 ° 0 min 0,000 mm 0,0 UV-I 0 W/m² 4,8 °C 5,7 °C 3,2 km/h (1 Bft)
04.05.2017 20:25 5,7 °C 5,7 °C 94 % 1014,8 hPa 0,0 mm 0,7 km/h (0 Bft) S-SW 209 ° 0 min 0,000 mm 0,0 UV-I 0 W/m² 4,8 °C 5,7 °C 1,6 km/h (1 Bft)
04.05.2017 20:26 5,7 °C 5,7 °C 94 % 1014,7 hPa 0,0 mm 0,0 km/h (0 Bft) S-SW 209 ° 0 min 0,000 mm 0,0 UV-I 0 W/m² 4,8 °C 5,7 °C 0,0 km/h (0 Bft)
04.05.2017 20:27 5,7 °C 5,7 °C 94 % 1014,7 hPa 0,0 mm 0,0 km/h (0 Bft) S-SW 209 ° 0 min 0,000 mm 0,0 UV-I 0 W/m² 4,8 °C 5,7 °C 0,0 km/h (0 Bft)
04.05.2017 20:28 5,7 °C 5,7 °C 94 % 1014,8 hPa 0,0 mm 0,3 km/h (0 Bft) S-SW 209 ° 0 min 0,000 mm 0,0 UV-I 0 W/m² 4,8 °C 5,7 °C 1,6 km/h (1 Bft)
04.05.2017 20:29 5,7 °C 5,7 °C 94 % 1014,8 hPa 0,0 mm 0,2 km/h (0 Bft) S-SW 209 ° 0 min 0,000 mm 0,0 UV-I 0 W/m² 4,8 °C 5,7 °C 1,6 km/h (1 Bft)
04.05.2017 20:30 5,7 °C 5,7 °C 94 % 1014,8 hPa 0,0 mm 0,0 km/h (0 Bft) S-SW 209 ° 0 min 0,000 mm 0,0 UV-I 0 W/m² 4,8 °C 5,7 °C 0,0 km/h (0 Bft)
04.05.2017 20:31 5,7 °C 5,7 °C 94 % 1014,8 hPa 0,0 mm 0,0 km/h (0 Bft) S-SW 209 ° 0 min 0,000 mm 0,0 UV-I 0 W/m² 4,8 °C 5,7 °C 0,0 km/h (0 Bft)
04.05.2017 20:32 5,7 °C 5,7 °C 94 % 1014,8 hPa 0,0 mm 0,0 km/h (0 Bft) S-SW 209 ° 0 min 0,000 mm 0,0 UV-I 0 W/m² 4,8 °C 5,7 °C 0,0 km/h (0 Bft)
04.05.2017 20:33 5,7 °C 5,7 °C 94 % 1014,8 hPa 0,0 mm 0,0 km/h (0 Bft) S-SW 209 ° 0 min 0,000 mm 0,0 UV-I 0 W/m² 4,8 °C 5,7 °C 0,0 km/h (0 Bft)
04.05.2017 20:34 5,7 °C 5,7 °C 94 % 1014,9 hPa 0,0 mm 0,0 km/h (0 Bft) S-SW 209 ° 0 min 0,000 mm 0,0 UV-I 0 W/m² 4,8 °C 5,7 °C 0,0 km/h (0 Bft)
04.05.2017 20:35 5,7 °C 5,7 °C 94 % 1014,8 hPa 0,0 mm 0,0 km/h (0 Bft) S-SW 209 ° 0 min 0,000 mm 0,0 UV-I 0 W/m² 4,8 °C 5,7 °C 0,0 km/h (0 Bft)
04.05.2017 20:36 5,7 °C 5,7 °C 94 % 1014,8 hPa 0,0 mm 0,0 km/h (0 Bft) S-SW 209 ° 0 min 0,000 mm 0,0 UV-I 0 W/m² 4,8 °C 5,7 °C 0,0 km/h (0 Bft)
04.05.2017 20:37 5,7 °C 5,7 °C 94 % 1014,8 hPa 0,0 mm 0,0 km/h (0 Bft) S-SW 209 ° 0 min 0,000 mm 0,0 UV-I 0 W/m² 4,8 °C 5,7 °C 0,0 km/h (0 Bft)
04.05.2017 20:38 5,7 °C 5,7 °C 94 % 1014,8 hPa 0,0 mm 0,0 km/h (0 Bft) S-SW 209 ° 0 min 0,000 mm 0,0 UV-I 0 W/m² 4,8 °C 5,7 °C 0,0 km/h (0 Bft)
04.05.2017 20:39 5,7 °C 5,7 °C 94 % 1014,7 hPa 0,0 mm 0,0 km/h (0 Bft) S-SW 209 ° 0 min 0,000 mm 0,0 UV-I 0 W/m² 4,8 °C 5,7 °C 0,0 km/h (0 Bft)
04.05.2017 20:40 5,7 °C 5,7 °C 94 % 1014,8 hPa 0,0 mm 0,0 km/h (0 Bft) S-SW 209 ° 0 min 0,000 mm 0,0 UV-I 0 W/m² 4,8 °C 5,7 °C 0,0 km/h (0 Bft)
04.05.2017 20:41 5,7 °C 5,7 °C 94 % 1014,7 hPa 0,0 mm 0,0 km/h (0 Bft) S-SW 209 ° 0 min 0,000 mm 0,0 UV-I 0 W/m² 4,8 °C 5,7 °C 0,0 km/h (0 Bft)
04.05.2017 20:42 5,7 °C 5,7 °C 94 % 1014,7 hPa 0,0 mm 0,0 km/h (0 Bft) S-SW 209 ° 0 min 0,000 mm 0,0 UV-I 0 W/m² 4,8 °C 5,7 °C 0,0 km/h (0 Bft)
04.05.2017 20:43 5,7 °C 5,7 °C 94 % 1014,8 hPa 0,0 mm 0,0 km/h (0 Bft) S-SW 209 ° 0 min 0,000 mm 0,0 UV-I 0 W/m² 4,8 °C 5,7 °C 0,0 km/h (0 Bft)
04.05.2017 20:44 5,7 °C 5,7 °C 94 % 1014,8 hPa 0,0 mm 0,0 km/h (0 Bft) S-SW 209 ° 0 min 0,000 mm 0,0 UV-I 0 W/m² 4,8 °C 5,7 °C 0,0 km/h (0 Bft)
04.05.2017 20:45 5,7 °C 5,7 °C 94 % 1014,8 hPa 0,0 mm 0,0 km/h (0 Bft) S-SW 209 ° 0 min 0,000 mm 0,0 UV-I 0 W/m² 4,8 °C 5,7 °C 0,0 km/h (0 Bft)
04.05.2017 20:46 5,7 °C 5,7 °C 94 % 1014,8 hPa 0,0 mm 0,0 km/h (0 Bft) S-SW 209 ° 0 min 0,000 mm 0,0 UV-I 0 W/m² 4,8 °C 5,7 °C 0,0 km/h (0 Bft)
04.05.2017 20:47 5,7 °C 5,7 °C 94 % 1014,8 hPa 0,0 mm 0,0 km/h (0 Bft) S-SW 209 ° 0 min 0,000 mm 0,0 UV-I 0 W/m² 4,8 °C 5,7 °C 0,0 km/h (0 Bft)
04.05.2017 20:48 5,7 °C 5,7 °C 94 % 1014,9 hPa 0,0 mm 0,0 km/h (0 Bft) S-SW 209 ° 0 min 0,000 mm 0,0 UV-I 0 W/m² 4,8 °C 5,7 °C 0,0 km/h (0 Bft)
04.05.2017 20:49 5,7 °C 5,7 °C 94 % 1014,9 hPa 0,0 mm 0,0 km/h (0 Bft) S-SW 209 ° 0 min 0,000 mm 0,0 UV-I 0 W/m² 4,8 °C 5,7 °C 0,0 km/h (0 Bft)
04.05.2017 20:50 5,7 °C 5,7 °C 94 % 1014,9 hPa 0,0 mm 0,0 km/h (0 Bft) S-SW 209 ° 0 min 0,000 mm 0,0 UV-I 0 W/m² 4,8 °C 5,7 °C 0,0 km/h (0 Bft)
04.05.2017 20:51 5,7 °C 5,7 °C 94 % 1014,9 hPa 0,0 mm 0,0 km/h (0 Bft) S-SW 209 ° 0 min 0,000 mm 0,0 UV-I 0 W/m² 4,8 °C 5,7 °C 0,0 km/h (0 Bft)
04.05.2017 20:52 5,7 °C 5,7 °C 94 % 1014,9 hPa 0,0 mm 0,0 km/h (0 Bft) S-SW 209 ° 0 min 0,000 mm 0,0 UV-I 0 W/m² 4,8 °C 5,7 °C 0,0 km/h (0 Bft)
04.05.2017 20:53 5,7 °C 5,7 °C 94 % 1014,9 hPa 0,0 mm 0,1 km/h (0 Bft) S-SW 207 ° 0 min 0,000 mm 0,0 UV-I 0 W/m² 4,8 °C 5,7 °C 1,6 km/h (1 Bft)
04.05.2017 20:54 5,7 °C 5,7 °C 94 % 1014,9 hPa 0,0 mm 1,3 km/h (1 Bft) S-SW 207 ° 0 min 0,000 mm 0,0 UV-I 0 W/m² 4,8 °C 5,7 °C 1,6 km/h (1 Bft)
04.05.2017 20:55 5,7 °C 5,7 °C 94 % 1014,9 hPa 0,0 mm 1,4 km/h (1 Bft) S-SW 207 ° 0 min 0,000 mm 0,0 UV-I 0 W/m² 4,8 °C 5,7 °C 3,2 km/h (1 Bft)
04.05.2017 20:56 5,7 °C 5,7 °C 95 % 1014,9 hPa 0,0 mm 0,0 km/h (0 Bft) S-SW 207 ° 0 min 0,000 mm 0,0 UV-I 0 W/m² 5,0 °C 5,7 °C 0,0 km/h (0 Bft)
04.05.2017 20:57 5,7 °C 5,7 °C 95 % 1014,9 hPa 0,0 mm 0,0 km/h (0 Bft) S-SW 207 ° 0 min 0,000 mm 0,0 UV-I 0 W/m² 5,0 °C 5,7 °C 0,0 km/h (0 Bft)
04.05.2017 20:58 5,7 °C 5,7 °C 95 % 1014,9 hPa 0,0 mm 0,0 km/h (0 Bft) S-SW 207 ° 0 min 0,000 mm 0,0 UV-I 0 W/m² 5,0 °C 5,7 °C 0,0 km/h (0 Bft)
04.05.2017 20:59 5,7 °C 5,7 °C 95 % 1015,0 hPa 0,0 mm 0,0 km/h (0 Bft) S-SW 207 ° 0 min 0,000 mm 0,0 UV-I 0 W/m² 5,0 °C 5,7 °C 0,0 km/h (0 Bft)
04.05.2017 21:00 5,7 °C 5,7 °C 95 % 1014,9 hPa 0,0 mm 0,0 km/h (0 Bft) S-SW 207 ° 0 min 0,000 mm 0,0 UV-I 0 W/m² 5,0 °C 5,7 °C 0,0 km/h (0 Bft)
04.05.2017 21:01 5,7 °C 5,7 °C 95 % 1015,0 hPa 0,0 mm 0,0 km/h (0 Bft) S-SW 207 ° 0 min 0,000 mm 0,0 UV-I 0 W/m² 5,0 °C 5,7 °C 0,0 km/h (0 Bft)
04.05.2017 21:02 5,7 °C 5,7 °C 95 % 1015,0 hPa 0,0 mm 0,0 km/h (0 Bft) S-SW 207 ° 0 min 0,000 mm 0,0 UV-I 0 W/m² 5,0 °C 5,7 °C 0,0 km/h (0 Bft)
04.05.2017 21:03 5,7 °C 5,7 °C 95 % 1015,0 hPa 0,0 mm 0,0 km/h (0 Bft) S-SW 207 ° 0 min 0,000 mm 0,0 UV-I 0 W/m² 5,0 °C 5,7 °C 0,0 km/h (0 Bft)
04.05.2017 21:04 5,7 °C 5,7 °C 95 % 1015,0 hPa 0,0 mm 0,0 km/h (0 Bft) S-SW 207 ° 0 min 0,000 mm 0,0 UV-I 0 W/m² 5,0 °C 5,7 °C 0,0 km/h (0 Bft)
04.05.2017 21:05 5,7 °C 5,7 °C 95 % 1015,0 hPa 0,0 mm 0,0 km/h (0 Bft) S-SW 207 ° 0 min 0,000 mm 0,0 UV-I 0 W/m² 5,0 °C 5,7 °C 0,0 km/h (0 Bft)
04.05.2017 21:06 5,7 °C 5,7 °C 95 % 1015,1 hPa 0,0 mm 0,0 km/h (0 Bft) S-SW 207 ° 0 min 0,000 mm 0,0 UV-I 0 W/m² 5,0 °C 5,7 °C 0,0 km/h (0 Bft)
04.05.2017 21:07 5,7 °C 5,7 °C 95 % 1015,1 hPa 0,0 mm 0,0 km/h (0 Bft) S-SW 207 ° 0 min 0,000 mm 0,0 UV-I 0 W/m² 5,0 °C 5,7 °C 0,0 km/h (0 Bft)
04.05.2017 21:08 5,7 °C 5,7 °C 95 % 1015,0 hPa 0,0 mm 0,0 km/h (0 Bft) S-SW 207 ° 0 min 0,000 mm 0,0 UV-I 0 W/m² 5,0 °C 5,7 °C 0,0 km/h (0 Bft)
04.05.2017 21:09 5,7 °C 5,7 °C 95 % 1015,1 hPa 0,0 mm 0,0 km/h (0 Bft) S-SW 207 ° 0 min 0,000 mm 0,0 UV-I 0 W/m² 5,0 °C 5,7 °C 0,0 km/h (0 Bft)
04.05.2017 21:10 5,7 °C 5,7 °C 95 % 1015,2 hPa 0,0 mm 0,0 km/h (0 Bft) S-SW 207 ° 0 min 0,000 mm 0,0 UV-I 0 W/m² 5,0 °C 5,7 °C 0,0 km/h (0 Bft)
04.05.2017 21:11 5,6 °C 5,7 °C 95 % 1015,2 hPa 0,0 mm 0,0 km/h (0 Bft) S-SW 207 ° 0 min 0,000 mm 0,0 UV-I 0 W/m² 4,9 °C 5,6 °C 0,0 km/h (0 Bft)
04.05.2017 21:12 5,7 °C 5,7 °C 95 % 1015,2 hPa 0,0 mm 0,0 km/h (0 Bft) S-SW 207 ° 0 min 0,000 mm 0,0 UV-I 0 W/m² 5,0 °C 5,7 °C 0,0 km/h (0 Bft)
04.05.2017 21:13 5,7 °C 5,7 °C 95 % 1015,2 hPa 0,0 mm 0,0 km/h (0 Bft) S-SW 207 ° 0 min 0,000 mm 0,0 UV-I 0 W/m² 5,0 °C 5,7 °C 0,0 km/h (0 Bft)
04.05.2017 21:14 5,6 °C 5,7 °C 95 % 1015,2 hPa 0,0 mm 0,0 km/h (0 Bft) S-SW 207 ° 0 min 0,000 mm 0,0 UV-I 0 W/m² 4,9 °C 5,6 °C 0,0 km/h (0 Bft)
04.05.2017 21:15 5,7 °C 5,7 °C 95 % 1015,2 hPa 0,0 mm 0,0 km/h (0 Bft) S-SW 207 ° 0 min 0,000 mm 0,0 UV-I 0 W/m² 5,0 °C 5,7 °C 0,0 km/h (0 Bft)
04.05.2017 21:16 5,7 °C 5,7 °C 95 % 1015,2 hPa 0,0 mm 0,0 km/h (0 Bft) S-SW 207 ° 0 min 0,000 mm 0,0 UV-I 0 W/m² 5,0 °C 5,7 °C 0,0 km/h (0 Bft)
04.05.2017 21:17 5,7 °C 5,7 °C 95 % 1015,2 hPa 0,0 mm 0,0 km/h (0 Bft) S-SW 207 ° 0 min 0,000 mm 0,0 UV-I 0 W/m² 5,0 °C 5,7 °C 0,0 km/h (0 Bft)
04.05.2017 21:18 5,7 °C 5,7 °C 95 % 1015,2 hPa 0,0 mm 0,0 km/h (0 Bft) S-SW 207 ° 0 min 0,000 mm 0,0 UV-I 0 W/m² 5,0 °C 5,7 °C 0,0 km/h (0 Bft)
04.05.2017 21:19 5,7 °C 5,7 °C 95 % 1015,2 hPa 0,0 mm 0,0 km/h (0 Bft) S-SW 207 ° 0 min 0,000 mm 0,0 UV-I 0 W/m² 5,0 °C 5,7 °C 0,0 km/h (0 Bft)
04.05.2017 21:20 5,7 °C 5,7 °C 95 % 1015,2 hPa 0,0 mm 0,0 km/h (0 Bft) S-SW 207 ° 0 min 0,000 mm 0,0 UV-I 0 W/m² 5,0 °C 5,7 °C 0,0 km/h (0 Bft)
04.05.2017 21:21 5,7 °C 5,7 °C 95 % 1015,2 hPa 0,0 mm 0,0 km/h (0 Bft) S-SW 207 ° 0 min 0,000 mm 0,0 UV-I 0 W/m² 5,0 °C 5,7 °C 0,0 km/h (0 Bft)
04.05.2017 21:22 5,7 °C 5,7 °C 95 % 1015,3 hPa 0,0 mm 0,0 km/h (0 Bft) S-SW 207 ° 0 min 0,000 mm 0,0 UV-I 0 W/m² 5,0 °C 5,7 °C 0,0 km/h (0 Bft)
04.05.2017 21:23 5,7 °C 5,7 °C 95 % 1015,2 hPa 0,0 mm 0,0 km/h (0 Bft) S-SW 207 ° 0 min 0,000 mm 0,0 UV-I 0 W/m² 5,0 °C 5,7 °C 0,0 km/h (0 Bft)
04.05.2017 21:24 5,7 °C 5,7 °C 95 % 1015,3 hPa 0,0 mm 0,6 km/h (0 Bft) S-SW 207 ° 0 min 0,000 mm 0,0 UV-I 0 W/m² 5,0 °C 5,7 °C 1,6 km/h (1 Bft)
04.05.2017 21:25 5,7 °C 5,7 °C 95 % 1015,3 hPa 0,0 mm 0,1 km/h (0 Bft) S-SW 207 ° 0 min 0,000 mm 0,0 UV-I 0 W/m² 5,0 °C 5,7 °C 1,6 km/h (1 Bft)
04.05.2017 21:26 5,7 °C 5,7 °C 94 % 1015,2 hPa 0,0 mm 0,0 km/h (0 Bft) S-SW 207 ° 0 min 0,000 mm 0,0 UV-I 0 W/m² 4,8 °C 5,7 °C 0,0 km/h (0 Bft)
04.05.2017 21:27 5,7 °C 5,7 °C 94 % 1015,3 hPa 0,0 mm 0,0 km/h (0 Bft) S-SW 207 ° 0 min 0,000 mm 0,0 UV-I 0 W/m² 4,8 °C 5,7 °C 0,0 km/h (0 Bft)
04.05.2017 21:28 5,7 °C 5,7 °C 94 % 1015,3 hPa 0,0 mm 0,0 km/h (0 Bft) S-SW 207 ° 0 min 0,000 mm 0,0 UV-I 0 W/m² 4,8 °C 5,7 °C 0,0 km/h (0 Bft)
04.05.2017 21:29 5,7 °C 5,7 °C 94 % 1015,3 hPa 0,0 mm 0,0 km/h (0 Bft) S-SW 207 ° 0 min 0,000 mm 0,0 UV-I 0 W/m² 4,8 °C 5,7 °C 0,0 km/h (0 Bft)
04.05.2017 21:30 5,7 °C 5,7 °C 94 % 1015,3 hPa 0,0 mm 0,0 km/h (0 Bft) S-SW 207 ° 0 min 0,000 mm 0,0 UV-I 0 W/m² 4,8 °C 5,7 °C 0,0 km/h (0 Bft)
04.05.2017 21:31 5,7 °C 5,7 °C 94 % 1015,3 hPa 0,0 mm 0,0 km/h (0 Bft) S-SW 207 ° 0 min 0,000 mm 0,0 UV-I 0 W/m² 4,8 °C 5,7 °C 0,0 km/h (0 Bft)
04.05.2017 21:32 5,7 °C 5,7 °C 94 % 1015,3 hPa 0,0 mm 0,7 km/h (0 Bft) S 182 ° 0 min 0,000 mm 0,0 UV-I 0 W/m² 4,8 °C 5,7 °C 3,2 km/h (1 Bft)
04.05.2017 21:33 5,7 °C 5,8 °C 94 % 1015,3 hPa 0,0 mm 0,3 km/h (0 Bft) S 182 ° 0 min 0,000 mm 0,0 UV-I 0 W/m² 4,8 °C 5,7 °C 1,6 km/h (1 Bft)
04.05.2017 21:34 5,7 °C 5,7 °C 94 % 1015,3 hPa 0,0 mm 0,1 km/h (0 Bft) S 182 ° 0 min 0,000 mm 0,0 UV-I 0 W/m² 4,8 °C 5,7 °C 1,6 km/h (1 Bft)
04.05.2017 21:35 5,7 °C 5,8 °C 94 % 1015,3 hPa 0,0 mm 0,6 km/h (0 Bft) S 182 ° 0 min 0,000 mm 0,0 UV-I 0 W/m² 4,8 °C 5,7 °C 1,6 km/h (1 Bft)
04.05.2017 21:36 5,7 °C 5,7 °C 94 % 1015,4 hPa 0,0 mm 0,6 km/h (0 Bft) S 182 ° 0 min 0,000 mm 0,0 UV-I 0 W/m² 4,8 °C 5,7 °C 1,6 km/h (1 Bft)
04.05.2017 21:37 5,8 °C 5,8 °C 94 % 1015,3 hPa 0,0 mm 0,0 km/h (0 Bft) S 182 ° 0 min 0,000 mm 0,0 UV-I 0 W/m² 4,9 °C 5,8 °C 0,0 km/h (0 Bft)
04.05.2017 21:38 5,7 °C 5,8 °C 94 % 1015,4 hPa 0,0 mm 0,7 km/h (0 Bft) S 182 ° 0 min 0,000 mm 0,0 UV-I 0 W/m² 4,8 °C 5,7 °C 3,2 km/h (1 Bft)
04.05.2017 21:39 5,7 °C 5,7 °C 94 % 1015,4 hPa 0,0 mm 1,9 km/h (1 Bft) S 182 ° 0 min 0,000 mm 0,0 UV-I 0 W/m² 4,8 °C 5,7 °C 3,2 km/h (1 Bft)
04.05.2017 21:40 5,7 °C 5,7 °C 94 % 1015,4 hPa 0,0 mm 0,3 km/h (0 Bft) S 182 ° 0 min 0,000 mm 0,0 UV-I 0 W/m² 4,8 °C 5,7 °C 1,6 km/h (1 Bft)
04.05.2017 21:41 5,7 °C 5,7 °C 94 % 1015,4 hPa 0,0 mm 0,9 km/h (0 Bft) S 182 ° 0 min 0,000 mm 0,0 UV-I 0 W/m² 4,8 °C 5,7 °C 3,2 km/h (1 Bft)
04.05.2017 21:42 5,7 °C 5,7 °C 94 % 1015,4 hPa 0,0 mm 0,3 km/h (0 Bft) S 182 ° 0 min 0,000 mm 0,0 UV-I 0 W/m² 4,8 °C 5,7 °C 1,6 km/h (1 Bft)
04.05.2017 21:43 5,7 °C 5,7 °C 94 % 1015,4 hPa 0,0 mm 2,6 km/h (1 Bft) W-SW 238 ° 0 min 0,000 mm 0,0 UV-I 0 W/m² 4,8 °C 5,7 °C 4,8 km/h (1 Bft)
04.05.2017 21:44 5,7 °C 5,7 °C 94 % 1015,4 hPa 0,0 mm 1,1 km/h (1 Bft) W-SW 238 ° 0 min 0,000 mm 0,0 UV-I 0 W/m² 4,8 °C 5,7 °C 3,2 km/h (1 Bft)
04.05.2017 21:45 5,7 °C 5,7 °C 94 % 1015,4 hPa 0,0 mm 2,0 km/h (1 Bft) W-SW 238 ° 0 min 0,000 mm 0,0 UV-I 0 W/m² 4,8 °C 5,7 °C 3,2 km/h (1 Bft)
04.05.2017 21:46 5,7 °C 5,7 °C 94 % 1015,4 hPa 0,0 mm 2,8 km/h (1 Bft) W-SW 238 ° 0 min 0,000 mm 0,0 UV-I 0 W/m² 4,8 °C 5,7 °C 3,2 km/h (1 Bft)
04.05.2017 21:47 5,7 °C 5,7 °C 94 % 1015,4 hPa 0,0 mm 2,4 km/h (1 Bft) S-SW 205 ° 0 min 0,000 mm 0,0 UV-I 0 W/m² 4,8 °C 5,7 °C 4,8 km/h (1 Bft)
04.05.2017 21:48 5,8 °C 5,8 °C 94 % 1015,4 hPa 0,0 mm 1,8 km/h (1 Bft) S-SW 205 ° 0 min 0,000 mm 0,0 UV-I 0 W/m² 4,9 °C 5,8 °C 3,2 km/h (1 Bft)
04.05.2017 21:49 5,8 °C 5,8 °C 94 % 1015,5 hPa 0,0 mm 3,5 km/h (1 Bft) S-SW 205 ° 0 min 0,000 mm 0,0 UV-I 0 W/m² 4,9 °C 5,8 °C 4,8 km/h (1 Bft)
04.05.2017 21:50 5,8 °C 5,8 °C 94 % 1015,5 hPa 0,0 mm 3,8 km/h (1 Bft) S-SW 207 ° 0 min 0,000 mm 0,0 UV-I 0 W/m² 4,9 °C 5,8 °C 6,4 km/h (2 Bft)
04.05.2017 21:51 5,8 °C 5,8 °C 94 % 1015,4 hPa 0,0 mm 3,9 km/h (1 Bft) W-SW 252 ° 0 min 0,000 mm 0,0 UV-I 0 W/m² 4,9 °C 5,8 °C 6,4 km/h (2 Bft)
04.05.2017 21:52 5,8 °C 5,8 °C 94 % 1015,5 hPa 0,0 mm 6,9 km/h (2 Bft) W-SW 241 ° 0 min 0,000 mm 0,0 UV-I 0 W/m² 4,9 °C 4,4 °C 8,0 km/h (2 Bft)
04.05.2017 21:53 5,9 °C 5,9 °C 94 % 1015,5 hPa 0,0 mm 3,9 km/h (1 Bft) SW 228 ° 0 min 0,000 mm 0,0 UV-I 0 W/m² 5,0 °C 5,9 °C 6,4 km/h (2 Bft)
04.05.2017 21:54 5,9 °C 5,9 °C 93 % 1015,5 hPa 0,0 mm 3,1 km/h (1 Bft) SW 228 ° 0 min 0,000 mm 0,0 UV-I 0 W/m² 4,9 °C 5,9 °C 4,8 km/h (1 Bft)
04.05.2017 21:55 5,9 °C 5,9 °C 93 % 1015,4 hPa 0,0 mm 2,6 km/h (1 Bft) SW 221 ° 0 min 0,000 mm 0,0 UV-I 0 W/m² 4,9 °C 5,9 °C 6,4 km/h (2 Bft)
04.05.2017 21:56 6,0 °C 6,0 °C 93 % 1015,4 hPa 0,0 mm 3,0 km/h (1 Bft) W-SW 247 ° 0 min 0,000 mm 0,0 UV-I 0 W/m² 5,0 °C 6,0 °C 4,8 km/h (1 Bft)
04.05.2017 21:57 6,1 °C 6,1 °C 93 % 1015,5 hPa 0,0 mm 2,9 km/h (1 Bft) W-SW 247 ° 0 min 0,000 mm 0,0 UV-I 0 W/m² 5,1 °C 6,1 °C 4,8 km/h (1 Bft)
04.05.2017 21:58 6,1 °C 6,1 °C 93 % 1015,5 hPa 0,0 mm 5,3 km/h (1 Bft) W-SW 252 ° 0 min 0,000 mm 0,0 UV-I 0 W/m² 5,1 °C 5,2 °C 8,0 km/h (2 Bft)
04.05.2017 21:59 6,1 °C 6,1 °C 92 % 1015,5 hPa 0,0 mm 3,1 km/h (1 Bft) SW 225 ° 0 min 0,000 mm 0,0 UV-I 0 W/m² 4,9 °C 6,1 °C 6,4 km/h (2 Bft)
04.05.2017 22:00 6,1 °C 6,1 °C 92 % 1015,5 hPa 0,0 mm 2,9 km/h (1 Bft) W-SW 240 ° 0 min 0,000 mm 0,0 UV-I 0 W/m² 4,9 °C 6,1 °C 4,8 km/h (1 Bft)
04.05.2017 22:01 6,1 °C 6,2 °C 92 % 1015,4 hPa 0,0 mm 4,4 km/h (1 Bft) SW 232 ° 0 min 0,000 mm 0,0 UV-I 0 W/m² 4,9 °C 6,1 °C 6,4 km/h (2 Bft)
04.05.2017 22:02 6,1 °C 6,2 °C 92 % 1015,5 hPa 0,0 mm 4,3 km/h (1 Bft) SW 236 ° 0 min 0,000 mm 0,0 UV-I 0 W/m² 4,9 °C 6,1 °C 9,7 km/h (2 Bft)
04.05.2017 22:03 6,2 °C 6,2 °C 92 % 1015,4 hPa 0,0 mm 2,9 km/h (1 Bft) W-SW 256 ° 0 min 0,000 mm 0,0 UV-I 0 W/m² 5,0 °C 6,2 °C 4,8 km/h (1 Bft)
04.05.2017 22:04 6,2 °C 6,2 °C 92 % 1015,4 hPa 0,0 mm 3,2 km/h (1 Bft) W-SW 251 ° 0 min 0,000 mm 0,0 UV-I 0 W/m² 5,0 °C 6,2 °C 6,4 km/h (2 Bft)
04.05.2017 22:05 6,2 °C 6,2 °C 92 % 1015,5 hPa 0,0 mm 1,8 km/h (1 Bft) W-SW 251 ° 0 min 0,000 mm 0,0 UV-I 0 W/m² 5,0 °C 6,2 °C 3,2 km/h (1 Bft)
04.05.2017 22:06 6,2 °C 6,2 °C 92 % 1015,5 hPa 0,0 mm 2,5 km/h (1 Bft) S-SW 196 ° 0 min 0,000 mm 0,0 UV-I 0 W/m² 5,0 °C 6,2 °C 3,2 km/h (1 Bft)
04.05.2017 22:07 6,2 °C 6,2 °C 91 % 1015,5 hPa 0,0 mm 2,5 km/h (1 Bft) SW 232 ° 0 min 0,000 mm 0,0 UV-I 0 W/m² 4,8 °C 6,2 °C 3,2 km/h (1 Bft)
04.05.2017 22:08 6,2 °C 6,2 °C 91 % 1015,5 hPa 0,0 mm 4,4 km/h (1 Bft) S 178 ° 0 min 0,000 mm 0,0 UV-I 0 W/m² 4,8 °C 6,2 °C 6,4 km/h (2 Bft)
04.05.2017 22:09 6,2 °C 6,2 °C 91 % 1015,5 hPa 0,0 mm 1,9 km/h (1 Bft) S 178 ° 0 min 0,000 mm 0,0 UV-I 0 W/m² 4,8 °C 6,2 °C 4,8 km/h (1 Bft)
04.05.2017 22:10 6,2 °C 6,2 °C 91 % 1015,5 hPa 0,0 mm 0,3 km/h (0 Bft) S 178 ° 0 min 0,000 mm 0,0 UV-I 0 W/m² 4,8 °C 6,2 °C 1,6 km/h (1 Bft)
04.05.2017 22:11 6,2 °C 6,2 °C 91 % 1015,4 hPa 0,0 mm 0,2 km/h (0 Bft) W-SW 251 ° 0 min 0,000 mm 0,0 UV-I 0 W/m² 4,8 °C 6,2 °C 3,2 km/h (1 Bft)
04.05.2017 22:12 6,2 °C 6,2 °C 91 % 1015,5 hPa 0,0 mm 3,7 km/h (1 Bft) W-SW 243 ° 0 min 0,000 mm 0,0 UV-I 0 W/m² 4,8 °C 6,2 °C 4,8 km/h (1 Bft)
04.05.2017 22:13 6,2 °C 6,2 °C 91 % 1015,5 hPa 0,0 mm 3,4 km/h (1 Bft) W-SW 243 ° 0 min 0,000 mm 0,0 UV-I 0 W/m² 4,8 °C 6,2 °C 4,8 km/h (1 Bft)
04.05.2017 22:14 6,2 °C 6,2 °C 92 % 1015,5 hPa 0,0 mm 2,5 km/h (1 Bft) W-SW 243 ° 0 min 0,000 mm 0,0 UV-I 0 W/m² 5,0 °C 6,2 °C 3,2 km/h (1 Bft)
04.05.2017 22:15 6,1 °C 6,2 °C 91 % 1015,6 hPa 0,0 mm 0,8 km/h (0 Bft) W-SW 243 ° 0 min 0,000 mm 0,0 UV-I 0 W/m² 4,7 °C 6,1 °C 3,2 km/h (1 Bft)
04.05.2017 22:16 6,2 °C 6,2 °C 91 % 1015,6 hPa 0,0 mm 1,0 km/h (0 Bft) W-SW 243 ° 0 min 0,000 mm 0,0 UV-I 0 W/m² 4,8 °C 6,2 °C 3,2 km/h (1 Bft)
04.05.2017 22:17 6,2 °C 6,2 °C 91 % 1015,5 hPa 0,0 mm 0,7 km/h (0 Bft) W-SW 243 ° 0 min 0,000 mm 0,0 UV-I 0 W/m² 4,8 °C 6,2 °C 3,2 km/h (1 Bft)
04.05.2017 22:18 6,2 °C 6,2 °C 92 % 1015,6 hPa 0,0 mm 3,1 km/h (1 Bft) W-SW 248 ° 0 min 0,000 mm 0,0 UV-I 0 W/m² 5,0 °C 6,2 °C 4,8 km/h (1 Bft)
04.05.2017 22:19 6,1 °C 6,2 °C 92 % 1015,6 hPa 0,0 mm 0,7 km/h (0 Bft) W-SW 248 ° 0 min 0,000 mm 0,0 UV-I 0 W/m² 4,9 °C 6,1 °C 3,2 km/h (1 Bft)
04.05.2017 22:20 6,1 °C 6,1 °C 91 % 1015,5 hPa 0,0 mm 2,2 km/h (1 Bft) SW 226 ° 0 min 0,000 mm 0,0 UV-I 0 W/m² 4,7 °C 6,1 °C 4,8 km/h (1 Bft)
04.05.2017 22:21 6,1 °C 6,1 °C 92 % 1015,6 hPa 0,0 mm 1,5 km/h (1 Bft) SW 234 ° 0 min 0,000 mm 0,0 UV-I 0 W/m² 4,9 °C 6,1 °C 3,2 km/h (1 Bft)
04.05.2017 22:22 6,1 °C 6,1 °C 92 % 1015,6 hPa 0,0 mm 0,3 km/h (0 Bft) SW 234 ° 0 min 0,000 mm 0,0 UV-I 0 W/m² 4,9 °C 6,1 °C 1,6 km/h (1 Bft)
04.05.2017 22:23 6,1 °C 6,1 °C 91 % 1015,6 hPa 0,0 mm 1,6 km/h (1 Bft) W-SW 248 ° 0 min 0,000 mm 0,0 UV-I 0 W/m² 4,7 °C 6,1 °C 4,8 km/h (1 Bft)
04.05.2017 22:24 6,1 °C 6,1 °C 92 % 1015,6 hPa 0,0 mm 1,6 km/h (1 Bft) W-SW 248 ° 0 min 0,000 mm 0,0 UV-I 0 W/m² 4,9 °C 6,1 °C 3,2 km/h (1 Bft)
04.05.2017 22:25 6,1 °C 6,1 °C 92 % 1015,6 hPa 0,0 mm 1,1 km/h (1 Bft) W-SW 248 ° 0 min 0,000 mm 0,0 UV-I 0 W/m² 4,9 °C 6,1 °C 3,2 km/h (1 Bft)
04.05.2017 22:26 6,1 °C 6,1 °C 92 % 1015,6 hPa 0,0 mm 1,7 km/h (1 Bft) S-SW 199 ° 0 min 0,000 mm 0,0 UV-I 0 W/m² 4,9 °C 6,1 °C 4,8 km/h (1 Bft)
04.05.2017 22:27 6,1 °C 6,1 °C 92 % 1015,6 hPa 0,0 mm 4,9 km/h (1 Bft) S-SW 194 ° 0 min 0,000 mm 0,0 UV-I 0 W/m² 4,9 °C 5,4 °C 8,0 km/h (2 Bft)
04.05.2017 22:28 6,1 °C 6,1 °C 92 % 1015,6 hPa 0,0 mm 4,2 km/h (1 Bft) S-SW 200 ° 0 min 0,000 mm 0,0 UV-I 0 W/m² 4,9 °C 6,1 °C 6,4 km/h (2 Bft)
04.05.2017 22:29 6,1 °C 6,1 °C 92 % 1015,6 hPa 0,0 mm 4,0 km/h (1 Bft) SW 219 ° 0 min 0,000 mm 0,0 UV-I 0 W/m² 4,9 °C 6,1 °C 4,8 km/h (1 Bft)
04.05.2017 22:30 6,1 °C 6,1 °C 92 % 1015,6 hPa 0,0 mm 3,1 km/h (1 Bft) S-SW 198 ° 0 min 0,000 mm 0,0 UV-I 0 W/m² 4,9 °C 6,1 °C 4,8 km/h (1 Bft)
04.05.2017 22:31 6,1 °C 6,1 °C 92 % 1015,6 hPa 0,0 mm 0,6 km/h (0 Bft) S-SW 198 ° 0 min 0,000 mm 0,0 UV-I 0 W/m² 4,9 °C 6,1 °C 3,2 km/h (1 Bft)
04.05.2017 22:32 6,1 °C 6,1 °C 92 % 1015,7 hPa 0,0 mm 0,7 km/h (0 Bft) S-SW 198 ° 0 min 0,000 mm 0,0 UV-I 0 W/m² 4,9 °C 6,1 °C 1,6 km/h (1 Bft)
04.05.2017 22:33 6,1 °C 6,1 °C 92 % 1015,7 hPa 0,0 mm 0,0 km/h (0 Bft) S-SW 198 ° 0 min 0,000 mm 0,0 UV-I 0 W/m² 4,9 °C 6,1 °C 0,0 km/h (0 Bft)
04.05.2017 22:34 5,9 °C 6,1 °C 92 % 1015,7 hPa 0,0 mm 2,5 km/h (1 Bft) SW 217 ° 0 min 0,000 mm 0,0 UV-I 0 W/m² 4,7 °C 5,9 °C 3,2 km/h (1 Bft)
04.05.2017 22:35 5,9 °C 5,9 °C 92 % 1015,7 hPa 0,0 mm 0,6 km/h (0 Bft) SW 217 ° 0 min 0,000 mm 0,0 UV-I 0 W/m² 4,7 °C 5,9 °C 1,6 km/h (1 Bft)
04.05.2017 22:36 5,9 °C 5,9 °C 93 % 1015,7 hPa 0,0 mm 0,0 km/h (0 Bft) SW 217 ° 0 min 0,000 mm 0,0 UV-I 0 W/m² 4,9 °C 5,9 °C 0,0 km/h (0 Bft)
04.05.2017 22:37 5,8 °C 5,9 °C 93 % 1015,7 hPa 0,0 mm 0,0 km/h (0 Bft) SW 217 ° 0 min 0,000 mm 0,0 UV-I 0 W/m² 4,8 °C 5,8 °C 0,0 km/h (0 Bft)
04.05.2017 22:38 5,8 °C 5,8 °C 93 % 1015,7 hPa 0,0 mm 0,0 km/h (0 Bft) SW 217 ° 0 min 0,000 mm 0,0 UV-I 0 W/m² 4,8 °C 5,8 °C 0,0 km/h (0 Bft)
04.05.2017 22:39 5,8 °C 5,8 °C 93 % 1015,7 hPa 0,0 mm 0,1 km/h (0 Bft) SW 217 ° 0 min 0,000 mm 0,0 UV-I 0 W/m² 4,8 °C 5,8 °C 1,6 km/h (1 Bft)
04.05.2017 22:40 5,8 °C 5,8 °C 93 % 1015,7 hPa 0,0 mm 0,0 km/h (0 Bft) SW 217 ° 0 min 0,000 mm 0,0 UV-I 0 W/m² 4,8 °C 5,8 °C 0,0 km/h (0 Bft)
04.05.2017 22:41 5,8 °C 5,8 °C 93 % 1015,7 hPa 0,0 mm 0,0 km/h (0 Bft) SW 217 ° 0 min 0,000 mm 0,0 UV-I 0 W/m² 4,8 °C 5,8 °C 0,0 km/h (0 Bft)
04.05.2017 22:42 5,8 °C 5,8 °C 93 % 1015,7 hPa 0,0 mm 0,0 km/h (0 Bft) SW 217 ° 0 min 0,000 mm 0,0 UV-I 0 W/m² 4,8 °C 5,8 °C 0,0 km/h (0 Bft)
04.05.2017 22:43 5,8 °C 5,8 °C 94 % 1015,7 hPa 0,0 mm 1,5 km/h (1 Bft) S-SW 213 ° 0 min 0,000 mm 0,0 UV-I 0 W/m² 4,9 °C 5,8 °C 3,2 km/h (1 Bft)
04.05.2017 22:44 5,7 °C 5,8 °C 94 % 1015,7 hPa 0,0 mm 0,0 km/h (0 Bft) S-SW 213 ° 0 min 0,000 mm 0,0 UV-I 0 W/m² 4,8 °C 5,7 °C 0,0 km/h (0 Bft)
04.05.2017 22:45 5,7 °C 5,8 °C 94 % 1015,7 hPa 0,0 mm 0,0 km/h (0 Bft) S-SW 213 ° 0 min 0,000 mm 0,0 UV-I 0 W/m² 4,8 °C 5,7 °C 0,0 km/h (0 Bft)
04.05.2017 22:46 5,8 °C 5,8 °C 94 % 1015,8 hPa 0,0 mm 1,1 km/h (1 Bft) S-SW 213 ° 0 min 0,000 mm 0,0 UV-I 0 W/m² 4,9 °C 5,8 °C 3,2 km/h (1 Bft)
04.05.2017 22:47 5,8 °C 5,8 °C 94 % 1015,7 hPa 0,0 mm 1,9 km/h (1 Bft) S-SW 213 ° 0 min 0,000 mm 0,0 UV-I 0 W/m² 4,9 °C 5,8 °C 3,2 km/h (1 Bft)
04.05.2017 22:48 5,8 °C 5,8 °C 94 % 1015,7 hPa 0,0 mm 0,3 km/h (0 Bft) S-SW 213 ° 0 min 0,000 mm 0,0 UV-I 0 W/m² 4,9 °C 5,8 °C 1,6 km/h (1 Bft)
04.05.2017 22:49 5,8 °C 5,8 °C 94 % 1015,7 hPa 0,0 mm 0,1 km/h (0 Bft) S-SW 213 ° 0 min 0,000 mm 0,0 UV-I 0 W/m² 4,9 °C 5,8 °C 1,6 km/h (1 Bft)
04.05.2017 22:50 5,8 °C 5,8 °C 94 % 1015,7 hPa 0,0 mm 0,0 km/h (0 Bft) S-SW 213 ° 0 min 0,000 mm 0,0 UV-I 0 W/m² 4,9 °C 5,8 °C 0,0 km/h (0 Bft)
04.05.2017 22:51 5,7 °C 5,8 °C 94 % 1015,7 hPa 0,0 mm 0,0 km/h (0 Bft) S-SW 213 ° 0 min 0,000 mm 0,0 UV-I 0 W/m² 4,8 °C 5,7 °C 0,0 km/h (0 Bft)
04.05.2017 22:52 5,8 °C 5,8 °C 94 % 1015,7 hPa 0,0 mm 0,0 km/h (0 Bft) S-SW 213 ° 0 min 0,000 mm 0,0 UV-I 0 W/m² 4,9 °C 5,8 °C 0,0 km/h (0 Bft)
04.05.2017 22:53 5,8 °C 5,8 °C 94 % 1015,7 hPa 0,0 mm 0,1 km/h (0 Bft) S-SW 213 ° 0 min 0,000 mm 0,0 UV-I 0 W/m² 4,9 °C 5,8 °C 1,6 km/h (1 Bft)
04.05.2017 22:54 5,7 °C 5,8 °C 94 % 1015,7 hPa 0,0 mm 1,0 km/h (0 Bft) S-SW 213 ° 0 min 0,000 mm 0,0 UV-I 0 W/m² 4,8 °C 5,7 °C 3,2 km/h (1 Bft)
04.05.2017 22:55 5,7 °C 5,8 °C 94 % 1015,8 hPa 0,0 mm 0,1 km/h (0 Bft) S-SW 213 ° 0 min 0,000 mm 0,0 UV-I 0 W/m² 4,8 °C 5,7 °C 1,6 km/h (1 Bft)
04.05.2017 22:56 5,7 °C 5,7 °C 94 % 1015,7 hPa 0,0 mm 0,0 km/h (0 Bft) S-SW 213 ° 0 min 0,000 mm 0,0 UV-I 0 W/m² 4,8 °C 5,7 °C 0,0 km/h (0 Bft)
04.05.2017 22:57 5,7 °C 5,7 °C 94 % 1015,7 hPa 0,0 mm 0,0 km/h (0 Bft) S-SW 213 ° 0 min 0,000 mm 0,0 UV-I 0 W/m² 4,8 °C 5,7 °C 0,0 km/h (0 Bft)
04.05.2017 22:58 5,7 °C 5,7 °C 94 % 1015,7 hPa 0,0 mm 0,0 km/h (0 Bft) S-SW 213 ° 0 min 0,000 mm 0,0 UV-I 0 W/m² 4,8 °C 5,7 °C 0,0 km/h (0 Bft)
04.05.2017 22:59 5,7 °C 5,7 °C 94 % 1015,7 hPa 0,0 mm 0,8 km/h (0 Bft) S-SW 213 ° 0 min 0,000 mm 0,0 UV-I 0 W/m² 4,8 °C 5,7 °C 1,6 km/h (1 Bft)
04.05.2017 23:00 5,7 °C 5,7 °C 94 % 1015,7 hPa 0,0 mm 0,3 km/h (0 Bft) S-SW 213 ° 0 min 0,000 mm 0,0 UV-I 0 W/m² 4,8 °C 5,7 °C 1,6 km/h (1 Bft)
04.05.2017 23:01 5,7 °C 5,7 °C 94 % 1015,7 hPa 0,0 mm 0,5 km/h (0 Bft) S-SW 213 ° 0 min 0,000 mm 0,0 UV-I 0 W/m² 4,8 °C 5,7 °C 1,6 km/h (1 Bft)
04.05.2017 23:02 5,7 °C 5,7 °C 94 % 1015,6 hPa 0,0 mm 0,2 km/h (0 Bft) S-SW 213 ° 0 min 0,000 mm 0,0 UV-I 0 W/m² 4,8 °C 5,7 °C 1,6 km/h (1 Bft)
04.05.2017 23:03 5,7 °C 5,7 °C 94 % 1015,7 hPa 0,0 mm 0,1 km/h (0 Bft) S-SW 213 ° 0 min 0,000 mm 0,0 UV-I 0 W/m² 4,8 °C 5,7 °C 1,6 km/h (1 Bft)
04.05.2017 23:04 5,7 °C 5,7 °C 94 % 1015,7 hPa 0,0 mm 0,9 km/h (0 Bft) S-SW 213 ° 0 min 0,000 mm 0,0 UV-I 0 W/m² 4,8 °C 5,7 °C 1,6 km/h (1 Bft)
04.05.2017 23:05 5,7 °C 5,7 °C 94 % 1015,7 hPa 0,0 mm 0,6 km/h (0 Bft) S-SW 213 ° 0 min 0,000 mm 0,0 UV-I 0 W/m² 4,8 °C 5,7 °C 1,6 km/h (1 Bft)
04.05.2017 23:06 5,7 °C 5,7 °C 94 % 1015,7 hPa 0,0 mm 0,0 km/h (0 Bft) S-SW 213 ° 0 min 0,000 mm 0,0 UV-I 0 W/m² 4,8 °C 5,7 °C 0,0 km/h (0 Bft)
04.05.2017 23:07 5,7 °C 5,7 °C 94 % 1015,7 hPa 0,0 mm 0,0 km/h (0 Bft) S-SW 213 ° 0 min 0,000 mm 0,0 UV-I 0 W/m² 4,8 °C 5,7 °C 0,0 km/h (0 Bft)
04.05.2017 23:08 5,7 °C 5,7 °C 95 % 1015,7 hPa 0,0 mm 1,3 km/h (1 Bft) S-SW 213 ° 0 min 0,000 mm 0,0 UV-I 0 W/m² 5,0 °C 5,7 °C 3,2 km/h (1 Bft)
04.05.2017 23:09 5,7 °C 5,7 °C 94 % 1015,7 hPa 0,0 mm 1,1 km/h (1 Bft) S-SW 213 ° 0 min 0,000 mm 0,0 UV-I 0 W/m² 4,8 °C 5,7 °C 3,2 km/h (1 Bft)
04.05.2017 23:10 5,7 °C 5,7 °C 94 % 1015,7 hPa 0,0 mm 2,5 km/h (1 Bft) S-SW 213 ° 0 min 0,000 mm 0,0 UV-I 0 W/m² 4,8 °C 5,7 °C 3,2 km/h (1 Bft)
04.05.2017 23:11 5,7 °C 5,7 °C 94 % 1015,6 hPa 0,0 mm 0,1 km/h (0 Bft) S-SW 213 ° 0 min 0,000 mm 0,0 UV-I 0 W/m² 4,8 °C 5,7 °C 1,6 km/h (1 Bft)
04.05.2017 23:12 5,7 °C 5,7 °C 94 % 1015,7 hPa 0,0 mm 0,0 km/h (0 Bft) S-SW 213 ° 0 min 0,000 mm 0,0 UV-I 0 W/m² 4,8 °C 5,7 °C 0,0 km/h (0 Bft)
04.05.2017 23:13 5,7 °C 5,7 °C 94 % 1015,7 hPa 0,0 mm 3,0 km/h (1 Bft) S-SW 192 ° 0 min 0,000 mm 0,0 UV-I 0 W/m² 4,8 °C 5,7 °C 8,0 km/h (2 Bft)
04.05.2017 23:14 5,7 °C 5,8 °C 94 % 1015,7 hPa 0,0 mm 2,7 km/h (1 Bft) SW 214 ° 0 min 0,000 mm 0,0 UV-I 0 W/m² 4,8 °C 5,7 °C 4,8 km/h (1 Bft)
04.05.2017 23:15 5,8 °C 5,8 °C 94 % 1015,7 hPa 0,0 mm 2,8 km/h (1 Bft) SW 231 ° 0 min 0,000 mm 0,0 UV-I 0 W/m² 4,9 °C 5,8 °C 6,4 km/h (2 Bft)
04.05.2017 23:16 5,8 °C 5,8 °C 94 % 1015,7 hPa 0,0 mm 2,5 km/h (1 Bft) S-SW 192 ° 0 min 0,000 mm 0,0 UV-I 0 W/m² 4,9 °C 5,8 °C 3,2 km/h (1 Bft)
04.05.2017 23:17 5,8 °C 5,8 °C 94 % 1015,7 hPa 0,0 mm 0,4 km/h (0 Bft) S-SW 192 ° 0 min 0,000 mm 0,0 UV-I 0 W/m² 4,9 °C 5,8 °C 1,6 km/h (1 Bft)
04.05.2017 23:18 5,8 °C 5,8 °C 94 % 1015,7 hPa 0,0 mm 2,5 km/h (1 Bft) S-SW 192 ° 0 min 0,000 mm 0,0 UV-I 0 W/m² 4,9 °C 5,8 °C 3,2 km/h (1 Bft)
04.05.2017 23:19 5,8 °C 5,8 °C 94 % 1015,7 hPa 0,0 mm 0,7 km/h (0 Bft) S-SW 192 ° 0 min 0,000 mm 0,0 UV-I 0 W/m² 4,9 °C 5,8 °C 3,2 km/h (1 Bft)
04.05.2017 23:20 5,8 °C 5,8 °C 94 % 1015,7 hPa 0,0 mm 2,8 km/h (1 Bft) S-SW 212 ° 0 min 0,000 mm 0,0 UV-I 0 W/m² 4,9 °C 5,8 °C 4,8 km/h (1 Bft)
04.05.2017 23:21 5,8 °C 5,8 °C 94 % 1015,7 hPa 0,0 mm 0,1 km/h (0 Bft) S-SW 212 ° 0 min 0,000 mm 0,0 UV-I 0 W/m² 4,9 °C 5,8 °C 1,6 km/h (1 Bft)
04.05.2017 23:22 5,8 °C 5,8 °C 93 % 1015,7 hPa 0,0 mm 4,6 km/h (1 Bft) S-SW 193 ° 0 min 0,000 mm 0,0 UV-I 0 W/m² 4,8 °C 5,1 °C 6,4 km/h (2 Bft)
04.05.2017 23:23 5,9 °C 5,9 °C 93 % 1015,7 hPa 0,0 mm 3,7 km/h (1 Bft) S 178 ° 0 min 0,000 mm 0,0 UV-I 0 W/m² 4,9 °C 5,9 °C 8,0 km/h (2 Bft)
04.05.2017 23:24 5,9 °C 5,9 °C 93 % 1015,7 hPa 0,0 mm 4,3 km/h (1 Bft) S-SW 201 ° 0 min 0,000 mm 0,0 UV-I 0 W/m² 4,9 °C 5,9 °C 8,0 km/h (2 Bft)
04.05.2017 23:25 5,9 °C 5,9 °C 93 % 1015,7 hPa 0,0 mm 3,4 km/h (1 Bft) S-SW 196 ° 0 min 0,000 mm 0,0 UV-I 0 W/m² 4,9 °C 5,9 °C 6,4 km/h (2 Bft)
04.05.2017 23:26 6,0 °C 6,0 °C 93 % 1015,7 hPa 0,0 mm 4,3 km/h (1 Bft) S-SW 211 ° 0 min 0,000 mm 0,0 UV-I 0 W/m² 5,0 °C 6,0 °C 8,0 km/h (2 Bft)
04.05.2017 23:27 6,0 °C 6,0 °C 93 % 1015,7 hPa 0,0 mm 3,0 km/h (1 Bft) S-SW 212 ° 0 min 0,000 mm 0,0 UV-I 0 W/m² 5,0 °C 6,0 °C 3,2 km/h (1 Bft)
04.05.2017 23:28 6,0 °C 6,0 °C 92 % 1015,7 hPa 0,0 mm 4,1 km/h (1 Bft) S 191 ° 0 min 0,000 mm 0,0 UV-I 0 W/m² 4,8 °C 6,0 °C 6,4 km/h (2 Bft)
04.05.2017 23:29 6,0 °C 6,0 °C 92 % 1015,7 hPa 0,0 mm 3,0 km/h (1 Bft) S-SW 195 ° 0 min 0,000 mm 0,0 UV-I 0 W/m² 4,8 °C 6,0 °C 6,4 km/h (2 Bft)
04.05.2017 23:30 6,0 °C 6,0 °C 92 % 1015,7 hPa 0,0 mm 1,5 km/h (1 Bft) S-SW 195 ° 0 min 0,000 mm 0,0 UV-I 0 W/m² 4,8 °C 6,0 °C 3,2 km/h (1 Bft)
04.05.2017 23:31 5,9 °C 6,0 °C 92 % 1015,8 hPa 0,0 mm 0,5 km/h (0 Bft) S-SW 195 ° 0 min 0,000 mm 0,0 UV-I 0 W/m² 4,7 °C 5,9 °C 1,6 km/h (1 Bft)
04.05.2017 23:32 5,9 °C 6,0 °C 92 % 1015,7 hPa 0,0 mm 0,0 km/h (0 Bft) S-SW 195 ° 0 min 0,000 mm 0,0 UV-I 0 W/m² 4,7 °C 5,9 °C 0,0 km/h (0 Bft)
04.05.2017 23:33 5,9 °C 5,9 °C 93 % 1015,8 hPa 0,0 mm 0,0 km/h (0 Bft) S-SW 195 ° 0 min 0,000 mm 0,0 UV-I 0 W/m² 4,9 °C 5,9 °C 0,0 km/h (0 Bft)
04.05.2017 23:34 5,9 °C 5,9 °C 93 % 1015,8 hPa 0,0 mm 0,1 km/h (0 Bft) S-SW 195 ° 0 min 0,000 mm 0,0 UV-I 0 W/m² 4,9 °C 5,9 °C 1,6 km/h (1 Bft)
04.05.2017 23:35 5,8 °C 5,9 °C 93 % 1015,7 hPa 0,0 mm 0,7 km/h (0 Bft) S-SW 195 ° 0 min 0,000 mm 0,0 UV-I 0 W/m² 4,8 °C 5,8 °C 1,6 km/h (1 Bft)
04.05.2017 23:36 5,8 °C 5,8 °C 93 % 1015,7 hPa 0,0 mm 1,2 km/h (1 Bft) S-SW 195 ° 0 min 0,000 mm 0,0 UV-I 0 W/m² 4,8 °C 5,8 °C 3,2 km/h (1 Bft)
04.05.2017 23:37 5,8 °C 5,8 °C 93 % 1015,7 hPa 0,0 mm 3,4 km/h (1 Bft) S-SW 195 ° 0 min 0,000 mm 0,0 UV-I 0 W/m² 4,8 °C 5,8 °C 6,4 km/h (2 Bft)
04.05.2017 23:38 5,8 °C 5,8 °C 93 % 1015,7 hPa 0,0 mm 5,6 km/h (1 Bft) S-SW 208 ° 0 min 0,000 mm 0,0 UV-I 0 W/m² 4,8 °C 4,8 °C 9,7 km/h (2 Bft)
04.05.2017 23:39 5,8 °C 5,9 °C 93 % 1015,7 hPa 0,0 mm 2,7 km/h (1 Bft) S 190 ° 0 min 0,000 mm 0,0 UV-I 0 W/m² 4,8 °C 5,8 °C 4,8 km/h (1 Bft)
04.05.2017 23:40 5,8 °C 5,9 °C 93 % 1015,7 hPa 0,0 mm 0,8 km/h (0 Bft) S 190 ° 0 min 0,000 mm 0,0 UV-I 0 W/m² 4,8 °C 5,8 °C 3,2 km/h (1 Bft)
04.05.2017 23:41 5,9 °C 5,9 °C 92 % 1015,7 hPa 0,0 mm 1,7 km/h (1 Bft) S 190 ° 0 min 0,000 mm 0,0 UV-I 0 W/m² 4,7 °C 5,9 °C 4,8 km/h (1 Bft)
04.05.2017 23:42 5,9 °C 5,9 °C 92 % 1015,7 hPa 0,0 mm 3,3 km/h (1 Bft) S 190 ° 0 min 0,000 mm 0,0 UV-I 0 W/m² 4,7 °C 5,9 °C 6,4 km/h (2 Bft)
04.05.2017 23:43 5,9 °C 5,9 °C 93 % 1015,7 hPa 0,0 mm 3,6 km/h (1 Bft) S 190 ° 0 min 0,000 mm 0,0 UV-I 0 W/m² 4,9 °C 5,9 °C 6,4 km/h (2 Bft)
04.05.2017 23:44 5,9 °C 5,9 °C 93 % 1015,7 hPa 0,0 mm 2,9 km/h (1 Bft) S 175 ° 0 min 0,000 mm 0,0 UV-I 0 W/m² 4,9 °C 5,9 °C 4,8 km/h (1 Bft)
04.05.2017 23:45 5,9 °C 5,9 °C 93 % 1015,7 hPa 0,0 mm 2,1 km/h (1 Bft) S 175 ° 0 min 0,000 mm 0,0 UV-I 0 W/m² 4,9 °C 5,9 °C 3,2 km/h (1 Bft)
04.05.2017 23:46 5,9 °C 5,9 °C 92 % 1015,7 hPa 0,0 mm 3,0 km/h (1 Bft) S 176 ° 0 min 0,000 mm 0,0 UV-I 0 W/m² 4,7 °C 5,9 °C 4,8 km/h (1 Bft)
04.05.2017 23:47 5,9 °C 5,9 °C 92 % 1015,7 hPa 0,0 mm 0,6 km/h (0 Bft) S 179 ° 0 min 0,000 mm 0,0 UV-I 0 W/m² 4,7 °C 5,9 °C 3,2 km/h (1 Bft)
04.05.2017 23:48 5,9 °C 5,9 °C 92 % 1015,7 hPa 0,0 mm 2,6 km/h (1 Bft) S 179 ° 0 min 0,000 mm 0,0 UV-I 0 W/m² 4,7 °C 5,9 °C 4,8 km/h (1 Bft)
04.05.2017 23:49 5,9 °C 5,9 °C 92 % 1015,7 hPa 0,0 mm 4,7 km/h (1 Bft) S-SW 201 ° 0 min 0,000 mm 0,0 UV-I 0 W/m² 4,7 °C 5,2 °C 8,0 km/h (2 Bft)
04.05.2017 23:50 6,0 °C 6,0 °C 92 % 1015,7 hPa 0,0 mm 2,3 km/h (1 Bft) S-SW 201 ° 0 min 0,000 mm 0,0 UV-I 0 W/m² 4,8 °C 6,0 °C 3,2 km/h (1 Bft)
04.05.2017 23:51 6,0 °C 6,1 °C 92 % 1015,7 hPa 0,0 mm 2,2 km/h (1 Bft) S-SW 201 ° 0 min 0,000 mm 0,0 UV-I 0 W/m² 4,8 °C 6,0 °C 3,2 km/h (1 Bft)
04.05.2017 23:52 6,0 °C 6,0 °C 91 % 1015,7 hPa 0,0 mm 3,1 km/h (1 Bft) S-SW 201 ° 0 min 0,000 mm 0,0 UV-I 0 W/m² 4,6 °C 6,0 °C 4,8 km/h (1 Bft)
04.05.2017 23:53 6,1 °C 6,1 °C 91 % 1015,7 hPa 0,0 mm 1,5 km/h (1 Bft) S-SW 200 ° 0 min 0,000 mm 0,0 UV-I 0 W/m² 4,7 °C 6,1 °C 3,2 km/h (1 Bft)
04.05.2017 23:54 6,1 °C 6,1 °C 91 % 1015,7 hPa 0,0 mm 5,0 km/h (1 Bft) S-SW 196 ° 0 min 0,000 mm 0,0 UV-I 0 W/m² 4,7 °C 5,3 °C 9,7 km/h (2 Bft)
04.05.2017 23:55 6,1 °C 6,1 °C 91 % 1015,7 hPa 0,0 mm 5,0 km/h (1 Bft) S-SW 206 ° 0 min 0,000 mm 0,0 UV-I 0 W/m² 4,7 °C 5,3 °C 8,0 km/h (2 Bft)
04.05.2017 23:56 6,2 °C 6,2 °C 90 % 1015,8 hPa 0,0 mm 4,7 km/h (1 Bft) S-SW 203 ° 0 min 0,000 mm 0,0 UV-I 0 W/m² 4,7 °C 5,6 °C 9,7 km/h (2 Bft)
04.05.2017 23:57 6,2 °C 6,2 °C 91 % 1015,8 hPa 0,0 mm 4,9 km/h (1 Bft) S-SW 203 ° 0 min 0,000 mm 0,0 UV-I 0 W/m² 4,8 °C 5,5 °C 6,4 km/h (2 Bft)
04.05.2017 23:58 6,2 °C 6,2 °C 90 % 1015,7 hPa 0,0 mm 4,2 km/h (1 Bft) S 191 ° 0 min 0,000 mm 0,0 UV-I 0 W/m² 4,7 °C 6,2 °C 4,8 km/h (1 Bft)
04.05.2017 23:59 6,2 °C 6,2 °C 90 % 1015,8 hPa 0,0 mm 5,4 km/h (1 Bft) S-SW 195 ° 0 min 0,000 mm 0,0 UV-I 0 W/m² 4,7 °C 5,3 °C 8,0 km/h (2 Bft)
_ Min-Zeit 06:33 06:31 13:08 13:37 - 23:33 - - - - - - 06:33 06:33 23:33
Minimum _ 2,6 °C 2,6 °C 67 % 1012,1 hPa - 0,0 km/h (0 Bft) - - - - - - 1,9 °C 2,6 °C 0,0 km/h (0 Bft)
_ Max-Zeit 13:16 13:17 06:59 23:59 18:26 17:42 - - 14:49 15:01 13:08 13:08 14:44 13:16 17:39
Maximum _ 12,6 °C 12,6 °C 96 % 1015,8 hPa 0,2 mm 26,6 km/h
W-NW (4 Bft)
- - 1 min 0,229 mm 6,6 UV-I 1102 W/m² 8,3 °C 12,6 °C 33,8 km/h
SW (5 Bft)
Durchschnitt _ 6,6 °C 6,6 °C 89 % 1014,3 hPa #3,4 mm 2,2 km/h (1 Bft) W-SW - #4:38 h #1,499 mm 2,0 UV-I 124 W/m² 4,8 °C 6,5 °C 3,7 km/h (1 Bft)